<?xml version='1.0' encoding='UTF-8'?><gpx version="1.1" creator="JPX - https://github.com/jenetics/jpx" xmlns="http://www.topografix.com/GPX/1/1"><trk><trkseg><trkpt lat="37.62117287401146" lon="-4.327242114188973"><ele>402.0</ele><time>2026-04-19T07:29:40.998Z</time></trkpt><trkpt lat="37.62125888516397" lon="-4.32724245771445"><ele>402.0</ele><time>2026-04-19T07:29:43.998Z</time></trkpt><trkpt lat="37.62134433124147" lon="-4.327237660276379"><ele>402.0</ele><time>2026-04-19T07:29:46.998Z</time></trkpt><trkpt lat="37.62140781644808" lon="-4.327200672318627"><ele>402.0</ele><time>2026-04-19T07:29:48.998Z</time></trkpt><trkpt lat="37.621460571784326" lon="-4.327105706152771"><ele>402.0</ele><time>2026-04-19T07:29:51.998Z</time></trkpt><trkpt lat="37.62149706940238" lon="-4.3270228357996485"><ele>402.0</ele><time>2026-04-19T07:29:54.998Z</time></trkpt><trkpt lat="37.62153517269773" lon="-4.32694034286288"><ele>402.5</ele><time>2026-04-19T07:29:57.998Z</time></trkpt><trkpt lat="37.62158146983661" lon="-4.326851334921306"><ele>403.0</ele><time>2026-04-19T07:30:00.997Z</time></trkpt><trkpt lat="37.6216315875614" lon="-4.32676856599824"><ele>403.5</ele><time>2026-04-19T07:30:03.997Z</time></trkpt><trkpt lat="37.62167459335377" lon="-4.32668783265327"><ele>404.0</ele><time>2026-04-19T07:30:06.997Z</time></trkpt><trkpt lat="37.62172296464142" lon="-4.326602939165458"><ele>404.5</ele><time>2026-04-19T07:30:09.997Z</time></trkpt><trkpt lat="37.62176911217543" lon="-4.326521068251407"><ele>405.0</ele><time>2026-04-19T07:30:12.997Z</time></trkpt><trkpt lat="37.621820026766784" lon="-4.326433818896405"><ele>405.0</ele><time>2026-04-19T07:30:15.997Z</time></trkpt><trkpt lat="37.6218625712974" lon="-4.32634425618435"><ele>405.0</ele><time>2026-04-19T07:30:18.997Z</time></trkpt><trkpt lat="37.62189797186966" lon="-4.32626873125912"><ele>405.0</ele><time>2026-04-19T07:30:21.997Z</time></trkpt><trkpt lat="37.621945404774245" lon="-4.3261816098816555"><ele>405.0</ele><time>2026-04-19T07:30:24.997Z</time></trkpt><trkpt lat="37.62199048545782" lon="-4.326091663847948"><ele>405.0</ele><time>2026-04-19T07:30:27.997Z</time></trkpt><trkpt lat="37.62203767379098" lon="-4.326004669081185"><ele>405.0</ele><time>2026-04-19T07:30:30.997Z</time></trkpt><trkpt lat="37.62207636226042" lon="-4.325938064206044"><ele>405.0</ele><time>2026-04-19T07:30:32.997Z</time></trkpt><trkpt lat="37.62211902091362" lon="-4.325840984726902"><ele>405.0</ele><time>2026-04-19T07:30:35.997Z</time></trkpt><trkpt lat="37.62216842197975" lon="-4.325755134708837"><ele>405.0</ele><time>2026-04-19T07:30:38.999Z</time></trkpt><trkpt lat="37.62221651758752" lon="-4.325659545553545"><ele>405.0</ele><time>2026-04-19T07:30:41.999Z</time></trkpt><trkpt lat="37.62226444821771" lon="-4.325569959320241"><ele>405.0</ele><time>2026-04-19T07:30:44.999Z</time></trkpt><trkpt lat="37.6223086663944" lon="-4.325488867218578"><ele>405.0</ele><time>2026-04-19T07:30:47.999Z</time></trkpt><trkpt lat="37.622346877466235" lon="-4.325399213678603"><ele>405.1666666666667</ele><time>2026-04-19T07:30:50.999Z</time></trkpt><trkpt lat="37.622382533351555" lon="-4.325317360929733"><ele>405.33333333333337</ele><time>2026-04-19T07:30:53.999Z</time></trkpt><trkpt lat="37.62242075620307" lon="-4.325240983457232"><ele>405.5</ele><time>2026-04-19T07:30:56.999Z</time></trkpt><trkpt lat="37.62246292372404" lon="-4.325149443008804"><ele>405.6666666666667</ele><time>2026-04-19T07:30:59.999Z</time></trkpt><trkpt lat="37.622510555514964" lon="-4.325057942415622"><ele>405.83333333333337</ele><time>2026-04-19T07:31:02.999Z</time></trkpt><trkpt lat="37.62255546033982" lon="-4.324967370461622"><ele>406.0</ele><time>2026-04-19T07:31:05.999Z</time></trkpt><trkpt lat="37.62260017419118" lon="-4.324879420697046"><ele>406.00000000000006</ele><time>2026-04-19T07:31:08.999Z</time></trkpt><trkpt lat="37.62264869386376" lon="-4.324788839313787"><ele>406.0</ele><time>2026-04-19T07:31:11.999Z</time></trkpt><trkpt lat="37.62269449050553" lon="-4.324697152091454"><ele>406.0</ele><time>2026-04-19T07:31:14.999Z</time></trkpt><trkpt lat="37.62274826807716" lon="-4.324604758757286"><ele>406.0</ele><time>2026-04-19T07:31:17.999Z</time></trkpt><trkpt lat="37.62279346936926" lon="-4.324508691415291"><ele>406.00000000000006</ele><time>2026-04-19T07:31:20.999Z</time></trkpt><trkpt lat="37.62284156653694" lon="-4.324413314659863"><ele>406.0</ele><time>2026-04-19T07:31:23.999Z</time></trkpt><trkpt lat="37.622884278890574" lon="-4.324322121121606"><ele>407.00000000000006</ele><time>2026-04-19T07:31:26.999Z</time></trkpt><trkpt lat="37.62292408053798" lon="-4.324229070079802"><ele>408.0</ele><time>2026-04-19T07:31:29.999Z</time></trkpt><trkpt lat="37.62295864979457" lon="-4.324127596913474"><ele>409.0</ele><time>2026-04-19T07:31:32.999Z</time></trkpt><trkpt lat="37.62296983607878" lon="-4.324022703395444"><ele>410.0</ele><time>2026-04-19T07:31:35.999Z</time></trkpt><trkpt lat="37.622944698619165" lon="-4.323911834236645"><ele>411.00000000000006</ele><time>2026-04-19T07:31:38.999Z</time></trkpt><trkpt lat="37.622944304897246" lon="-4.323825430461037"><ele>412.0</ele><time>2026-04-19T07:31:40.999Z</time></trkpt><trkpt lat="37.62296190008466" lon="-4.3237359219052145"><ele>411.99999999999994</ele><time>2026-04-19T07:31:42.999Z</time></trkpt><trkpt lat="37.62299940981495" lon="-4.323657624128078"><ele>412.0</ele><time>2026-04-19T07:31:44.999Z</time></trkpt><trkpt lat="37.62305644718036" lon="-4.323594861661844"><ele>412.0</ele><time>2026-04-19T07:31:46.999Z</time></trkpt><trkpt lat="37.623133702593194" lon="-4.32358265487979"><ele>412.0</ele><time>2026-04-19T07:31:48.998Z</time></trkpt><trkpt lat="37.62321050581061" lon="-4.323597189478287"><ele>412.0</ele><time>2026-04-19T07:31:50.998Z</time></trkpt><trkpt lat="37.623281421549905" lon="-4.323588604933943"><ele>411.99999999999994</ele><time>2026-04-19T07:31:52.998Z</time></trkpt><trkpt lat="37.62334094908252" lon="-4.3235434120914595"><ele>412.0</ele><time>2026-04-19T07:31:54.998Z</time></trkpt><trkpt lat="37.623389703406055" lon="-4.323490627856023"><ele>412.00000000000006</ele><time>2026-04-19T07:31:56.998Z</time></trkpt><trkpt lat="37.62344905359108" lon="-4.323432647650657"><ele>412.0</ele><time>2026-04-19T07:31:58.998Z</time></trkpt><trkpt lat="37.62351024202248" lon="-4.323370202120532"><ele>412.0</ele><time>2026-04-19T07:32:00.998Z</time></trkpt><trkpt lat="37.623570588283826" lon="-4.323302585745356"><ele>412.0</ele><time>2026-04-19T07:32:02.998Z</time></trkpt><trkpt lat="37.623638393064425" lon="-4.3232390672042715"><ele>412.00000000000006</ele><time>2026-04-19T07:32:04.998Z</time></trkpt><trkpt lat="37.62370472374902" lon="-4.32318100621455"><ele>412.0</ele><time>2026-04-19T07:32:06.998Z</time></trkpt><trkpt lat="37.62376124798039" lon="-4.323119722899413"><ele>411.4285714285714</ele><time>2026-04-19T07:32:08.998Z</time></trkpt><trkpt lat="37.623822344662265" lon="-4.32305974428999"><ele>410.85714285714283</ele><time>2026-04-19T07:32:10.998Z</time></trkpt><trkpt lat="37.62387423818462" lon="-4.323005372736941"><ele>410.2857142857143</ele><time>2026-04-19T07:32:12.998Z</time></trkpt><trkpt lat="37.62392925848672" lon="-4.32294906159612"><ele>409.71428571428567</ele><time>2026-04-19T07:32:14.998Z</time></trkpt><trkpt lat="37.62398137926738" lon="-4.32288964879732"><ele>409.14285714285717</ele><time>2026-04-19T07:32:16.998Z</time></trkpt><trkpt lat="37.62403512077148" lon="-4.322836450849844"><ele>408.57142857142856</ele><time>2026-04-19T07:32:18.998Z</time></trkpt><trkpt lat="37.624093574879865" lon="-4.322780254442723"><ele>408.0</ele><time>2026-04-19T07:32:20.998Z</time></trkpt><trkpt lat="37.62414959938887" lon="-4.322726053748344"><ele>408.0</ele><time>2026-04-19T07:32:22.998Z</time></trkpt><trkpt lat="37.62419535273431" lon="-4.322669323572937"><ele>408.0</ele><time>2026-04-19T07:32:24.998Z</time></trkpt><trkpt lat="37.62424360528662" lon="-4.322567622774589"><ele>408.0</ele><time>2026-04-19T07:32:27.998Z</time></trkpt><trkpt lat="37.62424745505773" lon="-4.322454946712399"><ele>408.0</ele><time>2026-04-19T07:32:30.998Z</time></trkpt><trkpt lat="37.62423744441189" lon="-4.322364072176727"><ele>408.0</ele><time>2026-04-19T07:32:32.997Z</time></trkpt><trkpt lat="37.62422723636914" lon="-4.322276088834409"><ele>408.0</ele><time>2026-04-19T07:32:34.997Z</time></trkpt><trkpt lat="37.62420682014103" lon="-4.32218537496185"><ele>408.0</ele><time>2026-04-19T07:32:37.997Z</time></trkpt><trkpt lat="37.624175737574" lon="-4.322110800286794"><ele>408.0</ele><time>2026-04-19T07:32:44Z</time></trkpt><trkpt lat="37.624145913217085" lon="-4.322029674484292"><ele>408.0</ele><time>2026-04-19T07:32:49Z</time></trkpt><trkpt lat="37.624177672577204" lon="-4.322108555271384"><ele>408.0</ele><time>2026-04-19T07:32:53Z</time></trkpt><trkpt lat="37.62418529594622" lon="-4.322204240367906"><ele>408.0</ele><time>2026-04-19T07:33:44.999Z</time></trkpt><trkpt lat="37.624270001140374" lon="-4.32222718344752"><ele>408.0</ele><time>2026-04-19T07:35:25.999Z</time></trkpt><trkpt lat="37.62427393034192" lon="-4.322323233521562"><ele>408.0</ele><time>2026-04-19T07:35:28.999Z</time></trkpt><trkpt lat="37.62429905659894" lon="-4.322406288385928"><ele>408.0</ele><time>2026-04-19T07:35:31.999Z</time></trkpt><trkpt lat="37.624365208168356" lon="-4.322447518149839"><ele>408.0</ele><time>2026-04-19T07:35:34.999Z</time></trkpt><trkpt lat="37.62443803256495" lon="-4.32242071120482"><ele>408.0</ele><time>2026-04-19T07:35:37.999Z</time></trkpt><trkpt lat="37.62449387379561" lon="-4.3223728131777825"><ele>408.0</ele><time>2026-04-19T07:35:39.999Z</time></trkpt><trkpt lat="37.62456244775844" lon="-4.322310522650136"><ele>408.0</ele><time>2026-04-19T07:35:41.999Z</time></trkpt><trkpt lat="37.624625912098175" lon="-4.322245400163922"><ele>408.0</ele><time>2026-04-19T07:35:43.999Z</time></trkpt><trkpt lat="37.62469067941305" lon="-4.322180581572356"><ele>409.0</ele><time>2026-04-19T07:35:45.999Z</time></trkpt><trkpt lat="37.6247589844564" lon="-4.322118639432494"><ele>410.0</ele><time>2026-04-19T07:35:47.999Z</time></trkpt><trkpt lat="37.624831627151416" lon="-4.322061800933445"><ele>411.0</ele><time>2026-04-19T07:35:49.999Z</time></trkpt><trkpt lat="37.62490910111259" lon="-4.322090459925347"><ele>412.0</ele><time>2026-04-19T07:35:51.999Z</time></trkpt><trkpt lat="37.62497516678941" lon="-4.322122215631353"><ele>413.0</ele><time>2026-04-19T07:35:53.999Z</time></trkpt><trkpt lat="37.625025220466135" lon="-4.322055784244322"><ele>414.0</ele><time>2026-04-19T07:35:55.999Z</time></trkpt><trkpt lat="37.625079644252956" lon="-4.321984765543658"><ele>414.0</ele><time>2026-04-19T07:35:57.999Z</time></trkpt><trkpt lat="37.62514058868872" lon="-4.321919429125869"><ele>414.0</ele><time>2026-04-19T07:35:59.999Z</time></trkpt><trkpt lat="37.62520292701215" lon="-4.321851108215537"><ele>414.0</ele><time>2026-04-19T07:36:01.999Z</time></trkpt><trkpt lat="37.625266209203545" lon="-4.321791408511968"><ele>414.0</ele><time>2026-04-19T07:36:03.999Z</time></trkpt><trkpt lat="37.62532535907614" lon="-4.321734887264275"><ele>414.0</ele><time>2026-04-19T07:36:05.999Z</time></trkpt><trkpt lat="37.62538334582597" lon="-4.321676846772315"><ele>414.0</ele><time>2026-04-19T07:36:07.998Z</time></trkpt><trkpt lat="37.62544792997259" lon="-4.321618252210951"><ele>414.14285714285717</ele><time>2026-04-19T07:36:09.998Z</time></trkpt><trkpt lat="37.625510943991046" lon="-4.321555368423326"><ele>414.2857142857143</ele><time>2026-04-19T07:36:11.998Z</time></trkpt><trkpt lat="37.62557332047465" lon="-4.321504714900153"><ele>414.42857142857144</ele><time>2026-04-19T07:36:13.998Z</time></trkpt><trkpt lat="37.62563858323812" lon="-4.321468711804826"><ele>414.57142857142856</ele><time>2026-04-19T07:36:15.998Z</time></trkpt><trkpt lat="37.62570938974448" lon="-4.321469207901654"><ele>414.7142857142857</ele><time>2026-04-19T07:36:17.998Z</time></trkpt><trkpt lat="37.62578347743294" lon="-4.3214718546459805"><ele>414.8571428571429</ele><time>2026-04-19T07:36:20.998Z</time></trkpt><trkpt lat="37.62586193054126" lon="-4.321469865950715"><ele>415.0</ele><time>2026-04-19T07:36:23.998Z</time></trkpt><trkpt lat="37.62594514074406" lon="-4.32146746086877"><ele>415.00000000000006</ele><time>2026-04-19T07:36:26.998Z</time></trkpt><trkpt lat="37.62603216553994" lon="-4.321463552048556"><ele>415.0</ele><time>2026-04-19T07:36:29.998Z</time></trkpt><trkpt lat="37.626105805143496" lon="-4.3214666865697"><ele>415.0</ele><time>2026-04-19T07:36:32.998Z</time></trkpt><trkpt lat="37.6261831217943" lon="-4.321466311584816"><ele>415.0</ele><time>2026-04-19T07:36:35.998Z</time></trkpt><trkpt lat="37.62626258115424" lon="-4.3214518409647695"><ele>415.00000000000006</ele><time>2026-04-19T07:36:38.998Z</time></trkpt><trkpt lat="37.62633755095241" lon="-4.321443169705117"><ele>415.0</ele><time>2026-04-19T07:36:41.998Z</time></trkpt><trkpt lat="37.62641825702009" lon="-4.321426900048345"><ele>417.1666666666667</ele><time>2026-04-19T07:36:44.998Z</time></trkpt><trkpt lat="37.62650196052697" lon="-4.321416567818479"><ele>419.33333333333337</ele><time>2026-04-19T07:36:47.998Z</time></trkpt><trkpt lat="37.62657300936323" lon="-4.321431335992241"><ele>421.5</ele><time>2026-04-19T07:36:50.998Z</time></trkpt><trkpt lat="37.626646008159604" lon="-4.321444650969717"><ele>423.66666666666663</ele><time>2026-04-19T07:36:53.997Z</time></trkpt><trkpt lat="37.62672127019267" lon="-4.321447921054807"><ele>425.8333333333333</ele><time>2026-04-19T07:36:57Z</time></trkpt><trkpt lat="37.626795410202504" lon="-4.321440948445101"><ele>428.0</ele><time>2026-04-19T07:37:00Z</time></trkpt><trkpt lat="37.626874348572535" lon="-4.321444891536209"><ele>427.99999999999994</ele><time>2026-04-19T07:37:03Z</time></trkpt><trkpt lat="37.626939348350895" lon="-4.321480633308441"><ele>428.0</ele><time>2026-04-19T07:37:06Z</time></trkpt><trkpt lat="37.62696983378082" lon="-4.32157301725092"><ele>428.0</ele><time>2026-04-19T07:37:09Z</time></trkpt><trkpt lat="37.62691743691141" lon="-4.321653015051902"><ele>428.0</ele><time>2026-04-19T07:37:12Z</time></trkpt><trkpt lat="37.626883450539246" lon="-4.321753690505951"><ele>427.99999999999994</ele><time>2026-04-19T07:37:16Z</time></trkpt><trkpt lat="37.62687094503956" lon="-4.321846797522621"><ele>428.0</ele><time>2026-04-19T07:37:19Z</time></trkpt><trkpt lat="37.62684771150856" lon="-4.321934647942047"><ele>427.99999999999994</ele><time>2026-04-19T07:37:22Z</time></trkpt><trkpt lat="37.62679880166822" lon="-4.322015575058071"><ele>428.0</ele><time>2026-04-19T07:37:25Z</time></trkpt><trkpt lat="37.62675474598549" lon="-4.322096087842522"><ele>428.0</ele><time>2026-04-19T07:37:28Z</time></trkpt><trkpt lat="37.626704710846425" lon="-4.322178591397869"><ele>428.0</ele><time>2026-04-19T07:37:31Z</time></trkpt><trkpt lat="37.62665967032332" lon="-4.32226027102379"><ele>427.99999999999994</ele><time>2026-04-19T07:37:33.999Z</time></trkpt><trkpt lat="37.62661494975163" lon="-4.322339784439046"><ele>428.0</ele><time>2026-04-19T07:37:36.999Z</time></trkpt><trkpt lat="37.62659022303171" lon="-4.322440753949816"><ele>428.99999999999994</ele><time>2026-04-19T07:37:39.999Z</time></trkpt><trkpt lat="37.62655458016515" lon="-4.32253458971328"><ele>430.0</ele><time>2026-04-19T07:37:43.999Z</time></trkpt><trkpt lat="37.62650716210973" lon="-4.32261123043924"><ele>431.0</ele><time>2026-04-19T07:37:46.999Z</time></trkpt><trkpt lat="37.62645640629385" lon="-4.3226922465411315"><ele>432.0</ele><time>2026-04-19T07:37:49.999Z</time></trkpt><trkpt lat="37.62642272677182" lon="-4.322760635914589"><ele>432.99999999999994</ele><time>2026-04-19T07:37:51.999Z</time></trkpt><trkpt lat="37.62637799109169" lon="-4.322853747576888"><ele>434.0</ele><time>2026-04-19T07:37:54.999Z</time></trkpt><trkpt lat="37.626329645271255" lon="-4.322945960459635"><ele>433.99999999999994</ele><time>2026-04-19T07:37:57.999Z</time></trkpt><trkpt lat="37.626296866415764" lon="-4.323023953525797"><ele>434.0</ele><time>2026-04-19T07:37:59.999Z</time></trkpt><trkpt lat="37.62626451030324" lon="-4.323127858780868"><ele>434.0</ele><time>2026-04-19T07:38:02.999Z</time></trkpt><trkpt lat="37.62623048727217" lon="-4.3232384672016595"><ele>434.0</ele><time>2026-04-19T07:38:05.999Z</time></trkpt><trkpt lat="37.62619804596015" lon="-4.3233249701801215"><ele>433.99999999999994</ele><time>2026-04-19T07:38:07.999Z</time></trkpt><trkpt lat="37.626168388669804" lon="-4.323406970870351"><ele>434.0</ele><time>2026-04-19T07:38:09.999Z</time></trkpt><trkpt lat="37.626151328075615" lon="-4.3235243580527865"><ele>433.85714285714283</ele><time>2026-04-19T07:38:12.999Z</time></trkpt><trkpt lat="37.62614483211165" lon="-4.323608016613842"><ele>433.7142857142857</ele><time>2026-04-19T07:38:14.999Z</time></trkpt><trkpt lat="37.62615776074451" lon="-4.32369386867886"><ele>433.57142857142856</ele><time>2026-04-19T07:38:16.999Z</time></trkpt><trkpt lat="37.62616230286986" lon="-4.323783101303298"><ele>433.42857142857144</ele><time>2026-04-19T07:38:18.998Z</time></trkpt><trkpt lat="37.6261655442294" lon="-4.323874858926573"><ele>433.2857142857143</ele><time>2026-04-19T07:38:20.998Z</time></trkpt><trkpt lat="37.62616134991475" lon="-4.323972736657031"><ele>433.1428571428571</ele><time>2026-04-19T07:38:22.998Z</time></trkpt><trkpt lat="37.626166677917524" lon="-4.324077273173893"><ele>433.0</ele><time>2026-04-19T07:38:25.998Z</time></trkpt><trkpt lat="37.626186068156194" lon="-4.3241646668773885"><ele>431.33333333333337</ele><time>2026-04-19T07:38:28.998Z</time></trkpt><trkpt lat="37.6262431613392" lon="-4.324223340593241"><ele>429.6666666666667</ele><time>2026-04-19T07:38:32.998Z</time></trkpt><trkpt lat="37.6262960360259" lon="-4.324166272004371"><ele>428.0</ele><time>2026-04-19T07:38:34.998Z</time></trkpt><trkpt lat="37.62636788182249" lon="-4.3241042551641735"><ele>426.33333333333337</ele><time>2026-04-19T07:38:37.998Z</time></trkpt><trkpt lat="37.62645067696113" lon="-4.324094407801891"><ele>424.6666666666667</ele><time>2026-04-19T07:38:39.998Z</time></trkpt><trkpt lat="37.626533216438936" lon="-4.324081338716606"><ele>423.0</ele><time>2026-04-19T07:38:41.998Z</time></trkpt><trkpt lat="37.62662228373333" lon="-4.324065574874572"><ele>423.0</ele><time>2026-04-19T07:38:43.998Z</time></trkpt><trkpt lat="37.62674072913819" lon="-4.324050778298466"><ele>423.0</ele><time>2026-04-19T07:38:45.998Z</time></trkpt><trkpt lat="37.62680650332028" lon="-4.324047301996143"><ele>423.0</ele><time>2026-04-19T07:38:46.998Z</time></trkpt><trkpt lat="37.62689902353516" lon="-4.324048814696159"><ele>423.0</ele><time>2026-04-19T07:38:48.998Z</time></trkpt><trkpt lat="37.62697784473657" lon="-4.324054490896534"><ele>423.0</ele><time>2026-04-19T07:38:50.998Z</time></trkpt><trkpt lat="37.62706332073592" lon="-4.324036334916878"><ele>423.0</ele><time>2026-04-19T07:38:52.998Z</time></trkpt><trkpt lat="37.62714963202499" lon="-4.32403949882067"><ele>422.1666666666667</ele><time>2026-04-19T07:38:54.998Z</time></trkpt><trkpt lat="37.62721866874407" lon="-4.324114067012913"><ele>421.33333333333337</ele><time>2026-04-19T07:38:56.998Z</time></trkpt><trkpt lat="37.62726737237334" lon="-4.324198391423512"><ele>420.5</ele><time>2026-04-19T07:38:58.998Z</time></trkpt><trkpt lat="37.62732186948226" lon="-4.324261781278002"><ele>419.6666666666667</ele><time>2026-04-19T07:39:01Z</time></trkpt><trkpt lat="37.62737724475661" lon="-4.324315987720135"><ele>418.83333333333337</ele><time>2026-04-19T07:39:03Z</time></trkpt><trkpt lat="37.6274468704619" lon="-4.324338398622451"><ele>418.0</ele><time>2026-04-19T07:39:05Z</time></trkpt><trkpt lat="37.6275190294976" lon="-4.3243843380179685"><ele>418.00000000000006</ele><time>2026-04-19T07:39:08Z</time></trkpt><trkpt lat="37.627592270658525" lon="-4.32442935591145"><ele>418.0</ele><time>2026-04-19T07:39:11Z</time></trkpt><trkpt lat="37.62767545472529" lon="-4.3244330736573"><ele>418.0</ele><time>2026-04-19T07:39:14Z</time></trkpt><trkpt lat="37.62775783101858" lon="-4.324432130952071"><ele>418.0</ele><time>2026-04-19T07:39:17Z</time></trkpt><trkpt lat="37.627824601807184" lon="-4.324434663334491"><ele>418.00000000000006</ele><time>2026-04-19T07:39:19Z</time></trkpt><trkpt lat="37.62789579737534" lon="-4.324434396742462"><ele>418.0</ele><time>2026-04-19T07:39:21Z</time></trkpt><trkpt lat="37.62797456592081" lon="-4.324430002424975"><ele>417.6666666666667</ele><time>2026-04-19T07:39:23Z</time></trkpt><trkpt lat="37.62806113827727" lon="-4.324433389983304"><ele>417.33333333333337</ele><time>2026-04-19T07:39:25Z</time></trkpt><trkpt lat="37.62818638498849" lon="-4.324440559313871"><ele>417.0</ele><time>2026-04-19T07:39:27Z</time></trkpt><trkpt lat="37.62825847132866" lon="-4.324440249841734"><ele>416.66666666666663</ele><time>2026-04-19T07:39:28Z</time></trkpt><trkpt lat="37.62833026471956" lon="-4.324433419323447"><ele>416.3333333333333</ele><time>2026-04-19T07:39:29Z</time></trkpt><trkpt lat="37.62840104949615" lon="-4.324429831085114"><ele>416.0</ele><time>2026-04-19T07:39:30Z</time></trkpt><trkpt lat="37.62848008503175" lon="-4.324427979321919"><ele>415.99999999999994</ele><time>2026-04-19T07:39:31Z</time></trkpt><trkpt lat="37.62855147761578" lon="-4.324426964376157"><ele>416.0</ele><time>2026-04-19T07:39:32Z</time></trkpt><trkpt lat="37.62862319650068" lon="-4.324429145846789"><ele>416.0</ele><time>2026-04-19T07:39:33Z</time></trkpt><trkpt lat="37.62869355426902" lon="-4.324425134479439"><ele>416.0</ele><time>2026-04-19T07:39:34Z</time></trkpt><trkpt lat="37.62881554823566" lon="-4.324430077730824"><ele>415.99999999999994</ele><time>2026-04-19T07:39:36Z</time></trkpt><trkpt lat="37.62891559385973" lon="-4.324424635089905"><ele>416.0</ele><time>2026-04-19T07:39:38Z</time></trkpt><trkpt lat="37.62899709575877" lon="-4.3244220715546176"><ele>415.57142857142856</ele><time>2026-04-19T07:39:40Z</time></trkpt><trkpt lat="37.6290680394281" lon="-4.324417016109867"><ele>415.14285714285717</ele><time>2026-04-19T07:39:42Z</time></trkpt><trkpt lat="37.62913969020858" lon="-4.324424072359517"><ele>414.7142857142857</ele><time>2026-04-19T07:39:43.999Z</time></trkpt><trkpt lat="37.6292159187801" lon="-4.32441590274914"><ele>414.2857142857143</ele><time>2026-04-19T07:39:45.999Z</time></trkpt><trkpt lat="37.62928146917082" lon="-4.324458793004415"><ele>413.8571428571429</ele><time>2026-04-19T07:39:48.999Z</time></trkpt><trkpt lat="37.629361484552724" lon="-4.324461521277746"><ele>413.42857142857144</ele><time>2026-04-19T07:39:51.999Z</time></trkpt><trkpt lat="37.629426646213865" lon="-4.324456490067952"><ele>413.0</ele><time>2026-04-19T07:39:53.999Z</time></trkpt><trkpt lat="37.629526181588176" lon="-4.324458930281116"><ele>414.0</ele><time>2026-04-19T07:39:56.999Z</time></trkpt><trkpt lat="37.62959723222371" lon="-4.3244690716255265"><ele>415.0</ele><time>2026-04-19T07:39:58.999Z</time></trkpt><trkpt lat="37.62966104758948" lon="-4.324476319782008"><ele>416.0</ele><time>2026-04-19T07:40:00.999Z</time></trkpt><trkpt lat="37.62973624570839" lon="-4.324481196833073"><ele>417.0</ele><time>2026-04-19T07:40:02.999Z</time></trkpt><trkpt lat="37.6298040047048" lon="-4.324484519805224"><ele>418.0</ele><time>2026-04-19T07:40:04.999Z</time></trkpt><trkpt lat="37.62987044895725" lon="-4.324488754652797"><ele>419.0</ele><time>2026-04-19T07:40:06.999Z</time></trkpt><trkpt lat="37.62993862383654" lon="-4.324493107479823"><ele>420.0</ele><time>2026-04-19T07:40:08.999Z</time></trkpt><trkpt lat="37.63000517049168" lon="-4.324495588453036"><ele>420.0</ele><time>2026-04-19T07:40:10.999Z</time></trkpt><trkpt lat="37.63007061153291" lon="-4.324495413519165"><ele>420.0</ele><time>2026-04-19T07:40:12.999Z</time></trkpt><trkpt lat="37.63016725335584" lon="-4.3244911691039345"><ele>420.0</ele><time>2026-04-19T07:40:15.999Z</time></trkpt><trkpt lat="37.63023109443634" lon="-4.32449049795491"><ele>420.0</ele><time>2026-04-19T07:40:17.999Z</time></trkpt><trkpt lat="37.63032259857419" lon="-4.324501816243066"><ele>420.0</ele><time>2026-04-19T07:40:20.999Z</time></trkpt><trkpt lat="37.63040875161899" lon="-4.324528724404489"><ele>420.0</ele><time>2026-04-19T07:40:23.999Z</time></trkpt><trkpt lat="37.63047131316127" lon="-4.324539653171102"><ele>420.5</ele><time>2026-04-19T07:40:25.999Z</time></trkpt><trkpt lat="37.63053703422101" lon="-4.32455178724126"><ele>421.0</ele><time>2026-04-19T07:40:27.999Z</time></trkpt><trkpt lat="37.6306019037006" lon="-4.324564236817715"><ele>421.5</ele><time>2026-04-19T07:40:29.998Z</time></trkpt><trkpt lat="37.630668080964554" lon="-4.324574159138743"><ele>422.0</ele><time>2026-04-19T07:40:31.998Z</time></trkpt><trkpt lat="37.630760253525054" lon="-4.324587007659289"><ele>422.5</ele><time>2026-04-19T07:40:34.998Z</time></trkpt><trkpt lat="37.630852818150956" lon="-4.3245883135395475"><ele>423.0</ele><time>2026-04-19T07:40:37.998Z</time></trkpt><trkpt lat="37.630939914020196" lon="-4.324590285831154"><ele>423.0</ele><time>2026-04-19T07:40:40.998Z</time></trkpt><trkpt lat="37.63103440991634" lon="-4.324595829571736"><ele>423.0</ele><time>2026-04-19T07:40:43.998Z</time></trkpt><trkpt lat="37.631099245326524" lon="-4.324608328106252"><ele>423.0</ele><time>2026-04-19T07:40:45.998Z</time></trkpt><trkpt lat="37.6311637468236" lon="-4.324631797938059"><ele>423.0</ele><time>2026-04-19T07:40:47.998Z</time></trkpt><trkpt lat="37.63123139317362" lon="-4.324643889895697"><ele>423.0</ele><time>2026-04-19T07:40:49.998Z</time></trkpt><trkpt lat="37.63130607571549" lon="-4.324637147303901"><ele>423.0</ele><time>2026-04-19T07:40:51.998Z</time></trkpt><trkpt lat="37.63139420203913" lon="-4.324622384646361"><ele>423.5</ele><time>2026-04-19T07:40:54.998Z</time></trkpt><trkpt lat="37.63148259155645" lon="-4.32460823867883"><ele>424.0</ele><time>2026-04-19T07:40:57.998Z</time></trkpt><trkpt lat="37.63157735072901" lon="-4.324606571545915"><ele>424.5</ele><time>2026-04-19T07:41:00.998Z</time></trkpt><trkpt lat="37.631669356163734" lon="-4.324647705690366"><ele>425.0</ele><time>2026-04-19T07:41:03.998Z</time></trkpt><trkpt lat="37.631741545048015" lon="-4.324658873826011"><ele>425.5</ele><time>2026-04-19T07:41:05.998Z</time></trkpt><trkpt lat="37.63181720144303" lon="-4.324651963860273"><ele>426.0</ele><time>2026-04-19T07:41:08Z</time></trkpt><trkpt lat="37.63190478878807" lon="-4.324670349248983"><ele>425.6</ele><time>2026-04-19T07:41:10Z</time></trkpt><trkpt lat="37.632001873866265" lon="-4.324686134247627"><ele>425.20000000000005</ele><time>2026-04-19T07:41:12Z</time></trkpt><trkpt lat="37.63209545001666" lon="-4.324704505317425"><ele>424.79999999999995</ele><time>2026-04-19T07:41:14Z</time></trkpt><trkpt lat="37.63219443427435" lon="-4.324714015820354"><ele>424.4</ele><time>2026-04-19T07:41:16Z</time></trkpt><trkpt lat="37.632287570957544" lon="-4.32473146147932"><ele>424.0</ele><time>2026-04-19T07:41:18Z</time></trkpt><trkpt lat="37.632378349989864" lon="-4.324758457041277"><ele>423.7142857142857</ele><time>2026-04-19T07:41:20Z</time></trkpt><trkpt lat="37.632434108433195" lon="-4.324796176888342"><ele>423.4285714285714</ele><time>2026-04-19T07:41:22Z</time></trkpt><trkpt lat="37.632453920686274" lon="-4.324897407187731"><ele>423.1428571428571</ele><time>2026-04-19T07:41:25Z</time></trkpt><trkpt lat="37.63242037673533" lon="-4.325008325783713"><ele>422.8571428571429</ele><time>2026-04-19T07:41:28Z</time></trkpt><trkpt lat="37.63239723955506" lon="-4.325093639852228"><ele>422.57142857142856</ele><time>2026-04-19T07:41:30Z</time></trkpt><trkpt lat="37.63238335675043" lon="-4.325176997565225"><ele>422.2857142857143</ele><time>2026-04-19T07:41:32Z</time></trkpt><trkpt lat="37.632413826738635" lon="-4.325250121109919"><ele>422.0</ele><time>2026-04-19T07:41:34Z</time></trkpt><trkpt lat="37.63248968747028" lon="-4.325295292595726"><ele>421.99999999999994</ele><time>2026-04-19T07:41:37Z</time></trkpt><trkpt lat="37.632546762066376" lon="-4.32534784505538"><ele>422.0</ele><time>2026-04-19T07:41:40Z</time></trkpt><trkpt lat="37.63261260815658" lon="-4.325415200734598"><ele>422.0</ele><time>2026-04-19T07:41:43Z</time></trkpt><trkpt lat="37.63265273085461" lon="-4.325499066462673"><ele>422.0</ele><time>2026-04-19T07:41:46Z</time></trkpt><trkpt lat="37.632640574311836" lon="-4.325609612785344"><ele>421.99999999999994</ele><time>2026-04-19T07:41:49Z</time></trkpt><trkpt lat="37.63266230266808" lon="-4.325719041901665"><ele>422.0</ele><time>2026-04-19T07:41:52Z</time></trkpt><trkpt lat="37.632747653583806" lon="-4.325762046653895"><ele>424.16666666666663</ele><time>2026-04-19T07:41:54.999Z</time></trkpt><trkpt lat="37.632832642332275" lon="-4.325774146917999"><ele>426.3333333333333</ele><time>2026-04-19T07:41:57.999Z</time></trkpt><trkpt lat="37.63291796716323" lon="-4.3257913550693035"><ele>428.5</ele><time>2026-04-19T07:42:00.999Z</time></trkpt><trkpt lat="37.633005528193046" lon="-4.325781198579832"><ele>430.66666666666663</ele><time>2026-04-19T07:42:03.999Z</time></trkpt><trkpt lat="37.63309361490046" lon="-4.325767844497182"><ele>432.8333333333333</ele><time>2026-04-19T07:42:06.999Z</time></trkpt><trkpt lat="37.63318403238697" lon="-4.325791450979794"><ele>435.0</ele><time>2026-04-19T07:42:09.999Z</time></trkpt><trkpt lat="37.63326586511459" lon="-4.325796963759296"><ele>435.0</ele><time>2026-04-19T07:42:12.999Z</time></trkpt><trkpt lat="37.63334525749759" lon="-4.325819541455123"><ele>435.0</ele><time>2026-04-19T07:42:15.999Z</time></trkpt><trkpt lat="37.6334299884162" lon="-4.325810050173605"><ele>435.0</ele><time>2026-04-19T07:42:18.999Z</time></trkpt><trkpt lat="37.63350520616396" lon="-4.325811007419073"><ele>435.0</ele><time>2026-04-19T07:42:21.999Z</time></trkpt><trkpt lat="37.63357890683734" lon="-4.3258264341119395"><ele>435.0</ele><time>2026-04-19T07:42:24.999Z</time></trkpt><trkpt lat="37.6336475592147" lon="-4.325839391822774"><ele>435.0</ele><time>2026-04-19T07:42:27.999Z</time></trkpt><trkpt lat="37.63371637509343" lon="-4.3258493049506965"><ele>436.0</ele><time>2026-04-19T07:42:30.999Z</time></trkpt><trkpt lat="37.633787706462954" lon="-4.325847573204104"><ele>437.0</ele><time>2026-04-19T07:42:33.999Z</time></trkpt><trkpt lat="37.63386403257108" lon="-4.32585564325499"><ele>438.0</ele><time>2026-04-19T07:42:36.999Z</time></trkpt><trkpt lat="37.63394418861512" lon="-4.325871733096751"><ele>439.0</ele><time>2026-04-19T07:42:39.999Z</time></trkpt><trkpt lat="37.63402672652978" lon="-4.325875015512904"><ele>440.0</ele><time>2026-04-19T07:42:42.998Z</time></trkpt><trkpt lat="37.634094785231035" lon="-4.325809735207583"><ele>441.0</ele><time>2026-04-19T07:42:45.998Z</time></trkpt><trkpt lat="37.63412647142179" lon="-4.325739896091728"><ele>441.0</ele><time>2026-04-19T07:42:47.998Z</time></trkpt><trkpt lat="37.63415487694193" lon="-4.325657728019845"><ele>441.0</ele><time>2026-04-19T07:42:49.998Z</time></trkpt><trkpt lat="37.63418589858925" lon="-4.325572986129953"><ele>441.0</ele><time>2026-04-19T07:42:51.998Z</time></trkpt><trkpt lat="37.6342225364145" lon="-4.325485505635222"><ele>441.0</ele><time>2026-04-19T07:42:53.998Z</time></trkpt><trkpt lat="37.63425776105142" lon="-4.325402431104368"><ele>441.0</ele><time>2026-04-19T07:42:55.998Z</time></trkpt><trkpt lat="37.63429279688355" lon="-4.32532484550568"><ele>441.0</ele><time>2026-04-19T07:42:57.998Z</time></trkpt><trkpt lat="37.634330063073534" lon="-4.325247853762943"><ele>441.0</ele><time>2026-04-19T07:42:59.998Z</time></trkpt><trkpt lat="37.63436527658609" lon="-4.32517302045708"><ele>441.1666666666667</ele><time>2026-04-19T07:43:01.998Z</time></trkpt><trkpt lat="37.634401252243514" lon="-4.325100109761469"><ele>441.33333333333337</ele><time>2026-04-19T07:43:03.998Z</time></trkpt><trkpt lat="37.634456310548615" lon="-4.3250054908566185"><ele>441.5</ele><time>2026-04-19T07:43:06.998Z</time></trkpt><trkpt lat="37.63450774318673" lon="-4.324926198366589"><ele>441.6666666666667</ele><time>2026-04-19T07:43:09.998Z</time></trkpt><trkpt lat="37.63458348443274" lon="-4.324886173672007"><ele>441.83333333333337</ele><time>2026-04-19T07:43:13Z</time></trkpt><trkpt lat="37.63466899533248" lon="-4.324871897799423"><ele>442.0</ele><time>2026-04-19T07:43:16Z</time></trkpt><trkpt lat="37.63473404745931" lon="-4.324795196075162"><ele>443.6666666666667</ele><time>2026-04-19T07:43:19Z</time></trkpt><trkpt lat="37.63476527145651" lon="-4.324682586763497"><ele>445.33333333333337</ele><time>2026-04-19T07:43:22Z</time></trkpt><trkpt lat="37.63480804224594" lon="-4.32461120126459"><ele>447.0</ele><time>2026-04-19T07:43:25Z</time></trkpt><trkpt lat="37.6348892688712" lon="-4.324574153672379"><ele>448.66666666666663</ele><time>2026-04-19T07:43:28Z</time></trkpt><trkpt lat="37.63495959183915" lon="-4.324512596823218"><ele>450.3333333333333</ele><time>2026-04-19T07:43:31Z</time></trkpt><trkpt lat="37.63503373019243" lon="-4.324449616300443"><ele>452.0</ele><time>2026-04-19T07:43:34Z</time></trkpt><trkpt lat="37.635099517285376" lon="-4.324389979704405"><ele>451.99999999999994</ele><time>2026-04-19T07:43:37Z</time></trkpt><trkpt lat="37.63516339602476" lon="-4.324322510383109"><ele>452.0</ele><time>2026-04-19T07:43:40Z</time></trkpt><trkpt lat="37.63522749884853" lon="-4.324270127519256"><ele>452.0</ele><time>2026-04-19T07:43:43Z</time></trkpt><trkpt lat="37.635262624115725" lon="-4.324176731562665"><ele>452.0</ele><time>2026-04-19T07:43:46Z</time></trkpt><trkpt lat="37.63530854005116" lon="-4.324084882797692"><ele>451.99999999999994</ele><time>2026-04-19T07:43:49Z</time></trkpt><trkpt lat="37.63535999780578" lon="-4.323998179382164"><ele>452.0</ele><time>2026-04-19T07:43:52Z</time></trkpt><trkpt lat="37.63543012827758" lon="-4.3239300137461845"><ele>452.66666666666663</ele><time>2026-04-19T07:43:55Z</time></trkpt><trkpt lat="37.635497683863825" lon="-4.3238667393967996"><ele>453.3333333333333</ele><time>2026-04-19T07:43:58Z</time></trkpt><trkpt lat="37.635568365863875" lon="-4.323785191653436"><ele>454.0</ele><time>2026-04-19T07:44:01Z</time></trkpt><trkpt lat="37.63561947305446" lon="-4.323723895899642"><ele>454.66666666666663</ele><time>2026-04-19T07:44:03Z</time></trkpt><trkpt lat="37.63566940737355" lon="-4.323662227895166"><ele>455.3333333333333</ele><time>2026-04-19T07:44:05Z</time></trkpt><trkpt lat="37.635715495387764" lon="-4.323601668922177"><ele>456.0</ele><time>2026-04-19T07:44:06.999Z</time></trkpt><trkpt lat="37.63576787760945" lon="-4.323544796293768"><ele>456.0</ele><time>2026-04-19T07:44:08.999Z</time></trkpt><trkpt lat="37.63582317733581" lon="-4.323487509206948"><ele>455.99999999999994</ele><time>2026-04-19T07:44:10.999Z</time></trkpt><trkpt lat="37.63588609028153" lon="-4.323435242022229"><ele>456.0</ele><time>2026-04-19T07:44:12.999Z</time></trkpt><trkpt lat="37.63594482403823" lon="-4.323374311256997"><ele>456.0</ele><time>2026-04-19T07:44:14.999Z</time></trkpt><trkpt lat="37.635998382871385" lon="-4.323314003144159"><ele>455.99999999999994</ele><time>2026-04-19T07:44:16.999Z</time></trkpt><trkpt lat="37.636051372667374" lon="-4.32326792917247"><ele>456.0</ele><time>2026-04-19T07:44:18.999Z</time></trkpt><trkpt lat="37.636098609067055" lon="-4.323197253889248"><ele>456.0</ele><time>2026-04-19T07:44:20.999Z</time></trkpt><trkpt lat="37.636118352967955" lon="-4.323106001926097"><ele>456.85714285714283</ele><time>2026-04-19T07:44:22.999Z</time></trkpt><trkpt lat="37.636154822384334" lon="-4.3230035113686895"><ele>457.71428571428567</ele><time>2026-04-19T07:44:25.999Z</time></trkpt><trkpt lat="37.63620719373091" lon="-4.322946158523496"><ele>458.57142857142856</ele><time>2026-04-19T07:44:27.999Z</time></trkpt><trkpt lat="37.63625267350069" lon="-4.322880290710199"><ele>459.42857142857144</ele><time>2026-04-19T07:44:29.999Z</time></trkpt><trkpt lat="37.63629331449357" lon="-4.3227986342303835"><ele>460.2857142857143</ele><time>2026-04-19T07:44:31.999Z</time></trkpt><trkpt lat="37.63635130684665" lon="-4.322740788920139"><ele>461.1428571428571</ele><time>2026-04-19T07:44:33.999Z</time></trkpt><trkpt lat="37.636417405355424" lon="-4.3227534920059405"><ele>462.0</ele><time>2026-04-19T07:44:35.999Z</time></trkpt><trkpt lat="37.6364850023428" lon="-4.3227353787116956"><ele>462.0</ele><time>2026-04-19T07:44:37.999Z</time></trkpt><trkpt lat="37.63656682456536" lon="-4.322703919428846"><ele>462.0</ele><time>2026-04-19T07:44:39.999Z</time></trkpt><trkpt lat="37.63664375493204" lon="-4.322687295624765"><ele>462.0</ele><time>2026-04-19T07:44:41.999Z</time></trkpt><trkpt lat="37.63673354463924" lon="-4.322656836103037"><ele>462.0</ele><time>2026-04-19T07:44:44.999Z</time></trkpt><trkpt lat="37.6367945224587" lon="-4.3226189540673445"><ele>462.0</ele><time>2026-04-19T07:44:46.999Z</time></trkpt><trkpt lat="37.63685393469147" lon="-4.322572563263145"><ele>462.0</ele><time>2026-04-19T07:44:48.999Z</time></trkpt><trkpt lat="37.636911757481215" lon="-4.322533002391461"><ele>462.0</ele><time>2026-04-19T07:44:50.999Z</time></trkpt><trkpt lat="37.63696266847033" lon="-4.322481950649901"><ele>462.0</ele><time>2026-04-19T07:44:52.998Z</time></trkpt><trkpt lat="37.63701113269312" lon="-4.322427958085913"><ele>462.0</ele><time>2026-04-19T07:44:54.998Z</time></trkpt><trkpt lat="37.6370924913264" lon="-4.322362530188356"><ele>462.0</ele><time>2026-04-19T07:44:57.998Z</time></trkpt><trkpt lat="37.637147609842756" lon="-4.322312051522882"><ele>462.0</ele><time>2026-04-19T07:44:59.998Z</time></trkpt><trkpt lat="37.637226408421654" lon="-4.322241334017449"><ele>462.0</ele><time>2026-04-19T07:45:02.998Z</time></trkpt><trkpt lat="37.63730379675609" lon="-4.322178187884734"><ele>463.57142857142856</ele><time>2026-04-19T07:45:05.998Z</time></trkpt><trkpt lat="37.63738458384927" lon="-4.3221178426859455"><ele>465.1428571428571</ele><time>2026-04-19T07:45:08.998Z</time></trkpt><trkpt lat="37.63743857215202" lon="-4.32207658780413"><ele>466.7142857142857</ele><time>2026-04-19T07:45:10.998Z</time></trkpt><trkpt lat="37.63749210420676" lon="-4.322025318875658"><ele>468.2857142857143</ele><time>2026-04-19T07:45:12.998Z</time></trkpt><trkpt lat="37.63754334688438" lon="-4.321977355575939"><ele>469.85714285714283</ele><time>2026-04-19T07:45:14.998Z</time></trkpt><trkpt lat="37.63759881199067" lon="-4.321938898347838"><ele>471.42857142857144</ele><time>2026-04-19T07:45:16.998Z</time></trkpt><trkpt lat="37.637655265838006" lon="-4.321892479288528"><ele>473.0</ele><time>2026-04-19T07:45:19Z</time></trkpt><trkpt lat="37.63771002757597" lon="-4.321840482404621"><ele>472.99999999999994</ele><time>2026-04-19T07:45:21Z</time></trkpt><trkpt lat="37.63778899809147" lon="-4.321781784926846"><ele>473.0</ele><time>2026-04-19T07:45:24Z</time></trkpt><trkpt lat="37.637853844968255" lon="-4.321738858930936"><ele>473.0</ele><time>2026-04-19T07:45:26Z</time></trkpt><trkpt lat="37.637909959278474" lon="-4.321690801192174"><ele>473.0</ele><time>2026-04-19T07:45:28Z</time></trkpt><trkpt lat="37.63797022917539" lon="-4.3216374914598275"><ele>472.99999999999994</ele><time>2026-04-19T07:45:30Z</time></trkpt><trkpt lat="37.638029291440716" lon="-4.3215855807397965"><ele>473.0</ele><time>2026-04-19T07:45:32Z</time></trkpt><trkpt lat="37.638106549430574" lon="-4.321523531046236"><ele>472.8571428571429</ele><time>2026-04-19T07:45:35Z</time></trkpt><trkpt lat="37.63815967480112" lon="-4.321478721690885"><ele>472.71428571428567</ele><time>2026-04-19T07:45:37Z</time></trkpt><trkpt lat="37.638217260731395" lon="-4.3214459000345204"><ele>472.57142857142856</ele><time>2026-04-19T07:45:39Z</time></trkpt><trkpt lat="37.63828218412831" lon="-4.321415447188848"><ele>472.42857142857144</ele><time>2026-04-19T07:45:41Z</time></trkpt><trkpt lat="37.63837296873703" lon="-4.3213841628854475"><ele>472.28571428571433</ele><time>2026-04-19T07:45:44Z</time></trkpt><trkpt lat="37.638459324535965" lon="-4.321356791805225"><ele>472.1428571428571</ele><time>2026-04-19T07:45:47Z</time></trkpt><trkpt lat="37.63852181465943" lon="-4.32134207995902"><ele>472.0</ele><time>2026-04-19T07:45:49Z</time></trkpt><trkpt lat="37.638586108931285" lon="-4.32131524645974"><ele>472.33333333333337</ele><time>2026-04-19T07:45:51Z</time></trkpt><trkpt lat="37.63867076716033" lon="-4.321284625810545"><ele>472.6666666666667</ele><time>2026-04-19T07:45:54Z</time></trkpt><trkpt lat="37.638762919411164" lon="-4.321269011778704"><ele>473.0</ele><time>2026-04-19T07:45:57Z</time></trkpt><trkpt lat="37.638857772215886" lon="-4.321266342277039"><ele>473.33333333333337</ele><time>2026-04-19T07:46:00Z</time></trkpt><trkpt lat="37.63892431518449" lon="-4.3212877985835565"><ele>473.6666666666667</ele><time>2026-04-19T07:46:02Z</time></trkpt><trkpt lat="37.63899293560666" lon="-4.321309077060662"><ele>474.0</ele><time>2026-04-19T07:46:04Z</time></trkpt><trkpt lat="37.63905546638807" lon="-4.321335483669074"><ele>474.0</ele><time>2026-04-19T07:46:06Z</time></trkpt><trkpt lat="37.63911539676085" lon="-4.321376092222285"><ele>474.0</ele><time>2026-04-19T07:46:08Z</time></trkpt><trkpt lat="37.63916821629821" lon="-4.321446438637658"><ele>474.0</ele><time>2026-04-19T07:46:10Z</time></trkpt><trkpt lat="37.63922190627218" lon="-4.321532167314414"><ele>474.0</ele><time>2026-04-19T07:46:12Z</time></trkpt><trkpt lat="37.639284047449635" lon="-4.321598802946211"><ele>474.0</ele><time>2026-04-19T07:46:14Z</time></trkpt><trkpt lat="37.63938956493925" lon="-4.321657940365825"><ele>474.0</ele><time>2026-04-19T07:46:15.999Z</time></trkpt><trkpt lat="37.639466389957896" lon="-4.321681013658296"><ele>470.79999999999995</ele><time>2026-04-19T07:46:16.999Z</time></trkpt><trkpt lat="37.63954583535179" lon="-4.321705909318905"><ele>467.59999999999997</ele><time>2026-04-19T07:46:17.999Z</time></trkpt><trkpt lat="37.639618099859405" lon="-4.321730787838914"><ele>464.4</ele><time>2026-04-19T07:46:18.999Z</time></trkpt><trkpt lat="37.63973164346223" lon="-4.321777114424822"><ele>461.2</ele><time>2026-04-19T07:46:20.999Z</time></trkpt><trkpt lat="37.639848443645846" lon="-4.321823434325961"><ele>458.0</ele><time>2026-04-19T07:46:22.999Z</time></trkpt><trkpt lat="37.639914616874805" lon="-4.321850173546556"><ele>458.0</ele><time>2026-04-19T07:46:23.999Z</time></trkpt><trkpt lat="37.63997875511849" lon="-4.32189071770177"><ele>458.0</ele><time>2026-04-19T07:46:24.999Z</time></trkpt><trkpt lat="37.64003612035087" lon="-4.321930594042426"><ele>458.0</ele><time>2026-04-19T07:46:25.999Z</time></trkpt><trkpt lat="37.64009794208396" lon="-4.321967588056605"><ele>458.0</ele><time>2026-04-19T07:46:26.999Z</time></trkpt><trkpt lat="37.640169795634485" lon="-4.321985033514686"><ele>458.0</ele><time>2026-04-19T07:46:27.999Z</time></trkpt><trkpt lat="37.64024832965462" lon="-4.322000640804952"><ele>458.0</ele><time>2026-04-19T07:46:28.999Z</time></trkpt><trkpt lat="37.640332100197064" lon="-4.322031682744005"><ele>458.0</ele><time>2026-04-19T07:46:29.999Z</time></trkpt><trkpt lat="37.6404047828754" lon="-4.322049318806707"><ele>455.2</ele><time>2026-04-19T07:46:30.999Z</time></trkpt><trkpt lat="37.64048822625228" lon="-4.3220714122662685"><ele>452.4</ele><time>2026-04-19T07:46:31.999Z</time></trkpt><trkpt lat="37.64057131196327" lon="-4.322074586307989"><ele>449.59999999999997</ele><time>2026-04-19T07:46:32.999Z</time></trkpt><trkpt lat="37.64066789168939" lon="-4.3220634979311665"><ele>446.79999999999995</ele><time>2026-04-19T07:46:33.999Z</time></trkpt><trkpt lat="37.64077088328568" lon="-4.322043388750975"><ele>444.0</ele><time>2026-04-19T07:46:34.999Z</time></trkpt><trkpt lat="37.64085925861678" lon="-4.322048495020544"><ele>444.0</ele><time>2026-04-19T07:46:35.999Z</time></trkpt><trkpt lat="37.64092337148506" lon="-4.322054268006137"><ele>444.0</ele><time>2026-04-19T07:46:36.999Z</time></trkpt><trkpt lat="37.6410140130287" lon="-4.322059609999391"><ele>444.0</ele><time>2026-04-19T07:46:38.999Z</time></trkpt><trkpt lat="37.641077727919004" lon="-4.32196298780633"><ele>444.0</ele><time>2026-04-19T07:46:40.999Z</time></trkpt><trkpt lat="37.64107320201339" lon="-4.321818224194637"><ele>444.0</ele><time>2026-04-19T07:46:42.999Z</time></trkpt><trkpt lat="37.641085775486744" lon="-4.321703576437272"><ele>444.0</ele><time>2026-04-19T07:46:44.999Z</time></trkpt><trkpt lat="37.64111500599221" lon="-4.321596440345618"><ele>444.0</ele><time>2026-04-19T07:46:46.999Z</time></trkpt><trkpt lat="37.64114006988437" lon="-4.321503483804382"><ele>444.0</ele><time>2026-04-19T07:46:48.999Z</time></trkpt><trkpt lat="37.64116171052497" lon="-4.321408778982273"><ele>444.0</ele><time>2026-04-19T07:46:50.999Z</time></trkpt><trkpt lat="37.64118986030361" lon="-4.321295523639957"><ele>444.0</ele><time>2026-04-19T07:46:53.999Z</time></trkpt><trkpt lat="37.641203042049696" lon="-4.321210096331374"><ele>444.0</ele><time>2026-04-19T07:46:55.999Z</time></trkpt><trkpt lat="37.64123633044569" lon="-4.321132320388121"><ele>444.1666666666667</ele><time>2026-04-19T07:46:57.999Z</time></trkpt><trkpt lat="37.64125635987101" lon="-4.321036181097057"><ele>444.33333333333337</ele><time>2026-04-19T07:46:59.999Z</time></trkpt><trkpt lat="37.641258604305456" lon="-4.320926901611679"><ele>444.5</ele><time>2026-04-19T07:47:01.998Z</time></trkpt><trkpt lat="37.64125734903822" lon="-4.3208305220797785"><ele>444.6666666666667</ele><time>2026-04-19T07:47:03.998Z</time></trkpt><trkpt lat="37.64124425307046" lon="-4.32074506348809"><ele>444.83333333333337</ele><time>2026-04-19T07:47:05.998Z</time></trkpt><trkpt lat="37.64128967306753" lon="-4.3206359087263015"><ele>445.0</ele><time>2026-04-19T07:47:08.998Z</time></trkpt><trkpt lat="37.641358272151194" lon="-4.320585384423068"><ele>446.00000000000006</ele><time>2026-04-19T07:47:10.998Z</time></trkpt><trkpt lat="37.64143048231688" lon="-4.3205204288897"><ele>447.0</ele><time>2026-04-19T07:47:13.998Z</time></trkpt><trkpt lat="37.641506218484935" lon="-4.320475759272221"><ele>448.0</ele><time>2026-04-19T07:47:16.998Z</time></trkpt><trkpt lat="37.641548827706586" lon="-4.320370461337692"><ele>449.0</ele><time>2026-04-19T07:47:19.998Z</time></trkpt><trkpt lat="37.64155282817209" lon="-4.32027726636973"><ele>450.00000000000006</ele><time>2026-04-19T07:47:21.998Z</time></trkpt><trkpt lat="37.64156572326677" lon="-4.320190138502829"><ele>451.0</ele><time>2026-04-19T07:47:24.001Z</time></trkpt><trkpt lat="37.64157847698511" lon="-4.3201036709803535"><ele>451.00000000000006</ele><time>2026-04-19T07:47:26Z</time></trkpt><trkpt lat="37.64158928313241" lon="-4.320020918996332"><ele>451.0</ele><time>2026-04-19T07:47:28.001Z</time></trkpt><trkpt lat="37.6415984297015" lon="-4.319898611092253"><ele>451.0</ele><time>2026-04-19T07:47:31.001Z</time></trkpt><trkpt lat="37.64160614271478" lon="-4.31980942905555"><ele>451.0</ele><time>2026-04-19T07:47:33.001Z</time></trkpt><trkpt lat="37.64160719274504" lon="-4.319719638545687"><ele>451.00000000000006</ele><time>2026-04-19T07:47:35.001Z</time></trkpt><trkpt lat="37.64161262113884" lon="-4.319625963557381"><ele>451.0</ele><time>2026-04-19T07:47:37.001Z</time></trkpt><trkpt lat="37.64162029376916" lon="-4.31953622683462"><ele>451.6666666666667</ele><time>2026-04-19T07:47:39.001Z</time></trkpt><trkpt lat="37.64162788286949" lon="-4.319425839334728"><ele>452.33333333333337</ele><time>2026-04-19T07:47:42Z</time></trkpt><trkpt lat="37.64163933149512" lon="-4.319322945930628"><ele>453.0</ele><time>2026-04-19T07:47:45Z</time></trkpt><trkpt lat="37.64165103320508" lon="-4.319213532560902"><ele>453.66666666666663</ele><time>2026-04-19T07:47:48Z</time></trkpt><trkpt lat="37.64166294922521" lon="-4.319106286468303"><ele>454.3333333333333</ele><time>2026-04-19T07:47:51Z</time></trkpt><trkpt lat="37.64167156543808" lon="-4.319003684755842"><ele>455.0</ele><time>2026-04-19T07:47:54Z</time></trkpt><trkpt lat="37.6416873346792" lon="-4.318897776207469"><ele>455.99999999999994</ele><time>2026-04-19T07:47:57Z</time></trkpt><trkpt lat="37.641703408379655" lon="-4.318793448837752"><ele>457.0</ele><time>2026-04-19T07:48:00Z</time></trkpt><trkpt lat="37.641716209311156" lon="-4.318694124612389"><ele>458.0</ele><time>2026-04-19T07:48:03Z</time></trkpt><trkpt lat="37.64172935312656" lon="-4.31858344009352"><ele>459.0</ele><time>2026-04-19T07:48:06Z</time></trkpt><trkpt lat="37.64174005953238" lon="-4.318471539474288"><ele>459.99999999999994</ele><time>2026-04-19T07:48:09Z</time></trkpt><trkpt lat="37.64173293294952" lon="-4.318357742135237"><ele>461.0</ele><time>2026-04-19T07:48:12Z</time></trkpt><trkpt lat="37.64169707326028" lon="-4.318290978441821"><ele>461.0</ele><time>2026-04-19T07:48:14Z</time></trkpt><trkpt lat="37.64165894808101" lon="-4.318222133213618"><ele>461.00000000000006</ele><time>2026-04-19T07:48:16Z</time></trkpt><trkpt lat="37.64162088177864" lon="-4.318149445343481"><ele>461.0</ele><time>2026-04-19T07:48:18Z</time></trkpt><trkpt lat="37.641581182246235" lon="-4.318078311019811"><ele>461.0</ele><time>2026-04-19T07:48:20Z</time></trkpt><trkpt lat="37.64154083216287" lon="-4.3180017974042855"><ele>461.00000000000006</ele><time>2026-04-19T07:48:22Z</time></trkpt><trkpt lat="37.64151274538118" lon="-4.317889842837604"><ele>461.0</ele><time>2026-04-19T07:48:25Z</time></trkpt><trkpt lat="37.64153219134644" lon="-4.317813967257428"><ele>461.0</ele><time>2026-04-19T07:48:27Z</time></trkpt><trkpt lat="37.641552486933804" lon="-4.317727738958849"><ele>461.49999999999994</ele><time>2026-04-19T07:48:28.999Z</time></trkpt><trkpt lat="37.64157132095653" lon="-4.317648412789476"><ele>462.0</ele><time>2026-04-19T07:48:30.999Z</time></trkpt><trkpt lat="37.641589185026334" lon="-4.317559581178185"><ele>462.5</ele><time>2026-04-19T07:48:32.999Z</time></trkpt><trkpt lat="37.64161860744727" lon="-4.317469153795865"><ele>463.0</ele><time>2026-04-19T07:48:34.999Z</time></trkpt><trkpt lat="37.64164432332557" lon="-4.317370579893822"><ele>463.49999999999994</ele><time>2026-04-19T07:48:36.999Z</time></trkpt><trkpt lat="37.64167097745688" lon="-4.317278397152577"><ele>464.0</ele><time>2026-04-19T07:48:38.999Z</time></trkpt><trkpt lat="37.64169548007979" lon="-4.317183183729152"><ele>464.49999999999994</ele><time>2026-04-19T07:48:40.999Z</time></trkpt><trkpt lat="37.64171596801163" lon="-4.317090232760778"><ele>465.0</ele><time>2026-04-19T07:48:42.999Z</time></trkpt><trkpt lat="37.64173702377667" lon="-4.316988540639489"><ele>465.5</ele><time>2026-04-19T07:48:44.999Z</time></trkpt><trkpt lat="37.64175875659442" lon="-4.316896061439563"><ele>466.0</ele><time>2026-04-19T07:48:46.999Z</time></trkpt><trkpt lat="37.641784355281445" lon="-4.316801352895541"><ele>466.49999999999994</ele><time>2026-04-19T07:48:48.999Z</time></trkpt><trkpt lat="37.641803419656654" lon="-4.316710374008784"><ele>467.0</ele><time>2026-04-19T07:48:50.999Z</time></trkpt><trkpt lat="37.6418310842454" lon="-4.316618613449338"><ele>466.99999999999994</ele><time>2026-04-19T07:48:52.999Z</time></trkpt><trkpt lat="37.641853378494666" lon="-4.31653468304073"><ele>467.0</ele><time>2026-04-19T07:48:54.999Z</time></trkpt><trkpt lat="37.64187618772327" lon="-4.316443092022418"><ele>466.99999999999994</ele><time>2026-04-19T07:48:56.999Z</time></trkpt><trkpt lat="37.64190449599008" lon="-4.316352209515494"><ele>466.99999999999994</ele><time>2026-04-19T07:48:58.999Z</time></trkpt><trkpt lat="37.6419311854254" lon="-4.316270187910335"><ele>467.0</ele><time>2026-04-19T07:49:00.999Z</time></trkpt><trkpt lat="37.64195549126354" lon="-4.316189071300595"><ele>466.99999999999994</ele><time>2026-04-19T07:49:02.999Z</time></trkpt><trkpt lat="37.641970478562264" lon="-4.316111805479779"><ele>466.99999999999994</ele><time>2026-04-19T07:49:04.999Z</time></trkpt><trkpt lat="37.642033973834465" lon="-4.3160523138543"><ele>467.99999999999994</ele><time>2026-04-19T07:49:07.999Z</time></trkpt><trkpt lat="37.642084301188326" lon="-4.315995759274316"><ele>469.0</ele><time>2026-04-19T07:49:10.999Z</time></trkpt><trkpt lat="37.64208974074937" lon="-4.315910254423193"><ele>470.0</ele><time>2026-04-19T07:49:13.999Z</time></trkpt><trkpt lat="37.6420255360228" lon="-4.315824624814706"><ele>471.0</ele><time>2026-04-19T07:49:16.998Z</time></trkpt><trkpt lat="37.64196677730062" lon="-4.315767194234487"><ele>471.99999999999994</ele><time>2026-04-19T07:49:19.998Z</time></trkpt><trkpt lat="37.641953554835865" lon="-4.315669747466825"><ele>473.0</ele><time>2026-04-19T07:49:23.998Z</time></trkpt><trkpt lat="37.64196203829958" lon="-4.315557715657003"><ele>473.99999999999994</ele><time>2026-04-19T07:49:27.998Z</time></trkpt><trkpt lat="37.64197032271934" lon="-4.315436347654394"><ele>475.0</ele><time>2026-04-19T07:49:30.001Z</time></trkpt><trkpt lat="37.64194766202216" lon="-4.315354373407391"><ele>476.0</ele><time>2026-04-19T07:49:33Z</time></trkpt><trkpt lat="37.64194838350545" lon="-4.3152622852760585"><ele>477.0</ele><time>2026-04-19T07:49:35Z</time></trkpt><trkpt lat="37.641937760806044" lon="-4.315139350442141"><ele>477.99999999999994</ele><time>2026-04-19T07:49:38Z</time></trkpt><trkpt lat="37.64194165620006" lon="-4.31505091333933"><ele>479.0</ele><time>2026-04-19T07:49:40Z</time></trkpt><trkpt lat="37.64194616817885" lon="-4.314969381343632"><ele>478.99999999999994</ele><time>2026-04-19T07:49:42Z</time></trkpt><trkpt lat="37.641941288156204" lon="-4.314889198019624"><ele>479.0</ele><time>2026-04-19T07:49:44Z</time></trkpt><trkpt lat="37.641950892746124" lon="-4.314810198826288"><ele>479.0</ele><time>2026-04-19T07:49:46Z</time></trkpt><trkpt lat="37.641944188198984" lon="-4.314730238728342"><ele>479.0</ele><time>2026-04-19T07:49:48Z</time></trkpt><trkpt lat="37.64194995470151" lon="-4.31461363991556"><ele>478.99999999999994</ele><time>2026-04-19T07:49:50.999Z</time></trkpt><trkpt lat="37.64194996650877" lon="-4.314507835158384"><ele>479.0</ele><time>2026-04-19T07:49:53.999Z</time></trkpt><trkpt lat="37.641941770584666" lon="-4.314397641748754"><ele>480.3333333333333</ele><time>2026-04-19T07:49:56.999Z</time></trkpt><trkpt lat="37.641947894948316" lon="-4.314294408199124"><ele>481.66666666666663</ele><time>2026-04-19T07:49:59.999Z</time></trkpt><trkpt lat="37.641969706842694" lon="-4.314216250460925"><ele>483.0</ele><time>2026-04-19T07:50:03.999Z</time></trkpt><trkpt lat="37.641924450551755" lon="-4.314127456124843"><ele>484.33333333333337</ele><time>2026-04-19T07:50:07.999Z</time></trkpt><trkpt lat="37.64187190043585" lon="-4.314070590167568"><ele>485.6666666666667</ele><time>2026-04-19T07:50:10.999Z</time></trkpt><trkpt lat="37.64179646740074" lon="-4.3140670898650475"><ele>487.0</ele><time>2026-04-19T07:50:13.999Z</time></trkpt><trkpt lat="37.641716899343095" lon="-4.314062785453347"><ele>487.1666666666667</ele><time>2026-04-19T07:50:16.999Z</time></trkpt><trkpt lat="37.64164158173703" lon="-4.314063088271096"><ele>487.33333333333337</ele><time>2026-04-19T07:50:19.999Z</time></trkpt><trkpt lat="37.641563003232726" lon="-4.3140428957536985"><ele>487.5</ele><time>2026-04-19T07:50:22.999Z</time></trkpt><trkpt lat="37.641480789176526" lon="-4.314062281568811"><ele>487.66666666666663</ele><time>2026-04-19T07:50:25.999Z</time></trkpt><trkpt lat="37.641402174972974" lon="-4.314048038135796"><ele>487.8333333333333</ele><time>2026-04-19T07:50:28.999Z</time></trkpt><trkpt lat="37.64133018664352" lon="-4.314044503481793"><ele>488.0</ele><time>2026-04-19T07:50:31.999Z</time></trkpt><trkpt lat="37.64126491600416" lon="-4.314031562074277"><ele>487.99999999999994</ele><time>2026-04-19T07:50:34.998Z</time></trkpt><trkpt lat="37.64119020403513" lon="-4.314014873075767"><ele>488.0</ele><time>2026-04-19T07:50:37.998Z</time></trkpt><trkpt lat="37.64109828362488" lon="-4.314007745352187"><ele>488.0</ele><time>2026-04-19T07:50:40.998Z</time></trkpt><trkpt lat="37.64103402709721" lon="-4.314003323402573"><ele>488.0</ele><time>2026-04-19T07:50:42.998Z</time></trkpt><trkpt lat="37.64094321678885" lon="-4.313995819097152"><ele>487.99999999999994</ele><time>2026-04-19T07:50:45.998Z</time></trkpt><trkpt lat="37.64087850758939" lon="-4.313986421728127"><ele>488.0</ele><time>2026-04-19T07:50:47.998Z</time></trkpt><trkpt lat="37.64083393068397" lon="-4.313929550818006"><ele>489.3333333333333</ele><time>2026-04-19T07:50:49.998Z</time></trkpt><trkpt lat="37.640789395368536" lon="-4.313856719970096"><ele>490.66666666666663</ele><time>2026-04-19T07:50:52.998Z</time></trkpt><trkpt lat="37.64079489083561" lon="-4.313749732647281"><ele>492.0</ele><time>2026-04-19T07:50:55.998Z</time></trkpt><trkpt lat="37.640796777638144" lon="-4.313650048255217"><ele>493.33333333333337</ele><time>2026-04-19T07:50:58.998Z</time></trkpt><trkpt lat="37.64080482135654" lon="-4.313546489943084"><ele>494.6666666666667</ele><time>2026-04-19T07:51:01.998Z</time></trkpt><trkpt lat="37.64081198743321" lon="-4.313440082602916"><ele>496.0</ele><time>2026-04-19T07:51:04.998Z</time></trkpt><trkpt lat="37.640818037233906" lon="-4.313331041786813"><ele>496.00000000000006</ele><time>2026-04-19T07:51:07.998Z</time></trkpt><trkpt lat="37.640826842887684" lon="-4.313224370703149"><ele>496.0</ele><time>2026-04-19T07:51:10.998Z</time></trkpt><trkpt lat="37.640848827053524" lon="-4.313117266886266"><ele>496.0</ele><time>2026-04-19T07:51:13.998Z</time></trkpt><trkpt lat="37.64087270779372" lon="-4.313022360555517"><ele>496.0</ele><time>2026-04-19T07:51:16.998Z</time></trkpt><trkpt lat="37.6408780169094" lon="-4.312918109527158"><ele>496.00000000000006</ele><time>2026-04-19T07:51:19.997Z</time></trkpt><trkpt lat="37.64086872447674" lon="-4.312830446745575"><ele>496.0</ele><time>2026-04-19T07:51:22.997Z</time></trkpt><trkpt lat="37.64081300913969" lon="-4.312772876732968"><ele>497.00000000000006</ele><time>2026-04-19T07:51:25.997Z</time></trkpt><trkpt lat="37.64083217824967" lon="-4.312668930942073"><ele>498.0</ele><time>2026-04-19T07:51:28.997Z</time></trkpt><trkpt lat="37.64083773330598" lon="-4.312556296349519"><ele>499.0</ele><time>2026-04-19T07:51:31.997Z</time></trkpt><trkpt lat="37.64084731576658" lon="-4.312444669679987"><ele>500.0</ele><time>2026-04-19T07:51:35Z</time></trkpt><trkpt lat="37.64085030163256" lon="-4.312338205581822"><ele>501.00000000000006</ele><time>2026-04-19T07:51:38Z</time></trkpt><trkpt lat="37.640860095869215" lon="-4.312229415522187"><ele>502.0</ele><time>2026-04-19T07:51:41Z</time></trkpt><trkpt lat="37.64086575325442" lon="-4.312124218182832"><ele>502.50000000000006</ele><time>2026-04-19T07:51:44Z</time></trkpt><trkpt lat="37.640890025745726" lon="-4.312040706876468"><ele>503.0</ele><time>2026-04-19T07:51:47Z</time></trkpt><trkpt lat="37.640947145130724" lon="-4.311975262394516"><ele>503.5</ele><time>2026-04-19T07:51:50Z</time></trkpt><trkpt lat="37.64101647502944" lon="-4.3119196108064255"><ele>504.0</ele><time>2026-04-19T07:51:53Z</time></trkpt><trkpt lat="37.64108405995503" lon="-4.3118734632630735"><ele>504.50000000000006</ele><time>2026-04-19T07:51:55.999Z</time></trkpt><trkpt lat="37.64115315087587" lon="-4.311804060351031"><ele>505.0</ele><time>2026-04-19T07:51:58.999Z</time></trkpt><trkpt lat="37.64121258314099" lon="-4.31172999326292"><ele>505.00000000000006</ele><time>2026-04-19T07:52:01.999Z</time></trkpt><trkpt lat="37.64123030930182" lon="-4.311628474546715"><ele>505.0</ele><time>2026-04-19T07:52:04.999Z</time></trkpt><trkpt lat="37.641172834703674" lon="-4.311546028574571"><ele>505.0</ele><time>2026-04-19T07:52:07.999Z</time></trkpt><trkpt lat="37.64110573948878" lon="-4.311475155564575"><ele>505.0</ele><time>2026-04-19T07:52:10.999Z</time></trkpt><trkpt lat="37.64104662411773" lon="-4.311401223775665"><ele>505.00000000000006</ele><time>2026-04-19T07:52:13.999Z</time></trkpt><trkpt lat="37.64099214437224" lon="-4.311340647422038"><ele>505.0</ele><time>2026-04-19T07:52:16.999Z</time></trkpt><trkpt lat="37.64096815443558" lon="-4.311253906867947"><ele>504.4285714285714</ele><time>2026-04-19T07:52:19.999Z</time></trkpt><trkpt lat="37.64089776392672" lon="-4.311198086595264"><ele>503.8571428571428</ele><time>2026-04-19T07:52:22.999Z</time></trkpt><trkpt lat="37.64081529758326" lon="-4.311145358578104"><ele>503.2857142857143</ele><time>2026-04-19T07:52:25.999Z</time></trkpt><trkpt lat="37.64075476749823" lon="-4.311113129185408"><ele>502.71428571428567</ele><time>2026-04-19T07:52:27.999Z</time></trkpt><trkpt lat="37.640691826319355" lon="-4.311093164958317"><ele>502.1428571428571</ele><time>2026-04-19T07:52:29.999Z</time></trkpt><trkpt lat="37.64062921717611" lon="-4.311064330223244"><ele>501.57142857142856</ele><time>2026-04-19T07:52:31.999Z</time></trkpt><trkpt lat="37.640566435084786" lon="-4.311078892771186"><ele>501.0</ele><time>2026-04-19T07:52:33.999Z</time></trkpt><trkpt lat="37.640467460721084" lon="-4.311090608117422"><ele>501.0</ele><time>2026-04-19T07:52:35.999Z</time></trkpt><trkpt lat="37.640361432596876" lon="-4.311096019227699"><ele>501.0</ele><time>2026-04-19T07:52:37.999Z</time></trkpt><trkpt lat="37.640242460083016" lon="-4.3110937665573354"><ele>501.0</ele><time>2026-04-19T07:52:39.999Z</time></trkpt><trkpt lat="37.640153298635184" lon="-4.311036200101123"><ele>501.0</ele><time>2026-04-19T07:52:41.998Z</time></trkpt><trkpt lat="37.64005510420272" lon="-4.310972270092382"><ele>501.0</ele><time>2026-04-19T07:52:43.998Z</time></trkpt><trkpt lat="37.639932732460416" lon="-4.311012155491252"><ele>500.4</ele><time>2026-04-19T07:52:45.998Z</time></trkpt><trkpt lat="37.63981850704249" lon="-4.311080848273821"><ele>499.8</ele><time>2026-04-19T07:52:47.998Z</time></trkpt><trkpt lat="37.63972688598209" lon="-4.31111846399122"><ele>499.19999999999993</ele><time>2026-04-19T07:52:49.998Z</time></trkpt><trkpt lat="37.63962905531123" lon="-4.311176822199545"><ele>498.59999999999997</ele><time>2026-04-19T07:52:51.998Z</time></trkpt><trkpt lat="37.639566832813074" lon="-4.311215496668693"><ele>498.0</ele><time>2026-04-19T07:52:52.998Z</time></trkpt><trkpt lat="37.63950990251343" lon="-4.311251506682155"><ele>497.71428571428567</ele><time>2026-04-19T07:52:53.998Z</time></trkpt><trkpt lat="37.63944191676634" lon="-4.3112842858750495"><ele>497.4285714285714</ele><time>2026-04-19T07:52:54.998Z</time></trkpt><trkpt lat="37.63937365546802" lon="-4.311317425073747"><ele>497.1428571428571</ele><time>2026-04-19T07:52:55.998Z</time></trkpt><trkpt lat="37.63930657907916" lon="-4.3113440693284835"><ele>496.8571428571429</ele><time>2026-04-19T07:52:56.998Z</time></trkpt><trkpt lat="37.639235191040655" lon="-4.311372301817089"><ele>496.5714285714286</ele><time>2026-04-19T07:52:57.998Z</time></trkpt><trkpt lat="37.639158811691125" lon="-4.311409969556897"><ele>496.28571428571433</ele><time>2026-04-19T07:52:58.998Z</time></trkpt><trkpt lat="37.63909385769793" lon="-4.311438197243384"><ele>496.0</ele><time>2026-04-19T07:52:59.998Z</time></trkpt><trkpt lat="37.63898335915095" lon="-4.311501613077823"><ele>496.00000000000006</ele><time>2026-04-19T07:53:01.998Z</time></trkpt><trkpt lat="37.63892183892168" lon="-4.311540245834738"><ele>496.0</ele><time>2026-04-19T07:53:02.998Z</time></trkpt><trkpt lat="37.63886376154005" lon="-4.311578984822556"><ele>496.0</ele><time>2026-04-19T07:53:03.998Z</time></trkpt><trkpt lat="37.63879681578877" lon="-4.311590079322908"><ele>496.0</ele><time>2026-04-19T07:53:04.998Z</time></trkpt><trkpt lat="37.638695557480325" lon="-4.311580821417796"><ele>496.00000000000006</ele><time>2026-04-19T07:53:06.998Z</time></trkpt><trkpt lat="37.638607370049215" lon="-4.31157036329021"><ele>496.0</ele><time>2026-04-19T07:53:09.998Z</time></trkpt><trkpt lat="37.63854746880259" lon="-4.311523946588951"><ele>496.6</ele><time>2026-04-19T07:53:11.998Z</time></trkpt><trkpt lat="37.63847799958887" lon="-4.311430891267968"><ele>497.20000000000005</ele><time>2026-04-19T07:53:13.998Z</time></trkpt><trkpt lat="37.63839134149738" lon="-4.311337945620984"><ele>497.79999999999995</ele><time>2026-04-19T07:53:15.998Z</time></trkpt><trkpt lat="37.63831652497223" lon="-4.311252177543134"><ele>498.4</ele><time>2026-04-19T07:53:17.998Z</time></trkpt><trkpt lat="37.638266495185704" lon="-4.311184768960859"><ele>499.0</ele><time>2026-04-19T07:53:19.998Z</time></trkpt><trkpt lat="37.638224814191446" lon="-4.311121027949727"><ele>498.4285714285715</ele><time>2026-04-19T07:53:21.998Z</time></trkpt><trkpt lat="37.63816450421072" lon="-4.311051285341202"><ele>497.8571428571429</ele><time>2026-04-19T07:53:23.998Z</time></trkpt><trkpt lat="37.63810138592757" lon="-4.310999223699865"><ele>497.2857142857143</ele><time>2026-04-19T07:53:25.998Z</time></trkpt><trkpt lat="37.6380449111049" lon="-4.310957448790619"><ele>496.7142857142857</ele><time>2026-04-19T07:53:27.997Z</time></trkpt><trkpt lat="37.63797976018624" lon="-4.310910534767752"><ele>496.1428571428571</ele><time>2026-04-19T07:53:29.997Z</time></trkpt><trkpt lat="37.637909519832874" lon="-4.310885562170941"><ele>495.5714285714285</ele><time>2026-04-19T07:53:31.997Z</time></trkpt><trkpt lat="37.63783990082062" lon="-4.310874641025473"><ele>494.99999999999994</ele><time>2026-04-19T07:53:33.997Z</time></trkpt><trkpt lat="37.6377699984962" lon="-4.310902100948204"><ele>495.0</ele><time>2026-04-19T07:53:35.997Z</time></trkpt><trkpt lat="37.637705446331324" lon="-4.31096650708266"><ele>495.0</ele><time>2026-04-19T07:53:37.997Z</time></trkpt><trkpt lat="37.63763859222669" lon="-4.311034558361283"><ele>495.0</ele><time>2026-04-19T07:53:39.997Z</time></trkpt><trkpt lat="37.63756216340914" lon="-4.311107220635955"><ele>495.0</ele><time>2026-04-19T07:53:42Z</time></trkpt><trkpt lat="37.63747936076054" lon="-4.311171506338633"><ele>495.0</ele><time>2026-04-19T07:53:44Z</time></trkpt><trkpt lat="37.63739108339922" lon="-4.311237371492701"><ele>495.0</ele><time>2026-04-19T07:53:46Z</time></trkpt><trkpt lat="37.637314806711835" lon="-4.311298192047813"><ele>495.0</ele><time>2026-04-19T07:53:48Z</time></trkpt><trkpt lat="37.637229119248516" lon="-4.3113569282579745"><ele>495.0</ele><time>2026-04-19T07:53:50Z</time></trkpt><trkpt lat="37.63715175606534" lon="-4.311424286304396"><ele>495.0</ele><time>2026-04-19T07:53:52Z</time></trkpt><trkpt lat="37.63708813224654" lon="-4.31148978115328"><ele>495.0</ele><time>2026-04-19T07:53:54Z</time></trkpt><trkpt lat="37.637011773576674" lon="-4.311524415785571"><ele>495.0</ele><time>2026-04-19T07:53:56Z</time></trkpt><trkpt lat="37.636907023918035" lon="-4.311537506615666"><ele>494.99999999999994</ele><time>2026-04-19T07:53:58Z</time></trkpt><trkpt lat="37.636794432050834" lon="-4.311566520003637"><ele>495.0</ele><time>2026-04-19T07:54:00Z</time></trkpt><trkpt lat="37.63673154440521" lon="-4.311580107590741"><ele>494.99999999999994</ele><time>2026-04-19T07:54:01Z</time></trkpt><trkpt lat="37.63666708965515" lon="-4.311591806162113"><ele>494.99999999999994</ele><time>2026-04-19T07:54:01.999Z</time></trkpt><trkpt lat="37.63659851006737" lon="-4.311601647658191"><ele>495.0</ele><time>2026-04-19T07:54:02.999Z</time></trkpt><trkpt lat="37.636534465142205" lon="-4.311602360854123"><ele>494.99999999999994</ele><time>2026-04-19T07:54:03.999Z</time></trkpt><trkpt lat="37.63646741291818" lon="-4.311601286650146"><ele>494.99999999999994</ele><time>2026-04-19T07:54:04.999Z</time></trkpt><trkpt lat="37.636400993963036" lon="-4.311595501730112"><ele>495.0</ele><time>2026-04-19T07:54:05.999Z</time></trkpt><trkpt lat="37.63632747586323" lon="-4.311593296041438"><ele>495.0</ele><time>2026-04-19T07:54:06.999Z</time></trkpt><trkpt lat="37.63625787361296" lon="-4.311596104952541"><ele>495.0</ele><time>2026-04-19T07:54:07.999Z</time></trkpt><trkpt lat="37.63619252763971" lon="-4.311595195198121"><ele>495.0</ele><time>2026-04-19T07:54:08.999Z</time></trkpt><trkpt lat="37.63613076853307" lon="-4.3115666959638"><ele>495.0</ele><time>2026-04-19T07:54:09.999Z</time></trkpt><trkpt lat="37.636069895495076" lon="-4.311543140248263"><ele>495.0</ele><time>2026-04-19T07:54:10.999Z</time></trkpt><trkpt lat="37.635957593337764" lon="-4.3115179719736565"><ele>494.5</ele><time>2026-04-19T07:54:12.999Z</time></trkpt><trkpt lat="37.635868985567285" lon="-4.311519309216051"><ele>494.0</ele><time>2026-04-19T07:54:14.999Z</time></trkpt><trkpt lat="37.635774175430136" lon="-4.311542978022006"><ele>493.5</ele><time>2026-04-19T07:54:16.999Z</time></trkpt><trkpt lat="37.6357093816594" lon="-4.31156685774705"><ele>493.0</ele><time>2026-04-19T07:54:18.999Z</time></trkpt><trkpt lat="37.63565643226045" lon="-4.311617803042625"><ele>492.5</ele><time>2026-04-19T07:54:20.999Z</time></trkpt><trkpt lat="37.63558998620624" lon="-4.311675301959646"><ele>492.0</ele><time>2026-04-19T07:54:22.999Z</time></trkpt><trkpt lat="37.63551233800253" lon="-4.31172835406583"><ele>492.0</ele><time>2026-04-19T07:54:24.999Z</time></trkpt><trkpt lat="37.63543691113309" lon="-4.311778718954562"><ele>492.0</ele><time>2026-04-19T07:54:26.999Z</time></trkpt><trkpt lat="37.63536340764645" lon="-4.311827031640146"><ele>492.0</ele><time>2026-04-19T07:54:28.999Z</time></trkpt><trkpt lat="37.63529634215273" lon="-4.311855738213055"><ele>492.0</ele><time>2026-04-19T07:54:31.999Z</time></trkpt><trkpt lat="37.635234258158775" lon="-4.311868977079714"><ele>492.0</ele><time>2026-04-19T07:54:37.999Z</time></trkpt><trkpt lat="37.6351557634415" lon="-4.311881925330936"><ele>492.0</ele><time>2026-04-19T08:03:24.998Z</time></trkpt><trkpt lat="37.63505540028284" lon="-4.311865677473747"><ele>491.6</ele><time>2026-04-19T08:03:27.998Z</time></trkpt><trkpt lat="37.634950453205235" lon="-4.311836778714625"><ele>491.20000000000005</ele><time>2026-04-19T08:03:29.998Z</time></trkpt><trkpt lat="37.63482696308278" lon="-4.311803933522753"><ele>490.8</ele><time>2026-04-19T08:03:31.998Z</time></trkpt><trkpt lat="37.63475651935753" lon="-4.311783470485883"><ele>490.4</ele><time>2026-04-19T08:03:32.998Z</time></trkpt><trkpt lat="37.63464686126166" lon="-4.311754016825658"><ele>490.0</ele><time>2026-04-19T08:03:34.998Z</time></trkpt><trkpt lat="37.63455717182914" lon="-4.3117680550765805"><ele>490.00000000000006</ele><time>2026-04-19T08:03:36.998Z</time></trkpt><trkpt lat="37.63447877349332" lon="-4.311833726846233"><ele>490.0</ele><time>2026-04-19T08:03:38.998Z</time></trkpt><trkpt lat="37.634381657824186" lon="-4.311886822522318"><ele>490.0</ele><time>2026-04-19T08:03:40.998Z</time></trkpt><trkpt lat="37.634311737661456" lon="-4.311922756275144"><ele>490.0</ele><time>2026-04-19T08:03:41.998Z</time></trkpt><trkpt lat="37.6342589000357" lon="-4.31198023903161"><ele>490.00000000000006</ele><time>2026-04-19T08:03:42.998Z</time></trkpt><trkpt lat="37.634194227074445" lon="-4.3120217491672665"><ele>490.0</ele><time>2026-04-19T08:03:43.998Z</time></trkpt><trkpt lat="37.63407371672529" lon="-4.312078224487736"><ele>489.00000000000006</ele><time>2026-04-19T08:03:45.998Z</time></trkpt><trkpt lat="37.63398438588223" lon="-4.312098369570194"><ele>488.0</ele><time>2026-04-19T08:03:46.998Z</time></trkpt><trkpt lat="37.633912945527165" lon="-4.3121401990894395"><ele>487.0</ele><time>2026-04-19T08:03:47.998Z</time></trkpt><trkpt lat="37.63384085367161" lon="-4.31216850466567"><ele>486.0</ele><time>2026-04-19T08:03:48.998Z</time></trkpt><trkpt lat="37.63376487818905" lon="-4.3121967843828495"><ele>485.00000000000006</ele><time>2026-04-19T08:03:49.998Z</time></trkpt><trkpt lat="37.63369025324937" lon="-4.312239350329884"><ele>484.0</ele><time>2026-04-19T08:03:50.998Z</time></trkpt><trkpt lat="37.633624086816624" lon="-4.3122819768889915"><ele>482.83333333333337</ele><time>2026-04-19T08:03:51.998Z</time></trkpt><trkpt lat="37.63355581171809" lon="-4.312291848621195"><ele>481.6666666666667</ele><time>2026-04-19T08:03:52.998Z</time></trkpt><trkpt lat="37.63348491436856" lon="-4.312259653657079"><ele>480.5</ele><time>2026-04-19T08:03:53.998Z</time></trkpt><trkpt lat="37.633400433671234" lon="-4.312226844000784"><ele>479.33333333333337</ele><time>2026-04-19T08:03:54.998Z</time></trkpt><trkpt lat="37.633319335277136" lon="-4.312222931305926"><ele>478.1666666666667</ele><time>2026-04-19T08:03:55.998Z</time></trkpt><trkpt lat="37.633229703985556" lon="-4.312236105500334"><ele>477.0</ele><time>2026-04-19T08:03:56.998Z</time></trkpt><trkpt lat="37.63314863510564" lon="-4.312241251992152"><ele>477.0</ele><time>2026-04-19T08:03:57.998Z</time></trkpt><trkpt lat="37.63308343538422" lon="-4.312244828000008"><ele>477.0</ele><time>2026-04-19T08:03:58.998Z</time></trkpt><trkpt lat="37.63299269841607" lon="-4.312299036792221"><ele>477.0</ele><time>2026-04-19T08:04:00.998Z</time></trkpt><trkpt lat="37.632870266355695" lon="-4.3123426560640645"><ele>477.0</ele><time>2026-04-19T08:04:02.998Z</time></trkpt><trkpt lat="37.63280409017703" lon="-4.31232641817715"><ele>477.0</ele><time>2026-04-19T08:04:03.998Z</time></trkpt><trkpt lat="37.632733063641446" lon="-4.312268036467558"><ele>477.0</ele><time>2026-04-19T08:04:04.997Z</time></trkpt><trkpt lat="37.632657042135286" lon="-4.312196975972406"><ele>474.6666666666667</ele><time>2026-04-19T08:04:05.997Z</time></trkpt><trkpt lat="37.63257502228462" lon="-4.312122077475309"><ele>472.33333333333337</ele><time>2026-04-19T08:04:06.997Z</time></trkpt><trkpt lat="37.63249399707368" lon="-4.3120507111492925"><ele>470.0</ele><time>2026-04-19T08:04:07.997Z</time></trkpt><trkpt lat="37.632419451723145" lon="-4.31199515413083"><ele>467.6666666666667</ele><time>2026-04-19T08:04:08.997Z</time></trkpt><trkpt lat="37.63236297324494" lon="-4.311942723958888"><ele>465.33333333333337</ele><time>2026-04-19T08:04:10Z</time></trkpt><trkpt lat="37.63232257440025" lon="-4.31188123100846"><ele>463.0</ele><time>2026-04-19T08:04:11Z</time></trkpt><trkpt lat="37.632269475059786" lon="-4.311818258680431"><ele>463.0</ele><time>2026-04-19T08:04:13Z</time></trkpt><trkpt lat="37.63223523397356" lon="-4.31174586591408"><ele>462.99999999999994</ele><time>2026-04-19T08:04:16Z</time></trkpt><trkpt lat="37.632281879238604" lon="-4.311658609811624"><ele>463.0</ele><time>2026-04-19T08:04:19Z</time></trkpt><trkpt lat="37.63232146504659" lon="-4.311581401634277"><ele>463.0</ele><time>2026-04-19T08:04:21Z</time></trkpt><trkpt lat="37.63235442611028" lon="-4.311505430317042"><ele>462.99999999999994</ele><time>2026-04-19T08:04:23Z</time></trkpt><trkpt lat="37.63239143728418" lon="-4.3114315240396435"><ele>463.0</ele><time>2026-04-19T08:04:25Z</time></trkpt><trkpt lat="37.632428375848626" lon="-4.311353088406331"><ele>463.0</ele><time>2026-04-19T08:04:27Z</time></trkpt><trkpt lat="37.63245855563822" lon="-4.311275782788304"><ele>463.1666666666667</ele><time>2026-04-19T08:04:29Z</time></trkpt><trkpt lat="37.63250153803586" lon="-4.311197569899398"><ele>463.33333333333337</ele><time>2026-04-19T08:04:31Z</time></trkpt><trkpt lat="37.632538950969824" lon="-4.311125134406289"><ele>463.5</ele><time>2026-04-19T08:04:33Z</time></trkpt><trkpt lat="37.63257494801141" lon="-4.311054537759854"><ele>463.66666666666663</ele><time>2026-04-19T08:04:35Z</time></trkpt><trkpt lat="37.63262087217534" lon="-4.310960620440243"><ele>463.8333333333333</ele><time>2026-04-19T08:04:38Z</time></trkpt><trkpt lat="37.63266752493854" lon="-4.310864284720196"><ele>464.0</ele><time>2026-04-19T08:04:40.999Z</time></trkpt><trkpt lat="37.632611746172756" lon="-4.310789444079004"><ele>463.99999999999994</ele><time>2026-04-19T08:04:44.999Z</time></trkpt><trkpt lat="37.63252863505848" lon="-4.310749597578679"><ele>464.0</ele><time>2026-04-19T08:04:46.999Z</time></trkpt><trkpt lat="37.63246248612123" lon="-4.310712042678342"><ele>464.0</ele><time>2026-04-19T08:04:48.999Z</time></trkpt><trkpt lat="37.63239045634982" lon="-4.310689463610587"><ele>464.0</ele><time>2026-04-19T08:04:50.999Z</time></trkpt><trkpt lat="37.63232707018695" lon="-4.310669696242711"><ele>463.99999999999994</ele><time>2026-04-19T08:04:52.999Z</time></trkpt><trkpt lat="37.63226293612527" lon="-4.310652502710485"><ele>464.0</ele><time>2026-04-19T08:04:54.999Z</time></trkpt><trkpt lat="37.63217204628903" lon="-4.310622922424897"><ele>464.00000000000006</ele><time>2026-04-19T08:04:57.999Z</time></trkpt><trkpt lat="37.63209948474751" lon="-4.310608903779199"><ele>464.0</ele><time>2026-04-19T08:04:59.999Z</time></trkpt><trkpt lat="37.632005637489364" lon="-4.310593100735983"><ele>464.00000000000006</ele><time>2026-04-19T08:05:02.999Z</time></trkpt><trkpt lat="37.63194036023711" lon="-4.310561680179631"><ele>464.00000000000006</ele><time>2026-04-19T08:05:04.999Z</time></trkpt><trkpt lat="37.63187688678073" lon="-4.3105306875295435"><ele>464.0</ele><time>2026-04-19T08:05:06.999Z</time></trkpt><trkpt lat="37.63181312557856" lon="-4.310513774918903"><ele>464.00000000000006</ele><time>2026-04-19T08:05:08.999Z</time></trkpt><trkpt lat="37.63175217430535" lon="-4.3104932460913385"><ele>464.00000000000006</ele><time>2026-04-19T08:05:10.999Z</time></trkpt><trkpt lat="37.63169637972997" lon="-4.310454630799461"><ele>464.8333333333333</ele><time>2026-04-19T08:05:12.999Z</time></trkpt><trkpt lat="37.63167355574844" lon="-4.310338481207885"><ele>465.66666666666663</ele><time>2026-04-19T08:05:15.999Z</time></trkpt><trkpt lat="37.63166072228119" lon="-4.310254212488988"><ele>466.5</ele><time>2026-04-19T08:05:17.999Z</time></trkpt><trkpt lat="37.63164903835709" lon="-4.310175135690595"><ele>467.33333333333337</ele><time>2026-04-19T08:05:19.999Z</time></trkpt><trkpt lat="37.63162412270742" lon="-4.31007168858089"><ele>468.1666666666667</ele><time>2026-04-19T08:05:22.999Z</time></trkpt><trkpt lat="37.63160598112234" lon="-4.3099598188629615"><ele>469.0</ele><time>2026-04-19T08:05:25.999Z</time></trkpt><trkpt lat="37.63158550193454" lon="-4.3098812317749955"><ele>469.00000000000006</ele><time>2026-04-19T08:05:27.999Z</time></trkpt><trkpt lat="37.63155303478821" lon="-4.309773569137026"><ele>469.0</ele><time>2026-04-19T08:05:30.998Z</time></trkpt><trkpt lat="37.63151687440098" lon="-4.309665342331097"><ele>469.0</ele><time>2026-04-19T08:05:33.998Z</time></trkpt><trkpt lat="37.63148517433493" lon="-4.309554908376417"><ele>469.0</ele><time>2026-04-19T08:05:36.998Z</time></trkpt><trkpt lat="37.63145496371583" lon="-4.309470126603411"><ele>469.00000000000006</ele><time>2026-04-19T08:05:39.998Z</time></trkpt><trkpt lat="37.631411953863136" lon="-4.309373794081142"><ele>469.0</ele><time>2026-04-19T08:05:42.998Z</time></trkpt><trkpt lat="37.631394079539064" lon="-4.309281287570996"><ele>469.6666666666667</ele><time>2026-04-19T08:05:45.998Z</time></trkpt><trkpt lat="37.631371383076754" lon="-4.309190367299615"><ele>470.33333333333337</ele><time>2026-04-19T08:05:48.998Z</time></trkpt><trkpt lat="37.63134182946105" lon="-4.309106573676134"><ele>471.0</ele><time>2026-04-19T08:05:51.998Z</time></trkpt><trkpt lat="37.63133138653592" lon="-4.309013545003246"><ele>471.66666666666663</ele><time>2026-04-19T08:05:54.998Z</time></trkpt><trkpt lat="37.63134895405109" lon="-4.30891370893096"><ele>472.3333333333333</ele><time>2026-04-19T08:05:57.998Z</time></trkpt><trkpt lat="37.63132512612047" lon="-4.3088100251981745"><ele>473.0</ele><time>2026-04-19T08:06:00.998Z</time></trkpt><trkpt lat="37.631304179950384" lon="-4.30872277631495"><ele>473.66666666666663</ele><time>2026-04-19T08:06:03.998Z</time></trkpt><trkpt lat="37.63128818596002" lon="-4.308625398575155"><ele>474.3333333333333</ele><time>2026-04-19T08:06:06.998Z</time></trkpt><trkpt lat="37.63127928436083" lon="-4.308533032702265"><ele>475.0</ele><time>2026-04-19T08:06:09.998Z</time></trkpt><trkpt lat="37.63126112892385" lon="-4.308428023176475"><ele>475.66666666666663</ele><time>2026-04-19T08:06:12.998Z</time></trkpt><trkpt lat="37.63124896652218" lon="-4.308319236714193"><ele>476.3333333333333</ele><time>2026-04-19T08:06:16Z</time></trkpt><trkpt lat="37.63122103410915" lon="-4.308206790095572"><ele>477.0</ele><time>2026-04-19T08:06:19Z</time></trkpt><trkpt lat="37.631199630592356" lon="-4.308128926353383"><ele>477.4285714285714</ele><time>2026-04-19T08:06:21Z</time></trkpt><trkpt lat="37.631181943759714" lon="-4.308041928363611"><ele>477.8571428571428</ele><time>2026-04-19T08:06:23Z</time></trkpt><trkpt lat="37.63116565922503" lon="-4.307956293396351"><ele>478.2857142857143</ele><time>2026-04-19T08:06:25Z</time></trkpt><trkpt lat="37.63114340601888" lon="-4.307877281643182"><ele>478.71428571428567</ele><time>2026-04-19T08:06:27Z</time></trkpt><trkpt lat="37.6311193897803" lon="-4.307768845576821"><ele>479.1428571428571</ele><time>2026-04-19T08:06:30Z</time></trkpt><trkpt lat="37.631109131120446" lon="-4.307685739124124"><ele>479.57142857142856</ele><time>2026-04-19T08:06:32Z</time></trkpt><trkpt lat="37.63108192376593" lon="-4.307609397309543"><ele>480.0</ele><time>2026-04-19T08:06:34Z</time></trkpt><trkpt lat="37.631043044799306" lon="-4.307537648049195"><ele>481.28571428571433</ele><time>2026-04-19T08:06:36Z</time></trkpt><trkpt lat="37.631022202615895" lon="-4.307458668955415"><ele>482.57142857142856</ele><time>2026-04-19T08:06:38Z</time></trkpt><trkpt lat="37.63100519882315" lon="-4.307380958517206"><ele>483.8571428571429</ele><time>2026-04-19T08:06:40Z</time></trkpt><trkpt lat="37.63099718431154" lon="-4.307290641057535"><ele>485.14285714285717</ele><time>2026-04-19T08:06:42Z</time></trkpt><trkpt lat="37.6309707446669" lon="-4.307201069117402"><ele>486.42857142857144</ele><time>2026-04-19T08:06:44Z</time></trkpt><trkpt lat="37.63094332030385" lon="-4.30712216251731"><ele>487.7142857142857</ele><time>2026-04-19T08:06:45.999Z</time></trkpt><trkpt lat="37.63091631203606" lon="-4.307039307531263"><ele>489.0</ele><time>2026-04-19T08:06:47.999Z</time></trkpt><trkpt lat="37.63088832583258" lon="-4.306955168495418"><ele>489.0</ele><time>2026-04-19T08:06:49.999Z</time></trkpt><trkpt lat="37.6308481137229" lon="-4.306880238514678"><ele>489.00000000000006</ele><time>2026-04-19T08:06:51.999Z</time></trkpt><trkpt lat="37.63081325009046" lon="-4.306805840097173"><ele>489.0</ele><time>2026-04-19T08:06:53.999Z</time></trkpt><trkpt lat="37.63078561768379" lon="-4.306716614989284"><ele>489.0</ele><time>2026-04-19T08:06:55.999Z</time></trkpt><trkpt lat="37.630755239996596" lon="-4.306637209791033"><ele>489.00000000000006</ele><time>2026-04-19T08:06:57.999Z</time></trkpt><trkpt lat="37.63073068261648" lon="-4.306548001468959"><ele>489.0</ele><time>2026-04-19T08:06:59.999Z</time></trkpt><trkpt lat="37.630696901162466" lon="-4.306473943090549"><ele>489.0</ele><time>2026-04-19T08:07:01.999Z</time></trkpt><trkpt lat="37.63066514268828" lon="-4.30640169767378"><ele>489.8333333333333</ele><time>2026-04-19T08:07:03.999Z</time></trkpt><trkpt lat="37.63062536078319" lon="-4.306298560261995"><ele>490.66666666666663</ele><time>2026-04-19T08:07:06.999Z</time></trkpt><trkpt lat="37.630590259820444" lon="-4.3062208913249584"><ele>491.5</ele><time>2026-04-19T08:07:09.999Z</time></trkpt><trkpt lat="37.630578929271614" lon="-4.30612652542833"><ele>492.3333333333333</ele><time>2026-04-19T08:07:12.999Z</time></trkpt><trkpt lat="37.630580505731494" lon="-4.306027585200791"><ele>493.16666666666663</ele><time>2026-04-19T08:07:14.999Z</time></trkpt><trkpt lat="37.63056508051157" lon="-4.305923403981601"><ele>494.0</ele><time>2026-04-19T08:07:16.999Z</time></trkpt><trkpt lat="37.63052505453552" lon="-4.3058155900854045"><ele>494.0</ele><time>2026-04-19T08:07:19.999Z</time></trkpt><trkpt lat="37.63051764698044" lon="-4.305726308093881"><ele>494.0</ele><time>2026-04-19T08:07:21.999Z</time></trkpt><trkpt lat="37.63051215725497" lon="-4.305646996770732"><ele>494.0</ele><time>2026-04-19T08:07:23.999Z</time></trkpt><trkpt lat="37.63049097475538" lon="-4.305570251806321"><ele>494.0</ele><time>2026-04-19T08:07:25.999Z</time></trkpt><trkpt lat="37.63043158184992" lon="-4.3054819858904345"><ele>494.0</ele><time>2026-04-19T08:07:28.999Z</time></trkpt><trkpt lat="37.63039360151116" lon="-4.305416510622336"><ele>494.0</ele><time>2026-04-19T08:07:30.999Z</time></trkpt><trkpt lat="37.63035081131138" lon="-4.305348357939839"><ele>494.0</ele><time>2026-04-19T08:07:32.998Z</time></trkpt><trkpt lat="37.63030754210822" lon="-4.305288957590821"><ele>494.7142857142857</ele><time>2026-04-19T08:07:34.998Z</time></trkpt><trkpt lat="37.63027321185156" lon="-4.305214664758185"><ele>495.42857142857144</ele><time>2026-04-19T08:07:36.998Z</time></trkpt><trkpt lat="37.63023458969685" lon="-4.305142831842828"><ele>496.14285714285717</ele><time>2026-04-19T08:07:38.998Z</time></trkpt><trkpt lat="37.63020177896303" lon="-4.305074124230511"><ele>496.8571428571429</ele><time>2026-04-19T08:07:40.998Z</time></trkpt><trkpt lat="37.630171427160256" lon="-4.305003869604773"><ele>497.57142857142856</ele><time>2026-04-19T08:07:42.998Z</time></trkpt><trkpt lat="37.63012788347227" lon="-4.304912855073006"><ele>498.28571428571433</ele><time>2026-04-19T08:07:45.998Z</time></trkpt><trkpt lat="37.63008763290763" lon="-4.304824425469127"><ele>499.00000000000006</ele><time>2026-04-19T08:07:48.998Z</time></trkpt><trkpt lat="37.63004382453253" lon="-4.304739188544386"><ele>500.6666666666667</ele><time>2026-04-19T08:07:51.998Z</time></trkpt><trkpt lat="37.63000058819659" lon="-4.304652961515303"><ele>502.33333333333337</ele><time>2026-04-19T08:07:54.998Z</time></trkpt><trkpt lat="37.62996044686766" lon="-4.304570508044629"><ele>504.0</ele><time>2026-04-19T08:07:57.998Z</time></trkpt><trkpt lat="37.62991375308542" lon="-4.304483937556509"><ele>505.66666666666663</ele><time>2026-04-19T08:08:00.998Z</time></trkpt><trkpt lat="37.62986975064224" lon="-4.304402558507843"><ele>507.3333333333333</ele><time>2026-04-19T08:08:03.998Z</time></trkpt><trkpt lat="37.629820370901136" lon="-4.304316772196009"><ele>509.0</ele><time>2026-04-19T08:08:06.998Z</time></trkpt><trkpt lat="37.62976817725273" lon="-4.3042314231920065"><ele>508.99999999999994</ele><time>2026-04-19T08:08:09.998Z</time></trkpt><trkpt lat="37.6297143203628" lon="-4.304152138511522"><ele>509.0</ele><time>2026-04-19T08:08:12.998Z</time></trkpt><trkpt lat="37.6296606141462" lon="-4.3040716292520065"><ele>509.0</ele><time>2026-04-19T08:08:15.998Z</time></trkpt><trkpt lat="37.629602656000905" lon="-4.30399210071399"><ele>509.0</ele><time>2026-04-19T08:08:18.997Z</time></trkpt><trkpt lat="37.62955759076395" lon="-4.303908694778735"><ele>508.99999999999994</ele><time>2026-04-19T08:08:22Z</time></trkpt><trkpt lat="37.629590758493265" lon="-4.30383840035815"><ele>509.0</ele><time>2026-04-19T08:08:25Z</time></trkpt><trkpt lat="37.629654770522656" lon="-4.303877756623835"><ele>508.99999999999994</ele><time>2026-04-19T08:08:28Z</time></trkpt><trkpt lat="37.62972189828289" lon="-4.303956799512178"><ele>509.0</ele><time>2026-04-19T08:08:31Z</time></trkpt><trkpt lat="37.62977150436131" lon="-4.304010825275325"><ele>509.0</ele><time>2026-04-19T08:08:33Z</time></trkpt><trkpt lat="37.62982257760733" lon="-4.304061462901634"><ele>509.0</ele><time>2026-04-19T08:08:35Z</time></trkpt><trkpt lat="37.62987395654398" lon="-4.304115364289584"><ele>508.99999999999994</ele><time>2026-04-19T08:08:37Z</time></trkpt><trkpt lat="37.62994945874496" lon="-4.3041867444033475"><ele>509.0</ele><time>2026-04-19T08:08:40Z</time></trkpt><trkpt lat="37.6300209492977" lon="-4.304259538565362"><ele>508.99999999999994</ele><time>2026-04-19T08:08:43Z</time></trkpt><trkpt lat="37.63009290662981" lon="-4.30432963011616"><ele>509.0</ele><time>2026-04-19T08:08:46Z</time></trkpt><trkpt lat="37.630156834660745" lon="-4.3043947073641355"><ele>509.0</ele><time>2026-04-19T08:08:49Z</time></trkpt><trkpt lat="37.63020997548547" lon="-4.3044531454707755"><ele>509.0</ele><time>2026-04-19T08:08:53Z</time></trkpt><trkpt lat="37.63026885659176" lon="-4.304492039936493"><ele>508.99999999999994</ele><time>2026-04-19T08:08:57Z</time></trkpt><trkpt lat="37.63034499451648" lon="-4.304484805916729"><ele>509.0</ele><time>2026-04-19T08:08:59.999Z</time></trkpt><trkpt lat="37.63037546840724" lon="-4.304383954705402"><ele>509.66666666666663</ele><time>2026-04-19T08:09:02.999Z</time></trkpt><trkpt lat="37.6303766501736" lon="-4.304271191148204"><ele>510.3333333333333</ele><time>2026-04-19T08:09:05.999Z</time></trkpt><trkpt lat="37.630367369301744" lon="-4.304151580417811"><ele>511.0</ele><time>2026-04-19T08:09:08.999Z</time></trkpt><trkpt lat="37.63035086504173" lon="-4.304033782420375"><ele>511.66666666666663</ele><time>2026-04-19T08:09:11.999Z</time></trkpt><trkpt lat="37.63034346894286" lon="-4.303944552176262"><ele>512.3333333333334</ele><time>2026-04-19T08:09:13.999Z</time></trkpt><trkpt lat="37.63034091124102" lon="-4.303860927315552"><ele>513.0</ele><time>2026-04-19T08:09:15.999Z</time></trkpt><trkpt lat="37.630326175164655" lon="-4.303756379466819"><ele>513.7142857142858</ele><time>2026-04-19T08:09:18.999Z</time></trkpt><trkpt lat="37.63030268007631" lon="-4.303678974023291"><ele>514.4285714285714</ele><time>2026-04-19T08:09:20.999Z</time></trkpt><trkpt lat="37.630273899796926" lon="-4.303606666065617"><ele>515.1428571428571</ele><time>2026-04-19T08:09:22.999Z</time></trkpt><trkpt lat="37.6302492649181" lon="-4.30352338990238"><ele>515.8571428571429</ele><time>2026-04-19T08:09:24.999Z</time></trkpt><trkpt lat="37.63024346671015" lon="-4.303433452645908"><ele>516.5714285714286</ele><time>2026-04-19T08:09:26.999Z</time></trkpt><trkpt lat="37.6302447195772" lon="-4.3033411410358555"><ele>517.2857142857143</ele><time>2026-04-19T08:09:28.999Z</time></trkpt><trkpt lat="37.63023963648033" lon="-4.303256616647452"><ele>518.0</ele><time>2026-04-19T08:09:30.999Z</time></trkpt><trkpt lat="37.63024249333287" lon="-4.303174005231993"><ele>518.6666666666666</ele><time>2026-04-19T08:09:32.999Z</time></trkpt><trkpt lat="37.630264501365865" lon="-4.303079673262727"><ele>519.3333333333333</ele><time>2026-04-19T08:09:34.999Z</time></trkpt><trkpt lat="37.63030276805014" lon="-4.302998432599756"><ele>520.0</ele><time>2026-04-19T08:09:38.999Z</time></trkpt><trkpt lat="37.63027807338981" lon="-4.302906624279153"><ele>520.6666666666666</ele><time>2026-04-19T08:09:41.999Z</time></trkpt><trkpt lat="37.630268018365406" lon="-4.302809153873724"><ele>521.3333333333334</ele><time>2026-04-19T08:09:44.999Z</time></trkpt><trkpt lat="37.630247634419376" lon="-4.302708288093944"><ele>522.0</ele><time>2026-04-19T08:09:48.998Z</time></trkpt><trkpt lat="37.63023344267339" lon="-4.3026065897642"><ele>522.0</ele><time>2026-04-19T08:09:51.998Z</time></trkpt><trkpt lat="37.63020916909394" lon="-4.302516600380301"><ele>522.0</ele><time>2026-04-19T08:09:53.998Z</time></trkpt><trkpt lat="37.63016128603107" lon="-4.302403846103915"><ele>522.0</ele><time>2026-04-19T08:09:55.998Z</time></trkpt><trkpt lat="37.63013966663798" lon="-4.302301314717531"><ele>522.0</ele><time>2026-04-19T08:10:00.998Z</time></trkpt><trkpt lat="37.630110977846485" lon="-4.302222904562596"><ele>522.0</ele><time>2026-04-19T08:10:02.998Z</time></trkpt><trkpt lat="37.63010187055315" lon="-4.302124650291075"><ele>522.0</ele><time>2026-04-19T08:10:05.998Z</time></trkpt><trkpt lat="37.630078526330955" lon="-4.302029398791123"><ele>523.0</ele><time>2026-04-19T08:10:08.998Z</time></trkpt><trkpt lat="37.63004982729218" lon="-4.301920999071431"><ele>524.0</ele><time>2026-04-19T08:10:11.998Z</time></trkpt><trkpt lat="37.630017810654394" lon="-4.301818189042298"><ele>525.0</ele><time>2026-04-19T08:10:14.998Z</time></trkpt><trkpt lat="37.62999075463882" lon="-4.301718661295011"><ele>526.0</ele><time>2026-04-19T08:10:17.998Z</time></trkpt><trkpt lat="37.62996243515821" lon="-4.301623965156893"><ele>527.0</ele><time>2026-04-19T08:10:20.998Z</time></trkpt><trkpt lat="37.629938756978945" lon="-4.301528758002332"><ele>528.0</ele><time>2026-04-19T08:10:23.998Z</time></trkpt><trkpt lat="37.62992293037314" lon="-4.30144671361958"><ele>529.1428571428571</ele><time>2026-04-19T08:10:25.998Z</time></trkpt><trkpt lat="37.62989784083636" lon="-4.301347163761573"><ele>530.2857142857143</ele><time>2026-04-19T08:10:29Z</time></trkpt><trkpt lat="37.62987320611242" lon="-4.301245940418732"><ele>531.4285714285714</ele><time>2026-04-19T08:10:32Z</time></trkpt><trkpt lat="37.62986838801213" lon="-4.301155970310371"><ele>532.5714285714286</ele><time>2026-04-19T08:10:35Z</time></trkpt><trkpt lat="37.6298734096225" lon="-4.301071553742526"><ele>533.7142857142857</ele><time>2026-04-19T08:10:38Z</time></trkpt><trkpt lat="37.62989671743949" lon="-4.300991105951433"><ele>534.8571428571429</ele><time>2026-04-19T08:10:41Z</time></trkpt><trkpt lat="37.629947581709075" lon="-4.3009298505620235"><ele>536.0</ele><time>2026-04-19T08:10:44Z</time></trkpt><trkpt lat="37.629983418771076" lon="-4.300863027212567"><ele>536.0</ele><time>2026-04-19T08:10:47Z</time></trkpt><trkpt lat="37.630037118515645" lon="-4.300796036472797"><ele>536.0</ele><time>2026-04-19T08:10:51Z</time></trkpt><trkpt lat="37.63008918688346" lon="-4.300713299895627"><ele>536.0</ele><time>2026-04-19T08:10:54Z</time></trkpt><trkpt lat="37.63012719439195" lon="-4.300610383940212"><ele>536.0</ele><time>2026-04-19T08:10:57Z</time></trkpt><trkpt lat="37.630179916552244" lon="-4.3005595344895"><ele>536.0</ele><time>2026-04-19T08:10:59Z</time></trkpt><trkpt lat="37.63023354405695" lon="-4.300487237071064"><ele>536.0</ele><time>2026-04-19T08:11:02Z</time></trkpt><trkpt lat="37.6302716586477" lon="-4.30041522951818"><ele>536.5</ele><time>2026-04-19T08:11:05Z</time></trkpt><trkpt lat="37.63026261649537" lon="-4.300301534587032"><ele>537.0</ele><time>2026-04-19T08:11:07.999Z</time></trkpt><trkpt lat="37.63028312573792" lon="-4.300189755280117"><ele>537.5</ele><time>2026-04-19T08:11:10.999Z</time></trkpt><trkpt lat="37.63031295042092" lon="-4.300111656748832"><ele>538.0</ele><time>2026-04-19T08:11:12.999Z</time></trkpt><trkpt lat="37.630296199713456" lon="-4.300022494049731"><ele>538.5</ele><time>2026-04-19T08:11:15.999Z</time></trkpt><trkpt lat="37.630281933934135" lon="-4.299911533624221"><ele>539.0</ele><time>2026-04-19T08:11:18.999Z</time></trkpt><trkpt lat="37.630294396099416" lon="-4.299820855625188"><ele>538.6666666666666</ele><time>2026-04-19T08:11:21.999Z</time></trkpt><trkpt lat="37.63035306339033" lon="-4.299744557443777"><ele>538.3333333333333</ele><time>2026-04-19T08:11:25.999Z</time></trkpt><trkpt lat="37.630342062287006" lon="-4.299653384013439"><ele>538.0</ele><time>2026-04-19T08:11:29.999Z</time></trkpt><trkpt lat="37.63033483935011" lon="-4.2995446881041826"><ele>537.6666666666666</ele><time>2026-04-19T08:11:33.999Z</time></trkpt><trkpt lat="37.630372267933836" lon="-4.299450811071585"><ele>537.3333333333334</ele><time>2026-04-19T08:11:35.999Z</time></trkpt><trkpt lat="37.6303991902492" lon="-4.299358484142433"><ele>537.0</ele><time>2026-04-19T08:11:37.999Z</time></trkpt><trkpt lat="37.63041124634123" lon="-4.299235890920524"><ele>537.0</ele><time>2026-04-19T08:11:39.999Z</time></trkpt><trkpt lat="37.63042188723964" lon="-4.299107449249066"><ele>537.0</ele><time>2026-04-19T08:11:41.999Z</time></trkpt><trkpt lat="37.630364283569584" lon="-4.298987979083897"><ele>537.0</ele><time>2026-04-19T08:11:43.999Z</time></trkpt><trkpt lat="37.630293951639175" lon="-4.298909882393818"><ele>537.0</ele><time>2026-04-19T08:11:45.999Z</time></trkpt><trkpt lat="37.63025815987747" lon="-4.298823281712097"><ele>537.0</ele><time>2026-04-19T08:11:48.999Z</time></trkpt><trkpt lat="37.63022741863079" lon="-4.298736638989081"><ele>538.5</ele><time>2026-04-19T08:11:51.999Z</time></trkpt><trkpt lat="37.63018977557363" lon="-4.298671795232631"><ele>540.0</ele><time>2026-04-19T08:11:54.998Z</time></trkpt><trkpt lat="37.63014123210897" lon="-4.298615184929426"><ele>541.5</ele><time>2026-04-19T08:12:18.998Z</time></trkpt><trkpt lat="37.63008045799425" lon="-4.298530178132481"><ele>543.0</ele><time>2026-04-19T08:12:22.998Z</time></trkpt><trkpt lat="37.630024479271746" lon="-4.298446031449283"><ele>544.5</ele><time>2026-04-19T08:12:24.998Z</time></trkpt><trkpt lat="37.62995501018141" lon="-4.298349014794291"><ele>546.0</ele><time>2026-04-19T08:12:26.998Z</time></trkpt><trkpt lat="37.62990155838405" lon="-4.298271314607718"><ele>546.0</ele><time>2026-04-19T08:12:28.998Z</time></trkpt><trkpt lat="37.629854666906525" lon="-4.298203275511936"><ele>546.0</ele><time>2026-04-19T08:12:32.998Z</time></trkpt><trkpt lat="37.62980199023791" lon="-4.2981279574073445"><ele>546.0</ele><time>2026-04-19T08:12:36Z</time></trkpt><trkpt lat="37.62975783840709" lon="-4.298047258208716"><ele>546.0</ele><time>2026-04-19T08:12:39Z</time></trkpt><trkpt lat="37.629746505222954" lon="-4.297960510034289"><ele>546.0</ele><time>2026-04-19T08:12:42Z</time></trkpt><trkpt lat="37.62976529421774" lon="-4.297882608593988"><ele>546.0</ele><time>2026-04-19T08:12:44Z</time></trkpt><trkpt lat="37.62978861321428" lon="-4.297804395351724"><ele>546.0</ele><time>2026-04-19T08:12:46Z</time></trkpt><trkpt lat="37.62980029388791" lon="-4.2977200013424355"><ele>546.4285714285714</ele><time>2026-04-19T08:12:48Z</time></trkpt><trkpt lat="37.62980306164333" lon="-4.2976302557478405"><ele>546.8571428571429</ele><time>2026-04-19T08:12:51Z</time></trkpt><trkpt lat="37.62978369672932" lon="-4.297524685891257"><ele>547.2857142857142</ele><time>2026-04-19T08:12:55Z</time></trkpt><trkpt lat="37.6297720759524" lon="-4.297440749818531"><ele>547.7142857142858</ele><time>2026-04-19T08:12:58Z</time></trkpt><trkpt lat="37.62976790627558" lon="-4.29735327793543"><ele>548.1428571428571</ele><time>2026-04-19T08:13:01Z</time></trkpt><trkpt lat="37.62977579092235" lon="-4.297251026887633"><ele>548.5714285714286</ele><time>2026-04-19T08:13:05Z</time></trkpt><trkpt lat="37.6297941812653" lon="-4.297169622193054"><ele>549.0</ele><time>2026-04-19T08:13:08Z</time></trkpt><trkpt lat="37.62980811745074" lon="-4.297087663556588"><ele>549.2857142857142</ele><time>2026-04-19T08:13:11Z</time></trkpt><trkpt lat="37.6298053232632" lon="-4.297006784300342"><ele>549.5714285714286</ele><time>2026-04-19T08:13:14Z</time></trkpt><trkpt lat="37.62977803395701" lon="-4.296932884676444"><ele>549.8571428571429</ele><time>2026-04-19T08:13:17Z</time></trkpt><trkpt lat="37.62972830137504" lon="-4.296864185919858"><ele>550.1428571428571</ele><time>2026-04-19T08:13:21.999Z</time></trkpt><trkpt lat="37.629691885890175" lon="-4.296778583806198"><ele>550.4285714285714</ele><time>2026-04-19T08:13:26.999Z</time></trkpt><trkpt lat="37.6296628232726" lon="-4.29670559294231"><ele>550.7142857142857</ele><time>2026-04-19T08:13:32.999Z</time></trkpt><trkpt lat="37.62963398798424" lon="-4.296627067586941"><ele>551.0</ele><time>2026-04-19T08:13:36.999Z</time></trkpt><trkpt lat="37.6296009721016" lon="-4.296529316681059"><ele>551.0</ele><time>2026-04-19T08:13:39.999Z</time></trkpt><trkpt lat="37.62958554826349" lon="-4.296430128029739"><ele>551.0</ele><time>2026-04-19T08:13:43.999Z</time></trkpt><trkpt lat="37.62955716367465" lon="-4.296346444872857"><ele>551.0</ele><time>2026-04-19T08:13:46.999Z</time></trkpt><trkpt lat="37.62952156500131" lon="-4.296254201334793"><ele>551.0</ele><time>2026-04-19T08:13:49.999Z</time></trkpt><trkpt lat="37.629480239244934" lon="-4.296175065694994"><ele>551.0</ele><time>2026-04-19T08:13:52.999Z</time></trkpt><trkpt lat="37.62949941698653" lon="-4.296026280321675"><ele>551.0</ele><time>2026-04-19T08:13:56.999Z</time></trkpt><trkpt lat="37.62949933088979" lon="-4.2959190772397795"><ele>550.1666666666666</ele><time>2026-04-19T08:13:57.999Z</time></trkpt><trkpt lat="37.62947926095696" lon="-4.29582363053531"><ele>549.3333333333333</ele><time>2026-04-19T08:13:58.999Z</time></trkpt><trkpt lat="37.62946763719633" lon="-4.2957222348569015"><ele>548.5</ele><time>2026-04-19T08:13:59.999Z</time></trkpt><trkpt lat="37.62946762196081" lon="-4.2956329682713"><ele>547.6666666666666</ele><time>2026-04-19T08:14:00.999Z</time></trkpt><trkpt lat="37.629464728540746" lon="-4.295550351354231"><ele>546.8333333333334</ele><time>2026-04-19T08:14:01.999Z</time></trkpt><trkpt lat="37.629451701851366" lon="-4.29543940727875"><ele>546.0</ele><time>2026-04-19T08:14:03.999Z</time></trkpt><trkpt lat="37.62944008779778" lon="-4.2953583308751195"><ele>546.0</ele><time>2026-04-19T08:14:06.998Z</time></trkpt><trkpt lat="37.62943305610647" lon="-4.295254106270329"><ele>546.0</ele><time>2026-04-19T08:14:10.998Z</time></trkpt><trkpt lat="37.62944496392964" lon="-4.295168175210912"><ele>546.0</ele><time>2026-04-19T08:14:13.998Z</time></trkpt><trkpt lat="37.629461601929876" lon="-4.295084432788914"><ele>546.0</ele><time>2026-04-19T08:14:16.998Z</time></trkpt><trkpt lat="37.62948395743352" lon="-4.294974736454981"><ele>546.0</ele><time>2026-04-19T08:14:20.998Z</time></trkpt><trkpt lat="37.62948601180863" lon="-4.294889179559403"><ele>546.0</ele><time>2026-04-19T08:14:23.998Z</time></trkpt><trkpt lat="37.629509897785674" lon="-4.294812839788203"><ele>546.0</ele><time>2026-04-19T08:14:26.998Z</time></trkpt><trkpt lat="37.629556233157615" lon="-4.2947500845485065"><ele>546.0</ele><time>2026-04-19T08:14:29.998Z</time></trkpt><trkpt lat="37.62961320041646" lon="-4.294700099086026"><ele>546.0</ele><time>2026-04-19T08:14:32.998Z</time></trkpt><trkpt lat="37.62969125403746" lon="-4.2946632973534005"><ele>546.0</ele><time>2026-04-19T08:14:36.998Z</time></trkpt><trkpt lat="37.629766582907195" lon="-4.294648440067602"><ele>546.0</ele><time>2026-04-19T08:14:42Z</time></trkpt><trkpt lat="37.62981695942111" lon="-4.2945799191547644"><ele>546.0</ele><time>2026-04-19T08:14:48Z</time></trkpt><trkpt lat="37.629758518493546" lon="-4.294534896471454"><ele>546.0</ele><time>2026-04-19T08:16:21.999Z</time></trkpt><trkpt lat="37.629698622882245" lon="-4.294499055841796"><ele>546.0</ele><time>2026-04-19T08:16:26.998Z</time></trkpt><trkpt lat="37.629687650091654" lon="-4.294386631464769"><ele>546.0</ele><time>2026-04-19T08:16:29.998Z</time></trkpt><trkpt lat="37.62962403838299" lon="-4.294304318426765"><ele>546.0</ele><time>2026-04-19T08:16:32.998Z</time></trkpt><trkpt lat="37.6295632755019" lon="-4.294280260276737"><ele>546.0</ele><time>2026-04-19T08:16:36.998Z</time></trkpt><trkpt lat="37.629522944908345" lon="-4.294209929252121"><ele>546.0</ele><time>2026-04-19T08:16:39.998Z</time></trkpt><trkpt lat="37.62949131727306" lon="-4.294118241319988"><ele>546.0</ele><time>2026-04-19T08:16:41.998Z</time></trkpt><trkpt lat="37.62943633265054" lon="-4.294062052901186"><ele>546.0</ele><time>2026-04-19T08:16:46Z</time></trkpt><trkpt lat="37.62939491111052" lon="-4.294001277369981"><ele>546.0</ele><time>2026-04-19T08:16:49Z</time></trkpt><trkpt lat="37.6293591739733" lon="-4.293898910107926"><ele>546.5</ele><time>2026-04-19T08:16:52Z</time></trkpt><trkpt lat="37.6293302237843" lon="-4.293797579794735"><ele>547.0</ele><time>2026-04-19T08:16:55Z</time></trkpt><trkpt lat="37.629307020315096" lon="-4.293711008728769"><ele>547.5</ele><time>2026-04-19T08:16:58Z</time></trkpt><trkpt lat="37.629324129812886" lon="-4.293593057041996"><ele>548.0</ele><time>2026-04-19T08:17:01Z</time></trkpt><trkpt lat="37.62936747339245" lon="-4.2934572027825215"><ele>548.5</ele><time>2026-04-19T08:17:03Z</time></trkpt><trkpt lat="37.62938525334091" lon="-4.29336929503892"><ele>549.0</ele><time>2026-04-19T08:17:04Z</time></trkpt><trkpt lat="37.62940717596069" lon="-4.293290825308769"><ele>549.0</ele><time>2026-04-19T08:17:05Z</time></trkpt><trkpt lat="37.629430771684085" lon="-4.29321548385839"><ele>549.0</ele><time>2026-04-19T08:17:06Z</time></trkpt><trkpt lat="37.62946098573792" lon="-4.29308254011318"><ele>549.0</ele><time>2026-04-19T08:17:08Z</time></trkpt><trkpt lat="37.629458890010504" lon="-4.293001880750767"><ele>549.0</ele><time>2026-04-19T08:17:09Z</time></trkpt><trkpt lat="37.629463828279505" lon="-4.2928663924376"><ele>549.0</ele><time>2026-04-19T08:17:11Z</time></trkpt><trkpt lat="37.62947101566531" lon="-4.29276849575444"><ele>549.0</ele><time>2026-04-19T08:17:14Z</time></trkpt><trkpt lat="37.62945781946594" lon="-4.292661269854827"><ele>548.6666666666666</ele><time>2026-04-19T08:17:17Z</time></trkpt><trkpt lat="37.62948068863227" lon="-4.292570208470391"><ele>548.3333333333334</ele><time>2026-04-19T08:17:20Z</time></trkpt><trkpt lat="37.62951539718824" lon="-4.292479956596144"><ele>548.0</ele><time>2026-04-19T08:17:23Z</time></trkpt><trkpt lat="37.629547772701684" lon="-4.292401936778582"><ele>547.6666666666667</ele><time>2026-04-19T08:17:25Z</time></trkpt><trkpt lat="37.62956625015188" lon="-4.292319307631511"><ele>547.3333333333334</ele><time>2026-04-19T08:17:27Z</time></trkpt><trkpt lat="37.629582289892724" lon="-4.292218706197829"><ele>547.0</ele><time>2026-04-19T08:17:30Z</time></trkpt><trkpt lat="37.62956666661041" lon="-4.292120458923671"><ele>546.8333333333334</ele><time>2026-04-19T08:17:33Z</time></trkpt><trkpt lat="37.62956373366296" lon="-4.292026832726488"><ele>546.6666666666667</ele><time>2026-04-19T08:17:35Z</time></trkpt><trkpt lat="37.62954233872232" lon="-4.291907804667986"><ele>546.5</ele><time>2026-04-19T08:17:37Z</time></trkpt><trkpt lat="37.62951619824505" lon="-4.291803666631559"><ele>546.3333333333334</ele><time>2026-04-19T08:17:39Z</time></trkpt><trkpt lat="37.629509921077826" lon="-4.2917042613297065"><ele>546.1666666666666</ele><time>2026-04-19T08:17:41Z</time></trkpt><trkpt lat="37.629480489384456" lon="-4.291616849473153"><ele>546.0</ele><time>2026-04-19T08:17:42.999Z</time></trkpt><trkpt lat="37.629450333250766" lon="-4.291518639911752"><ele>545.6666666666666</ele><time>2026-04-19T08:17:44.999Z</time></trkpt><trkpt lat="37.62941653732123" lon="-4.291423583776956"><ele>545.3333333333334</ele><time>2026-04-19T08:17:46.999Z</time></trkpt><trkpt lat="37.62938239112945" lon="-4.291327889589473"><ele>545.0</ele><time>2026-04-19T08:17:49.999Z</time></trkpt><trkpt lat="37.629350985073586" lon="-4.291227147354545"><ele>544.6666666666667</ele><time>2026-04-19T08:17:53.999Z</time></trkpt><trkpt lat="37.62932506719291" lon="-4.2911154207717805"><ele>544.3333333333334</ele><time>2026-04-19T08:17:55.999Z</time></trkpt><trkpt lat="37.629389929821805" lon="-4.291061761917743"><ele>544.0</ele><time>2026-04-19T08:17:58.999Z</time></trkpt><trkpt lat="37.62940121661066" lon="-4.290962828886353"><ele>544.0</ele><time>2026-04-19T08:18:00.999Z</time></trkpt><trkpt lat="37.62942720986142" lon="-4.290856397193983"><ele>544.0</ele><time>2026-04-19T08:18:02.999Z</time></trkpt><trkpt lat="37.62944745730755" lon="-4.290721125036553"><ele>544.0</ele><time>2026-04-19T08:18:04.999Z</time></trkpt><trkpt lat="37.62951986071944" lon="-4.290661411087381"><ele>544.0</ele><time>2026-04-19T08:18:06.999Z</time></trkpt><trkpt lat="37.62960941257678" lon="-4.2906356127404655"><ele>544.0</ele><time>2026-04-19T08:18:08.999Z</time></trkpt><trkpt lat="37.62966953660809" lon="-4.290606374916279"><ele>544.0</ele><time>2026-04-19T08:18:10.999Z</time></trkpt><trkpt lat="37.629756695171906" lon="-4.290591877518182"><ele>541.4</ele><time>2026-04-19T08:18:12.999Z</time></trkpt><trkpt lat="37.62985838851391" lon="-4.2906297611784145"><ele>538.8</ele><time>2026-04-19T08:18:14.999Z</time></trkpt><trkpt lat="37.6299337260729" lon="-4.290677050620198"><ele>536.2</ele><time>2026-04-19T08:18:16.999Z</time></trkpt><trkpt lat="37.629996734029675" lon="-4.290693734096751"><ele>533.6</ele><time>2026-04-19T08:18:17.999Z</time></trkpt><trkpt lat="37.63008530734513" lon="-4.290709648342728"><ele>531.0</ele><time>2026-04-19T08:18:19.999Z</time></trkpt><trkpt lat="37.630198859616996" lon="-4.29070655463836"><ele>531.0</ele><time>2026-04-19T08:18:22.999Z</time></trkpt><trkpt lat="37.63026582414452" lon="-4.290711177265487"><ele>531.0</ele><time>2026-04-19T08:18:23.999Z</time></trkpt><trkpt lat="37.630331906010284" lon="-4.290725698344213"><ele>531.0</ele><time>2026-04-19T08:18:24.999Z</time></trkpt><trkpt lat="37.630446062165085" lon="-4.29074835081449"><ele>531.0</ele><time>2026-04-19T08:18:27.999Z</time></trkpt><trkpt lat="37.63057767535258" lon="-4.290766378914577"><ele>531.0</ele><time>2026-04-19T08:18:29.999Z</time></trkpt><trkpt lat="37.63068582307213" lon="-4.290789809453223"><ele>527.0</ele><time>2026-04-19T08:18:31.998Z</time></trkpt><trkpt lat="37.630798726729395" lon="-4.2907728702719625"><ele>523.0</ele><time>2026-04-19T08:18:33.998Z</time></trkpt><trkpt lat="37.63090741313241" lon="-4.29078422445853"><ele>519.0</ele><time>2026-04-19T08:18:35.998Z</time></trkpt><trkpt lat="37.63097398274525" lon="-4.290791446175125"><ele>515.0</ele><time>2026-04-19T08:18:36.998Z</time></trkpt><trkpt lat="37.631046169857925" lon="-4.290797017962914"><ele>511.0</ele><time>2026-04-19T08:18:37.998Z</time></trkpt><trkpt lat="37.63113798956518" lon="-4.290823767811222"><ele>508.20000000000005</ele><time>2026-04-19T08:18:38.998Z</time></trkpt><trkpt lat="37.63120437870048" lon="-4.290878063452764"><ele>505.40000000000003</ele><time>2026-04-19T08:18:39.998Z</time></trkpt><trkpt lat="37.631293680689794" lon="-4.290929993517007"><ele>502.6</ele><time>2026-04-19T08:18:41.998Z</time></trkpt><trkpt lat="37.63136784973242" lon="-4.290901950178936"><ele>499.8</ele><time>2026-04-19T08:18:43.998Z</time></trkpt><trkpt lat="37.63146706880182" lon="-4.290840639816576"><ele>497.0</ele><time>2026-04-19T08:18:45.998Z</time></trkpt><trkpt lat="37.63157446106885" lon="-4.290788256330094"><ele>497.0</ele><time>2026-04-19T08:18:47.998Z</time></trkpt><trkpt lat="37.631689118488154" lon="-4.2907457690250075"><ele>497.00000000000006</ele><time>2026-04-19T08:18:49.998Z</time></trkpt><trkpt lat="37.6317458719026" lon="-4.290790725084375"><ele>497.00000000000006</ele><time>2026-04-19T08:18:50.998Z</time></trkpt><trkpt lat="37.63184699155752" lon="-4.290856178698913"><ele>497.0</ele><time>2026-04-19T08:18:53Z</time></trkpt><trkpt lat="37.63195791785002" lon="-4.290847596007372"><ele>497.0</ele><time>2026-04-19T08:18:55Z</time></trkpt><trkpt lat="37.63205559879692" lon="-4.290834647864426"><ele>495.7142857142857</ele><time>2026-04-19T08:18:56Z</time></trkpt><trkpt lat="37.6321247592081" lon="-4.290828167764239"><ele>494.42857142857144</ele><time>2026-04-19T08:18:57Z</time></trkpt><trkpt lat="37.63219292429356" lon="-4.2908474956094285"><ele>493.1428571428571</ele><time>2026-04-19T08:18:58Z</time></trkpt><trkpt lat="37.632255781457324" lon="-4.290842442054799"><ele>491.85714285714283</ele><time>2026-04-19T08:18:59Z</time></trkpt><trkpt lat="37.632313703128915" lon="-4.290800499169093"><ele>490.57142857142856</ele><time>2026-04-19T08:19:00Z</time></trkpt><trkpt lat="37.63237303309945" lon="-4.2907446081862455"><ele>489.2857142857142</ele><time>2026-04-19T08:19:01Z</time></trkpt><trkpt lat="37.6324271117209" lon="-4.290702953488513"><ele>487.99999999999994</ele><time>2026-04-19T08:19:02Z</time></trkpt><trkpt lat="37.632500892604156" lon="-4.290659831099567"><ele>488.0</ele><time>2026-04-19T08:19:04Z</time></trkpt><trkpt lat="37.63263918215098" lon="-4.290656606506724"><ele>487.99999999999994</ele><time>2026-04-19T08:19:06Z</time></trkpt><trkpt lat="37.63270745837325" lon="-4.290647129090328"><ele>487.99999999999994</ele><time>2026-04-19T08:19:07Z</time></trkpt><trkpt lat="37.63277438111122" lon="-4.290547843505836"><ele>488.0</ele><time>2026-04-19T08:19:09Z</time></trkpt><trkpt lat="37.63285162747225" lon="-4.290530568154282"><ele>488.0</ele><time>2026-04-19T08:19:11Z</time></trkpt><trkpt lat="37.63292584912237" lon="-4.290601059640278"><ele>485.66666666666663</ele><time>2026-04-19T08:20:03.999Z</time></trkpt><trkpt lat="37.632990102244214" lon="-4.2906510598878445"><ele>483.3333333333333</ele><time>2026-04-19T08:20:05.999Z</time></trkpt><trkpt lat="37.63306602980082" lon="-4.290698669981865"><ele>481.0</ele><time>2026-04-19T08:20:07.999Z</time></trkpt><trkpt lat="37.63315800247192" lon="-4.290739432874898"><ele>478.66666666666663</ele><time>2026-04-19T08:20:09.999Z</time></trkpt><trkpt lat="37.633225631181716" lon="-4.290866307647243"><ele>476.3333333333333</ele><time>2026-04-19T08:20:11.999Z</time></trkpt><trkpt lat="37.63327146353922" lon="-4.290922952555939"><ele>474.0</ele><time>2026-04-19T08:20:12.999Z</time></trkpt><trkpt lat="37.63336803341801" lon="-4.290941287959614"><ele>474.0</ele><time>2026-04-19T08:20:14.999Z</time></trkpt><trkpt lat="37.63338359057469" lon="-4.2910463961716685"><ele>474.0</ele><time>2026-04-19T08:20:16.999Z</time></trkpt><trkpt lat="37.63342652093355" lon="-4.2911520928891145"><ele>474.0</ele><time>2026-04-19T08:20:18.999Z</time></trkpt><trkpt lat="37.63351111951024" lon="-4.2912538878634265"><ele>474.0</ele><time>2026-04-19T08:20:20.999Z</time></trkpt><trkpt lat="37.63354776815289" lon="-4.2913218425459085"><ele>474.0</ele><time>2026-04-19T08:20:21.999Z</time></trkpt><trkpt lat="37.63360551615787" lon="-4.291422991885537"><ele>472.4</ele><time>2026-04-19T08:20:23.999Z</time></trkpt><trkpt lat="37.63370194304797" lon="-4.2915111929380805"><ele>470.79999999999995</ele><time>2026-04-19T08:20:25.999Z</time></trkpt><trkpt lat="37.63379968384183" lon="-4.291554956549067"><ele>469.20000000000005</ele><time>2026-04-19T08:20:27.999Z</time></trkpt><trkpt lat="37.6339008538516" lon="-4.291606645171108"><ele>467.6</ele><time>2026-04-19T08:20:29.999Z</time></trkpt><trkpt lat="37.633962626796695" lon="-4.291653030727321"><ele>466.0</ele><time>2026-04-19T08:20:30.999Z</time></trkpt><trkpt lat="37.634025771450894" lon="-4.291697277631241"><ele>466.0</ele><time>2026-04-19T08:20:32.999Z</time></trkpt><trkpt lat="37.63403586383373" lon="-4.291795833030642"><ele>466.0</ele><time>2026-04-19T08:20:34.999Z</time></trkpt><trkpt lat="37.63408046736223" lon="-4.291866776957947"><ele>466.0</ele><time>2026-04-19T08:20:36.998Z</time></trkpt><trkpt lat="37.63416852039416" lon="-4.291924997585311"><ele>466.0</ele><time>2026-04-19T08:20:38.998Z</time></trkpt><trkpt lat="37.634248540609725" lon="-4.291977391027356"><ele>466.0</ele><time>2026-04-19T08:20:40.998Z</time></trkpt><trkpt lat="37.634359651027516" lon="-4.291976548788177"><ele>466.00000000000006</ele><time>2026-04-19T08:20:42.998Z</time></trkpt><trkpt lat="37.63445889853202" lon="-4.291999067071302"><ele>466.0</ele><time>2026-04-19T08:20:44.998Z</time></trkpt><trkpt lat="37.634520433748285" lon="-4.292069936439523"><ele>466.0</ele><time>2026-04-19T08:20:46.998Z</time></trkpt><trkpt lat="37.63460978368232" lon="-4.292083432536377"><ele>466.0</ele><time>2026-04-19T08:20:48.998Z</time></trkpt><trkpt lat="37.63471024336419" lon="-4.292118995218785"><ele>466.00000000000006</ele><time>2026-04-19T08:20:50.998Z</time></trkpt><trkpt lat="37.6347692371792" lon="-4.292158038539376"><ele>466.0</ele><time>2026-04-19T08:20:51.998Z</time></trkpt><trkpt lat="37.63486300902786" lon="-4.292234143779346"><ele>464.20000000000005</ele><time>2026-04-19T08:20:53.998Z</time></trkpt><trkpt lat="37.63497293277228" lon="-4.2922836804603826"><ele>462.40000000000003</ele><time>2026-04-19T08:20:58Z</time></trkpt><trkpt lat="37.63504721770264" lon="-4.292278934760773"><ele>460.6</ele><time>2026-04-19T08:20:59Z</time></trkpt><trkpt lat="37.635153093390045" lon="-4.2923376999397815"><ele>458.8</ele><time>2026-04-19T08:21:02.001Z</time></trkpt><trkpt lat="37.63524708645074" lon="-4.292341342782334"><ele>457.0</ele><time>2026-04-19T08:21:04Z</time></trkpt><trkpt lat="37.63536136591571" lon="-4.292360746502782"><ele>456.0</ele><time>2026-04-19T08:21:06Z</time></trkpt><trkpt lat="37.63546209598232" lon="-4.2924078011625255"><ele>455.00000000000006</ele><time>2026-04-19T08:21:08.001Z</time></trkpt><trkpt lat="37.635566214885394" lon="-4.292410296379038"><ele>454.00000000000006</ele><time>2026-04-19T08:21:10Z</time></trkpt><trkpt lat="37.635596175965446" lon="-4.292484446333919"><ele>453.0</ele><time>2026-04-19T08:21:12Z</time></trkpt><trkpt lat="37.63569067291367" lon="-4.292543969201722"><ele>452.0</ele><time>2026-04-19T08:21:14Z</time></trkpt><trkpt lat="37.635804126579366" lon="-4.2925644430329255"><ele>451.99999999999994</ele><time>2026-04-19T08:21:16Z</time></trkpt><trkpt lat="37.635894669306275" lon="-4.292585218922557"><ele>452.0</ele><time>2026-04-19T08:21:18Z</time></trkpt><trkpt lat="37.63597063049204" lon="-4.292595171796214"><ele>452.0</ele><time>2026-04-19T08:21:20Z</time></trkpt><trkpt lat="37.63602945737963" lon="-4.292648245713979"><ele>452.0</ele><time>2026-04-19T08:21:23Z</time></trkpt><trkpt lat="37.63609575371279" lon="-4.292729280239612"><ele>451.99999999999994</ele><time>2026-04-19T08:21:27Z</time></trkpt><trkpt lat="37.63617649386008" lon="-4.292795609194886"><ele>452.0</ele><time>2026-04-19T08:21:30Z</time></trkpt><trkpt lat="37.636262406467885" lon="-4.292875018956644"><ele>452.49999999999994</ele><time>2026-04-19T08:21:32Z</time></trkpt><trkpt lat="37.6363504553003" lon="-4.2929496734244745"><ele>453.0</ele><time>2026-04-19T08:21:34Z</time></trkpt><trkpt lat="37.63644477244544" lon="-4.292977737460648"><ele>453.5</ele><time>2026-04-19T08:21:36Z</time></trkpt><trkpt lat="37.63650544308289" lon="-4.293033919069973"><ele>454.0</ele><time>2026-04-19T08:21:39Z</time></trkpt><trkpt lat="37.63658390685489" lon="-4.293077785560695"><ele>454.49999999999994</ele><time>2026-04-19T08:21:42Z</time></trkpt><trkpt lat="37.63664721917841" lon="-4.293132513901357"><ele>455.0</ele><time>2026-04-19T08:21:44Z</time></trkpt><trkpt lat="37.63669172645954" lon="-4.293221379893502"><ele>453.4</ele><time>2026-04-19T08:21:46Z</time></trkpt><trkpt lat="37.63675194029792" lon="-4.2933216570581205"><ele>451.8</ele><time>2026-04-19T08:21:48Z</time></trkpt><trkpt lat="37.63683802988812" lon="-4.293379210051983"><ele>450.20000000000005</ele><time>2026-04-19T08:21:50Z</time></trkpt><trkpt lat="37.636912960140116" lon="-4.293454567612489"><ele>448.6</ele><time>2026-04-19T08:21:52Z</time></trkpt><trkpt lat="37.63699787142443" lon="-4.29346751364253"><ele>447.0</ele><time>2026-04-19T08:21:54Z</time></trkpt><trkpt lat="37.63708210738274" lon="-4.293424978349471"><ele>447.0</ele><time>2026-04-19T08:21:57Z</time></trkpt><trkpt lat="37.63715722289587" lon="-4.293398490686269"><ele>447.0</ele><time>2026-04-19T08:21:58.999Z</time></trkpt><trkpt lat="37.637241103493245" lon="-4.293393722933408"><ele>447.0</ele><time>2026-04-19T08:22:00.999Z</time></trkpt><trkpt lat="37.63732176648275" lon="-4.293410754061502"><ele>447.0</ele><time>2026-04-19T08:22:03.999Z</time></trkpt><trkpt lat="37.63739386374884" lon="-4.293422676913354"><ele>447.0</ele><time>2026-04-19T08:22:05.999Z</time></trkpt><trkpt lat="37.63746577524553" lon="-4.293460715020215"><ele>447.0</ele><time>2026-04-19T08:22:08.999Z</time></trkpt><trkpt lat="37.63754856125039" lon="-4.293504439839989"><ele>447.0</ele><time>2026-04-19T08:22:13.999Z</time></trkpt><trkpt lat="37.6376227193537" lon="-4.293525014886107"><ele>447.0</ele><time>2026-04-19T08:22:15.999Z</time></trkpt><trkpt lat="37.63769691069643" lon="-4.293535391406519"><ele>447.0</ele><time>2026-04-19T08:22:17.999Z</time></trkpt><trkpt lat="37.63779202655546" lon="-4.29355842506634"><ele>447.0</ele><time>2026-04-19T08:22:19.999Z</time></trkpt><trkpt lat="37.637877903410384" lon="-4.293574172681899"><ele>447.0</ele><time>2026-04-19T08:22:21.999Z</time></trkpt><trkpt lat="37.63795464455114" lon="-4.293578128614331"><ele>447.0</ele><time>2026-04-19T08:22:23.999Z</time></trkpt><trkpt lat="37.63803903256701" lon="-4.293623930313136"><ele>447.75</ele><time>2026-04-19T08:22:25.999Z</time></trkpt><trkpt lat="37.6381512915361" lon="-4.2936748200779995"><ele>448.5</ele><time>2026-04-19T08:22:27.999Z</time></trkpt><trkpt lat="37.63826326751388" lon="-4.293723501697906"><ele>449.25</ele><time>2026-04-19T08:22:29.999Z</time></trkpt><trkpt lat="37.63835922952257" lon="-4.293769520333251"><ele>450.0</ele><time>2026-04-19T08:22:31.999Z</time></trkpt><trkpt lat="37.63847179613983" lon="-4.293822876637834"><ele>450.0</ele><time>2026-04-19T08:22:33.999Z</time></trkpt><trkpt lat="37.63852653460851" lon="-4.293873126434704"><ele>450.0</ele><time>2026-04-19T08:22:34.999Z</time></trkpt><trkpt lat="37.63861938882171" lon="-4.293958729173251"><ele>450.0</ele><time>2026-04-19T08:22:36.999Z</time></trkpt><trkpt lat="37.63873105006005" lon="-4.293954674058902"><ele>450.0</ele><time>2026-04-19T08:22:38.999Z</time></trkpt><trkpt lat="37.638814607724456" lon="-4.293982805276036"><ele>450.0</ele><time>2026-04-19T08:22:40.999Z</time></trkpt><trkpt lat="37.63890203252909" lon="-4.2940468262873175"><ele>447.3333333333333</ele><time>2026-04-19T08:22:42.999Z</time></trkpt><trkpt lat="37.63898505646603" lon="-4.29406359079656"><ele>444.66666666666663</ele><time>2026-04-19T08:22:44.999Z</time></trkpt><trkpt lat="37.639075164342565" lon="-4.294058667128306"><ele>442.0</ele><time>2026-04-19T08:22:47.998Z</time></trkpt><trkpt lat="37.639133039337864" lon="-4.294024730585695"><ele>439.3333333333333</ele><time>2026-04-19T08:22:49.998Z</time></trkpt><trkpt lat="37.639221890091854" lon="-4.293994248981"><ele>436.66666666666663</ele><time>2026-04-19T08:22:52.998Z</time></trkpt><trkpt lat="37.63930166280273" lon="-4.29395171005784"><ele>434.0</ele><time>2026-04-19T08:22:55.998Z</time></trkpt><trkpt lat="37.63937330579477" lon="-4.2939439650418825"><ele>433.99999999999994</ele><time>2026-04-19T08:22:57.998Z</time></trkpt><trkpt lat="37.639457690231495" lon="-4.2939548054751375"><ele>434.0</ele><time>2026-04-19T08:23:00.998Z</time></trkpt><trkpt lat="37.63954372507104" lon="-4.293961409653822"><ele>434.0</ele><time>2026-04-19T08:23:04.001Z</time></trkpt><trkpt lat="37.63960876289955" lon="-4.293967107772923"><ele>434.0</ele><time>2026-04-19T08:23:06.001Z</time></trkpt><trkpt lat="37.639688697614254" lon="-4.293972411332182"><ele>433.99999999999994</ele><time>2026-04-19T08:23:09.001Z</time></trkpt><trkpt lat="37.63975613831389" lon="-4.293930829296999"><ele>434.0</ele><time>2026-04-19T08:23:12.001Z</time></trkpt><trkpt lat="37.639783140968916" lon="-4.293844631697758"><ele>436.7142857142857</ele><time>2026-04-19T08:23:15.001Z</time></trkpt><trkpt lat="37.639834235522514" lon="-4.293792080999203"><ele>439.42857142857144</ele><time>2026-04-19T08:24:27.998Z</time></trkpt><trkpt lat="37.63984073168345" lon="-4.293709611626847"><ele>442.1428571428571</ele><time>2026-04-19T08:24:29.998Z</time></trkpt><trkpt lat="37.63980890502921" lon="-4.293611605636711"><ele>444.85714285714283</ele><time>2026-04-19T08:24:31.998Z</time></trkpt><trkpt lat="37.639814705435846" lon="-4.293515040981617"><ele>447.57142857142856</ele><time>2026-04-19T08:24:33.998Z</time></trkpt><trkpt lat="37.639870752715005" lon="-4.293433273613429"><ele>450.2857142857142</ele><time>2026-04-19T08:24:36.998Z</time></trkpt><trkpt lat="37.639928110753914" lon="-4.293392271623942"><ele>452.99999999999994</ele><time>2026-04-19T08:24:38.998Z</time></trkpt><trkpt lat="37.64001792922886" lon="-4.293348297410595"><ele>452.99999999999994</ele><time>2026-04-19T08:24:41.998Z</time></trkpt><trkpt lat="37.640082459685225" lon="-4.293317707673282"><ele>453.0</ele><time>2026-04-19T08:24:43.998Z</time></trkpt><trkpt lat="37.6401443454924" lon="-4.293292908744612"><ele>452.99999999999994</ele><time>2026-04-19T08:24:45.998Z</time></trkpt><trkpt lat="37.640219300509514" lon="-4.293259633612032"><ele>452.99999999999994</ele><time>2026-04-19T08:25:17Z</time></trkpt><trkpt lat="37.64028213596533" lon="-4.293229446765363"><ele>453.0</ele><time>2026-04-19T08:25:21Z</time></trkpt><trkpt lat="37.64034737074554" lon="-4.293201319576581"><ele>452.99999999999994</ele><time>2026-04-19T08:25:24Z</time></trkpt><trkpt lat="37.64041273354147" lon="-4.293174653109016"><ele>452.99999999999994</ele><time>2026-04-19T08:25:27Z</time></trkpt><trkpt lat="37.640480968010756" lon="-4.2931371944207495"><ele>453.8571428571428</ele><time>2026-04-19T08:25:30.999Z</time></trkpt><trkpt lat="37.640537086715675" lon="-4.293091732859878"><ele>454.71428571428567</ele><time>2026-04-19T08:25:33.999Z</time></trkpt><trkpt lat="37.64059267804268" lon="-4.2930252182903"><ele>455.57142857142856</ele><time>2026-04-19T08:25:37.999Z</time></trkpt><trkpt lat="37.64062812347456" lon="-4.292943558983469"><ele>456.4285714285714</ele><time>2026-04-19T08:25:41.999Z</time></trkpt><trkpt lat="37.640647025928914" lon="-4.292856912231872"><ele>457.2857142857142</ele><time>2026-04-19T08:25:44.999Z</time></trkpt><trkpt lat="37.64065801332779" lon="-4.292760567850406"><ele>458.14285714285717</ele><time>2026-04-19T08:25:47.999Z</time></trkpt><trkpt lat="37.640668566510875" lon="-4.292677084417422"><ele>459.0</ele><time>2026-04-19T08:25:50.999Z</time></trkpt><trkpt lat="37.64068238500234" lon="-4.292586827759233"><ele>459.0</ele><time>2026-04-19T08:25:53.999Z</time></trkpt><trkpt lat="37.640708043518146" lon="-4.292494961845008"><ele>459.0</ele><time>2026-04-19T08:25:56.999Z</time></trkpt><trkpt lat="37.64076071051318" lon="-4.292406090473774"><ele>459.0</ele><time>2026-04-19T08:25:59.999Z</time></trkpt><trkpt lat="37.64081378939562" lon="-4.292353945825562"><ele>459.0</ele><time>2026-04-19T08:26:01.999Z</time></trkpt><trkpt lat="37.640868749718" lon="-4.292312438663112"><ele>459.0</ele><time>2026-04-19T08:26:03.999Z</time></trkpt><trkpt lat="37.64093924192582" lon="-4.292261948405357"><ele>459.0</ele><time>2026-04-19T08:26:06.999Z</time></trkpt><trkpt lat="37.64101026941551" lon="-4.29223805072526"><ele>459.3333333333333</ele><time>2026-04-19T08:26:09.999Z</time></trkpt><trkpt lat="37.641093161004456" lon="-4.292217566868852"><ele>459.66666666666663</ele><time>2026-04-19T08:26:12.998Z</time></trkpt><trkpt lat="37.641182750074954" lon="-4.292210905485678"><ele>460.0</ele><time>2026-04-19T08:26:15.998Z</time></trkpt><trkpt lat="37.64126793788908" lon="-4.292182334518596"><ele>460.3333333333333</ele><time>2026-04-19T08:26:18.998Z</time></trkpt><trkpt lat="37.64133857882059" lon="-4.292137341785362"><ele>460.66666666666663</ele><time>2026-04-19T08:26:21.998Z</time></trkpt><trkpt lat="37.64140037523251" lon="-4.292071620058638"><ele>461.0</ele><time>2026-04-19T08:26:24.998Z</time></trkpt><trkpt lat="37.641441246933425" lon="-4.291986354280203"><ele>460.99999999999994</ele><time>2026-04-19T08:26:26.998Z</time></trkpt><trkpt lat="37.641466239333546" lon="-4.291874393507963"><ele>461.0</ele><time>2026-04-19T08:26:29.998Z</time></trkpt><trkpt lat="37.64149123096282" lon="-4.291772767991999"><ele>461.0</ele><time>2026-04-19T08:26:32.998Z</time></trkpt><trkpt lat="37.641509750229254" lon="-4.2916691510824965"><ele>461.0</ele><time>2026-04-19T08:26:35.998Z</time></trkpt><trkpt lat="37.64152224447354" lon="-4.291569625278253"><ele>460.99999999999994</ele><time>2026-04-19T08:26:38.998Z</time></trkpt><trkpt lat="37.64155279230536" lon="-4.291457386811047"><ele>461.0</ele><time>2026-04-19T08:26:41.998Z</time></trkpt><trkpt lat="37.6415804184071" lon="-4.291330303692299"><ele>461.16666666666663</ele><time>2026-04-19T08:26:44.998Z</time></trkpt><trkpt lat="37.641597803008175" lon="-4.2912108068843615"><ele>461.3333333333333</ele><time>2026-04-19T08:26:46.998Z</time></trkpt><trkpt lat="37.641622796299224" lon="-4.291100623401888"><ele>461.5</ele><time>2026-04-19T08:26:48.998Z</time></trkpt><trkpt lat="37.64169744466912" lon="-4.291042851123002"><ele>461.66666666666663</ele><time>2026-04-19T08:26:50.998Z</time></trkpt><trkpt lat="37.64176141799436" lon="-4.290966978828861"><ele>461.8333333333333</ele><time>2026-04-19T08:26:53.998Z</time></trkpt><trkpt lat="37.64183459963366" lon="-4.290945053799929"><ele>462.0</ele><time>2026-04-19T08:26:55.998Z</time></trkpt><trkpt lat="37.641898160192504" lon="-4.290895791420158"><ele>462.0</ele><time>2026-04-19T08:26:57.998Z</time></trkpt><trkpt lat="37.64192661587498" lon="-4.2908089746408935"><ele>462.0</ele><time>2026-04-19T08:26:59.998Z</time></trkpt><trkpt lat="37.64197551738388" lon="-4.290715173783214"><ele>462.0</ele><time>2026-04-19T08:27:02.997Z</time></trkpt><trkpt lat="37.64201685002552" lon="-4.290623936513859"><ele>462.0</ele><time>2026-04-19T08:27:04.997Z</time></trkpt><trkpt lat="37.64205392587744" lon="-4.290553958389413"><ele>462.0</ele><time>2026-04-19T08:27:06.997Z</time></trkpt><trkpt lat="37.642088085485895" lon="-4.290473407290573"><ele>462.0</ele><time>2026-04-19T08:27:08.997Z</time></trkpt><trkpt lat="37.64209493742824" lon="-4.29037028183404"><ele>459.0</ele><time>2026-04-19T08:27:10.997Z</time></trkpt><trkpt lat="37.642132343475836" lon="-4.290272599532973"><ele>456.00000000000006</ele><time>2026-04-19T08:27:12.997Z</time></trkpt><trkpt lat="37.64213632185855" lon="-4.290153279811688"><ele>453.00000000000006</ele><time>2026-04-19T08:27:14.999Z</time></trkpt><trkpt lat="37.64213569434512" lon="-4.290026582987774"><ele>450.0</ele><time>2026-04-19T08:27:16.999Z</time></trkpt><trkpt lat="37.64211422348346" lon="-4.2898972108648845"><ele>447.0</ele><time>2026-04-19T08:27:18.999Z</time></trkpt><trkpt lat="37.642086943731805" lon="-4.289760384265726"><ele>444.20000000000005</ele><time>2026-04-19T08:27:20.999Z</time></trkpt><trkpt lat="37.64206641040121" lon="-4.289619561165524"><ele>441.40000000000003</ele><time>2026-04-19T08:27:22.999Z</time></trkpt><trkpt lat="37.64203334739554" lon="-4.289466225557371"><ele>438.59999999999997</ele><time>2026-04-19T08:27:24.999Z</time></trkpt><trkpt lat="37.64200756399937" lon="-4.289345833140036"><ele>435.79999999999995</ele><time>2026-04-19T08:27:26.999Z</time></trkpt><trkpt lat="37.64198323590915" lon="-4.289236064873483"><ele>433.0</ele><time>2026-04-19T08:27:28.999Z</time></trkpt><trkpt lat="37.64198074575562" lon="-4.28913845847977"><ele>433.00000000000006</ele><time>2026-04-19T08:27:30.999Z</time></trkpt><trkpt lat="37.64200678475146" lon="-4.289038778161652"><ele>433.0</ele><time>2026-04-19T08:27:33.999Z</time></trkpt><trkpt lat="37.642038502628324" lon="-4.288947679274635"><ele>433.0</ele><time>2026-04-19T08:27:35.999Z</time></trkpt><trkpt lat="37.64201663250257" lon="-4.28885766511049"><ele>433.0</ele><time>2026-04-19T08:27:37.999Z</time></trkpt><trkpt lat="37.64200940154176" lon="-4.28877245178876"><ele>433.00000000000006</ele><time>2026-04-19T08:27:39.999Z</time></trkpt><trkpt lat="37.641987124326654" lon="-4.288664899418837"><ele>433.0</ele><time>2026-04-19T08:27:42.999Z</time></trkpt><trkpt lat="37.641969838999096" lon="-4.2885573951238705"><ele>434.1666666666667</ele><time>2026-04-19T08:27:45.999Z</time></trkpt><trkpt lat="37.64194916479051" lon="-4.288450147448833"><ele>435.33333333333337</ele><time>2026-04-19T08:27:48.999Z</time></trkpt><trkpt lat="37.64193001993799" lon="-4.28835175328105"><ele>436.5</ele><time>2026-04-19T08:27:51.999Z</time></trkpt><trkpt lat="37.64191486255762" lon="-4.28824808407536"><ele>437.66666666666663</ele><time>2026-04-19T08:27:54.999Z</time></trkpt><trkpt lat="37.64189198640026" lon="-4.288149704271197"><ele>438.8333333333333</ele><time>2026-04-19T08:27:57.999Z</time></trkpt><trkpt lat="37.64187677305587" lon="-4.288043952904501"><ele>440.0</ele><time>2026-04-19T08:28:00.999Z</time></trkpt><trkpt lat="37.64185726981292" lon="-4.287933260513937"><ele>440.1428571428571</ele><time>2026-04-19T08:28:03.999Z</time></trkpt><trkpt lat="37.64184496683184" lon="-4.287855169546194"><ele>440.2857142857143</ele><time>2026-04-19T08:28:05.999Z</time></trkpt><trkpt lat="37.64182889760341" lon="-4.287774099253045"><ele>440.42857142857144</ele><time>2026-04-19T08:28:07.999Z</time></trkpt><trkpt lat="37.641818565102405" lon="-4.287691947028085"><ele>440.57142857142856</ele><time>2026-04-19T08:28:09.999Z</time></trkpt><trkpt lat="37.64180272818357" lon="-4.287602311063429"><ele>440.7142857142857</ele><time>2026-04-19T08:28:11.999Z</time></trkpt><trkpt lat="37.64179773600659" lon="-4.28751508069525"><ele>440.85714285714283</ele><time>2026-04-19T08:28:13.999Z</time></trkpt><trkpt lat="37.641804820034736" lon="-4.287384347874809"><ele>441.0</ele><time>2026-04-19T08:28:15.999Z</time></trkpt><trkpt lat="37.64182678912831" lon="-4.2872519449935345"><ele>441.0</ele><time>2026-04-19T08:28:17.999Z</time></trkpt><trkpt lat="37.64191826680526" lon="-4.2872315022445635"><ele>441.0</ele><time>2026-04-19T08:28:19.998Z</time></trkpt><trkpt lat="37.64198210906928" lon="-4.287266193381433"><ele>441.0</ele><time>2026-04-19T08:28:20.998Z</time></trkpt><trkpt lat="37.64204489784569" lon="-4.28728299952855"><ele>441.0</ele><time>2026-04-19T08:28:22.998Z</time></trkpt><trkpt lat="37.642095127380976" lon="-4.287219762449794"><ele>441.0</ele><time>2026-04-19T08:28:26.998Z</time></trkpt><trkpt lat="37.64217960110741" lon="-4.2871682960525535"><ele>441.0</ele><time>2026-04-19T08:28:29.998Z</time></trkpt><trkpt lat="37.64221826154458" lon="-4.287075614987086"><ele>440.6666666666667</ele><time>2026-04-19T08:28:32.998Z</time></trkpt><trkpt lat="37.642218463780075" lon="-4.286991786668266"><ele>440.33333333333337</ele><time>2026-04-19T08:28:34.998Z</time></trkpt><trkpt lat="37.64223016795909" lon="-4.286903636323361"><ele>440.0</ele><time>2026-04-19T08:28:37.998Z</time></trkpt><trkpt lat="37.642222390466124" lon="-4.286796156300368"><ele>439.6666666666667</ele><time>2026-04-19T08:28:40.998Z</time></trkpt><trkpt lat="37.64222475085918" lon="-4.28669224440302"><ele>439.33333333333337</ele><time>2026-04-19T08:28:43.998Z</time></trkpt><trkpt lat="37.64221718221644" lon="-4.286592994908724"><ele>439.0</ele><time>2026-04-19T08:28:46.998Z</time></trkpt><trkpt lat="37.64223804792161" lon="-4.286493540456979"><ele>440.0</ele><time>2026-04-19T08:28:49.998Z</time></trkpt><trkpt lat="37.64225237024032" lon="-4.2863977050269995"><ele>441.0</ele><time>2026-04-19T08:28:52.998Z</time></trkpt><trkpt lat="37.64227447397239" lon="-4.286301478495936"><ele>442.0</ele><time>2026-04-19T08:28:55.998Z</time></trkpt><trkpt lat="37.64225886446798" lon="-4.286214839709644"><ele>443.0</ele><time>2026-04-19T08:28:58.998Z</time></trkpt><trkpt lat="37.64222386821472" lon="-4.286138469377174"><ele>444.0</ele><time>2026-04-19T08:29:01.998Z</time></trkpt><trkpt lat="37.64219044177941" lon="-4.286058645376593"><ele>445.0</ele><time>2026-04-19T08:29:04.998Z</time></trkpt><trkpt lat="37.642158880317" lon="-4.285971105308457"><ele>446.0</ele><time>2026-04-19T08:29:07.997Z</time></trkpt><trkpt lat="37.64216230148919" lon="-4.285869625626359"><ele>445.99999999999994</ele><time>2026-04-19T08:29:10.997Z</time></trkpt><trkpt lat="37.64215141453055" lon="-4.2857721956986365"><ele>446.0</ele><time>2026-04-19T08:29:13.997Z</time></trkpt><trkpt lat="37.64215410019989" lon="-4.285681752951384"><ele>446.0</ele><time>2026-04-19T08:29:16.997Z</time></trkpt><trkpt lat="37.64214321488486" lon="-4.285594113945707"><ele>446.0</ele><time>2026-04-19T08:29:19.997Z</time></trkpt><trkpt lat="37.64210179909901" lon="-4.285522416257379"><ele>445.99999999999994</ele><time>2026-04-19T08:29:23Z</time></trkpt><trkpt lat="37.642082386463024" lon="-4.285416325106525"><ele>446.0</ele><time>2026-04-19T08:29:26Z</time></trkpt><trkpt lat="37.642067706886785" lon="-4.285322959701687"><ele>446.66666666666663</ele><time>2026-04-19T08:29:29Z</time></trkpt><trkpt lat="37.64205816219957" lon="-4.2852297550236615"><ele>447.3333333333333</ele><time>2026-04-19T08:29:32Z</time></trkpt><trkpt lat="37.64203824099794" lon="-4.285145933150797"><ele>448.0</ele><time>2026-04-19T08:29:35Z</time></trkpt><trkpt lat="37.64201676233909" lon="-4.285050548853273"><ele>448.66666666666663</ele><time>2026-04-19T08:29:38Z</time></trkpt><trkpt lat="37.64198512284338" lon="-4.284959087254543"><ele>449.3333333333333</ele><time>2026-04-19T08:29:40.999Z</time></trkpt><trkpt lat="37.641940126038605" lon="-4.28487953487231"><ele>450.0</ele><time>2026-04-19T08:29:43.999Z</time></trkpt><trkpt lat="37.64188313559548" lon="-4.284825842393743"><ele>450.0</ele><time>2026-04-19T08:29:46.999Z</time></trkpt><trkpt lat="37.64181029277035" lon="-4.284774673393323"><ele>450.0</ele><time>2026-04-19T08:29:49.999Z</time></trkpt><trkpt lat="37.64176397114482" lon="-4.28468786386336"><ele>450.0</ele><time>2026-04-19T08:29:52.999Z</time></trkpt><trkpt lat="37.641710242672886" lon="-4.284605275962676"><ele>450.0</ele><time>2026-04-19T08:29:55.999Z</time></trkpt><trkpt lat="37.641659421123734" lon="-4.2845149123462045"><ele>450.0</ele><time>2026-04-19T08:29:58.999Z</time></trkpt><trkpt lat="37.64161103058563" lon="-4.284428096108141"><ele>450.0</ele><time>2026-04-19T08:30:01.999Z</time></trkpt><trkpt lat="37.64159152206584" lon="-4.284325416640561"><ele>451.1666666666667</ele><time>2026-04-19T08:30:04.999Z</time></trkpt><trkpt lat="37.64161945899946" lon="-4.284253657902097"><ele>452.33333333333337</ele><time>2026-04-19T08:30:06.999Z</time></trkpt><trkpt lat="37.64164996019942" lon="-4.284147365629774"><ele>453.5</ele><time>2026-04-19T08:30:09.999Z</time></trkpt><trkpt lat="37.641662446869375" lon="-4.284065457411622"><ele>454.6666666666667</ele><time>2026-04-19T08:30:11.999Z</time></trkpt><trkpt lat="37.64167790142056" lon="-4.283953553105737"><ele>455.83333333333337</ele><time>2026-04-19T08:30:14.999Z</time></trkpt><trkpt lat="37.64169568089407" lon="-4.283870409759662"><ele>457.0</ele><time>2026-04-19T08:30:16.999Z</time></trkpt><trkpt lat="37.641703445652496" lon="-4.283767368734838"><ele>458.33333333333337</ele><time>2026-04-19T08:30:19.999Z</time></trkpt><trkpt lat="37.64169042991749" lon="-4.283660372046475"><ele>459.6666666666667</ele><time>2026-04-19T08:30:22.999Z</time></trkpt><trkpt lat="37.6416429429039" lon="-4.283586842051463"><ele>461.0</ele><time>2026-04-19T08:30:25.999Z</time></trkpt><trkpt lat="37.64159103532322" lon="-4.2835069984473995"><ele>462.33333333333337</ele><time>2026-04-19T08:30:29.999Z</time></trkpt><trkpt lat="37.6415502376736" lon="-4.283418379620285"><ele>463.6666666666667</ele><time>2026-04-19T08:30:32.998Z</time></trkpt><trkpt lat="37.64149913981427" lon="-4.283326565655825"><ele>465.0</ele><time>2026-04-19T08:30:36.998Z</time></trkpt><trkpt lat="37.64145802987801" lon="-4.2832443488726515"><ele>465.0</ele><time>2026-04-19T08:30:40.998Z</time></trkpt><trkpt lat="37.641449345401504" lon="-4.283158703034929"><ele>465.0</ele><time>2026-04-19T08:30:44.998Z</time></trkpt><trkpt lat="37.64146366617854" lon="-4.2830665974945346"><ele>465.0</ele><time>2026-04-19T08:30:48.998Z</time></trkpt><trkpt lat="37.64152871164037" lon="-4.283021376024157"><ele>465.0</ele><time>2026-04-19T08:30:52.998Z</time></trkpt><trkpt lat="37.64152453611101" lon="-4.2829275427127"><ele>465.0</ele><time>2026-04-19T08:31:06.998Z</time></trkpt><trkpt lat="37.641507482262284" lon="-4.282847069429479"><ele>465.0</ele><time>2026-04-19T08:31:14.998Z</time></trkpt><trkpt lat="37.64145021463861" lon="-4.282805411095897"><ele>465.0</ele><time>2026-04-19T08:31:23.997Z</time></trkpt><trkpt lat="37.641396953862724" lon="-4.282852340229494"><ele>465.71428571428567</ele><time>2026-04-19T08:32:23.999Z</time></trkpt><trkpt lat="37.64138040905414" lon="-4.282932650810878"><ele>466.42857142857144</ele><time>2026-04-19T08:33:43Z</time></trkpt><trkpt lat="37.641320889335226" lon="-4.282958583334949"><ele>467.1428571428571</ele><time>2026-04-19T08:33:47Z</time></trkpt><trkpt lat="37.641282078901" lon="-4.282853051913457"><ele>467.85714285714283</ele><time>2026-04-19T08:33:51Z</time></trkpt><trkpt lat="37.641264713046965" lon="-4.282772080905948"><ele>468.57142857142856</ele><time>2026-04-19T08:33:54Z</time></trkpt><trkpt lat="37.64125557533977" lon="-4.282665596851171"><ele>469.2857142857143</ele><time>2026-04-19T08:33:57Z</time></trkpt><trkpt lat="37.64128791941662" lon="-4.282582891146987"><ele>470.0</ele><time>2026-04-19T08:33:59Z</time></trkpt><trkpt lat="37.64131543124554" lon="-4.282490869279926"><ele>469.99999999999994</ele><time>2026-04-19T08:34:01.999Z</time></trkpt><trkpt lat="37.64129508842654" lon="-4.282404832455531"><ele>470.0</ele><time>2026-04-19T08:34:03.999Z</time></trkpt><trkpt lat="37.64125677893562" lon="-4.282317815966027"><ele>470.0</ele><time>2026-04-19T08:34:05.999Z</time></trkpt><trkpt lat="37.64122757865389" lon="-4.282225386635249"><ele>470.0</ele><time>2026-04-19T08:34:07.999Z</time></trkpt><trkpt lat="37.641269275777915" lon="-4.2821309752892205"><ele>469.99999999999994</ele><time>2026-04-19T08:34:10.999Z</time></trkpt><trkpt lat="37.641334103109784" lon="-4.282064984894068"><ele>470.0</ele><time>2026-04-19T08:34:13.999Z</time></trkpt><trkpt lat="37.64140248614035" lon="-4.282020799523899"><ele>471.16666666666663</ele><time>2026-04-19T08:34:15.999Z</time></trkpt><trkpt lat="37.64146040377511" lon="-4.281975903713648"><ele>472.3333333333333</ele><time>2026-04-19T08:34:17.999Z</time></trkpt><trkpt lat="37.641512927949165" lon="-4.2819211293277695"><ele>473.5</ele><time>2026-04-19T08:34:19.999Z</time></trkpt><trkpt lat="37.641568589024736" lon="-4.281853653802037"><ele>474.66666666666663</ele><time>2026-04-19T08:34:21.999Z</time></trkpt><trkpt lat="37.64154285673996" lon="-4.281741239013603"><ele>475.8333333333333</ele><time>2026-04-19T08:34:24.999Z</time></trkpt><trkpt lat="37.641539148972385" lon="-4.281622507992324"><ele>477.0</ele><time>2026-04-19T08:34:27.999Z</time></trkpt><trkpt lat="37.64155014832987" lon="-4.281540354980145"><ele>477.0</ele><time>2026-04-19T08:34:29.999Z</time></trkpt><trkpt lat="37.64156655152399" lon="-4.281463091618363"><ele>476.99999999999994</ele><time>2026-04-19T08:34:31.999Z</time></trkpt><trkpt lat="37.64159769104937" lon="-4.281385873966123"><ele>477.0</ele><time>2026-04-19T08:34:33.999Z</time></trkpt><trkpt lat="37.64165263106566" lon="-4.281297594126336"><ele>477.0</ele><time>2026-04-19T08:34:36.999Z</time></trkpt><trkpt lat="37.641680090213626" lon="-4.281224984207762"><ele>476.99999999999994</ele><time>2026-04-19T08:34:38.999Z</time></trkpt><trkpt lat="37.641707716662125" lon="-4.281152301772868"><ele>477.0</ele><time>2026-04-19T08:34:40.999Z</time></trkpt><trkpt lat="37.64173814006498" lon="-4.281043658897286"><ele>477.0</ele><time>2026-04-19T08:34:43.999Z</time></trkpt><trkpt lat="37.64178150645825" lon="-4.280950786286099"><ele>478.1428571428571</ele><time>2026-04-19T08:34:46.999Z</time></trkpt><trkpt lat="37.641841464198386" lon="-4.280878897975412"><ele>479.2857142857142</ele><time>2026-04-19T08:34:49.999Z</time></trkpt><trkpt lat="37.641882089114745" lon="-4.2807802762532425"><ele>480.42857142857144</ele><time>2026-04-19T08:34:52.998Z</time></trkpt><trkpt lat="37.64190164662146" lon="-4.280683034029975"><ele>481.57142857142856</ele><time>2026-04-19T08:34:55.998Z</time></trkpt><trkpt lat="37.64192673817074" lon="-4.2806070422949976"><ele>482.7142857142857</ele><time>2026-04-19T08:34:58.998Z</time></trkpt><trkpt lat="37.64196623555593" lon="-4.280534934566445"><ele>483.8571428571429</ele><time>2026-04-19T08:35:01.998Z</time></trkpt><trkpt lat="37.64199877378471" lon="-4.280465470792268"><ele>485.00000000000006</ele><time>2026-04-19T08:35:04.998Z</time></trkpt><trkpt lat="37.64202658836456" lon="-4.280383605254703"><ele>486.4285714285715</ele><time>2026-04-19T08:35:07.998Z</time></trkpt><trkpt lat="37.64204959427003" lon="-4.280305660543336"><ele>487.8571428571429</ele><time>2026-04-19T08:35:10.998Z</time></trkpt><trkpt lat="37.64206276291399" lon="-4.280202387432296"><ele>489.2857142857143</ele><time>2026-04-19T08:35:14.998Z</time></trkpt><trkpt lat="37.64208053076069" lon="-4.280110074014791"><ele>490.7142857142857</ele><time>2026-04-19T08:35:17.998Z</time></trkpt><trkpt lat="37.64210603672359" lon="-4.28003729989252"><ele>492.1428571428571</ele><time>2026-04-19T08:35:20.998Z</time></trkpt><trkpt lat="37.64213969823461" lon="-4.279947582393051"><ele>493.5714285714285</ele><time>2026-04-19T08:35:23.998Z</time></trkpt><trkpt lat="37.64214101735146" lon="-4.279865901167596"><ele>494.99999999999994</ele><time>2026-04-19T08:35:26.998Z</time></trkpt><trkpt lat="37.642146587174665" lon="-4.279769609168761"><ele>495.8571428571428</ele><time>2026-04-19T08:35:29.998Z</time></trkpt><trkpt lat="37.642171043495146" lon="-4.279680681731773"><ele>496.71428571428567</ele><time>2026-04-19T08:35:33.998Z</time></trkpt><trkpt lat="37.64217965690598" lon="-4.279595976478674"><ele>497.57142857142856</ele><time>2026-04-19T08:35:37Z</time></trkpt><trkpt lat="37.64222989605525" lon="-4.279545373725565"><ele>498.4285714285714</ele><time>2026-04-19T08:35:41Z</time></trkpt><trkpt lat="37.64221069154497" lon="-4.279443051274429"><ele>499.2857142857142</ele><time>2026-04-19T08:35:44Z</time></trkpt><trkpt lat="37.64223786027112" lon="-4.2793622661670865"><ele>500.14285714285717</ele><time>2026-04-19T08:35:49Z</time></trkpt><trkpt lat="37.64231348931927" lon="-4.2793394545118515"><ele>501.0</ele><time>2026-04-19T08:35:54Z</time></trkpt><trkpt lat="37.64238025863645" lon="-4.279355660206814"><ele>501.0</ele><time>2026-04-19T08:35:58Z</time></trkpt><trkpt lat="37.64237163182555" lon="-4.279443313422759"><ele>501.0</ele><time>2026-04-19T08:36:00Z</time></trkpt><trkpt lat="37.64244201629734" lon="-4.279495805487086"><ele>501.0</ele><time>2026-04-19T08:36:03Z</time></trkpt><trkpt lat="37.64246711783963" lon="-4.279581779871384"><ele>501.0</ele><time>2026-04-19T08:36:05.999Z</time></trkpt><trkpt lat="37.64250969165773" lon="-4.2796716801102175"><ele>501.0</ele><time>2026-04-19T08:36:08.999Z</time></trkpt><trkpt lat="37.64253692419675" lon="-4.27975950527754"><ele>501.0</ele><time>2026-04-19T08:36:11.999Z</time></trkpt><trkpt lat="37.64258632885604" lon="-4.279845805008087"><ele>500.14285714285717</ele><time>2026-04-19T08:36:15.999Z</time></trkpt><trkpt lat="37.642630598323166" lon="-4.279921600610094"><ele>499.2857142857142</ele><time>2026-04-19T08:36:18.999Z</time></trkpt><trkpt lat="37.64267402833145" lon="-4.28000456252826"><ele>498.4285714285714</ele><time>2026-04-19T08:36:21.999Z</time></trkpt><trkpt lat="37.64272129027515" lon="-4.280082388826613"><ele>497.57142857142856</ele><time>2026-04-19T08:36:24.999Z</time></trkpt><trkpt lat="37.64274858422078" lon="-4.280171024887517"><ele>496.71428571428567</ele><time>2026-04-19T08:36:27.999Z</time></trkpt><trkpt lat="37.64277472105393" lon="-4.280253906957185"><ele>495.8571428571428</ele><time>2026-04-19T08:36:30.999Z</time></trkpt><trkpt lat="37.64280004045432" lon="-4.280336888840605"><ele>494.99999999999994</ele><time>2026-04-19T08:36:33.999Z</time></trkpt><trkpt lat="37.64282870758896" lon="-4.2804242140381"><ele>497.6666666666667</ele><time>2026-04-19T08:36:36.999Z</time></trkpt><trkpt lat="37.64286813806102" lon="-4.280518414011927"><ele>500.33333333333337</ele><time>2026-04-19T08:36:40.999Z</time></trkpt><trkpt lat="37.64290440843566" lon="-4.280608157835242"><ele>503.0</ele><time>2026-04-19T08:36:43.999Z</time></trkpt><trkpt lat="37.64295049618553" lon="-4.280691285118064"><ele>505.6666666666667</ele><time>2026-04-19T08:36:46.999Z</time></trkpt><trkpt lat="37.64299864935646" lon="-4.280755588987912"><ele>508.33333333333337</ele><time>2026-04-19T08:36:49.999Z</time></trkpt><trkpt lat="37.643056551317606" lon="-4.280821767501734"><ele>511.0</ele><time>2026-04-19T08:36:52.999Z</time></trkpt><trkpt lat="37.64313263697948" lon="-4.280830389596544"><ele>511.00000000000006</ele><time>2026-04-19T08:36:55.999Z</time></trkpt><trkpt lat="37.64317662617867" lon="-4.28076090651387"><ele>511.0</ele><time>2026-04-19T08:36:58.998Z</time></trkpt><trkpt lat="37.64323145622252" lon="-4.280691776329686"><ele>511.0</ele><time>2026-04-19T08:37:02.998Z</time></trkpt><trkpt lat="37.64329354948222" lon="-4.280634103189642"><ele>511.0</ele><time>2026-04-19T08:37:06.998Z</time></trkpt><trkpt lat="37.64336994279831" lon="-4.28059813279447"><ele>511.00000000000006</ele><time>2026-04-19T08:37:10.998Z</time></trkpt><trkpt lat="37.643455618759276" lon="-4.280593820076651"><ele>511.0</ele><time>2026-04-19T08:37:14.998Z</time></trkpt><trkpt lat="37.64353179966564" lon="-4.280578642953286"><ele>511.42857142857144</ele><time>2026-04-19T08:37:17.998Z</time></trkpt><trkpt lat="37.64358893090871" lon="-4.280516431975486"><ele>511.8571428571429</ele><time>2026-04-19T08:37:20.998Z</time></trkpt><trkpt lat="37.64364292710361" lon="-4.2804603253557"><ele>512.2857142857142</ele><time>2026-04-19T08:37:23.998Z</time></trkpt><trkpt lat="37.64369770648629" lon="-4.2804075482162895"><ele>512.7142857142858</ele><time>2026-04-19T08:37:26.998Z</time></trkpt><trkpt lat="37.643756564940254" lon="-4.280346458658262"><ele>513.1428571428571</ele><time>2026-04-19T08:37:29.998Z</time></trkpt><trkpt lat="37.64381042610705" lon="-4.280288513547599"><ele>513.5714285714286</ele><time>2026-04-19T08:37:32.998Z</time></trkpt><trkpt lat="37.64386668085012" lon="-4.280231496212946"><ele>514.0</ele><time>2026-04-19T08:37:35.998Z</time></trkpt><trkpt lat="37.64391831657413" lon="-4.280183923015695"><ele>515.8571428571429</ele><time>2026-04-19T08:37:38.998Z</time></trkpt><trkpt lat="37.64397685729699" lon="-4.280136627863056"><ele>517.7142857142858</ele><time>2026-04-19T08:37:42Z</time></trkpt><trkpt lat="37.64404037603314" lon="-4.280074654783245"><ele>519.5714285714287</ele><time>2026-04-19T08:37:46Z</time></trkpt><trkpt lat="37.644098731615976" lon="-4.280002484451573"><ele>521.4285714285714</ele><time>2026-04-19T08:37:50Z</time></trkpt><trkpt lat="37.64415331031871" lon="-4.279942918273329"><ele>523.2857142857143</ele><time>2026-04-19T08:37:54Z</time></trkpt><trkpt lat="37.64420603098772" lon="-4.27989114006573"><ele>525.1428571428572</ele><time>2026-04-19T08:37:58Z</time></trkpt><trkpt lat="37.64427146967512" lon="-4.27984637189485"><ele>527.0</ele><time>2026-04-19T08:38:01Z</time></trkpt><trkpt lat="37.64432802342774" lon="-4.279796616187366"><ele>529.6666666666666</ele><time>2026-04-19T08:38:04Z</time></trkpt><trkpt lat="37.64437921767868" lon="-4.279748365094025"><ele>532.3333333333333</ele><time>2026-04-19T08:38:07Z</time></trkpt><trkpt lat="37.64442606851192" lon="-4.279690180722624"><ele>535.0</ele><time>2026-04-19T08:38:10Z</time></trkpt><trkpt lat="37.644398038928074" lon="-4.279604211832103"><ele>537.6666666666666</ele><time>2026-04-19T08:38:14.999Z</time></trkpt><trkpt lat="37.64431337877308" lon="-4.279588166431466"><ele>540.3333333333334</ele><time>2026-04-19T08:38:17.999Z</time></trkpt><trkpt lat="37.64423054516622" lon="-4.27957125984349"><ele>543.0</ele><time>2026-04-19T08:38:20.999Z</time></trkpt><trkpt lat="37.644145375528346" lon="-4.279559608963075"><ele>543.0</ele><time>2026-04-19T08:38:23.999Z</time></trkpt><trkpt lat="37.644062095641225" lon="-4.279540372909151"><ele>543.0</ele><time>2026-04-19T08:38:26.999Z</time></trkpt><trkpt lat="37.643990563656054" lon="-4.279510514039858"><ele>543.0</ele><time>2026-04-19T08:38:28.999Z</time></trkpt><trkpt lat="37.64391665549005" lon="-4.2794357114001365"><ele>543.0</ele><time>2026-04-19T08:38:30.999Z</time></trkpt><trkpt lat="37.64386431141894" lon="-4.279343468330704"><ele>543.0</ele><time>2026-04-19T08:38:32.999Z</time></trkpt><trkpt lat="37.64382784467314" lon="-4.279256548918991"><ele>543.0</ele><time>2026-04-19T08:38:34.999Z</time></trkpt><trkpt lat="37.643783162119156" lon="-4.279163720892321"><ele>543.0</ele><time>2026-04-19T08:38:36.999Z</time></trkpt><trkpt lat="37.64374087383951" lon="-4.27904803494896"><ele>543.0</ele><time>2026-04-19T08:38:38.999Z</time></trkpt><trkpt lat="37.64370540741665" lon="-4.278929440555711"><ele>543.0</ele><time>2026-04-19T08:38:40.999Z</time></trkpt><trkpt lat="37.64367952025763" lon="-4.27881973402016"><ele>543.0</ele><time>2026-04-19T08:38:42.999Z</time></trkpt><trkpt lat="37.643658060151004" lon="-4.27871810843691"><ele>543.0</ele><time>2026-04-19T08:38:44.999Z</time></trkpt><trkpt lat="37.64361453062046" lon="-4.278630747279609"><ele>542.3333333333334</ele><time>2026-04-19T08:38:46.999Z</time></trkpt><trkpt lat="37.643554511129224" lon="-4.278562613136057"><ele>541.6666666666666</ele><time>2026-04-19T08:38:48.999Z</time></trkpt><trkpt lat="37.643506754217476" lon="-4.278509993168974"><ele>541.0</ele><time>2026-04-19T08:38:50.999Z</time></trkpt><trkpt lat="37.64344771955025" lon="-4.278419087086193"><ele>540.3333333333333</ele><time>2026-04-19T08:38:53.999Z</time></trkpt><trkpt lat="37.64339968743154" lon="-4.278363956568071"><ele>539.6666666666666</ele><time>2026-04-19T08:38:55.999Z</time></trkpt><trkpt lat="37.64332066130511" lon="-4.2783177820240645"><ele>539.0</ele><time>2026-04-19T08:38:58.999Z</time></trkpt><trkpt lat="37.643234525981306" lon="-4.278289447472204"><ele>539.0</ele><time>2026-04-19T08:39:01.999Z</time></trkpt><trkpt lat="37.64314581281747" lon="-4.278248210888371"><ele>539.0</ele><time>2026-04-19T08:39:04.998Z</time></trkpt><trkpt lat="37.64308226035872" lon="-4.278216052751421"><ele>539.0</ele><time>2026-04-19T08:39:06.998Z</time></trkpt><trkpt lat="37.64301781558559" lon="-4.278183505103182"><ele>539.0</ele><time>2026-04-19T08:39:08.998Z</time></trkpt><trkpt lat="37.642945440873255" lon="-4.2781392052673075"><ele>539.0</ele><time>2026-04-19T08:39:11.998Z</time></trkpt><trkpt lat="37.642880606304594" lon="-4.278090951485256"><ele>539.0</ele><time>2026-04-19T08:39:14.998Z</time></trkpt><trkpt lat="37.64280966008764" lon="-4.27804277644118"><ele>539.1666666666666</ele><time>2026-04-19T08:39:17.998Z</time></trkpt><trkpt lat="37.64275246803743" lon="-4.27799611988243"><ele>539.3333333333333</ele><time>2026-04-19T08:39:19.998Z</time></trkpt><trkpt lat="37.64269415446022" lon="-4.277953277071454"><ele>539.5</ele><time>2026-04-19T08:39:21.998Z</time></trkpt><trkpt lat="37.64264882197438" lon="-4.27789748991425"><ele>539.6666666666666</ele><time>2026-04-19T08:39:23.998Z</time></trkpt><trkpt lat="37.64257261993622" lon="-4.277824185606219"><ele>539.8333333333334</ele><time>2026-04-19T08:39:26.998Z</time></trkpt><trkpt lat="37.642505213712944" lon="-4.277749196823366"><ele>540.0</ele><time>2026-04-19T08:39:28.998Z</time></trkpt><trkpt lat="37.64243502689759" lon="-4.277647374781499"><ele>540.0</ele><time>2026-04-19T08:39:30.998Z</time></trkpt><trkpt lat="37.64238129946307" lon="-4.27753263500994"><ele>540.0</ele><time>2026-04-19T08:39:32.998Z</time></trkpt><trkpt lat="37.64233011140162" lon="-4.277426054228475"><ele>540.0</ele><time>2026-04-19T08:39:34.998Z</time></trkpt><trkpt lat="37.642283820937145" lon="-4.27732215488754"><ele>540.0</ele><time>2026-04-19T08:39:36.998Z</time></trkpt><trkpt lat="37.642232269097974" lon="-4.277232753684619"><ele>540.0</ele><time>2026-04-19T08:39:38.998Z</time></trkpt><trkpt lat="37.64216984202513" lon="-4.277146847526927"><ele>539.6</ele><time>2026-04-19T08:39:40.998Z</time></trkpt><trkpt lat="37.64211751797171" lon="-4.277024373226619"><ele>539.2</ele><time>2026-04-19T08:39:42.998Z</time></trkpt><trkpt lat="37.64209166041845" lon="-4.276896022500594"><ele>538.8</ele><time>2026-04-19T08:39:44.998Z</time></trkpt><trkpt lat="37.64206096917089" lon="-4.276777075946342"><ele>538.4</ele><time>2026-04-19T08:39:46.998Z</time></trkpt><trkpt lat="37.64200400354744" lon="-4.276670316781647"><ele>538.0</ele><time>2026-04-19T08:39:49Z</time></trkpt><trkpt lat="37.64194127736402" lon="-4.2765992471179"><ele>538.0</ele><time>2026-04-19T08:39:51Z</time></trkpt><trkpt lat="37.64189069746903" lon="-4.276537277361242"><ele>538.0</ele><time>2026-04-19T08:39:53Z</time></trkpt><trkpt lat="37.64183241087476" lon="-4.276452248276834"><ele>538.0</ele><time>2026-04-19T08:39:55Z</time></trkpt><trkpt lat="37.641790731467545" lon="-4.276358579280554"><ele>538.0</ele><time>2026-04-19T08:39:57Z</time></trkpt><trkpt lat="37.641747341047186" lon="-4.276265855614653"><ele>538.0</ele><time>2026-04-19T08:39:59Z</time></trkpt><trkpt lat="37.64168806040669" lon="-4.276186690027255"><ele>538.0</ele><time>2026-04-19T08:40:01Z</time></trkpt><trkpt lat="37.64163826974861" lon="-4.276103288022756"><ele>538.1428571428571</ele><time>2026-04-19T08:40:03Z</time></trkpt><trkpt lat="37.64159355474333" lon="-4.276029832637566"><ele>538.2857142857143</ele><time>2026-04-19T08:40:05Z</time></trkpt><trkpt lat="37.6415497660193" lon="-4.275963971078022"><ele>538.4285714285714</ele><time>2026-04-19T08:40:07Z</time></trkpt><trkpt lat="37.64150314610864" lon="-4.2759012791561135"><ele>538.5714285714286</ele><time>2026-04-19T08:40:09Z</time></trkpt><trkpt lat="37.641457637596126" lon="-4.275841365198409"><ele>538.7142857142858</ele><time>2026-04-19T08:40:11Z</time></trkpt><trkpt lat="37.64141422092328" lon="-4.275770155261393"><ele>538.8571428571429</ele><time>2026-04-19T08:40:13Z</time></trkpt><trkpt lat="37.64141100954002" lon="-4.2756804964149895"><ele>539.0</ele><time>2026-04-19T08:40:15Z</time></trkpt><trkpt lat="37.64142935729378" lon="-4.275598249386741"><ele>539.4285714285714</ele><time>2026-04-19T08:40:17Z</time></trkpt><trkpt lat="37.641437307303306" lon="-4.275514770455736"><ele>539.8571428571429</ele><time>2026-04-19T08:40:19Z</time></trkpt><trkpt lat="37.64145446502829" lon="-4.275395178339932"><ele>540.2857142857142</ele><time>2026-04-19T08:40:22Z</time></trkpt><trkpt lat="37.641467559627884" lon="-4.275312839834255"><ele>540.7142857142858</ele><time>2026-04-19T08:40:23.999Z</time></trkpt><trkpt lat="37.64147673680528" lon="-4.2752281297222545"><ele>541.1428571428571</ele><time>2026-04-19T08:40:25.999Z</time></trkpt><trkpt lat="37.641483297282186" lon="-4.275140903953121"><ele>541.5714285714286</ele><time>2026-04-19T08:40:27.999Z</time></trkpt><trkpt lat="37.64150013207133" lon="-4.2750507621936435"><ele>542.0</ele><time>2026-04-19T08:40:29.999Z</time></trkpt><trkpt lat="37.641513499645974" lon="-4.274968665950284"><ele>542.0</ele><time>2026-04-19T08:40:31.999Z</time></trkpt><trkpt lat="37.6415208189464" lon="-4.2748751182046645"><ele>542.0</ele><time>2026-04-19T08:40:33.999Z</time></trkpt><trkpt lat="37.64153093151849" lon="-4.274790646688774"><ele>542.0</ele><time>2026-04-19T08:40:35.999Z</time></trkpt><trkpt lat="37.64154962317327" lon="-4.274696439889863"><ele>542.0</ele><time>2026-04-19T08:40:38.999Z</time></trkpt><trkpt lat="37.641525132201075" lon="-4.274594948354849"><ele>542.0</ele><time>2026-04-19T08:40:43.999Z</time></trkpt><trkpt lat="37.64145226762495" lon="-4.274537017636711"><ele>542.0</ele><time>2026-04-19T08:40:45.999Z</time></trkpt><trkpt lat="37.64139695312989" lon="-4.274443147972027"><ele>541.6</ele><time>2026-04-19T08:40:47.999Z</time></trkpt><trkpt lat="37.64133388047919" lon="-4.274347243628054"><ele>541.2</ele><time>2026-04-19T08:40:49.999Z</time></trkpt><trkpt lat="37.64125052823653" lon="-4.274229100069254"><ele>540.8</ele><time>2026-04-19T08:40:51.999Z</time></trkpt><trkpt lat="37.641203359624406" lon="-4.274164034481016"><ele>540.4</ele><time>2026-04-19T08:40:52.999Z</time></trkpt><trkpt lat="37.64114672758345" lon="-4.274094260478083"><ele>540.0</ele><time>2026-04-19T08:40:53.999Z</time></trkpt><trkpt lat="37.641093692055264" lon="-4.274021274585406"><ele>539.2857142857142</ele><time>2026-04-19T08:40:54.999Z</time></trkpt><trkpt lat="37.64104472621479" lon="-4.273938760714338"><ele>538.5714285714286</ele><time>2026-04-19T08:40:55.999Z</time></trkpt><trkpt lat="37.64100244197041" lon="-4.27387655243999"><ele>537.8571428571429</ele><time>2026-04-19T08:40:56.999Z</time></trkpt><trkpt lat="37.64093689396493" lon="-4.273832023554318"><ele>537.1428571428571</ele><time>2026-04-19T08:40:57.999Z</time></trkpt><trkpt lat="37.640868982140965" lon="-4.273802637952616"><ele>536.4285714285714</ele><time>2026-04-19T08:40:58.999Z</time></trkpt><trkpt lat="37.640806263990825" lon="-4.2737489498836085"><ele>535.7142857142857</ele><time>2026-04-19T08:40:59.999Z</time></trkpt><trkpt lat="37.64076934299995" lon="-4.273673458653067"><ele>535.0</ele><time>2026-04-19T08:41:00.999Z</time></trkpt><trkpt lat="37.64073338985973" lon="-4.273580175875368"><ele>535.0</ele><time>2026-04-19T08:41:01.999Z</time></trkpt><trkpt lat="37.64068688561618" lon="-4.2735257766857595"><ele>535.0</ele><time>2026-04-19T08:41:02.999Z</time></trkpt><trkpt lat="37.64059734138087" lon="-4.273384721087485"><ele>535.0</ele><time>2026-04-19T08:41:04.999Z</time></trkpt><trkpt lat="37.64055096554801" lon="-4.273309775039097"><ele>535.0</ele><time>2026-04-19T08:41:05.999Z</time></trkpt><trkpt lat="37.640503121754065" lon="-4.273246743238676"><ele>535.0</ele><time>2026-04-19T08:41:06.999Z</time></trkpt><trkpt lat="37.64044225248746" lon="-4.273213652631891"><ele>535.0</ele><time>2026-04-19T08:41:07.999Z</time></trkpt><trkpt lat="37.640328034655234" lon="-4.273222897716414"><ele>534.1428571428571</ele><time>2026-04-19T08:41:09.999Z</time></trkpt><trkpt lat="37.640266221014954" lon="-4.273188557993174"><ele>533.2857142857143</ele><time>2026-04-19T08:41:10.999Z</time></trkpt><trkpt lat="37.640219388025564" lon="-4.273123748976979"><ele>532.4285714285714</ele><time>2026-04-19T08:41:11.999Z</time></trkpt><trkpt lat="37.64017716260203" lon="-4.27304647547107"><ele>531.5714285714286</ele><time>2026-04-19T08:41:12.999Z</time></trkpt><trkpt lat="37.64013170198704" lon="-4.272958556372761"><ele>530.7142857142857</ele><time>2026-04-19T08:41:13.999Z</time></trkpt><trkpt lat="37.6400937244603" lon="-4.272893182551082"><ele>529.8571428571429</ele><time>2026-04-19T08:41:14.999Z</time></trkpt><trkpt lat="37.640046343522386" lon="-4.2728174407689075"><ele>529.0</ele><time>2026-04-19T08:41:15.998Z</time></trkpt><trkpt lat="37.6399976293497" lon="-4.272742447910912"><ele>529.0</ele><time>2026-04-19T08:41:16.998Z</time></trkpt><trkpt lat="37.63995256623985" lon="-4.272666663199313"><ele>529.0</ele><time>2026-04-19T08:41:17.998Z</time></trkpt><trkpt lat="37.63990424406805" lon="-4.272591282435117"><ele>529.0</ele><time>2026-04-19T08:41:18.998Z</time></trkpt><trkpt lat="37.6398612277956" lon="-4.2725144606394085"><ele>529.0</ele><time>2026-04-19T08:41:19.998Z</time></trkpt><trkpt lat="37.63980986078961" lon="-4.272438397726812"><ele>529.0</ele><time>2026-04-19T08:41:20.998Z</time></trkpt><trkpt lat="37.63976888624124" lon="-4.2723732329729005"><ele>529.0</ele><time>2026-04-19T08:41:21.998Z</time></trkpt><trkpt lat="37.63971081032968" lon="-4.2723361091127625"><ele>529.0</ele><time>2026-04-19T08:41:22.998Z</time></trkpt><trkpt lat="37.63963740407995" lon="-4.272326236333828"><ele>529.0</ele><time>2026-04-19T08:41:23.998Z</time></trkpt><trkpt lat="37.639561684379295" lon="-4.272337426893753"><ele>529.0</ele><time>2026-04-19T08:41:24.998Z</time></trkpt><trkpt lat="37.63948512182185" lon="-4.272369378528191"><ele>529.0</ele><time>2026-04-19T08:41:25.998Z</time></trkpt><trkpt lat="37.63940761636564" lon="-4.272401601697631"><ele>529.0</ele><time>2026-04-19T08:41:26.998Z</time></trkpt><trkpt lat="37.63933066859995" lon="-4.272415015156414"><ele>529.0</ele><time>2026-04-19T08:41:27.998Z</time></trkpt><trkpt lat="37.6392508119391" lon="-4.272416469611395"><ele>529.0</ele><time>2026-04-19T08:41:28.998Z</time></trkpt><trkpt lat="37.63916504918801" lon="-4.272412294393089"><ele>527.6666666666667</ele><time>2026-04-19T08:41:29.998Z</time></trkpt><trkpt lat="37.63907888344829" lon="-4.272394587650113"><ele>526.3333333333334</ele><time>2026-04-19T08:41:30.998Z</time></trkpt><trkpt lat="37.6389991515569" lon="-4.272364334897922"><ele>525.0</ele><time>2026-04-19T08:41:31.998Z</time></trkpt><trkpt lat="37.63892256674055" lon="-4.272324869867582"><ele>523.6666666666666</ele><time>2026-04-19T08:41:32.998Z</time></trkpt><trkpt lat="37.638845660027556" lon="-4.272277374671758"><ele>522.3333333333333</ele><time>2026-04-19T08:41:33.998Z</time></trkpt><trkpt lat="37.63876905682364" lon="-4.272238049482233"><ele>521.0</ele><time>2026-04-19T08:41:34.998Z</time></trkpt><trkpt lat="37.63869115465714" lon="-4.272204301483592"><ele>520.8333333333333</ele><time>2026-04-19T08:41:35.998Z</time></trkpt><trkpt lat="37.63861549253269" lon="-4.272180579274366"><ele>520.6666666666666</ele><time>2026-04-19T08:41:36.998Z</time></trkpt><trkpt lat="37.63854322807866" lon="-4.272146161315768"><ele>520.5</ele><time>2026-04-19T08:41:37.998Z</time></trkpt><trkpt lat="37.638470040204155" lon="-4.27211537650087"><ele>520.3333333333334</ele><time>2026-04-19T08:41:38.998Z</time></trkpt><trkpt lat="37.63839847972164" lon="-4.272103618805998"><ele>520.1666666666667</ele><time>2026-04-19T08:41:39.998Z</time></trkpt><trkpt lat="37.638332780148076" lon="-4.272078570329607"><ele>520.0</ele><time>2026-04-19T08:41:40.998Z</time></trkpt><trkpt lat="37.63825486493866" lon="-4.272042338447898"><ele>520.0</ele><time>2026-04-19T08:41:42.998Z</time></trkpt><trkpt lat="37.638206601658254" lon="-4.271981890535449"><ele>520.0</ele><time>2026-04-19T08:41:46.998Z</time></trkpt><trkpt lat="37.6381227023603" lon="-4.271947940099008"><ele>520.0</ele><time>2026-04-19T08:41:49.998Z</time></trkpt><trkpt lat="37.638063304523165" lon="-4.271906308958196"><ele>520.0</ele><time>2026-04-19T08:41:51.998Z</time></trkpt><trkpt lat="37.63806789582262" lon="-4.2718121374597615"><ele>520.0</ele><time>2026-04-19T08:41:54Z</time></trkpt><trkpt lat="37.63813763211816" lon="-4.2717569774969775"><ele>520.0</ele><time>2026-04-19T08:41:57Z</time></trkpt><trkpt lat="37.638202521275616" lon="-4.271677216315603"><ele>520.0000000000001</ele><time>2026-04-19T08:42:00Z</time></trkpt><trkpt lat="37.63825462746833" lon="-4.271623627548673"><ele>520.0</ele><time>2026-04-19T08:42:02Z</time></trkpt><trkpt lat="37.638307608623386" lon="-4.271574000089966"><ele>520.0</ele><time>2026-04-19T08:42:04Z</time></trkpt><trkpt lat="37.638368146006236" lon="-4.271508690186272"><ele>520.0</ele><time>2026-04-19T08:42:06Z</time></trkpt><trkpt lat="37.63843509047405" lon="-4.271445585032091"><ele>520.0</ele><time>2026-04-19T08:42:08Z</time></trkpt><trkpt lat="37.63849274620258" lon="-4.271387755362813"><ele>520.0000000000001</ele><time>2026-04-19T08:42:10Z</time></trkpt><trkpt lat="37.63854828293517" lon="-4.271327147537762"><ele>520.0</ele><time>2026-04-19T08:42:12Z</time></trkpt><trkpt lat="37.638604703288166" lon="-4.271269659590748"><ele>520.0000000000001</ele><time>2026-04-19T08:42:14Z</time></trkpt><trkpt lat="37.63860900427369" lon="-4.271360743461426"><ele>520.0</ele><time>2026-04-19T08:42:26Z</time></trkpt><trkpt lat="37.63853908240615" lon="-4.271363698639718"><ele>520.0</ele><time>2026-04-19T08:42:28Z</time></trkpt><trkpt lat="37.638470316049464" lon="-4.27138202833541"><ele>520.0</ele><time>2026-04-19T08:42:30Z</time></trkpt><trkpt lat="37.63840385773276" lon="-4.271381042882421"><ele>520.0</ele><time>2026-04-19T08:43:45.998Z</time></trkpt><trkpt lat="37.63839291541567" lon="-4.271464983297348"><ele>520.0000000000001</ele><time>2026-04-19T08:46:17Z</time></trkpt><trkpt lat="37.638463236151765" lon="-4.271439966556247"><ele>520.0</ele><time>2026-04-19T08:46:21Z</time></trkpt><trkpt lat="37.63852430166075" lon="-4.271367069862378"><ele>519.1666666666667</ele><time>2026-04-19T08:46:26Z</time></trkpt><trkpt lat="37.63858678564161" lon="-4.2713010305821735"><ele>518.3333333333334</ele><time>2026-04-19T08:46:30Z</time></trkpt><trkpt lat="37.63865114954786" lon="-4.271228051523682"><ele>517.5</ele><time>2026-04-19T08:46:33Z</time></trkpt><trkpt lat="37.6387066667271" lon="-4.271167723931837"><ele>516.6666666666666</ele><time>2026-04-19T08:46:36Z</time></trkpt><trkpt lat="37.63876835482409" lon="-4.271102045155715"><ele>515.8333333333333</ele><time>2026-04-19T08:46:39Z</time></trkpt><trkpt lat="37.63882114349252" lon="-4.271052619675088"><ele>515.0</ele><time>2026-04-19T08:46:41Z</time></trkpt><trkpt lat="37.638892197956274" lon="-4.270975557608951"><ele>514.6</ele><time>2026-04-19T08:46:44Z</time></trkpt><trkpt lat="37.638981430410894" lon="-4.270951772130505"><ele>514.2</ele><time>2026-04-19T08:46:46Z</time></trkpt><trkpt lat="37.63910381131668" lon="-4.271000449334188"><ele>513.8</ele><time>2026-04-19T08:46:48Z</time></trkpt><trkpt lat="37.639167059411726" lon="-4.271021167502171"><ele>513.4</ele><time>2026-04-19T08:46:49Z</time></trkpt><trkpt lat="37.63928581128079" lon="-4.270983618715103"><ele>513.0</ele><time>2026-04-19T08:46:51Z</time></trkpt><trkpt lat="37.63932849986953" lon="-4.270909597576655"><ele>513.0</ele><time>2026-04-19T08:46:52Z</time></trkpt><trkpt lat="37.6393747415399" lon="-4.2708370560822475"><ele>513.0</ele><time>2026-04-19T08:46:53Z</time></trkpt><trkpt lat="37.63943897409836" lon="-4.270768772153262"><ele>513.0</ele><time>2026-04-19T08:46:54Z</time></trkpt><trkpt lat="37.63949788473027" lon="-4.270707827221451"><ele>513.0</ele><time>2026-04-19T08:46:55Z</time></trkpt><trkpt lat="37.639554617211736" lon="-4.27064907368603"><ele>513.0</ele><time>2026-04-19T08:46:56Z</time></trkpt><trkpt lat="37.63961691046185" lon="-4.270581597298421"><ele>513.0</ele><time>2026-04-19T08:46:57Z</time></trkpt><trkpt lat="37.63967961564374" lon="-4.270518828517573"><ele>511.8333333333333</ele><time>2026-04-19T08:46:58Z</time></trkpt><trkpt lat="37.639743860857756" lon="-4.270457556639549"><ele>510.66666666666663</ele><time>2026-04-19T08:46:58.999Z</time></trkpt><trkpt lat="37.63980640025076" lon="-4.270399946362813"><ele>509.5</ele><time>2026-04-19T08:46:59.999Z</time></trkpt><trkpt lat="37.63987025180829" lon="-4.270328503538641"><ele>508.3333333333333</ele><time>2026-04-19T08:47:00.999Z</time></trkpt><trkpt lat="37.639923296314784" lon="-4.270259252690988"><ele>507.16666666666663</ele><time>2026-04-19T08:47:01.999Z</time></trkpt><trkpt lat="37.63997939453514" lon="-4.270189005491059"><ele>506.0</ele><time>2026-04-19T08:47:02.999Z</time></trkpt><trkpt lat="37.64003534941299" lon="-4.2701232451467925"><ele>505.99999999999994</ele><time>2026-04-19T08:47:03.999Z</time></trkpt><trkpt lat="37.640088043332554" lon="-4.270048869321984"><ele>506.0</ele><time>2026-04-19T08:47:04.999Z</time></trkpt><trkpt lat="37.64013993247068" lon="-4.26998659815294"><ele>506.0</ele><time>2026-04-19T08:47:05.999Z</time></trkpt><trkpt lat="37.640194213056624" lon="-4.26992376128973"><ele>506.0</ele><time>2026-04-19T08:47:06.999Z</time></trkpt><trkpt lat="37.640282451386135" lon="-4.269798297881731"><ele>505.99999999999994</ele><time>2026-04-19T08:47:08.999Z</time></trkpt><trkpt lat="37.640294488392875" lon="-4.269706732290591"><ele>506.0</ele><time>2026-04-19T08:47:09.999Z</time></trkpt><trkpt lat="37.64028667405954" lon="-4.269613003434772"><ele>504.99999999999994</ele><time>2026-04-19T08:47:10.999Z</time></trkpt><trkpt lat="37.64028208349561" lon="-4.2695188301664855"><ele>504.0</ele><time>2026-04-19T08:47:11.999Z</time></trkpt><trkpt lat="37.64027300975699" lon="-4.269422829919995"><ele>503.0</ele><time>2026-04-19T08:47:12.999Z</time></trkpt><trkpt lat="37.64025740827346" lon="-4.269319788820034"><ele>502.0</ele><time>2026-04-19T08:47:13.999Z</time></trkpt><trkpt lat="37.64023378312784" lon="-4.269222970697353"><ele>500.99999999999994</ele><time>2026-04-19T08:47:14.999Z</time></trkpt><trkpt lat="37.64020949680801" lon="-4.269124398090827"><ele>500.0</ele><time>2026-04-19T08:47:15.999Z</time></trkpt><trkpt lat="37.64019174568417" lon="-4.26901979809038"><ele>498.99999999999994</ele><time>2026-04-19T08:47:16.999Z</time></trkpt><trkpt lat="37.64019915362771" lon="-4.268928654065675"><ele>498.0</ele><time>2026-04-19T08:47:17.999Z</time></trkpt><trkpt lat="37.64022785669263" lon="-4.26885532854349"><ele>497.0</ele><time>2026-04-19T08:47:18.999Z</time></trkpt><trkpt lat="37.64018440801232" lon="-4.268693995407792"><ele>496.0</ele><time>2026-04-19T08:47:20.999Z</time></trkpt><trkpt lat="37.640138301585445" lon="-4.2686090811924995"><ele>494.99999999999994</ele><time>2026-04-19T08:47:21.999Z</time></trkpt><trkpt lat="37.6400939178472" lon="-4.268521144427187"><ele>494.0</ele><time>2026-04-19T08:47:22.999Z</time></trkpt><trkpt lat="37.64005888042515" lon="-4.268416102117409"><ele>494.0</ele><time>2026-04-19T08:47:23.999Z</time></trkpt><trkpt lat="37.640024273698074" lon="-4.268305182394114"><ele>494.0</ele><time>2026-04-19T08:47:24.999Z</time></trkpt><trkpt lat="37.639973942047554" lon="-4.268198381668627"><ele>494.0</ele><time>2026-04-19T08:47:25.999Z</time></trkpt><trkpt lat="37.63993609136427" lon="-4.268097850015975"><ele>494.0</ele><time>2026-04-19T08:47:26.999Z</time></trkpt><trkpt lat="37.639896443740305" lon="-4.267993996987231"><ele>494.0</ele><time>2026-04-19T08:47:28.999Z</time></trkpt><trkpt lat="37.639821108665735" lon="-4.267955409621498"><ele>493.99999999999994</ele><time>2026-04-19T08:47:30.999Z</time></trkpt><trkpt lat="37.63974736476681" lon="-4.267933944116387"><ele>494.0</ele><time>2026-04-19T08:48:32Z</time></trkpt><trkpt lat="37.63970926171036" lon="-4.268006997146924"><ele>494.0</ele><time>2026-04-19T08:48:34Z</time></trkpt><trkpt lat="37.639633182003564" lon="-4.268072818710677"><ele>494.0</ele><time>2026-04-19T08:48:36Z</time></trkpt><trkpt lat="37.63955665351925" lon="-4.268175612078169"><ele>493.99999999999994</ele><time>2026-04-19T08:48:38Z</time></trkpt><trkpt lat="37.639492980071154" lon="-4.268237166660246"><ele>494.0</ele><time>2026-04-19T08:48:40Z</time></trkpt><trkpt lat="37.63941703977842" lon="-4.2681844615832825"><ele>492.6</ele><time>2026-04-19T08:48:42Z</time></trkpt><trkpt lat="37.63934256517411" lon="-4.26807282216182"><ele>491.2</ele><time>2026-04-19T08:48:44Z</time></trkpt><trkpt lat="37.63926005344547" lon="-4.267969429442822"><ele>489.80000000000007</ele><time>2026-04-19T08:48:46Z</time></trkpt><trkpt lat="37.639195203191676" lon="-4.26788388843953"><ele>488.40000000000003</ele><time>2026-04-19T08:48:48Z</time></trkpt><trkpt lat="37.639132843519455" lon="-4.267799319671284"><ele>487.0</ele><time>2026-04-19T08:48:50Z</time></trkpt><trkpt lat="37.63907244793448" lon="-4.267718347708152"><ele>487.00000000000006</ele><time>2026-04-19T08:48:52Z</time></trkpt><trkpt lat="37.63900351527696" lon="-4.267630557491808"><ele>487.0</ele><time>2026-04-19T08:48:54Z</time></trkpt><trkpt lat="37.638928233509446" lon="-4.267528383115301"><ele>487.0</ele><time>2026-04-19T08:48:56Z</time></trkpt><trkpt lat="37.638884708088185" lon="-4.267468407238749"><ele>487.0</ele><time>2026-04-19T08:48:57Z</time></trkpt><trkpt lat="37.63883940596803" lon="-4.267407031542325"><ele>487.00000000000006</ele><time>2026-04-19T08:48:58Z</time></trkpt><trkpt lat="37.63879443657844" lon="-4.267349468519171"><ele>487.0</ele><time>2026-04-19T08:48:59Z</time></trkpt><trkpt lat="37.638743179060995" lon="-4.267276228154058"><ele>486.83333333333337</ele><time>2026-04-19T08:49:00Z</time></trkpt><trkpt lat="37.63869943943092" lon="-4.267212318576644"><ele>486.6666666666667</ele><time>2026-04-19T08:49:01Z</time></trkpt><trkpt lat="37.63864700793249" lon="-4.267141084796275"><ele>486.5</ele><time>2026-04-19T08:49:02Z</time></trkpt><trkpt lat="37.63859816767619" lon="-4.267076456313845"><ele>486.33333333333337</ele><time>2026-04-19T08:49:03Z</time></trkpt><trkpt lat="37.63854158849501" lon="-4.267000496103424"><ele>486.1666666666667</ele><time>2026-04-19T08:49:03.999Z</time></trkpt><trkpt lat="37.63848594978805" lon="-4.266935286922561"><ele>486.0</ele><time>2026-04-19T08:49:04.999Z</time></trkpt><trkpt lat="37.638427173566875" lon="-4.266860771855651"><ele>485.0</ele><time>2026-04-19T08:49:05.999Z</time></trkpt><trkpt lat="37.638364660932304" lon="-4.266780828443801"><ele>484.0</ele><time>2026-04-19T08:49:06.999Z</time></trkpt><trkpt lat="37.638316541123324" lon="-4.2667033722411"><ele>483.0</ele><time>2026-04-19T08:49:07.999Z</time></trkpt><trkpt lat="37.63825152832715" lon="-4.266622365435286"><ele>482.0</ele><time>2026-04-19T08:49:08.999Z</time></trkpt><trkpt lat="37.638193964829" lon="-4.266541977149781"><ele>481.0</ele><time>2026-04-19T08:49:09.999Z</time></trkpt><trkpt lat="37.63813783595191" lon="-4.266464410516679"><ele>480.0</ele><time>2026-04-19T08:49:10.999Z</time></trkpt><trkpt lat="37.63807405349805" lon="-4.266385921995798"><ele>479.2</ele><time>2026-04-19T08:49:11.999Z</time></trkpt><trkpt lat="37.638031277499586" lon="-4.266319225487094"><ele>478.4</ele><time>2026-04-19T08:49:12.999Z</time></trkpt><trkpt lat="37.6380160193456" lon="-4.266188581471528"><ele>477.6</ele><time>2026-04-19T08:49:14.999Z</time></trkpt><trkpt lat="37.63792776591357" lon="-4.26605503427788"><ele>476.8</ele><time>2026-04-19T08:49:16.999Z</time></trkpt><trkpt lat="37.63787477595171" lon="-4.265993282376929"><ele>476.0</ele><time>2026-04-19T08:49:17.999Z</time></trkpt><trkpt lat="37.637820099332565" lon="-4.265921824527804"><ele>475.49999999999994</ele><time>2026-04-19T08:49:18.999Z</time></trkpt><trkpt lat="37.63776864846604" lon="-4.265855512968154"><ele>475.0</ele><time>2026-04-19T08:49:19.999Z</time></trkpt><trkpt lat="37.637716206828124" lon="-4.265787296927301"><ele>474.5</ele><time>2026-04-19T08:49:20.999Z</time></trkpt><trkpt lat="37.637672046686184" lon="-4.265727873732451"><ele>474.0</ele><time>2026-04-19T08:49:21.999Z</time></trkpt><trkpt lat="37.637627563738036" lon="-4.265665400756774"><ele>473.49999999999994</ele><time>2026-04-19T08:49:22.999Z</time></trkpt><trkpt lat="37.63758209984408" lon="-4.26560796108572"><ele>473.0</ele><time>2026-04-19T08:49:23.999Z</time></trkpt><trkpt lat="37.63749438889757" lon="-4.265493398561156"><ele>472.59999999999997</ele><time>2026-04-19T08:49:25.999Z</time></trkpt><trkpt lat="37.637450703030254" lon="-4.265433726459964"><ele>472.19999999999993</ele><time>2026-04-19T08:49:26.999Z</time></trkpt><trkpt lat="37.63737020450596" lon="-4.265327943581644"><ele>471.8</ele><time>2026-04-19T08:49:28.999Z</time></trkpt><trkpt lat="37.63729436693222" lon="-4.265212273758924"><ele>471.4</ele><time>2026-04-19T08:49:30.999Z</time></trkpt><trkpt lat="37.637286875937264" lon="-4.265062439253166"><ele>471.0</ele><time>2026-04-19T08:49:32.999Z</time></trkpt><trkpt lat="37.637208710067895" lon="-4.264965706893657"><ele>471.0</ele><time>2026-04-19T08:49:34.999Z</time></trkpt><trkpt lat="37.63716215338888" lon="-4.264909806085966"><ele>471.0</ele><time>2026-04-19T08:49:35.999Z</time></trkpt><trkpt lat="37.6370879055738" lon="-4.264802081627405"><ele>471.0</ele><time>2026-04-19T08:49:37.999Z</time></trkpt><trkpt lat="37.63700889173562" lon="-4.264699455094725"><ele>471.0</ele><time>2026-04-19T08:49:39.999Z</time></trkpt><trkpt lat="37.636943134077455" lon="-4.264610529559881"><ele>471.0</ele><time>2026-04-19T08:49:41.999Z</time></trkpt><trkpt lat="37.63687507062589" lon="-4.264523830068674"><ele>470.6666666666667</ele><time>2026-04-19T08:49:43.999Z</time></trkpt><trkpt lat="37.6368351282556" lon="-4.2644411823485475"><ele>470.33333333333337</ele><time>2026-04-19T08:49:46.999Z</time></trkpt><trkpt lat="37.63687168477801" lon="-4.264368734313332"><ele>470.0</ele><time>2026-04-19T08:49:49.999Z</time></trkpt><trkpt lat="37.63693917392631" lon="-4.264306060785905"><ele>469.6666666666667</ele><time>2026-04-19T08:49:51.999Z</time></trkpt><trkpt lat="37.63699681268434" lon="-4.264217592133697"><ele>469.33333333333337</ele><time>2026-04-19T08:49:53.998Z</time></trkpt><trkpt lat="37.63707641887671" lon="-4.264129074441857"><ele>469.0</ele><time>2026-04-19T08:49:55.998Z</time></trkpt><trkpt lat="37.637147309739184" lon="-4.264037759480641"><ele>469.0</ele><time>2026-04-19T08:49:57.998Z</time></trkpt><trkpt lat="37.63721765769292" lon="-4.263948133089193"><ele>469.0</ele><time>2026-04-19T08:49:59.998Z</time></trkpt><trkpt lat="37.63726965497416" lon="-4.263893844722982"><ele>469.0</ele><time>2026-04-19T08:50:00.998Z</time></trkpt><trkpt lat="37.6373204888557" lon="-4.263823578881405"><ele>469.0</ele><time>2026-04-19T08:50:01.998Z</time></trkpt><trkpt lat="37.63736803630939" lon="-4.263756619867534"><ele>469.0</ele><time>2026-04-19T08:50:02.998Z</time></trkpt><trkpt lat="37.63741702372395" lon="-4.263695610704257"><ele>469.0</ele><time>2026-04-19T08:50:03.998Z</time></trkpt><trkpt lat="37.63746234365974" lon="-4.263635562536197"><ele>469.0</ele><time>2026-04-19T08:50:04.998Z</time></trkpt><trkpt lat="37.637548850572074" lon="-4.263537708380998"><ele>468.6</ele><time>2026-04-19T08:50:06.998Z</time></trkpt><trkpt lat="37.637636095514274" lon="-4.263445429971294"><ele>468.2</ele><time>2026-04-19T08:50:08.998Z</time></trkpt><trkpt lat="37.6377230143531" lon="-4.263368219348802"><ele>467.80000000000007</ele><time>2026-04-19T08:50:10.998Z</time></trkpt><trkpt lat="37.63775419085812" lon="-4.263298856476421"><ele>467.40000000000003</ele><time>2026-04-19T08:50:11.998Z</time></trkpt><trkpt lat="37.63782809715712" lon="-4.263186386360404"><ele>467.0</ele><time>2026-04-19T08:50:13.998Z</time></trkpt><trkpt lat="37.63791389673689" lon="-4.263079865374745"><ele>468.20000000000005</ele><time>2026-04-19T08:50:15.998Z</time></trkpt><trkpt lat="37.6379977721383" lon="-4.262964110408354"><ele>469.40000000000003</ele><time>2026-04-19T08:50:18Z</time></trkpt><trkpt lat="37.63807919976127" lon="-4.262857661830365"><ele>470.59999999999997</ele><time>2026-04-19T08:50:20Z</time></trkpt><trkpt lat="37.63814500839108" lon="-4.2627419573629215"><ele>471.79999999999995</ele><time>2026-04-19T08:50:22Z</time></trkpt><trkpt lat="37.63818419163641" lon="-4.262676883511989"><ele>473.0</ele><time>2026-04-19T08:50:23Z</time></trkpt><trkpt lat="37.63825738183738" lon="-4.262560116291257"><ele>473.0</ele><time>2026-04-19T08:50:25Z</time></trkpt><trkpt lat="37.638297866669646" lon="-4.262498329241334"><ele>472.99999999999994</ele><time>2026-04-19T08:50:26Z</time></trkpt><trkpt lat="37.63837126569786" lon="-4.262382638808501"><ele>472.99999999999994</ele><time>2026-04-19T08:50:28Z</time></trkpt><trkpt lat="37.63844964488541" lon="-4.262262796653779"><ele>473.0</ele><time>2026-04-19T08:50:30Z</time></trkpt><trkpt lat="37.63852098201116" lon="-4.262149666457745"><ele>473.0</ele><time>2026-04-19T08:50:32Z</time></trkpt><trkpt lat="37.638586515402515" lon="-4.262036243716864"><ele>472.59999999999997</ele><time>2026-04-19T08:50:34Z</time></trkpt><trkpt lat="37.63864449408895" lon="-4.2619327627220045"><ele>472.19999999999993</ele><time>2026-04-19T08:50:36Z</time></trkpt><trkpt lat="37.638710988080035" lon="-4.261828556895734"><ele>471.8</ele><time>2026-04-19T08:50:38Z</time></trkpt><trkpt lat="37.638776828168375" lon="-4.261711543247832"><ele>471.4</ele><time>2026-04-19T08:50:40Z</time></trkpt><trkpt lat="37.638816415760736" lon="-4.261649182691822"><ele>471.0</ele><time>2026-04-19T08:50:41Z</time></trkpt><trkpt lat="37.638906642713884" lon="-4.261529151232541"><ele>471.00000000000006</ele><time>2026-04-19T08:50:43Z</time></trkpt><trkpt lat="37.63895113465344" lon="-4.2614568609514825"><ele>471.0</ele><time>2026-04-19T08:50:44Z</time></trkpt><trkpt lat="37.638996685902846" lon="-4.26138035935634"><ele>471.00000000000006</ele><time>2026-04-19T08:50:45Z</time></trkpt><trkpt lat="37.63904294887887" lon="-4.261305133549365"><ele>471.00000000000006</ele><time>2026-04-19T08:50:46Z</time></trkpt><trkpt lat="37.63909056188575" lon="-4.261228787440492"><ele>471.0</ele><time>2026-04-19T08:50:47Z</time></trkpt><trkpt lat="37.639135750658355" lon="-4.261152218298088"><ele>471.00000000000006</ele><time>2026-04-19T08:50:48Z</time></trkpt><trkpt lat="37.639176876228895" lon="-4.261079020415378"><ele>471.00000000000006</ele><time>2026-04-19T08:50:49Z</time></trkpt><trkpt lat="37.639221092761744" lon="-4.261018419313346"><ele>469.20000000000005</ele><time>2026-04-19T08:50:50Z</time></trkpt><trkpt lat="37.6392615248188" lon="-4.260951607988878"><ele>467.40000000000003</ele><time>2026-04-19T08:50:51Z</time></trkpt><trkpt lat="37.639330955708466" lon="-4.260820760889775"><ele>465.6</ele><time>2026-04-19T08:50:53Z</time></trkpt><trkpt lat="37.63940248552265" lon="-4.26067733921849"><ele>463.8</ele><time>2026-04-19T08:50:55Z</time></trkpt><trkpt lat="37.639450147866555" lon="-4.260623367318659"><ele>462.0</ele><time>2026-04-19T08:50:56Z</time></trkpt><trkpt lat="37.639531733451285" lon="-4.260536793485446"><ele>461.0</ele><time>2026-04-19T08:50:58Z</time></trkpt><trkpt lat="37.639586965163815" lon="-4.2603864488057175"><ele>460.00000000000006</ele><time>2026-04-19T08:51:00Z</time></trkpt><trkpt lat="37.63960979901956" lon="-4.260306171627683"><ele>459.00000000000006</ele><time>2026-04-19T08:51:01Z</time></trkpt><trkpt lat="37.63964329897231" lon="-4.260237357875758"><ele>458.0</ele><time>2026-04-19T08:51:02Z</time></trkpt><trkpt lat="37.63976786376399" lon="-4.260203004413574"><ele>457.0</ele><time>2026-04-19T08:51:04Z</time></trkpt><trkpt lat="37.639809954371565" lon="-4.260081928909545"><ele>457.0</ele><time>2026-04-19T08:51:06Z</time></trkpt><trkpt lat="37.63985706045473" lon="-4.259955526564509"><ele>457.00000000000006</ele><time>2026-04-19T08:51:08Z</time></trkpt><trkpt lat="37.63991315229288" lon="-4.2598436460371785"><ele>457.00000000000006</ele><time>2026-04-19T08:51:10Z</time></trkpt><trkpt lat="37.63998628643403" lon="-4.259753721933667"><ele>457.0</ele><time>2026-04-19T08:51:12Z</time></trkpt><trkpt lat="37.640027886761715" lon="-4.259656309590267"><ele>457.0</ele><time>2026-04-19T08:51:13.999Z</time></trkpt><trkpt lat="37.64007227981218" lon="-4.259543926486676"><ele>456.8</ele><time>2026-04-19T08:51:15.999Z</time></trkpt><trkpt lat="37.640120699706614" lon="-4.2594270631969104"><ele>456.6</ele><time>2026-04-19T08:51:17.999Z</time></trkpt><trkpt lat="37.64016561386267" lon="-4.25930540227721"><ele>456.40000000000003</ele><time>2026-04-19T08:51:19.999Z</time></trkpt><trkpt lat="37.640208046699186" lon="-4.259200785050283"><ele>456.20000000000005</ele><time>2026-04-19T08:51:21.999Z</time></trkpt><trkpt lat="37.64024946490059" lon="-4.259091743974006"><ele>456.0</ele><time>2026-04-19T08:51:23.999Z</time></trkpt><trkpt lat="37.64029117796421" lon="-4.25898255628524"><ele>456.20000000000005</ele><time>2026-04-19T08:51:25.999Z</time></trkpt><trkpt lat="37.640323707400505" lon="-4.2588821585899534"><ele>456.40000000000003</ele><time>2026-04-19T08:51:27.999Z</time></trkpt><trkpt lat="37.64036435705511" lon="-4.25879285680495"><ele>456.6</ele><time>2026-04-19T08:51:29.999Z</time></trkpt><trkpt lat="37.64040430360828" lon="-4.258684706799467"><ele>456.8</ele><time>2026-04-19T08:51:31.999Z</time></trkpt><trkpt lat="37.640454704269" lon="-4.258560432611689"><ele>457.0</ele><time>2026-04-19T08:51:33.999Z</time></trkpt><trkpt lat="37.64050485123089" lon="-4.258421553380569"><ele>457.00000000000006</ele><time>2026-04-19T08:51:35.999Z</time></trkpt><trkpt lat="37.64053108546155" lon="-4.258338696949006"><ele>457.0</ele><time>2026-04-19T08:51:36.999Z</time></trkpt><trkpt lat="37.64056539593313" lon="-4.2582601607051345"><ele>457.00000000000006</ele><time>2026-04-19T08:51:37.999Z</time></trkpt><trkpt lat="37.640598909074285" lon="-4.258172616174349"><ele>457.00000000000006</ele><time>2026-04-19T08:51:38.999Z</time></trkpt><trkpt lat="37.640630574789256" lon="-4.258090143746439"><ele>457.0</ele><time>2026-04-19T08:51:39.999Z</time></trkpt><trkpt lat="37.640664796795704" lon="-4.258009140700878"><ele>457.00000000000006</ele><time>2026-04-19T08:51:40.999Z</time></trkpt><trkpt lat="37.64069146238531" lon="-4.257930754291149"><ele>457.00000000000006</ele><time>2026-04-19T08:51:41.999Z</time></trkpt><trkpt lat="37.640718419185966" lon="-4.257849024718854"><ele>455.6666666666667</ele><time>2026-04-19T08:51:42.999Z</time></trkpt><trkpt lat="37.640747064483946" lon="-4.257764583854508"><ele>454.33333333333337</ele><time>2026-04-19T08:51:43.999Z</time></trkpt><trkpt lat="37.640794525857395" lon="-4.257664721417701"><ele>453.0</ele><time>2026-04-19T08:51:45.999Z</time></trkpt><trkpt lat="37.64082157380334" lon="-4.257569019969411"><ele>451.66666666666663</ele><time>2026-04-19T08:51:47.999Z</time></trkpt><trkpt lat="37.64085740713302" lon="-4.257473599955534"><ele>450.3333333333333</ele><time>2026-04-19T08:51:49.999Z</time></trkpt><trkpt lat="37.640896297095004" lon="-4.257369322951577"><ele>449.0</ele><time>2026-04-19T08:51:51.999Z</time></trkpt><trkpt lat="37.64093612289942" lon="-4.257277984160723"><ele>447.99999999999994</ele><time>2026-04-19T08:51:53.999Z</time></trkpt><trkpt lat="37.64096375623641" lon="-4.257201572909861"><ele>447.0</ele><time>2026-04-19T08:51:55.999Z</time></trkpt><trkpt lat="37.64099658541366" lon="-4.257122273891311"><ele>446.0</ele><time>2026-04-19T08:51:59.999Z</time></trkpt><trkpt lat="37.641077263206185" lon="-4.25705829215711"><ele>445.0</ele><time>2026-04-19T08:52:09.998Z</time></trkpt><trkpt lat="37.64113378276486" lon="-4.257012026008943"><ele>443.99999999999994</ele><time>2026-04-19T08:52:11.998Z</time></trkpt><trkpt lat="37.64106679951012" lon="-4.256950138651361"><ele>443.0</ele><time>2026-04-19T08:52:14.998Z</time></trkpt><trkpt lat="37.641062643863336" lon="-4.256864365638543"><ele>442.99999999999994</ele><time>2026-04-19T08:52:18.998Z</time></trkpt><trkpt lat="37.64105797839018" lon="-4.256756439493132"><ele>443.0</ele><time>2026-04-19T08:52:24Z</time></trkpt><trkpt lat="37.64107307993956" lon="-4.256642428295364"><ele>443.0</ele><time>2026-04-19T08:52:27Z</time></trkpt><trkpt lat="37.64111060892188" lon="-4.256546209956901"><ele>443.0</ele><time>2026-04-19T08:52:30Z</time></trkpt><trkpt lat="37.641170220032905" lon="-4.256491440386152"><ele>442.99999999999994</ele><time>2026-04-19T08:52:32Z</time></trkpt><trkpt lat="37.6412372643645" lon="-4.256428111627749"><ele>443.0</ele><time>2026-04-19T08:52:34Z</time></trkpt><trkpt lat="37.64125044038127" lon="-4.256298652479355"><ele>440.79999999999995</ele><time>2026-04-19T08:52:37Z</time></trkpt><trkpt lat="37.64128189560462" lon="-4.256192223133921"><ele>438.59999999999997</ele><time>2026-04-19T08:52:39Z</time></trkpt><trkpt lat="37.64131691263829" lon="-4.256076286397788"><ele>436.40000000000003</ele><time>2026-04-19T08:52:41Z</time></trkpt><trkpt lat="37.64133991079941" lon="-4.255964216115706"><ele>434.20000000000005</ele><time>2026-04-19T08:52:43Z</time></trkpt><trkpt lat="37.64135183445605" lon="-4.255827347429554"><ele>432.0</ele><time>2026-04-19T08:52:45Z</time></trkpt><trkpt lat="37.64136957861442" lon="-4.255707420249591"><ele>431.0</ele><time>2026-04-19T08:52:47Z</time></trkpt><trkpt lat="37.64138168778942" lon="-4.255617236349165"><ele>430.00000000000006</ele><time>2026-04-19T08:52:49Z</time></trkpt><trkpt lat="37.641387637247846" lon="-4.255492491404616"><ele>429.00000000000006</ele><time>2026-04-19T08:52:51Z</time></trkpt><trkpt lat="37.64141263847854" lon="-4.255349083483888"><ele>428.0</ele><time>2026-04-19T08:52:53Z</time></trkpt><trkpt lat="37.641427059490354" lon="-4.25519523318381"><ele>427.0</ele><time>2026-04-19T08:52:55Z</time></trkpt><trkpt lat="37.64145874849814" lon="-4.255067117994286"><ele>427.0</ele><time>2026-04-19T08:52:57Z</time></trkpt><trkpt lat="37.64151360487015" lon="-4.254955485643602"><ele>427.00000000000006</ele><time>2026-04-19T08:52:59Z</time></trkpt><trkpt lat="37.641569844902605" lon="-4.254916386743721"><ele>427.00000000000006</ele><time>2026-04-19T08:53:00Z</time></trkpt><trkpt lat="37.64167432711354" lon="-4.2548795805345145"><ele>427.0</ele><time>2026-04-19T08:53:02Z</time></trkpt><trkpt lat="37.64174834125962" lon="-4.254807679437967"><ele>427.0</ele><time>2026-04-19T08:53:04Z</time></trkpt><trkpt lat="37.64182048404529" lon="-4.25472074674977"><ele>426.20000000000005</ele><time>2026-04-19T08:53:06Z</time></trkpt><trkpt lat="37.64179350242294" lon="-4.254618324195433"><ele>425.40000000000003</ele><time>2026-04-19T08:53:08Z</time></trkpt><trkpt lat="37.64174296550546" lon="-4.254519409404952"><ele>424.6</ele><time>2026-04-19T08:53:10Z</time></trkpt><trkpt lat="37.64174392563345" lon="-4.254391979804321"><ele>423.79999999999995</ele><time>2026-04-19T08:53:12Z</time></trkpt><trkpt lat="37.641691279956156" lon="-4.254278422687367"><ele>423.0</ele><time>2026-04-19T08:53:14Z</time></trkpt><trkpt lat="37.64164695195283" lon="-4.254212426088603"><ele>423.0</ele><time>2026-04-19T08:53:16Z</time></trkpt><trkpt lat="37.641611795107615" lon="-4.254113787578165"><ele>423.0</ele><time>2026-04-19T08:53:19Z</time></trkpt><trkpt lat="37.641578478431384" lon="-4.254038489266476"><ele>423.0</ele><time>2026-04-19T08:53:21Z</time></trkpt><trkpt lat="37.64152503407836" lon="-4.253935073017297"><ele>423.0</ele><time>2026-04-19T08:53:22.999Z</time></trkpt><trkpt lat="37.64145343611724" lon="-4.253831703872992"><ele>423.0</ele><time>2026-04-19T08:53:24.999Z</time></trkpt><trkpt lat="37.64139443452412" lon="-4.253704414659705"><ele>422.5</ele><time>2026-04-19T08:53:26.999Z</time></trkpt><trkpt lat="37.641373108026386" lon="-4.253628442499751"><ele>422.0</ele><time>2026-04-19T08:53:27.999Z</time></trkpt><trkpt lat="37.64132002732891" lon="-4.253538563568444"><ele>421.5</ele><time>2026-04-19T08:53:29.999Z</time></trkpt><trkpt lat="37.64121465524829" lon="-4.253545550866558"><ele>421.0</ele><time>2026-04-19T08:53:31.999Z</time></trkpt><trkpt lat="37.64112528237042" lon="-4.253528492757991"><ele>420.5</ele><time>2026-04-19T08:53:34.999Z</time></trkpt><trkpt lat="37.64104711292023" lon="-4.253490771280828"><ele>420.0</ele><time>2026-04-19T08:53:36.999Z</time></trkpt><trkpt lat="37.640982904874114" lon="-4.253457881166908"><ele>419.2857142857143</ele><time>2026-04-19T08:53:38.999Z</time></trkpt><trkpt lat="37.64089248211079" lon="-4.25344247386525"><ele>418.57142857142856</ele><time>2026-04-19T08:53:41.999Z</time></trkpt><trkpt lat="37.640826485998176" lon="-4.253427031014122"><ele>417.8571428571429</ele><time>2026-04-19T08:53:44.999Z</time></trkpt><trkpt lat="37.64078159657945" lon="-4.253363722970753"><ele>417.1428571428571</ele><time>2026-04-19T08:54:08.999Z</time></trkpt><trkpt lat="37.6407379656913" lon="-4.253302172712781"><ele>416.42857142857144</ele><time>2026-04-19T08:54:26.998Z</time></trkpt><trkpt lat="37.640730769975626" lon="-4.253208135134036"><ele>415.7142857142857</ele><time>2026-04-19T08:55:13Z</time></trkpt><trkpt lat="37.64075824691233" lon="-4.253112628366825"><ele>415.0</ele><time>2026-04-19T08:55:16Z</time></trkpt><trkpt lat="37.64080835342394" lon="-4.2530168511400985"><ele>414.6666666666667</ele><time>2026-04-19T08:55:19Z</time></trkpt><trkpt lat="37.640830843799904" lon="-4.252940975370014"><ele>414.33333333333337</ele><time>2026-04-19T08:55:21Z</time></trkpt><trkpt lat="37.64083395712323" lon="-4.252839448596371"><ele>414.0</ele><time>2026-04-19T08:55:23Z</time></trkpt><trkpt lat="37.640794391309" lon="-4.252706060437464"><ele>413.66666666666663</ele><time>2026-04-19T08:55:25Z</time></trkpt><trkpt lat="37.640802419765826" lon="-4.252625406113855"><ele>413.3333333333333</ele><time>2026-04-19T08:55:26Z</time></trkpt><trkpt lat="37.640822870263605" lon="-4.2525451563220145"><ele>413.0</ele><time>2026-04-19T08:55:27Z</time></trkpt><trkpt lat="37.6408352830366" lon="-4.252457832359981"><ele>412.99999999999994</ele><time>2026-04-19T08:55:28Z</time></trkpt><trkpt lat="37.64080426540202" lon="-4.252302572747634"><ele>413.0</ele><time>2026-04-19T08:55:30Z</time></trkpt><trkpt lat="37.64077096245305" lon="-4.252229325769179"><ele>413.0</ele><time>2026-04-19T08:55:31Z</time></trkpt><trkpt lat="37.64075082406815" lon="-4.2521451867948095"><ele>413.0</ele><time>2026-04-19T08:55:31.999Z</time></trkpt><trkpt lat="37.640757869820696" lon="-4.252062811549414"><ele>412.99999999999994</ele><time>2026-04-19T08:55:32.999Z</time></trkpt><trkpt lat="37.64074286148788" lon="-4.251933548369729"><ele>413.0</ele><time>2026-04-19T08:55:34.999Z</time></trkpt><trkpt lat="37.64069876984639" lon="-4.251806122344008"><ele>412.4</ele><time>2026-04-19T08:55:36.999Z</time></trkpt><trkpt lat="37.64064704745689" lon="-4.2516934656939185"><ele>411.79999999999995</ele><time>2026-04-19T08:55:38.999Z</time></trkpt><trkpt lat="37.640596437267796" lon="-4.251594285735739"><ele>411.2</ele><time>2026-04-19T08:55:40.999Z</time></trkpt><trkpt lat="37.64057624966077" lon="-4.251481493767262"><ele>410.6</ele><time>2026-04-19T08:55:42.999Z</time></trkpt><trkpt lat="37.640575295084055" lon="-4.251372641732136"><ele>410.0</ele><time>2026-04-19T08:55:44.999Z</time></trkpt><trkpt lat="37.64058278830974" lon="-4.251253825588426"><ele>409.99999999999994</ele><time>2026-04-19T08:55:46.999Z</time></trkpt><trkpt lat="37.640587621878986" lon="-4.251154057151347"><ele>410.0</ele><time>2026-04-19T08:55:48.999Z</time></trkpt><trkpt lat="37.640600168879274" lon="-4.251037927984957"><ele>410.0</ele><time>2026-04-19T08:55:51.999Z</time></trkpt><trkpt lat="37.64061737303021" lon="-4.250943706972656"><ele>410.0</ele><time>2026-04-19T08:55:53.998Z</time></trkpt><trkpt lat="37.640639336171176" lon="-4.2508675480933125"><ele>409.99999999999994</ele><time>2026-04-19T08:55:55.998Z</time></trkpt><trkpt lat="37.64066564510264" lon="-4.250779858567835"><ele>410.0</ele><time>2026-04-19T08:55:57.998Z</time></trkpt><trkpt lat="37.640684558706106" lon="-4.250697329881885"><ele>411.8333333333333</ele><time>2026-04-19T08:55:59.998Z</time></trkpt><trkpt lat="37.640714306945696" lon="-4.250586889181693"><ele>413.66666666666663</ele><time>2026-04-19T08:56:02.998Z</time></trkpt><trkpt lat="37.64075650427815" lon="-4.250497689082577"><ele>415.5</ele><time>2026-04-19T08:56:05.998Z</time></trkpt><trkpt lat="37.64079026348341" lon="-4.250424487113542"><ele>417.33333333333337</ele><time>2026-04-19T08:56:07.998Z</time></trkpt><trkpt lat="37.6408180282176" lon="-4.2503522118824355"><ele>419.1666666666667</ele><time>2026-04-19T08:56:09.998Z</time></trkpt><trkpt lat="37.640849203796684" lon="-4.250275800671279"><ele>421.0</ele><time>2026-04-19T08:56:11.998Z</time></trkpt><trkpt lat="37.6409054445691" lon="-4.250201373690546"><ele>421.00000000000006</ele><time>2026-04-19T08:56:14.998Z</time></trkpt><trkpt lat="37.64092947740233" lon="-4.250081330446192"><ele>421.0</ele><time>2026-04-19T08:56:17.998Z</time></trkpt><trkpt lat="37.64095830093114" lon="-4.249985854105425"><ele>421.0</ele><time>2026-04-19T08:56:19.998Z</time></trkpt><trkpt lat="37.641007608209975" lon="-4.249889862679218"><ele>421.0</ele><time>2026-04-19T08:56:22.997Z</time></trkpt><trkpt lat="37.64103916390443" lon="-4.249816803465322"><ele>421.00000000000006</ele><time>2026-04-19T08:56:24.997Z</time></trkpt><trkpt lat="37.64106551225245" lon="-4.249733434029064"><ele>421.0</ele><time>2026-04-19T08:56:26.997Z</time></trkpt><trkpt lat="37.64111110517728" lon="-4.249637947902739"><ele>418.6666666666667</ele><time>2026-04-19T08:56:29.997Z</time></trkpt><trkpt lat="37.64114316405465" lon="-4.249540018995934"><ele>416.33333333333337</ele><time>2026-04-19T08:56:32.997Z</time></trkpt><trkpt lat="37.64117085573201" lon="-4.249435895462512"><ele>414.0</ele><time>2026-04-19T08:56:35.999Z</time></trkpt><trkpt lat="37.64118930380633" lon="-4.24933511038218"><ele>411.66666666666663</ele><time>2026-04-19T08:56:38.999Z</time></trkpt><trkpt lat="37.64120589747912" lon="-4.249230549435236"><ele>409.3333333333333</ele><time>2026-04-19T08:56:41.999Z</time></trkpt><trkpt lat="37.6412191179699" lon="-4.249146785517838"><ele>407.0</ele><time>2026-04-19T08:56:43.999Z</time></trkpt><trkpt lat="37.64123501510548" lon="-4.24903465406697"><ele>406.42857142857144</ele><time>2026-04-19T08:56:46.999Z</time></trkpt><trkpt lat="37.64125840316441" lon="-4.2489352678287355"><ele>405.8571428571429</ele><time>2026-04-19T08:56:49.999Z</time></trkpt><trkpt lat="37.641232551142785" lon="-4.248861103302639"><ele>405.28571428571433</ele><time>2026-04-19T08:56:51.999Z</time></trkpt><trkpt lat="37.641179294006584" lon="-4.24881677827393"><ele>404.7142857142857</ele><time>2026-04-19T08:56:53.999Z</time></trkpt><trkpt lat="37.64110898179975" lon="-4.248818442355223"><ele>404.1428571428571</ele><time>2026-04-19T08:56:55.999Z</time></trkpt><trkpt lat="37.64105630957763" lon="-4.248867072634559"><ele>403.5714285714286</ele><time>2026-04-19T08:56:57.999Z</time></trkpt><trkpt lat="37.64099110626812" lon="-4.248911616207642"><ele>403.0</ele><time>2026-04-19T08:56:59.999Z</time></trkpt><trkpt lat="37.64091805803316" lon="-4.2489828263280085"><ele>407.00000000000006</ele><time>2026-04-19T08:57:02.999Z</time></trkpt><trkpt lat="37.64085345743303" lon="-4.249017552131226"><ele>411.0</ele><time>2026-04-19T08:57:04.999Z</time></trkpt><trkpt lat="37.64077125753903" lon="-4.249009974718915"><ele>415.0</ele><time>2026-04-19T08:57:06.999Z</time></trkpt><trkpt lat="37.64067072598711" lon="-4.249026167592989"><ele>419.0</ele><time>2026-04-19T08:57:08.999Z</time></trkpt><trkpt lat="37.64057369561578" lon="-4.249021116182086"><ele>423.00000000000006</ele><time>2026-04-19T08:57:10.999Z</time></trkpt><trkpt lat="37.64048744869914" lon="-4.249016395977553"><ele>427.0</ele><time>2026-04-19T08:57:12.999Z</time></trkpt><trkpt lat="37.640421652478615" lon="-4.248997156601239"><ele>427.00000000000006</ele><time>2026-04-19T08:57:14.999Z</time></trkpt><trkpt lat="37.64036062634261" lon="-4.248946035904865"><ele>427.0</ele><time>2026-04-19T08:57:17.999Z</time></trkpt><trkpt lat="37.64030932283039" lon="-4.249000297276962"><ele>427.0</ele><time>2026-04-19T08:57:23.999Z</time></trkpt><trkpt lat="37.640318147318695" lon="-4.249101505285606"><ele>427.0</ele><time>2026-04-19T08:59:34.999Z</time></trkpt><trkpt lat="37.64028837104181" lon="-4.249195311302095"><ele>427.00000000000006</ele><time>2026-04-19T08:59:38.999Z</time></trkpt><trkpt lat="37.64025343567826" lon="-4.249285260821183"><ele>427.0</ele><time>2026-04-19T08:59:41.999Z</time></trkpt><trkpt lat="37.64019836048381" lon="-4.249387358675926"><ele>427.42857142857144</ele><time>2026-04-19T08:59:44.998Z</time></trkpt><trkpt lat="37.64013324304665" lon="-4.249471935788307"><ele>427.8571428571429</ele><time>2026-04-19T08:59:47.998Z</time></trkpt><trkpt lat="37.640087695059094" lon="-4.249535225924379"><ele>428.2857142857143</ele><time>2026-04-19T08:59:49.998Z</time></trkpt><trkpt lat="37.64005375607468" lon="-4.249614424276002"><ele>428.7142857142857</ele><time>2026-04-19T08:59:51.998Z</time></trkpt><trkpt lat="37.6400353127043" lon="-4.249693606117337"><ele>429.14285714285717</ele><time>2026-04-19T08:59:53.998Z</time></trkpt><trkpt lat="37.63997164942301" lon="-4.249741324743214"><ele>429.57142857142856</ele><time>2026-04-19T08:59:55.998Z</time></trkpt><trkpt lat="37.63991963594631" lon="-4.249787330890641"><ele>430.0</ele><time>2026-04-19T08:59:57.998Z</time></trkpt><trkpt lat="37.639870483241374" lon="-4.249837850028707"><ele>430.6666666666667</ele><time>2026-04-19T08:59:59.998Z</time></trkpt><trkpt lat="37.639799733082896" lon="-4.249901896598582"><ele>431.33333333333337</ele><time>2026-04-19T09:00:02.998Z</time></trkpt><trkpt lat="37.63973369936804" lon="-4.24996871653281"><ele>432.0</ele><time>2026-04-19T09:00:05.998Z</time></trkpt><trkpt lat="37.639730963652966" lon="-4.250050814430882"><ele>432.66666666666663</ele><time>2026-04-19T09:00:07.998Z</time></trkpt><trkpt lat="37.63966448044082" lon="-4.250132771928243"><ele>433.3333333333333</ele><time>2026-04-19T09:00:10.998Z</time></trkpt><trkpt lat="37.63959938422074" lon="-4.250141362705913"><ele>434.0</ele><time>2026-04-19T09:00:12.998Z</time></trkpt><trkpt lat="37.639514550891846" lon="-4.250109137073636"><ele>433.66666666666663</ele><time>2026-04-19T09:00:15.998Z</time></trkpt><trkpt lat="37.63946342984751" lon="-4.250058989241313"><ele>433.3333333333333</ele><time>2026-04-19T09:00:17.998Z</time></trkpt><trkpt lat="37.63942299006438" lon="-4.249959472949457"><ele>433.0</ele><time>2026-04-19T09:00:19.998Z</time></trkpt><trkpt lat="37.6393618024583" lon="-4.249838112309095"><ele>432.66666666666663</ele><time>2026-04-19T09:00:21.998Z</time></trkpt><trkpt lat="37.63932067900789" lon="-4.249775066127815"><ele>432.3333333333333</ele><time>2026-04-19T09:00:22.998Z</time></trkpt><trkpt lat="37.639283316684526" lon="-4.2496965162461375"><ele>432.0</ele><time>2026-04-19T09:00:23.998Z</time></trkpt><trkpt lat="37.63925227390945" lon="-4.2496219726502105"><ele>430.0</ele><time>2026-04-19T09:00:24.998Z</time></trkpt><trkpt lat="37.63918642970741" lon="-4.249487917491024"><ele>428.00000000000006</ele><time>2026-04-19T09:00:26.998Z</time></trkpt><trkpt lat="37.63915368289162" lon="-4.249418790772755"><ele>426.0</ele><time>2026-04-19T09:00:27.998Z</time></trkpt><trkpt lat="37.63908193312856" lon="-4.2492939970073484"><ele>424.0</ele><time>2026-04-19T09:00:29.998Z</time></trkpt><trkpt lat="37.63901321852718" lon="-4.2491820698593985"><ele>422.0</ele><time>2026-04-19T09:00:31.998Z</time></trkpt><trkpt lat="37.63893596727263" lon="-4.249116618990105"><ele>422.0</ele><time>2026-04-19T09:00:33.998Z</time></trkpt><trkpt lat="37.6388924060984" lon="-4.249048411825824"><ele>422.0</ele><time>2026-04-19T09:00:35.997Z</time></trkpt><trkpt lat="37.63889383105855" lon="-4.248922779172626"><ele>422.0</ele><time>2026-04-19T09:00:37.997Z</time></trkpt><trkpt lat="37.638896541542394" lon="-4.248782201532596"><ele>422.0</ele><time>2026-04-19T09:00:39.997Z</time></trkpt><trkpt lat="37.63890837187121" lon="-4.248633081488991"><ele>422.0</ele><time>2026-04-19T09:00:41.997Z</time></trkpt><trkpt lat="37.6389486067546" lon="-4.248567103635836"><ele>419.6</ele><time>2026-04-19T09:00:42.997Z</time></trkpt><trkpt lat="37.638998476381744" lon="-4.248512332825048"><ele>417.20000000000005</ele><time>2026-04-19T09:00:43.997Z</time></trkpt><trkpt lat="37.6390931165456" lon="-4.248423216696482"><ele>414.8</ele><time>2026-04-19T09:00:45.999Z</time></trkpt><trkpt lat="37.63918396047969" lon="-4.248366282536504"><ele>412.4</ele><time>2026-04-19T09:00:47.999Z</time></trkpt><trkpt lat="37.639218924360954" lon="-4.248256829191882"><ele>410.0</ele><time>2026-04-19T09:00:49.999Z</time></trkpt><trkpt lat="37.63923005652735" lon="-4.2481472801952105"><ele>408.7142857142857</ele><time>2026-04-19T09:00:51.999Z</time></trkpt><trkpt lat="37.63918374045139" lon="-4.24805067082036"><ele>407.4285714285714</ele><time>2026-04-19T09:00:53.999Z</time></trkpt><trkpt lat="37.639131831824365" lon="-4.247970309757886"><ele>406.1428571428571</ele><time>2026-04-19T09:00:56.999Z</time></trkpt><trkpt lat="37.63909845505775" lon="-4.247890109391788"><ele>404.8571428571429</ele><time>2026-04-19T09:01:00Z</time></trkpt><trkpt lat="37.63906018632051" lon="-4.247823178148248"><ele>403.57142857142856</ele><time>2026-04-19T09:01:01.999Z</time></trkpt><trkpt lat="37.6390281958276" lon="-4.247750987429264"><ele>402.2857142857143</ele><time>2026-04-19T09:01:03.999Z</time></trkpt><trkpt lat="37.63898912172349" lon="-4.247685131680963"><ele>401.0</ele><time>2026-04-19T09:01:05.999Z</time></trkpt><trkpt lat="37.638942156948744" lon="-4.247601069480503"><ele>400.99999999999994</ele><time>2026-04-19T09:01:07.999Z</time></trkpt><trkpt lat="37.638879541950004" lon="-4.247496336181403"><ele>401.0</ele><time>2026-04-19T09:01:09.999Z</time></trkpt><trkpt lat="37.63884388784575" lon="-4.247419746110867"><ele>401.0</ele><time>2026-04-19T09:01:10.999Z</time></trkpt><trkpt lat="37.63880754631896" lon="-4.247341595519838"><ele>401.0</ele><time>2026-04-19T09:01:11.999Z</time></trkpt><trkpt lat="37.638767900300664" lon="-4.24725446048123"><ele>400.99999999999994</ele><time>2026-04-19T09:01:12.999Z</time></trkpt><trkpt lat="37.63872937316735" lon="-4.247179082068213"><ele>401.0</ele><time>2026-04-19T09:01:13.999Z</time></trkpt><trkpt lat="37.63869329604081" lon="-4.247113932729217"><ele>399.4</ele><time>2026-04-19T09:01:14.999Z</time></trkpt><trkpt lat="37.63863939703763" lon="-4.247009194524158"><ele>397.8</ele><time>2026-04-19T09:01:16.999Z</time></trkpt><trkpt lat="37.63857348113509" lon="-4.246887508200061"><ele>396.2</ele><time>2026-04-19T09:01:18.999Z</time></trkpt><trkpt lat="37.63853731527261" lon="-4.2468162146911475"><ele>394.59999999999997</ele><time>2026-04-19T09:01:19.999Z</time></trkpt><trkpt lat="37.63847594444079" lon="-4.246690001075254"><ele>393.0</ele><time>2026-04-19T09:01:21.999Z</time></trkpt><trkpt lat="37.638410051478765" lon="-4.246569971281312"><ele>391.8333333333333</ele><time>2026-04-19T09:01:23.999Z</time></trkpt><trkpt lat="37.63835844127953" lon="-4.246485219558694"><ele>390.66666666666663</ele><time>2026-04-19T09:01:25.999Z</time></trkpt><trkpt lat="37.638318002550896" lon="-4.246392359471065"><ele>389.5</ele><time>2026-04-19T09:01:27.999Z</time></trkpt><trkpt lat="37.63827669258542" lon="-4.246327252999949"><ele>388.3333333333333</ele><time>2026-04-19T09:01:29.999Z</time></trkpt><trkpt lat="37.63826145277923" lon="-4.2462426199805385"><ele>387.16666666666663</ele><time>2026-04-19T09:01:36.999Z</time></trkpt><trkpt lat="37.63832114867198" lon="-4.2461856420609525"><ele>386.0</ele><time>2026-04-19T09:01:39.999Z</time></trkpt><trkpt lat="37.63836182807616" lon="-4.246090824344637"><ele>385.42857142857144</ele><time>2026-04-19T09:01:43.999Z</time></trkpt><trkpt lat="37.638371828848115" lon="-4.245998000386462"><ele>384.8571428571429</ele><time>2026-04-19T09:01:46.999Z</time></trkpt><trkpt lat="37.638427168972285" lon="-4.245923990675214"><ele>384.28571428571433</ele><time>2026-04-19T09:01:49.999Z</time></trkpt><trkpt lat="37.638455503801936" lon="-4.245841828281984"><ele>383.7142857142857</ele><time>2026-04-19T09:01:53.999Z</time></trkpt><trkpt lat="37.63847042716415" lon="-4.245763558836636"><ele>383.1428571428571</ele><time>2026-04-19T09:01:57.998Z</time></trkpt><trkpt lat="37.638513086988254" lon="-4.245700974255819"><ele>382.5714285714286</ele><time>2026-04-19T09:02:00.998Z</time></trkpt><trkpt lat="37.63858723580975" lon="-4.245643605221262"><ele>382.0</ele><time>2026-04-19T09:02:04.998Z</time></trkpt><trkpt lat="37.63864725018769" lon="-4.245610746364288"><ele>381.16666666666663</ele><time>2026-04-19T09:02:06.998Z</time></trkpt><trkpt lat="37.63870910321009" lon="-4.245570098247714"><ele>380.3333333333333</ele><time>2026-04-19T09:02:08.998Z</time></trkpt><trkpt lat="37.63876463027286" lon="-4.245531810201705"><ele>379.5</ele><time>2026-04-19T09:02:10.998Z</time></trkpt><trkpt lat="37.638845088273065" lon="-4.245487529265798"><ele>378.6666666666667</ele><time>2026-04-19T09:02:13.998Z</time></trkpt><trkpt lat="37.6389330370203" lon="-4.2455045570509125"><ele>377.83333333333337</ele><time>2026-04-19T09:02:16.998Z</time></trkpt><trkpt lat="37.639008726158096" lon="-4.245527822864315"><ele>377.0</ele><time>2026-04-19T09:02:19.998Z</time></trkpt><trkpt lat="37.639092046493985" lon="-4.2454957305687415"><ele>377.0</ele><time>2026-04-19T09:02:22.998Z</time></trkpt><trkpt lat="37.639144114350685" lon="-4.245445739470347"><ele>377.0</ele><time>2026-04-19T09:02:24.998Z</time></trkpt><trkpt lat="37.639204929362165" lon="-4.245391534694125"><ele>377.0</ele><time>2026-04-19T09:02:26.998Z</time></trkpt><trkpt lat="37.63928013836928" lon="-4.245341080304297"><ele>377.0</ele><time>2026-04-19T09:02:28.998Z</time></trkpt><trkpt lat="37.63935194043024" lon="-4.2452732835440985"><ele>377.0</ele><time>2026-04-19T09:02:30.998Z</time></trkpt><trkpt lat="37.63941908796334" lon="-4.245195504856177"><ele>377.0</ele><time>2026-04-19T09:02:33.998Z</time></trkpt><trkpt lat="37.63944019402942" lon="-4.245103138705074"><ele>376.33333333333337</ele><time>2026-04-19T09:02:35.998Z</time></trkpt><trkpt lat="37.639482711637775" lon="-4.245035271471099"><ele>375.6666666666667</ele><time>2026-04-19T09:02:37.998Z</time></trkpt><trkpt lat="37.639572592177785" lon="-4.244982236243419"><ele>375.0</ele><time>2026-04-19T09:02:39.998Z</time></trkpt><trkpt lat="37.63963933937559" lon="-4.244928175079463"><ele>374.3333333333333</ele><time>2026-04-19T09:02:41.998Z</time></trkpt><trkpt lat="37.639708521890135" lon="-4.244880488375561"><ele>373.66666666666663</ele><time>2026-04-19T09:02:45.998Z</time></trkpt><trkpt lat="37.63979938257346" lon="-4.244908252874805"><ele>373.0</ele><time>2026-04-19T09:02:48.997Z</time></trkpt><trkpt lat="37.639860148826" lon="-4.244881418776718"><ele>373.0</ele><time>2026-04-19T09:02:50.997Z</time></trkpt><trkpt lat="37.63992675806774" lon="-4.24481059526208"><ele>373.0</ele><time>2026-04-19T09:02:52.999Z</time></trkpt><trkpt lat="37.64000230133791" lon="-4.24482346919438"><ele>373.0</ele><time>2026-04-19T09:02:54.999Z</time></trkpt><trkpt lat="37.6400936546641" lon="-4.244845454944802"><ele>373.0</ele><time>2026-04-19T09:02:57.999Z</time></trkpt><trkpt lat="37.640168338062786" lon="-4.244862394179994"><ele>373.0</ele><time>2026-04-19T09:02:59.999Z</time></trkpt><trkpt lat="37.640239460822855" lon="-4.244863138557641"><ele>373.0</ele><time>2026-04-19T09:03:01.999Z</time></trkpt><trkpt lat="37.640321469293205" lon="-4.2448422712707305"><ele>372.14285714285717</ele><time>2026-04-19T09:03:03.999Z</time></trkpt><trkpt lat="37.64038931569335" lon="-4.244866747032126"><ele>371.28571428571433</ele><time>2026-04-19T09:03:05.999Z</time></trkpt><trkpt lat="37.64045706609946" lon="-4.244875344041357"><ele>370.42857142857144</ele><time>2026-04-19T09:03:07.999Z</time></trkpt><trkpt lat="37.640516512971416" lon="-4.244907951061625"><ele>369.57142857142856</ele><time>2026-04-19T09:03:09.999Z</time></trkpt><trkpt lat="37.64058672537352" lon="-4.244916788138326"><ele>368.7142857142857</ele><time>2026-04-19T09:03:11.999Z</time></trkpt><trkpt lat="37.64064815326222" lon="-4.244954798220842"><ele>367.85714285714283</ele><time>2026-04-19T09:03:13.999Z</time></trkpt><trkpt lat="37.64072484499597" lon="-4.244925335858643"><ele>367.0</ele><time>2026-04-19T09:03:16.999Z</time></trkpt><trkpt lat="37.64074799816041" lon="-4.244850013130553"><ele>367.0</ele><time>2026-04-19T09:03:20.999Z</time></trkpt><trkpt lat="37.64083697955758" lon="-4.244866288846486"><ele>367.0</ele><time>2026-04-19T09:03:27.999Z</time></trkpt><trkpt lat="37.64088768316079" lon="-4.244953716201608"><ele>367.0</ele><time>2026-04-19T09:03:30.999Z</time></trkpt><trkpt lat="37.64088051878613" lon="-4.2450605880942005"><ele>367.0</ele><time>2026-04-19T09:03:33.999Z</time></trkpt><trkpt lat="37.640954646846204" lon="-4.245077105207422"><ele>367.0</ele><time>2026-04-19T09:03:46.999Z</time></trkpt><trkpt lat="37.64102146977515" lon="-4.244977841655185"><ele>367.0</ele><time>2026-04-19T09:03:49.999Z</time></trkpt><trkpt lat="37.64098676000186" lon="-4.244861536607913"><ele>366.0</ele><time>2026-04-19T09:03:51.999Z</time></trkpt><trkpt lat="37.64091759742099" lon="-4.244778100205201"><ele>365.0</ele><time>2026-04-19T09:03:53.999Z</time></trkpt><trkpt lat="37.64084058300549" lon="-4.244722874533062"><ele>364.0</ele><time>2026-04-19T09:03:55.999Z</time></trkpt><trkpt lat="37.640767452740356" lon="-4.244678803136988"><ele>363.0</ele><time>2026-04-19T09:03:57.999Z</time></trkpt><trkpt lat="37.64077592455986" lon="-4.244559081654186"><ele>362.0</ele><time>2026-04-19T09:04:00.998Z</time></trkpt><trkpt lat="37.640887250942214" lon="-4.2445116994869005"><ele>362.0</ele><time>2026-04-19T09:04:02.998Z</time></trkpt><trkpt lat="37.64099505463836" lon="-4.2444720752186065"><ele>362.0</ele><time>2026-04-19T09:04:04.998Z</time></trkpt><trkpt lat="37.64111128780131" lon="-4.244401432740411"><ele>362.0</ele><time>2026-04-19T09:04:06.998Z</time></trkpt><trkpt lat="37.64117113989702" lon="-4.2443523655435555"><ele>362.0</ele><time>2026-04-19T09:04:07.998Z</time></trkpt><trkpt lat="37.641229384385866" lon="-4.244289462681048"><ele>362.0</ele><time>2026-04-19T09:04:08.998Z</time></trkpt><trkpt lat="37.64129046389995" lon="-4.244214081593132"><ele>360.40000000000003</ele><time>2026-04-19T09:04:09.998Z</time></trkpt><trkpt lat="37.641348691755226" lon="-4.244130908320377"><ele>358.8</ele><time>2026-04-19T09:04:10.998Z</time></trkpt><trkpt lat="37.64140872433352" lon="-4.2440398901583585"><ele>357.2</ele><time>2026-04-19T09:04:11.998Z</time></trkpt><trkpt lat="37.641464646777415" lon="-4.243935133563547"><ele>355.6</ele><time>2026-04-19T09:04:12.998Z</time></trkpt><trkpt lat="37.641509036429696" lon="-4.243816421204815"><ele>354.0</ele><time>2026-04-19T09:04:13.998Z</time></trkpt><trkpt lat="37.64154791391371" lon="-4.2436879298316885"><ele>353.75</ele><time>2026-04-19T09:04:14.998Z</time></trkpt><trkpt lat="37.6415773555305" lon="-4.243550906750804"><ele>353.5</ele><time>2026-04-19T09:04:15.998Z</time></trkpt><trkpt lat="37.6415941382559" lon="-4.243407468870558"><ele>353.25</ele><time>2026-04-19T09:04:16.998Z</time></trkpt><trkpt lat="37.64159567099245" lon="-4.243259173974997"><ele>353.0</ele><time>2026-04-19T09:04:17.998Z</time></trkpt><trkpt lat="37.64158562814638" lon="-4.2431066666980675"><ele>352.75</ele><time>2026-04-19T09:04:18.998Z</time></trkpt><trkpt lat="37.641567088962326" lon="-4.242952948701821"><ele>352.5</ele><time>2026-04-19T09:04:19.998Z</time></trkpt><trkpt lat="37.64154443674892" lon="-4.242795628729464"><ele>352.25</ele><time>2026-04-19T09:04:20.998Z</time></trkpt><trkpt lat="37.64152485214285" lon="-4.242639048595283"><ele>352.0</ele><time>2026-04-19T09:04:21.998Z</time></trkpt><trkpt lat="37.641505990971105" lon="-4.242478632604715"><ele>352.0</ele><time>2026-04-19T09:04:22.998Z</time></trkpt><trkpt lat="37.641486259251664" lon="-4.242315516035777"><ele>352.0</ele><time>2026-04-19T09:04:23.998Z</time></trkpt><trkpt lat="37.64146853475433" lon="-4.2421498596047105"><ele>352.0</ele><time>2026-04-19T09:04:24.998Z</time></trkpt><trkpt lat="37.64145208928863" lon="-4.241982414511468"><ele>352.0</ele><time>2026-04-19T09:04:25.998Z</time></trkpt><trkpt lat="37.641437092783654" lon="-4.24181280626372"><ele>352.0</ele><time>2026-04-19T09:04:26.998Z</time></trkpt><trkpt lat="37.64142411353189" lon="-4.241641154379543"><ele>352.0</ele><time>2026-04-19T09:04:27.998Z</time></trkpt><trkpt lat="37.6414044721605" lon="-4.241469398914635"><ele>352.0</ele><time>2026-04-19T09:04:28.998Z</time></trkpt><trkpt lat="37.64138597354358" lon="-4.241297404675114"><ele>352.0</ele><time>2026-04-19T09:04:29.998Z</time></trkpt><trkpt lat="37.64136602573664" lon="-4.2411222180710375"><ele>351.75</ele><time>2026-04-19T09:04:30.998Z</time></trkpt><trkpt lat="37.64133762891255" lon="-4.2409485086322"><ele>351.5</ele><time>2026-04-19T09:04:31.998Z</time></trkpt><trkpt lat="37.64129149269684" lon="-4.240781428243067"><ele>351.25</ele><time>2026-04-19T09:04:32.998Z</time></trkpt><trkpt lat="37.64123247508331" lon="-4.240621506258939"><ele>351.0</ele><time>2026-04-19T09:04:33.998Z</time></trkpt><trkpt lat="37.64119079257734" lon="-4.240456107377785"><ele>349.25</ele><time>2026-04-19T09:04:34.998Z</time></trkpt><trkpt lat="37.64116653321093" lon="-4.240285246115967"><ele>347.5</ele><time>2026-04-19T09:04:35.998Z</time></trkpt><trkpt lat="37.641167721096814" lon="-4.240109905168167"><ele>345.75</ele><time>2026-04-19T09:04:36.998Z</time></trkpt><trkpt lat="37.64118258804748" lon="-4.239934224811806"><ele>344.0</ele><time>2026-04-19T09:04:37.998Z</time></trkpt><trkpt lat="37.64119603856715" lon="-4.239759749269536"><ele>340.75</ele><time>2026-04-19T09:04:38.998Z</time></trkpt><trkpt lat="37.64121207062649" lon="-4.239583808408862"><ele>337.5</ele><time>2026-04-19T09:04:39.998Z</time></trkpt><trkpt lat="37.64123005198985" lon="-4.239406703281844"><ele>334.25</ele><time>2026-04-19T09:04:40.998Z</time></trkpt><trkpt lat="37.64124561979424" lon="-4.2392256813150855"><ele>331.0</ele><time>2026-04-19T09:04:41.998Z</time></trkpt><trkpt lat="37.641262269513675" lon="-4.239045217644054"><ele>328.5</ele><time>2026-04-19T09:04:42.998Z</time></trkpt><trkpt lat="37.64128015264908" lon="-4.238865993997427"><ele>326.0</ele><time>2026-04-19T09:04:43.998Z</time></trkpt><trkpt lat="37.64129798172496" lon="-4.238684573993756"><ele>323.5</ele><time>2026-04-19T09:04:44.998Z</time></trkpt><trkpt lat="37.64131253432453" lon="-4.238505545764933"><ele>321.0</ele><time>2026-04-19T09:04:45.998Z</time></trkpt><trkpt lat="37.64133090619161" lon="-4.2383315393158885"><ele>321.0</ele><time>2026-04-19T09:04:46.998Z</time></trkpt><trkpt lat="37.64133850399604" lon="-4.238161702142523"><ele>321.0</ele><time>2026-04-19T09:04:47.998Z</time></trkpt><trkpt lat="37.64135047636315" lon="-4.237993746053855"><ele>321.0</ele><time>2026-04-19T09:04:48.998Z</time></trkpt><trkpt lat="37.64136466583664" lon="-4.237834948006927"><ele>321.0</ele><time>2026-04-19T09:04:49.998Z</time></trkpt><trkpt lat="37.64138152082506" lon="-4.237665607139934"><ele>320.25</ele><time>2026-04-19T09:04:50.998Z</time></trkpt><trkpt lat="37.64140330475101" lon="-4.2375129084718575"><ele>319.5</ele><time>2026-04-19T09:04:51.998Z</time></trkpt><trkpt lat="37.641416669025666" lon="-4.237367766321192"><ele>318.75</ele><time>2026-04-19T09:04:52.998Z</time></trkpt><trkpt lat="37.641430610687244" lon="-4.237222680246276"><ele>318.0</ele><time>2026-04-19T09:04:53.998Z</time></trkpt><trkpt lat="37.64143422231594" lon="-4.237090207087327"><ele>317.6666666666667</ele><time>2026-04-19T09:04:54.997Z</time></trkpt><trkpt lat="37.64144034336342" lon="-4.236971326469952"><ele>317.3333333333333</ele><time>2026-04-19T09:04:55.997Z</time></trkpt><trkpt lat="37.64144735435403" lon="-4.2368760008595405"><ele>317.0</ele><time>2026-04-19T09:04:56.997Z</time></trkpt><trkpt lat="37.641453433984154" lon="-4.236782155552962"><ele>316.66666666666663</ele><time>2026-04-19T09:04:58.999Z</time></trkpt><trkpt lat="37.64146235340086" lon="-4.236701810089104"><ele>316.3333333333333</ele><time>2026-04-19T09:05:00.999Z</time></trkpt><trkpt lat="37.64148573082032" lon="-4.236622820328819"><ele>316.0</ele><time>2026-04-19T09:05:02.999Z</time></trkpt><trkpt lat="37.64156633900563" lon="-4.236612542611029"><ele>316.0</ele><time>2026-04-19T09:05:38.999Z</time></trkpt><trkpt lat="37.641545258507335" lon="-4.236505182343376"><ele>316.0</ele><time>2026-04-19T09:05:41.999Z</time></trkpt><trkpt lat="37.64151986453495" lon="-4.236385776844343"><ele>316.0</ele><time>2026-04-19T09:05:44.999Z</time></trkpt><trkpt lat="37.64156591721068" lon="-4.2362684065425"><ele>316.0</ele><time>2026-04-19T09:05:46.999Z</time></trkpt><trkpt lat="37.641594565643494" lon="-4.236165797595345"><ele>316.0</ele><time>2026-04-19T09:05:48.999Z</time></trkpt><trkpt lat="37.64162328174215" lon="-4.2360656388600315"><ele>315.6</ele><time>2026-04-19T09:05:50.999Z</time></trkpt><trkpt lat="37.6416521600329" lon="-4.235955299933451"><ele>315.20000000000005</ele><time>2026-04-19T09:05:52.999Z</time></trkpt><trkpt lat="37.641687820642495" lon="-4.235840643423044"><ele>314.79999999999995</ele><time>2026-04-19T09:05:54.999Z</time></trkpt><trkpt lat="37.64172520838723" lon="-4.235727277026969"><ele>314.4</ele><time>2026-04-19T09:05:56.999Z</time></trkpt><trkpt lat="37.64180501669308" lon="-4.235634714748809"><ele>314.0</ele><time>2026-04-19T09:05:58.998Z</time></trkpt><trkpt lat="37.64188097556417" lon="-4.235539350866822"><ele>313.59999999999997</ele><time>2026-04-19T09:06:00.998Z</time></trkpt><trkpt lat="37.64193014764549" lon="-4.235426950096772"><ele>313.2</ele><time>2026-04-19T09:06:02.998Z</time></trkpt><trkpt lat="37.64199400758559" lon="-4.235315042553953"><ele>312.79999999999995</ele><time>2026-04-19T09:06:04.998Z</time></trkpt><trkpt lat="37.64205337591729" lon="-4.235206426971765"><ele>312.4</ele><time>2026-04-19T09:06:06.998Z</time></trkpt><trkpt lat="37.64209492072549" lon="-4.235086518023783"><ele>312.0</ele><time>2026-04-19T09:06:08.998Z</time></trkpt><trkpt lat="37.64214360907917" lon="-4.234956239486954"><ele>311.25</ele><time>2026-04-19T09:06:10.998Z</time></trkpt><trkpt lat="37.64217670000621" lon="-4.234830836924543"><ele>310.5</ele><time>2026-04-19T09:06:12.998Z</time></trkpt><trkpt lat="37.64213558159937" lon="-4.234711453499321"><ele>309.75</ele><time>2026-04-19T09:06:14.998Z</time></trkpt><trkpt lat="37.64204695852612" lon="-4.234598859559112"><ele>309.0</ele><time>2026-04-19T09:06:16.998Z</time></trkpt><trkpt lat="37.64197595247392" lon="-4.234466660002359"><ele>309.14285714285717</ele><time>2026-04-19T09:06:18.998Z</time></trkpt><trkpt lat="37.641948342503504" lon="-4.234389672541764"><ele>309.2857142857143</ele><time>2026-04-19T09:06:19.998Z</time></trkpt><trkpt lat="37.641929105505525" lon="-4.23430877794181"><ele>309.42857142857144</ele><time>2026-04-19T09:06:20.998Z</time></trkpt><trkpt lat="37.64190972848319" lon="-4.234221256182101"><ele>309.57142857142856</ele><time>2026-04-19T09:06:21.998Z</time></trkpt><trkpt lat="37.64189386684621" lon="-4.2341308411333705"><ele>309.7142857142857</ele><time>2026-04-19T09:06:22.998Z</time></trkpt><trkpt lat="37.64187438286067" lon="-4.234032000473265"><ele>309.8571428571429</ele><time>2026-04-19T09:06:23.998Z</time></trkpt><trkpt lat="37.641858736060335" lon="-4.233938956940905"><ele>310.0</ele><time>2026-04-19T09:06:24.998Z</time></trkpt><trkpt lat="37.641843834623806" lon="-4.233849757658841"><ele>310.0</ele><time>2026-04-19T09:06:25.998Z</time></trkpt><trkpt lat="37.64182391615459" lon="-4.2337680056096945"><ele>310.0</ele><time>2026-04-19T09:06:26.998Z</time></trkpt><trkpt lat="37.641812137498675" lon="-4.233688614213241"><ele>310.0</ele><time>2026-04-19T09:06:27.998Z</time></trkpt><trkpt lat="37.64180672056475" lon="-4.23354371583166"><ele>310.0</ele><time>2026-04-19T09:06:29.998Z</time></trkpt><trkpt lat="37.64181014770703" lon="-4.233390440911697"><ele>310.0</ele><time>2026-04-19T09:06:31.998Z</time></trkpt><trkpt lat="37.64180854761787" lon="-4.233307172119846"><ele>310.0</ele><time>2026-04-19T09:06:32.998Z</time></trkpt><trkpt lat="37.641803713011875" lon="-4.233186716228261"><ele>309.66666666666663</ele><time>2026-04-19T09:06:34.998Z</time></trkpt><trkpt lat="37.64174417958342" lon="-4.233123755443654"><ele>309.3333333333333</ele><time>2026-04-19T09:06:35.998Z</time></trkpt><trkpt lat="37.641692084546044" lon="-4.2330758964587405"><ele>309.0</ele><time>2026-04-19T09:06:36.998Z</time></trkpt><trkpt lat="37.64163429351726" lon="-4.2330441183251"><ele>308.6666666666667</ele><time>2026-04-19T09:06:37.998Z</time></trkpt><trkpt lat="37.64153745799928" lon="-4.232963376334977"><ele>308.33333333333337</ele><time>2026-04-19T09:06:39.998Z</time></trkpt><trkpt lat="37.64143835929096" lon="-4.232873077914855"><ele>308.0</ele><time>2026-04-19T09:06:41.998Z</time></trkpt><trkpt lat="37.64134386681133" lon="-4.2327579141905325"><ele>308.0</ele><time>2026-04-19T09:06:43.998Z</time></trkpt><trkpt lat="37.641257864408054" lon="-4.232665277360681"><ele>308.0</ele><time>2026-04-19T09:06:45.998Z</time></trkpt><trkpt lat="37.64117232296022" lon="-4.232563998980196"><ele>308.0</ele><time>2026-04-19T09:06:47.998Z</time></trkpt><trkpt lat="37.64109201542792" lon="-4.232458669318624"><ele>308.0</ele><time>2026-04-19T09:06:49.998Z</time></trkpt><trkpt lat="37.64101320989367" lon="-4.232348482504382"><ele>308.1666666666667</ele><time>2026-04-19T09:06:51.998Z</time></trkpt><trkpt lat="37.64095016484396" lon="-4.23221959464919"><ele>308.33333333333337</ele><time>2026-04-19T09:06:53.998Z</time></trkpt><trkpt lat="37.640909103363285" lon="-4.232069632076683"><ele>308.5</ele><time>2026-04-19T09:06:55.998Z</time></trkpt><trkpt lat="37.64089701030235" lon="-4.231989821786349"><ele>308.6666666666667</ele><time>2026-04-19T09:06:56.998Z</time></trkpt><trkpt lat="37.64088652029897" lon="-4.23190063285344"><ele>308.8333333333333</ele><time>2026-04-19T09:06:57.997Z</time></trkpt><trkpt lat="37.64087538958401" lon="-4.231817639264496"><ele>309.0</ele><time>2026-04-19T09:06:58.997Z</time></trkpt><trkpt lat="37.64086428058229" lon="-4.231734447982254"><ele>309.0</ele><time>2026-04-19T09:06:59.997Z</time></trkpt><trkpt lat="37.640851897093505" lon="-4.231650261084213"><ele>309.0</ele><time>2026-04-19T09:07:00.997Z</time></trkpt><trkpt lat="37.6408401205986" lon="-4.23156757242812"><ele>309.0</ele><time>2026-04-19T09:07:01.997Z</time></trkpt><trkpt lat="37.64081976726327" lon="-4.231486729578212"><ele>309.0</ele><time>2026-04-19T09:07:02.997Z</time></trkpt><trkpt lat="37.640788048045366" lon="-4.23141105794004"><ele>309.0</ele><time>2026-04-19T09:07:03.999Z</time></trkpt><trkpt lat="37.64074590377049" lon="-4.231343110707217"><ele>309.0</ele><time>2026-04-19T09:07:04.999Z</time></trkpt><trkpt lat="37.64064899556852" lon="-4.231241510960303"><ele>308.0</ele><time>2026-04-19T09:07:06.999Z</time></trkpt><trkpt lat="37.64054568356303" lon="-4.231160161044568"><ele>307.0</ele><time>2026-04-19T09:07:08.999Z</time></trkpt><trkpt lat="37.64044285679417" lon="-4.231093196787381"><ele>306.0</ele><time>2026-04-19T09:07:10.999Z</time></trkpt><trkpt lat="37.640341094790436" lon="-4.231016698703746"><ele>305.0</ele><time>2026-04-19T09:07:12.999Z</time></trkpt><trkpt lat="37.640247642287655" lon="-4.230944590768889"><ele>306.6</ele><time>2026-04-19T09:07:14.999Z</time></trkpt><trkpt lat="37.64015064388895" lon="-4.230886959021547"><ele>308.2</ele><time>2026-04-19T09:07:16.999Z</time></trkpt><trkpt lat="37.640050837067044" lon="-4.230850956829427"><ele>309.8</ele><time>2026-04-19T09:07:18.999Z</time></trkpt><trkpt lat="37.63995855979008" lon="-4.230846312026917"><ele>311.4</ele><time>2026-04-19T09:07:20.999Z</time></trkpt><trkpt lat="37.639881266738925" lon="-4.230873383992293"><ele>313.0</ele><time>2026-04-19T09:07:22.999Z</time></trkpt><trkpt lat="37.6398078467277" lon="-4.230932279842929"><ele>313.0</ele><time>2026-04-19T09:07:24.999Z</time></trkpt><trkpt lat="37.639740430633324" lon="-4.230990081123201"><ele>313.0</ele><time>2026-04-19T09:07:26.999Z</time></trkpt><trkpt lat="37.63967448878135" lon="-4.2310593263846785"><ele>313.0</ele><time>2026-04-19T09:07:28.999Z</time></trkpt><trkpt lat="37.639631752481975" lon="-4.231151966391604"><ele>313.0</ele><time>2026-04-19T09:07:30.999Z</time></trkpt><trkpt lat="37.639607353739905" lon="-4.231251374698468"><ele>313.0</ele><time>2026-04-19T09:07:32.999Z</time></trkpt><trkpt lat="37.63958082976422" lon="-4.231352264233711"><ele>313.0</ele><time>2026-04-19T09:07:34.999Z</time></trkpt><trkpt lat="37.63958044771976" lon="-4.2314550047460795"><ele>313.16666666666663</ele><time>2026-04-19T09:07:36.999Z</time></trkpt><trkpt lat="37.63958887626167" lon="-4.231561929008591"><ele>313.3333333333333</ele><time>2026-04-19T09:07:38.999Z</time></trkpt><trkpt lat="37.63959760276819" lon="-4.231662073843479"><ele>313.5</ele><time>2026-04-19T09:07:40.999Z</time></trkpt><trkpt lat="37.63956543323048" lon="-4.231768323082458"><ele>313.6666666666667</ele><time>2026-04-19T09:07:42.999Z</time></trkpt><trkpt lat="37.63954637420833" lon="-4.231870753022032"><ele>313.83333333333337</ele><time>2026-04-19T09:07:44.999Z</time></trkpt><trkpt lat="37.639531108323254" lon="-4.231979043114573"><ele>314.0</ele><time>2026-04-19T09:07:46.999Z</time></trkpt><trkpt lat="37.63952111525769" lon="-4.232091065334016"><ele>314.0</ele><time>2026-04-19T09:07:48.999Z</time></trkpt><trkpt lat="37.63950696990215" lon="-4.232196165897413"><ele>314.0</ele><time>2026-04-19T09:07:50.999Z</time></trkpt><trkpt lat="37.639482991342746" lon="-4.232298884770614"><ele>314.0</ele><time>2026-04-19T09:07:52.999Z</time></trkpt><trkpt lat="37.63945712058371" lon="-4.232402336600206"><ele>314.0</ele><time>2026-04-19T09:07:54.999Z</time></trkpt><trkpt lat="37.63942995620029" lon="-4.232501900340726"><ele>314.0</ele><time>2026-04-19T09:07:56.999Z</time></trkpt><trkpt lat="37.63938220767106" lon="-4.2325891183496545"><ele>314.0</ele><time>2026-04-19T09:07:58.999Z</time></trkpt><trkpt lat="37.63932479476582" lon="-4.232662543169966"><ele>316.33333333333337</ele><time>2026-04-19T09:08:00.999Z</time></trkpt><trkpt lat="37.63925013189396" lon="-4.232727379507931"><ele>318.6666666666667</ele><time>2026-04-19T09:08:02.999Z</time></trkpt><trkpt lat="37.639178168849085" lon="-4.232773096812577"><ele>321.0</ele><time>2026-04-19T09:08:04.999Z</time></trkpt><trkpt lat="37.63909885617772" lon="-4.232787181713418"><ele>323.3333333333333</ele><time>2026-04-19T09:08:06.999Z</time></trkpt><trkpt lat="37.63902276499841" lon="-4.232778166074629"><ele>325.66666666666663</ele><time>2026-04-19T09:08:08.999Z</time></trkpt><trkpt lat="37.63894940134913" lon="-4.232754658156067"><ele>328.0</ele><time>2026-04-19T09:08:10.999Z</time></trkpt><trkpt lat="37.638875733510034" lon="-4.232718349900362"><ele>328.0</ele><time>2026-04-19T09:08:12.999Z</time></trkpt><trkpt lat="37.63880066938689" lon="-4.232651770267522"><ele>328.0</ele><time>2026-04-19T09:08:14.999Z</time></trkpt><trkpt lat="37.63872968917889" lon="-4.232587185884072"><ele>328.0</ele><time>2026-04-19T09:08:16.999Z</time></trkpt><trkpt lat="37.638673513695124" lon="-4.232516356944655"><ele>328.0</ele><time>2026-04-19T09:08:19.998Z</time></trkpt><trkpt lat="37.63865016811739" lon="-4.232431305064579"><ele>328.0</ele><time>2026-04-19T09:08:22.998Z</time></trkpt><trkpt lat="37.63865412004487" lon="-4.232331608095341"><ele>328.0</ele><time>2026-04-19T09:08:25.998Z</time></trkpt><trkpt lat="37.63866095356569" lon="-4.232231074675017"><ele>328.5</ele><time>2026-04-19T09:08:28.998Z</time></trkpt><trkpt lat="37.63867517556272" lon="-4.232129149318078"><ele>329.0</ele><time>2026-04-19T09:08:31.998Z</time></trkpt><trkpt lat="37.63868469171424" lon="-4.232020074336068"><ele>329.5</ele><time>2026-04-19T09:08:34.998Z</time></trkpt><trkpt lat="37.6387040937819" lon="-4.2319109385362825"><ele>330.0</ele><time>2026-04-19T09:08:37.998Z</time></trkpt><trkpt lat="37.638720378884905" lon="-4.231800522231733"><ele>330.5</ele><time>2026-04-19T09:08:40.998Z</time></trkpt><trkpt lat="37.63873865423802" lon="-4.231687465985934"><ele>331.0</ele><time>2026-04-19T09:08:43.998Z</time></trkpt><trkpt lat="37.63875100036156" lon="-4.231608376163772"><ele>331.0</ele><time>2026-04-19T09:08:45.998Z</time></trkpt><trkpt lat="37.638766561893576" lon="-4.2315200021208845"><ele>331.0</ele><time>2026-04-19T09:08:47.998Z</time></trkpt><trkpt lat="37.638776404588526" lon="-4.231436730071132"><ele>331.0</ele><time>2026-04-19T09:08:49.998Z</time></trkpt><trkpt lat="37.63878273698819" lon="-4.231347719685375"><ele>331.0</ele><time>2026-04-19T09:08:51.998Z</time></trkpt><trkpt lat="37.63878229841235" lon="-4.231259063344431"><ele>331.0</ele><time>2026-04-19T09:08:53.998Z</time></trkpt><trkpt lat="37.638779642493795" lon="-4.2311701391063234"><ele>331.0</ele><time>2026-04-19T09:08:55.998Z</time></trkpt><trkpt lat="37.638767430719554" lon="-4.2310809472547115"><ele>331.0</ele><time>2026-04-19T09:08:57.998Z</time></trkpt><trkpt lat="37.63875196978043" lon="-4.230995262058826"><ele>330.8571428571429</ele><time>2026-04-19T09:08:59.998Z</time></trkpt><trkpt lat="37.6387308272311" lon="-4.230906119010597"><ele>330.7142857142857</ele><time>2026-04-19T09:09:01.998Z</time></trkpt><trkpt lat="37.63870489500076" lon="-4.230821272981025"><ele>330.57142857142856</ele><time>2026-04-19T09:09:03.998Z</time></trkpt><trkpt lat="37.638665499478435" lon="-4.230738589528947"><ele>330.42857142857144</ele><time>2026-04-19T09:09:05.998Z</time></trkpt><trkpt lat="37.63862779557183" lon="-4.23065951396211"><ele>330.2857142857143</ele><time>2026-04-19T09:09:07.998Z</time></trkpt><trkpt lat="37.63858340313864" lon="-4.23059018678669"><ele>330.14285714285717</ele><time>2026-04-19T09:09:10Z</time></trkpt><trkpt lat="37.63854449624878" lon="-4.230515682493601"><ele>330.0</ele><time>2026-04-19T09:09:12Z</time></trkpt><trkpt lat="37.63850102509502" lon="-4.230440876440554"><ele>333.5714285714286</ele><time>2026-04-19T09:09:14Z</time></trkpt><trkpt lat="37.63845703539138" lon="-4.230367443987549"><ele>337.14285714285717</ele><time>2026-04-19T09:09:16Z</time></trkpt><trkpt lat="37.638410877523256" lon="-4.230298979561219"><ele>340.7142857142857</ele><time>2026-04-19T09:09:18Z</time></trkpt><trkpt lat="37.63836837277343" lon="-4.230226610227071"><ele>344.28571428571433</ele><time>2026-04-19T09:09:20Z</time></trkpt><trkpt lat="37.63832596149133" lon="-4.2301509175395156"><ele>347.8571428571429</ele><time>2026-04-19T09:09:22Z</time></trkpt><trkpt lat="37.638280622181895" lon="-4.230082040497954"><ele>351.42857142857144</ele><time>2026-04-19T09:09:24Z</time></trkpt><trkpt lat="37.6382375312582" lon="-4.2300114384910135"><ele>355.0</ele><time>2026-04-19T09:09:26Z</time></trkpt><trkpt lat="37.63819315418728" lon="-4.229941331477176"><ele>355.0</ele><time>2026-04-19T09:09:28Z</time></trkpt><trkpt lat="37.638145388398016" lon="-4.229876882152921"><ele>355.0</ele><time>2026-04-19T09:09:30Z</time></trkpt><trkpt lat="37.63808995731606" lon="-4.2298139714322"><ele>355.0</ele><time>2026-04-19T09:09:32Z</time></trkpt><trkpt lat="37.63803337727243" lon="-4.229762831432952"><ele>355.0</ele><time>2026-04-19T09:09:34Z</time></trkpt><trkpt lat="37.63796843201464" lon="-4.229735760012589"><ele>355.0</ele><time>2026-04-19T09:09:36Z</time></trkpt><trkpt lat="37.63790484240578" lon="-4.229711722900782"><ele>355.0</ele><time>2026-04-19T09:09:38Z</time></trkpt><trkpt lat="37.63784120655896" lon="-4.22968877993961"><ele>355.0</ele><time>2026-04-19T09:09:40Z</time></trkpt><trkpt lat="37.63774652207512" lon="-4.229666482563844"><ele>355.57142857142856</ele><time>2026-04-19T09:09:43Z</time></trkpt><trkpt lat="37.63768246084303" lon="-4.229654134942019"><ele>356.14285714285717</ele><time>2026-04-19T09:09:44.999Z</time></trkpt><trkpt lat="37.637618335394514" lon="-4.22963296762404"><ele>356.7142857142857</ele><time>2026-04-19T09:09:46.999Z</time></trkpt><trkpt lat="37.63755322028186" lon="-4.229611887082555"><ele>357.2857142857143</ele><time>2026-04-19T09:09:48.999Z</time></trkpt><trkpt lat="37.63748675018784" lon="-4.229588390208144"><ele>357.8571428571429</ele><time>2026-04-19T09:09:50.999Z</time></trkpt><trkpt lat="37.63742126224102" lon="-4.229568047182945"><ele>358.42857142857144</ele><time>2026-04-19T09:09:52.999Z</time></trkpt><trkpt lat="37.63733819040608" lon="-4.2295349394467205"><ele>359.0</ele><time>2026-04-19T09:09:55.999Z</time></trkpt><trkpt lat="37.63725899882861" lon="-4.229506833298811"><ele>359.0</ele><time>2026-04-19T09:09:58.999Z</time></trkpt><trkpt lat="37.63717169668453" lon="-4.22948628070666"><ele>359.0</ele><time>2026-04-19T09:10:01.999Z</time></trkpt><trkpt lat="37.637102054614424" lon="-4.229461737702465"><ele>359.0</ele><time>2026-04-19T09:10:03.999Z</time></trkpt><trkpt lat="37.63703162755681" lon="-4.22944645352218"><ele>359.0</ele><time>2026-04-19T09:10:05.999Z</time></trkpt><trkpt lat="37.63695968757136" lon="-4.2294399450766695"><ele>359.0</ele><time>2026-04-19T09:10:07.999Z</time></trkpt><trkpt lat="37.636888603139774" lon="-4.229435193042584"><ele>359.0</ele><time>2026-04-19T09:10:09.999Z</time></trkpt><trkpt lat="37.636817845060385" lon="-4.229432000537856"><ele>359.0</ele><time>2026-04-19T09:10:11.999Z</time></trkpt><trkpt lat="37.63675154609169" lon="-4.229435249066925"><ele>358.83333333333337</ele><time>2026-04-19T09:10:13.999Z</time></trkpt><trkpt lat="37.636688942228744" lon="-4.229445337397467"><ele>358.6666666666667</ele><time>2026-04-19T09:10:15.999Z</time></trkpt><trkpt lat="37.63660928954109" lon="-4.229457785088442"><ele>358.5</ele><time>2026-04-19T09:10:18.999Z</time></trkpt><trkpt lat="37.636537258852314" lon="-4.229450785671505"><ele>358.3333333333333</ele><time>2026-04-19T09:10:22.999Z</time></trkpt><trkpt lat="37.6364581808665" lon="-4.229491864397919"><ele>358.16666666666663</ele><time>2026-04-19T09:10:54.998Z</time></trkpt><trkpt lat="37.63637851429553" lon="-4.229527027958766"><ele>358.0</ele><time>2026-04-19T09:10:57.998Z</time></trkpt><trkpt lat="37.63631327088576" lon="-4.229583151075562"><ele>358.00000000000006</ele><time>2026-04-19T09:11:00.998Z</time></trkpt><trkpt lat="37.63624523533066" lon="-4.229625822301653"><ele>358.0</ele><time>2026-04-19T09:11:03.998Z</time></trkpt><trkpt lat="37.63619069424674" lon="-4.229667457810735"><ele>358.0</ele><time>2026-04-19T09:11:06.998Z</time></trkpt><trkpt lat="37.636137487773254" lon="-4.229714998084266"><ele>358.0</ele><time>2026-04-19T09:11:13.998Z</time></trkpt><trkpt lat="37.63622766088356" lon="-4.229674489145979"><ele>358.0</ele><time>2026-04-19T09:42:12.998Z</time></trkpt><trkpt lat="37.63629466048903" lon="-4.229662013883772"><ele>358.00000000000006</ele><time>2026-04-19T09:42:16.997Z</time></trkpt><trkpt lat="37.63636334975737" lon="-4.2296238816811815"><ele>358.0</ele><time>2026-04-19T09:42:20.997Z</time></trkpt><trkpt lat="37.63642097921467" lon="-4.229587492556466"><ele>358.0</ele><time>2026-04-19T09:42:24.997Z</time></trkpt><trkpt lat="37.636469379112995" lon="-4.22953316089063"><ele>358.0</ele><time>2026-04-19T09:42:27.997Z</time></trkpt><trkpt lat="37.63653352227817" lon="-4.229495419743684"><ele>358.0</ele><time>2026-04-19T09:42:30.997Z</time></trkpt><trkpt lat="37.63660959027855" lon="-4.229460105843192"><ele>358.0</ele><time>2026-04-19T09:42:33.997Z</time></trkpt><trkpt lat="37.6367014901679" lon="-4.229438385726705"><ele>358.0</ele><time>2026-04-19T09:42:36.997Z</time></trkpt><trkpt lat="37.636794125641416" lon="-4.2294262659656905"><ele>358.0</ele><time>2026-04-19T09:42:39.997Z</time></trkpt><trkpt lat="37.636866270153675" lon="-4.229419304918148"><ele>358.0</ele><time>2026-04-19T09:42:42.999Z</time></trkpt><trkpt lat="37.63693557088673" lon="-4.229419724753353"><ele>358.0</ele><time>2026-04-19T09:42:45.999Z</time></trkpt><trkpt lat="37.63701581626351" lon="-4.229430198773686"><ele>358.0</ele><time>2026-04-19T09:42:48.999Z</time></trkpt><trkpt lat="37.63709981010462" lon="-4.229434539300555"><ele>358.0</ele><time>2026-04-19T09:42:51.999Z</time></trkpt><trkpt lat="37.63717826923382" lon="-4.229451741641122"><ele>358.0</ele><time>2026-04-19T09:42:54.999Z</time></trkpt><trkpt lat="37.63725856831781" lon="-4.229477391231473"><ele>358.0</ele><time>2026-04-19T09:42:57.999Z</time></trkpt><trkpt lat="37.637322658743926" lon="-4.229475516222823"><ele>358.16666666666663</ele><time>2026-04-19T09:43:00.999Z</time></trkpt><trkpt lat="37.63738397237767" lon="-4.229527470416368"><ele>358.3333333333333</ele><time>2026-04-19T09:43:02.999Z</time></trkpt><trkpt lat="37.63746932471882" lon="-4.229563317177586"><ele>358.5</ele><time>2026-04-19T09:43:05.999Z</time></trkpt><trkpt lat="37.63755541201957" lon="-4.229592996735909"><ele>358.6666666666667</ele><time>2026-04-19T09:43:08.999Z</time></trkpt><trkpt lat="37.63761815064362" lon="-4.2296138612132985"><ele>358.83333333333337</ele><time>2026-04-19T09:43:10.999Z</time></trkpt><trkpt lat="37.63767540357991" lon="-4.229648040777497"><ele>359.0</ele><time>2026-04-19T09:43:12.999Z</time></trkpt><trkpt lat="37.637713855926776" lon="-4.229745421396962"><ele>360.5</ele><time>2026-04-19T09:43:15.999Z</time></trkpt><trkpt lat="37.637670686636746" lon="-4.229831595391763"><ele>362.0</ele><time>2026-04-19T09:43:18.999Z</time></trkpt><trkpt lat="37.63761764580224" lon="-4.229926992131254"><ele>363.5</ele><time>2026-04-19T09:43:21.999Z</time></trkpt><trkpt lat="37.63759551304379" lon="-4.2300077734313035"><ele>365.0</ele><time>2026-04-19T09:43:23.999Z</time></trkpt><trkpt lat="37.637587696416546" lon="-4.230124423635158"><ele>366.5</ele><time>2026-04-19T09:43:26.999Z</time></trkpt><trkpt lat="37.63760471643703" lon="-4.230239481070347"><ele>368.0</ele><time>2026-04-19T09:43:29.999Z</time></trkpt><trkpt lat="37.63763837801997" lon="-4.230347631614491"><ele>368.0</ele><time>2026-04-19T09:43:32.999Z</time></trkpt><trkpt lat="37.637684586133716" lon="-4.230450605919007"><ele>368.0</ele><time>2026-04-19T09:43:35.999Z</time></trkpt><trkpt lat="37.637720756348735" lon="-4.230520593250234"><ele>368.0</ele><time>2026-04-19T09:43:37.999Z</time></trkpt><trkpt lat="37.637757675771475" lon="-4.230628513071776"><ele>368.0</ele><time>2026-04-19T09:43:40.999Z</time></trkpt><trkpt lat="37.63777016439208" lon="-4.230708914531238"><ele>368.0</ele><time>2026-04-19T09:43:42.999Z</time></trkpt><trkpt lat="37.63775961635126" lon="-4.23079551371226"><ele>368.0</ele><time>2026-04-19T09:43:44.999Z</time></trkpt><trkpt lat="37.637719349413956" lon="-4.2308893455939325"><ele>369.33333333333337</ele><time>2026-04-19T09:43:47.999Z</time></trkpt><trkpt lat="37.6376615264857" lon="-4.230969657023591"><ele>370.6666666666667</ele><time>2026-04-19T09:43:50.999Z</time></trkpt><trkpt lat="37.63759432010318" lon="-4.2310141440589994"><ele>372.0</ele><time>2026-04-19T09:43:53.999Z</time></trkpt><trkpt lat="37.63754131738931" lon="-4.231069304983224"><ele>373.3333333333333</ele><time>2026-04-19T09:43:56.999Z</time></trkpt><trkpt lat="37.63749860277513" lon="-4.231142197107216"><ele>374.66666666666663</ele><time>2026-04-19T09:43:59.999Z</time></trkpt><trkpt lat="37.63744787332344" lon="-4.231211467931239"><ele>376.0</ele><time>2026-04-19T09:44:02.999Z</time></trkpt><trkpt lat="37.63741806854434" lon="-4.2313114878285125"><ele>376.0</ele><time>2026-04-19T09:44:05.999Z</time></trkpt><trkpt lat="37.637379318129774" lon="-4.231399848868373"><ele>376.0</ele><time>2026-04-19T09:44:08.999Z</time></trkpt><trkpt lat="37.63733436507447" lon="-4.231501191469652"><ele>376.0</ele><time>2026-04-19T09:44:11.998Z</time></trkpt><trkpt lat="37.63730607930551" lon="-4.231579177885978"><ele>376.0</ele><time>2026-04-19T09:44:14.998Z</time></trkpt><trkpt lat="37.6372338765306" lon="-4.231613309303724"><ele>376.0</ele><time>2026-04-19T09:44:17.998Z</time></trkpt><trkpt lat="37.63715977629295" lon="-4.231648859242747"><ele>376.0</ele><time>2026-04-19T09:44:20.998Z</time></trkpt><trkpt lat="37.637097633120916" lon="-4.231707194445094"><ele>376.8333333333333</ele><time>2026-04-19T09:44:23.998Z</time></trkpt><trkpt lat="37.637049376215735" lon="-4.231773310274274"><ele>377.66666666666663</ele><time>2026-04-19T09:44:26.998Z</time></trkpt><trkpt lat="37.63697914174301" lon="-4.231825789083853"><ele>378.5</ele><time>2026-04-19T09:44:29.998Z</time></trkpt><trkpt lat="37.63692055085379" lon="-4.231900290478837"><ele>379.3333333333333</ele><time>2026-04-19T09:44:32.998Z</time></trkpt><trkpt lat="37.636857330709" lon="-4.23195158637045"><ele>380.1666666666667</ele><time>2026-04-19T09:44:35.998Z</time></trkpt><trkpt lat="37.63677735692066" lon="-4.23190291521371"><ele>381.0</ele><time>2026-04-19T09:44:38.998Z</time></trkpt><trkpt lat="37.63668906350276" lon="-4.231898715959387"><ele>382.0</ele><time>2026-04-19T09:44:41.998Z</time></trkpt><trkpt lat="37.63660801457319" lon="-4.231927261197228"><ele>383.0</ele><time>2026-04-19T09:44:44.998Z</time></trkpt><trkpt lat="37.63652825630116" lon="-4.231970546592654"><ele>384.0</ele><time>2026-04-19T09:44:48Z</time></trkpt><trkpt lat="37.63646343306707" lon="-4.231957717732923"><ele>385.0</ele><time>2026-04-19T09:44:51Z</time></trkpt><trkpt lat="37.63639972710825" lon="-4.2319219022691"><ele>386.0</ele><time>2026-04-19T09:44:56Z</time></trkpt><trkpt lat="37.636340580824715" lon="-4.231963983364791"><ele>387.0</ele><time>2026-04-19T09:44:58Z</time></trkpt><trkpt lat="37.636279542401276" lon="-4.231993219274758"><ele>388.0</ele><time>2026-04-19T09:45:00Z</time></trkpt><trkpt lat="37.636213091667855" lon="-4.232019750469473"><ele>388.00000000000006</ele><time>2026-04-19T09:45:02Z</time></trkpt><trkpt lat="37.636149596005595" lon="-4.232048622678758"><ele>388.0</ele><time>2026-04-19T09:45:04Z</time></trkpt><trkpt lat="37.63606139654624" lon="-4.2320881761832165"><ele>388.0</ele><time>2026-04-19T09:45:07Z</time></trkpt><trkpt lat="37.6359755410217" lon="-4.232123723034408"><ele>388.0</ele><time>2026-04-19T09:45:10Z</time></trkpt><trkpt lat="37.635913907599424" lon="-4.232148307025693"><ele>388.00000000000006</ele><time>2026-04-19T09:45:12Z</time></trkpt><trkpt lat="37.635848215992276" lon="-4.23217990624486"><ele>388.0</ele><time>2026-04-19T09:45:14Z</time></trkpt><trkpt lat="37.63577311137681" lon="-4.23221272540383"><ele>387.85714285714283</ele><time>2026-04-19T09:45:15.999Z</time></trkpt><trkpt lat="37.63569917114058" lon="-4.23224295638411"><ele>387.7142857142857</ele><time>2026-04-19T09:45:17.999Z</time></trkpt><trkpt lat="37.635616804946196" lon="-4.23227915301493"><ele>387.57142857142856</ele><time>2026-04-19T09:45:19.999Z</time></trkpt><trkpt lat="37.635554387198226" lon="-4.232319553550461"><ele>387.42857142857144</ele><time>2026-04-19T09:45:21.999Z</time></trkpt><trkpt lat="37.635491811004165" lon="-4.232344092064006"><ele>387.28571428571433</ele><time>2026-04-19T09:45:23.999Z</time></trkpt><trkpt lat="37.635431970878166" lon="-4.232375517772242"><ele>387.14285714285717</ele><time>2026-04-19T09:45:25.999Z</time></trkpt><trkpt lat="37.63536856646387" lon="-4.232397788006202"><ele>387.0</ele><time>2026-04-19T09:45:27.999Z</time></trkpt><trkpt lat="37.63530509283822" lon="-4.232427547091484"><ele>388.14285714285717</ele><time>2026-04-19T09:45:29.999Z</time></trkpt><trkpt lat="37.635241226167665" lon="-4.232450328921939"><ele>389.28571428571433</ele><time>2026-04-19T09:45:31.999Z</time></trkpt><trkpt lat="37.63516994438518" lon="-4.232476999106821"><ele>390.42857142857144</ele><time>2026-04-19T09:45:33.999Z</time></trkpt><trkpt lat="37.635104538957165" lon="-4.232501725701973"><ele>391.57142857142856</ele><time>2026-04-19T09:45:35.999Z</time></trkpt><trkpt lat="37.63503711976315" lon="-4.232531144463948"><ele>392.7142857142857</ele><time>2026-04-19T09:45:37.999Z</time></trkpt><trkpt lat="37.63497526593127" lon="-4.232556886472407"><ele>393.85714285714283</ele><time>2026-04-19T09:45:39.999Z</time></trkpt><trkpt lat="37.63491040818269" lon="-4.232588772844976"><ele>395.0</ele><time>2026-04-19T09:45:41.999Z</time></trkpt><trkpt lat="37.63482819473564" lon="-4.232634375180635"><ele>395.0</ele><time>2026-04-19T09:45:44.999Z</time></trkpt><trkpt lat="37.63476203044415" lon="-4.23265930180537"><ele>395.0</ele><time>2026-04-19T09:45:46.999Z</time></trkpt><trkpt lat="37.63470059641262" lon="-4.232687323287515"><ele>395.0</ele><time>2026-04-19T09:45:48.999Z</time></trkpt><trkpt lat="37.63464156609055" lon="-4.232716008089273"><ele>395.0</ele><time>2026-04-19T09:45:50.999Z</time></trkpt><trkpt lat="37.634580537784274" lon="-4.232744137799692"><ele>395.0</ele><time>2026-04-19T09:45:52.999Z</time></trkpt><trkpt lat="37.63451561228161" lon="-4.232781295620019"><ele>395.0</ele><time>2026-04-19T09:45:54.999Z</time></trkpt><trkpt lat="37.63445397432722" lon="-4.232822434099571"><ele>395.0</ele><time>2026-04-19T09:45:56.999Z</time></trkpt><trkpt lat="37.6343898730618" lon="-4.232851138968793"><ele>394.66666666666663</ele><time>2026-04-19T09:45:58.999Z</time></trkpt><trkpt lat="37.63431517665893" lon="-4.2328832584314675"><ele>394.3333333333333</ele><time>2026-04-19T09:46:00.999Z</time></trkpt><trkpt lat="37.63423615227044" lon="-4.232916092761076"><ele>394.0</ele><time>2026-04-19T09:46:02.999Z</time></trkpt><trkpt lat="37.63415144694453" lon="-4.2329498476423595"><ele>393.66666666666663</ele><time>2026-04-19T09:46:04.999Z</time></trkpt><trkpt lat="37.63407098040112" lon="-4.232989317271773"><ele>393.3333333333333</ele><time>2026-04-19T09:46:06.999Z</time></trkpt><trkpt lat="37.63398353049833" lon="-4.233031966474926"><ele>393.0</ele><time>2026-04-19T09:46:08.999Z</time></trkpt><trkpt lat="37.633900006770034" lon="-4.233068971933496"><ele>393.0</ele><time>2026-04-19T09:46:10.999Z</time></trkpt><trkpt lat="37.633812092567766" lon="-4.233108153745003"><ele>393.0</ele><time>2026-04-19T09:46:12.998Z</time></trkpt><trkpt lat="37.63371737789787" lon="-4.233147467640064"><ele>393.0</ele><time>2026-04-19T09:46:14.998Z</time></trkpt><trkpt lat="37.63363411529286" lon="-4.233191278761021"><ele>393.0</ele><time>2026-04-19T09:46:16.998Z</time></trkpt><trkpt lat="37.63354821066188" lon="-4.233226874461405"><ele>393.0</ele><time>2026-04-19T09:46:18.998Z</time></trkpt><trkpt lat="37.63346361554152" lon="-4.233271295259652"><ele>393.1666666666667</ele><time>2026-04-19T09:46:20.998Z</time></trkpt><trkpt lat="37.63337883445572" lon="-4.233306739959844"><ele>393.33333333333337</ele><time>2026-04-19T09:46:22.998Z</time></trkpt><trkpt lat="37.63329790182906" lon="-4.233346220813711"><ele>393.5</ele><time>2026-04-19T09:46:24.998Z</time></trkpt><trkpt lat="37.63322056023183" lon="-4.2333794679789785"><ele>393.6666666666667</ele><time>2026-04-19T09:46:26.998Z</time></trkpt><trkpt lat="37.633145351549814" lon="-4.233416300197376"><ele>393.83333333333337</ele><time>2026-04-19T09:46:28.998Z</time></trkpt><trkpt lat="37.63306339653217" lon="-4.233457534032602"><ele>394.0</ele><time>2026-04-19T09:46:30.998Z</time></trkpt><trkpt lat="37.632994064275245" lon="-4.2334918435893805"><ele>394.00000000000006</ele><time>2026-04-19T09:46:32.998Z</time></trkpt><trkpt lat="37.63292315800171" lon="-4.2335225819331965"><ele>394.0</ele><time>2026-04-19T09:46:34.998Z</time></trkpt><trkpt lat="37.6328510174272" lon="-4.233552910695754"><ele>394.0</ele><time>2026-04-19T09:46:36.998Z</time></trkpt><trkpt lat="37.632778958598664" lon="-4.233585744790487"><ele>394.0</ele><time>2026-04-19T09:46:38.998Z</time></trkpt><trkpt lat="37.6327064395307" lon="-4.233615499582485"><ele>394.00000000000006</ele><time>2026-04-19T09:46:40.998Z</time></trkpt><trkpt lat="37.63263175599888" lon="-4.2336515528734315"><ele>394.0</ele><time>2026-04-19T09:46:42.998Z</time></trkpt><trkpt lat="37.63255511496904" lon="-4.233683977383639"><ele>393.6666666666667</ele><time>2026-04-19T09:46:44.998Z</time></trkpt><trkpt lat="37.63247637358544" lon="-4.233726208825626"><ele>393.33333333333337</ele><time>2026-04-19T09:46:46.998Z</time></trkpt><trkpt lat="37.63239630488417" lon="-4.233763594181335"><ele>393.0</ele><time>2026-04-19T09:46:48.998Z</time></trkpt><trkpt lat="37.63232733443242" lon="-4.233798782532411"><ele>392.66666666666663</ele><time>2026-04-19T09:46:50.998Z</time></trkpt><trkpt lat="37.63226072750717" lon="-4.233836061316775"><ele>392.3333333333333</ele><time>2026-04-19T09:46:52.999Z</time></trkpt><trkpt lat="37.63218607697547" lon="-4.233867825490507"><ele>392.0</ele><time>2026-04-19T09:46:54.999Z</time></trkpt><trkpt lat="37.63211066303406" lon="-4.233906324960417"><ele>391.99999999999994</ele><time>2026-04-19T09:46:56.999Z</time></trkpt><trkpt lat="37.63203368799988" lon="-4.2339404493855675"><ele>392.0</ele><time>2026-04-19T09:46:58.999Z</time></trkpt><trkpt lat="37.631958057065326" lon="-4.233974210609025"><ele>392.0</ele><time>2026-04-19T09:47:00.999Z</time></trkpt><trkpt lat="37.631883928703644" lon="-4.234008277232369"><ele>392.0</ele><time>2026-04-19T09:47:02.999Z</time></trkpt><trkpt lat="37.63180507791036" lon="-4.2340474871910425"><ele>391.99999999999994</ele><time>2026-04-19T09:47:04.999Z</time></trkpt><trkpt lat="37.63172643962594" lon="-4.23407094263818"><ele>392.0</ele><time>2026-04-19T09:47:06.999Z</time></trkpt><trkpt lat="37.63165611565756" lon="-4.234096137553082"><ele>392.7142857142857</ele><time>2026-04-19T09:47:08.999Z</time></trkpt><trkpt lat="37.63158241228309" lon="-4.234131791006797"><ele>393.42857142857144</ele><time>2026-04-19T09:47:10.999Z</time></trkpt><trkpt lat="37.63151009616971" lon="-4.234159045295927"><ele>394.1428571428571</ele><time>2026-04-19T09:47:12.999Z</time></trkpt><trkpt lat="37.63144626586717" lon="-4.234179242692598"><ele>394.8571428571429</ele><time>2026-04-19T09:47:14.999Z</time></trkpt><trkpt lat="37.631371517117444" lon="-4.234175331114223"><ele>395.57142857142856</ele><time>2026-04-19T09:47:16.999Z</time></trkpt><trkpt lat="37.63130490213482" lon="-4.234164185029161"><ele>396.2857142857143</ele><time>2026-04-19T09:47:18.999Z</time></trkpt><trkpt lat="37.631234512377354" lon="-4.234148985276854"><ele>397.0</ele><time>2026-04-19T09:47:20.999Z</time></trkpt><trkpt lat="37.63117094230145" lon="-4.234133531683509"><ele>398.33333333333337</ele><time>2026-04-19T09:47:22.999Z</time></trkpt><trkpt lat="37.63110034432787" lon="-4.234063605381439"><ele>399.6666666666667</ele><time>2026-04-19T09:47:25.999Z</time></trkpt><trkpt lat="37.63101860092973" lon="-4.234020534016065"><ele>401.0</ele><time>2026-04-19T09:47:28.999Z</time></trkpt><trkpt lat="37.63095190896541" lon="-4.234020702794111"><ele>402.33333333333337</ele><time>2026-04-19T09:47:30.999Z</time></trkpt><trkpt lat="37.63086088025933" lon="-4.234020133158695"><ele>403.6666666666667</ele><time>2026-04-19T09:47:33.999Z</time></trkpt><trkpt lat="37.63077192428978" lon="-4.234009509887175"><ele>405.0</ele><time>2026-04-19T09:47:36.999Z</time></trkpt><trkpt lat="37.63070254540817" lon="-4.2339981693652335"><ele>405.0</ele><time>2026-04-19T09:47:39.999Z</time></trkpt><trkpt lat="37.6306375257472" lon="-4.2340058745196485"><ele>405.0</ele><time>2026-04-19T09:47:42.999Z</time></trkpt><trkpt lat="37.63056243240006" lon="-4.233999462857308"><ele>405.0</ele><time>2026-04-19T09:47:45.999Z</time></trkpt><trkpt lat="37.63048848171135" lon="-4.233995579192233"><ele>405.0</ele><time>2026-04-19T09:47:48.999Z</time></trkpt><trkpt lat="37.63041207826934" lon="-4.233993873363549"><ele>405.0</ele><time>2026-04-19T09:47:51.999Z</time></trkpt><trkpt lat="37.630341533228155" lon="-4.233979373109098"><ele>405.0</ele><time>2026-04-19T09:47:54.999Z</time></trkpt><trkpt lat="37.63028393055753" lon="-4.233890985590126"><ele>406.85714285714283</ele><time>2026-04-19T09:47:58.999Z</time></trkpt><trkpt lat="37.63021801992057" lon="-4.233828287451445"><ele>408.7142857142857</ele><time>2026-04-19T09:48:02.999Z</time></trkpt><trkpt lat="37.63015405696423" lon="-4.233822227721284"><ele>410.57142857142856</ele><time>2026-04-19T09:48:05.999Z</time></trkpt><trkpt lat="37.630069495777775" lon="-4.2338214883775045"><ele>412.42857142857144</ele><time>2026-04-19T09:48:09.999Z</time></trkpt><trkpt lat="37.63000459017677" lon="-4.233813127826862"><ele>414.2857142857143</ele><time>2026-04-19T09:48:12.999Z</time></trkpt><trkpt lat="37.629930238519705" lon="-4.233807307401841"><ele>416.1428571428571</ele><time>2026-04-19T09:48:15.998Z</time></trkpt><trkpt lat="37.62985499846874" lon="-4.233808000670916"><ele>418.0</ele><time>2026-04-19T09:48:18.998Z</time></trkpt><trkpt lat="37.62976980629937" lon="-4.233806046853094"><ele>418.00000000000006</ele><time>2026-04-19T09:48:21.998Z</time></trkpt><trkpt lat="37.629689069985595" lon="-4.2338051311136535"><ele>418.0</ele><time>2026-04-19T09:48:24.998Z</time></trkpt><trkpt lat="37.62961174251022" lon="-4.233805688069865"><ele>418.0</ele><time>2026-04-19T09:48:27.998Z</time></trkpt><trkpt lat="37.62954242357469" lon="-4.23380286092869"><ele>418.0</ele><time>2026-04-19T09:48:30.998Z</time></trkpt><trkpt lat="37.629469205473995" lon="-4.233800105355625"><ele>418.00000000000006</ele><time>2026-04-19T09:48:33.998Z</time></trkpt><trkpt lat="37.62939647005631" lon="-4.233801658419877"><ele>418.0</ele><time>2026-04-19T09:48:36.998Z</time></trkpt><trkpt lat="37.62931048656352" lon="-4.233800064352478"><ele>418.50000000000006</ele><time>2026-04-19T09:48:39.998Z</time></trkpt><trkpt lat="37.62924567755673" lon="-4.2337951231148105"><ele>419.0</ele><time>2026-04-19T09:48:41.998Z</time></trkpt><trkpt lat="37.62917752160232" lon="-4.233799381120675"><ele>419.5</ele><time>2026-04-19T09:48:44.998Z</time></trkpt><trkpt lat="37.6291213701903" lon="-4.23385565887844"><ele>420.0</ele><time>2026-04-19T09:48:47.998Z</time></trkpt><trkpt lat="37.629094555225734" lon="-4.233955925387408"><ele>420.50000000000006</ele><time>2026-04-19T09:48:50.998Z</time></trkpt><trkpt lat="37.62907116586241" lon="-4.234054685100809"><ele>421.0</ele><time>2026-04-19T09:48:53.998Z</time></trkpt><trkpt lat="37.62904668064762" lon="-4.234152430487992"><ele>421.00000000000006</ele><time>2026-04-19T09:48:56.998Z</time></trkpt><trkpt lat="37.62902322280763" lon="-4.234256486623963"><ele>421.0</ele><time>2026-04-19T09:48:59.999Z</time></trkpt><trkpt lat="37.62898824889728" lon="-4.234367392211056"><ele>421.0</ele><time>2026-04-19T09:49:02.999Z</time></trkpt><trkpt lat="37.628964701731356" lon="-4.234446430846339"><ele>421.0</ele><time>2026-04-19T09:49:04.999Z</time></trkpt><trkpt lat="37.62893502670813" lon="-4.23453050197684"><ele>421.00000000000006</ele><time>2026-04-19T09:49:06.999Z</time></trkpt><trkpt lat="37.62890083498076" lon="-4.2346124152042295"><ele>421.0</ele><time>2026-04-19T09:49:08.999Z</time></trkpt><trkpt lat="37.62884534300383" lon="-4.234677784444623"><ele>421.00000000000006</ele><time>2026-04-19T09:49:11Z</time></trkpt><trkpt lat="37.62878039289581" lon="-4.234716512655698"><ele>421.0</ele><time>2026-04-19T09:49:13Z</time></trkpt><trkpt lat="37.6287288951902" lon="-4.234772151860016"><ele>421.0</ele><time>2026-04-19T09:49:15Z</time></trkpt><trkpt lat="37.62863535720125" lon="-4.23479672566193"><ele>421.0</ele><time>2026-04-19T09:49:18Z</time></trkpt><trkpt lat="37.62856022343081" lon="-4.234812370668949"><ele>421.00000000000006</ele><time>2026-04-19T09:49:20Z</time></trkpt><trkpt lat="37.62848661773355" lon="-4.234835432573485"><ele>421.0</ele><time>2026-04-19T09:49:22Z</time></trkpt><trkpt lat="37.62841430983903" lon="-4.234857137304085"><ele>422.00000000000006</ele><time>2026-04-19T09:49:23.999Z</time></trkpt><trkpt lat="37.62834232680211" lon="-4.234885026485034"><ele>423.0</ele><time>2026-04-19T09:49:25.999Z</time></trkpt><trkpt lat="37.62826875246338" lon="-4.234910621993511"><ele>424.0</ele><time>2026-04-19T09:49:27.999Z</time></trkpt><trkpt lat="37.62819991183033" lon="-4.2349383102899845"><ele>425.0</ele><time>2026-04-19T09:49:29.999Z</time></trkpt><trkpt lat="37.62813218499254" lon="-4.234964254561352"><ele>426.0</ele><time>2026-04-19T09:49:31.999Z</time></trkpt><trkpt lat="37.628067030880096" lon="-4.234986104966066"><ele>427.00000000000006</ele><time>2026-04-19T09:49:33.999Z</time></trkpt><trkpt lat="37.627990211415955" lon="-4.235020567028656"><ele>428.0</ele><time>2026-04-19T09:49:35.999Z</time></trkpt><trkpt lat="37.62792459812961" lon="-4.235043965884731"><ele>428.00000000000006</ele><time>2026-04-19T09:49:37.999Z</time></trkpt><trkpt lat="37.627860952575496" lon="-4.235063762879116"><ele>428.0</ele><time>2026-04-19T09:49:39.999Z</time></trkpt><trkpt lat="37.627798101257426" lon="-4.235074905851044"><ele>428.0</ele><time>2026-04-19T09:49:41.999Z</time></trkpt><trkpt lat="37.627732726781254" lon="-4.235092175386502"><ele>428.0</ele><time>2026-04-19T09:49:43.999Z</time></trkpt><trkpt lat="37.62767255216542" lon="-4.235119022076173"><ele>428.0</ele><time>2026-04-19T09:49:45.999Z</time></trkpt><trkpt lat="37.62760987681255" lon="-4.235136988213487"><ele>428.00000000000006</ele><time>2026-04-19T09:49:47.999Z</time></trkpt><trkpt lat="37.6275187897848" lon="-4.23516173054401"><ele>428.0</ele><time>2026-04-19T09:49:50.999Z</time></trkpt><trkpt lat="37.62743367998877" lon="-4.235190743762827"><ele>428.99999999999994</ele><time>2026-04-19T09:49:53.999Z</time></trkpt><trkpt lat="37.62734852269343" lon="-4.23521668124232"><ele>430.0</ele><time>2026-04-19T09:49:56.999Z</time></trkpt><trkpt lat="37.62726485788557" lon="-4.235242092158863"><ele>431.0</ele><time>2026-04-19T09:49:59.999Z</time></trkpt><trkpt lat="37.627180370925075" lon="-4.235269771609841"><ele>432.0</ele><time>2026-04-19T09:50:02.999Z</time></trkpt><trkpt lat="37.6271066478981" lon="-4.235314759536044"><ele>432.99999999999994</ele><time>2026-04-19T09:50:05.999Z</time></trkpt><trkpt lat="37.62705848716512" lon="-4.23536698121712"><ele>434.0</ele><time>2026-04-19T09:50:07.999Z</time></trkpt><trkpt lat="37.627016552206854" lon="-4.235434105339104"><ele>434.0</ele><time>2026-04-19T09:50:09.999Z</time></trkpt><trkpt lat="37.626977961058806" lon="-4.235509378258026"><ele>434.0</ele><time>2026-04-19T09:50:11.999Z</time></trkpt><trkpt lat="37.626942274928716" lon="-4.235583740896686"><ele>434.0</ele><time>2026-04-19T09:50:13.999Z</time></trkpt><trkpt lat="37.62690693267157" lon="-4.235657718156097"><ele>434.0</ele><time>2026-04-19T09:50:15.999Z</time></trkpt><trkpt lat="37.626864920332764" lon="-4.235732287067343"><ele>434.0</ele><time>2026-04-19T09:50:17.999Z</time></trkpt><trkpt lat="37.62682472033844" lon="-4.235812086371303"><ele>434.0</ele><time>2026-04-19T09:50:19.999Z</time></trkpt><trkpt lat="37.626788267668346" lon="-4.235880312176984"><ele>434.0</ele><time>2026-04-19T09:50:21.999Z</time></trkpt><trkpt lat="37.62675006595686" lon="-4.235958434438911"><ele>435.14285714285717</ele><time>2026-04-19T09:50:23.999Z</time></trkpt><trkpt lat="37.62671295230359" lon="-4.236032986780685"><ele>436.2857142857143</ele><time>2026-04-19T09:50:25.999Z</time></trkpt><trkpt lat="37.62667428578975" lon="-4.2361096076536375"><ele>437.42857142857144</ele><time>2026-04-19T09:50:27.999Z</time></trkpt><trkpt lat="37.62663625396052" lon="-4.236179756726548"><ele>438.57142857142856</ele><time>2026-04-19T09:50:29.999Z</time></trkpt><trkpt lat="37.626598250571185" lon="-4.236255087510976"><ele>439.7142857142857</ele><time>2026-04-19T09:50:31.999Z</time></trkpt><trkpt lat="37.62656925429192" lon="-4.236327233702221"><ele>440.8571428571429</ele><time>2026-04-19T09:50:33.999Z</time></trkpt><trkpt lat="37.62653705060488" lon="-4.236396949727058"><ele>442.0</ele><time>2026-04-19T09:50:35.999Z</time></trkpt><trkpt lat="37.6265013473648" lon="-4.236464607346666"><ele>443.0</ele><time>2026-04-19T09:50:37.998Z</time></trkpt><trkpt lat="37.62645993893729" lon="-4.2365687440455755"><ele>444.0</ele><time>2026-04-19T09:50:40.998Z</time></trkpt><trkpt lat="37.62642148521434" lon="-4.236641128660676"><ele>445.0</ele><time>2026-04-19T09:50:42.998Z</time></trkpt><trkpt lat="37.62638040782178" lon="-4.236710525100267"><ele>446.0</ele><time>2026-04-19T09:50:44.998Z</time></trkpt><trkpt lat="37.626340581103946" lon="-4.236782726772541"><ele>446.99999999999994</ele><time>2026-04-19T09:50:46.998Z</time></trkpt><trkpt lat="37.62630954935071" lon="-4.236858961917592"><ele>448.0</ele><time>2026-04-19T09:50:48.998Z</time></trkpt><trkpt lat="37.62627480231415" lon="-4.23695039224567"><ele>449.0</ele><time>2026-04-19T09:50:50.998Z</time></trkpt><trkpt lat="37.62623629651967" lon="-4.237030179492813"><ele>449.0</ele><time>2026-04-19T09:50:52.998Z</time></trkpt><trkpt lat="37.626180897628814" lon="-4.237087105807927"><ele>449.0</ele><time>2026-04-19T09:50:54.998Z</time></trkpt><trkpt lat="37.62612277738666" lon="-4.237165402926296"><ele>449.0</ele><time>2026-04-19T09:50:56.998Z</time></trkpt><trkpt lat="37.626063631932055" lon="-4.237238737646286"><ele>449.0</ele><time>2026-04-19T09:50:58.998Z</time></trkpt><trkpt lat="37.62599014555983" lon="-4.237323284421114"><ele>449.0</ele><time>2026-04-19T09:51:00.998Z</time></trkpt><trkpt lat="37.62590543332113" lon="-4.237418263704468"><ele>448.99999999999994</ele><time>2026-04-19T09:51:02.998Z</time></trkpt><trkpt lat="37.62585754310828" lon="-4.237475158624945"><ele>449.0</ele><time>2026-04-19T09:51:04Z</time></trkpt><trkpt lat="37.62580686637761" lon="-4.237536110576298"><ele>449.0</ele><time>2026-04-19T09:51:05Z</time></trkpt><trkpt lat="37.62574643764686" lon="-4.237597743363408"><ele>449.0</ele><time>2026-04-19T09:51:06Z</time></trkpt><trkpt lat="37.625690198298166" lon="-4.23766313236268"><ele>448.99999999999994</ele><time>2026-04-19T09:51:07Z</time></trkpt><trkpt lat="37.625626304543374" lon="-4.237736438766466"><ele>449.0</ele><time>2026-04-19T09:51:08Z</time></trkpt><trkpt lat="37.62555498605181" lon="-4.237811328431464"><ele>448.99999999999994</ele><time>2026-04-19T09:51:09Z</time></trkpt><trkpt lat="37.625487905249024" lon="-4.237882672775999"><ele>449.0</ele><time>2026-04-19T09:51:10Z</time></trkpt><trkpt lat="37.62542991512068" lon="-4.237952128426087"><ele>449.0</ele><time>2026-04-19T09:51:11Z</time></trkpt><trkpt lat="37.62538737216326" lon="-4.238045369171992"><ele>449.0</ele><time>2026-04-19T09:51:12Z</time></trkpt><trkpt lat="37.62536406060761" lon="-4.238147057282378"><ele>448.99999999999994</ele><time>2026-04-19T09:51:13Z</time></trkpt><trkpt lat="37.62534555760885" lon="-4.238255022353931"><ele>449.0</ele><time>2026-04-19T09:51:14Z</time></trkpt><trkpt lat="37.62531524517651" lon="-4.238369837800668"><ele>448.99999999999994</ele><time>2026-04-19T09:51:15Z</time></trkpt><trkpt lat="37.62528660370845" lon="-4.238478171606673"><ele>449.0</ele><time>2026-04-19T09:51:16Z</time></trkpt><trkpt lat="37.62526753510372" lon="-4.238597218825903"><ele>449.0</ele><time>2026-04-19T09:51:17Z</time></trkpt><trkpt lat="37.625260993022366" lon="-4.2387058219264615"><ele>449.0</ele><time>2026-04-19T09:51:18Z</time></trkpt><trkpt lat="37.62527109556739" lon="-4.238814934540244"><ele>448.99999999999994</ele><time>2026-04-19T09:51:19Z</time></trkpt><trkpt lat="37.625275714610986" lon="-4.238921044379047"><ele>449.0</ele><time>2026-04-19T09:51:20Z</time></trkpt><trkpt lat="37.62528060337301" lon="-4.239006946257505"><ele>449.0</ele><time>2026-04-19T09:51:21Z</time></trkpt><trkpt lat="37.62528239125208" lon="-4.239155223285191"><ele>449.0</ele><time>2026-04-19T09:51:23Z</time></trkpt><trkpt lat="37.625273889166394" lon="-4.2392879720666485"><ele>449.0</ele><time>2026-04-19T09:51:25Z</time></trkpt><trkpt lat="37.6252752303499" lon="-4.239415925529371"><ele>449.0</ele><time>2026-04-19T09:51:27Z</time></trkpt><trkpt lat="37.625276653700865" lon="-4.239507587804061"><ele>449.0</ele><time>2026-04-19T09:51:29Z</time></trkpt><trkpt lat="37.62527255956172" lon="-4.2396219707156355"><ele>449.0</ele><time>2026-04-19T09:51:32Z</time></trkpt><trkpt lat="37.62527409895125" lon="-4.239731402405153"><ele>449.0</ele><time>2026-04-19T09:51:35Z</time></trkpt><trkpt lat="37.62527505349231" lon="-4.239842038097676"><ele>449.0</ele><time>2026-04-19T09:51:38Z</time></trkpt><trkpt lat="37.62528869676821" lon="-4.2399675701685595"><ele>449.0</ele><time>2026-04-19T09:51:41Z</time></trkpt><trkpt lat="37.62532211914967" lon="-4.240102593035004"><ele>449.0</ele><time>2026-04-19T09:51:43Z</time></trkpt><trkpt lat="37.625358843333295" lon="-4.240249543901829"><ele>449.3333333333333</ele><time>2026-04-19T09:51:45Z</time></trkpt><trkpt lat="37.62537365014244" lon="-4.2403721981048506"><ele>449.66666666666663</ele><time>2026-04-19T09:51:47Z</time></trkpt><trkpt lat="37.62542469017533" lon="-4.240474697840838"><ele>450.0</ele><time>2026-04-19T09:51:49Z</time></trkpt><trkpt lat="37.62545843517862" lon="-4.240564606760493"><ele>450.33333333333337</ele><time>2026-04-19T09:51:50.999Z</time></trkpt><trkpt lat="37.625466405858255" lon="-4.240653338240265"><ele>450.6666666666667</ele><time>2026-04-19T09:51:53.999Z</time></trkpt><trkpt lat="37.625411116348985" lon="-4.240714521519996"><ele>451.0</ele><time>2026-04-19T09:52:38.999Z</time></trkpt><trkpt lat="37.62535943731675" lon="-4.24078749848714"><ele>451.00000000000006</ele><time>2026-04-19T09:52:40.999Z</time></trkpt><trkpt lat="37.625312535495944" lon="-4.240908391474965"><ele>451.0</ele><time>2026-04-19T09:52:42.999Z</time></trkpt><trkpt lat="37.62529520848474" lon="-4.240987803457682"><ele>451.0</ele><time>2026-04-19T09:52:43.999Z</time></trkpt><trkpt lat="37.625271268659716" lon="-4.241067887120446"><ele>451.0</ele><time>2026-04-19T09:52:44.999Z</time></trkpt><trkpt lat="37.625242790596324" lon="-4.2411529902671115"><ele>451.00000000000006</ele><time>2026-04-19T09:52:45.999Z</time></trkpt><trkpt lat="37.62520178173805" lon="-4.24129633501142"><ele>451.0</ele><time>2026-04-19T09:52:47.999Z</time></trkpt><trkpt lat="37.6251674247815" lon="-4.241376420141405"><ele>449.1666666666667</ele><time>2026-04-19T09:52:48.999Z</time></trkpt><trkpt lat="37.625139964574515" lon="-4.2414658217011825"><ele>447.33333333333337</ele><time>2026-04-19T09:52:49.999Z</time></trkpt><trkpt lat="37.62511053959512" lon="-4.241562238901095"><ele>445.5</ele><time>2026-04-19T09:52:50.999Z</time></trkpt><trkpt lat="37.6250865626326" lon="-4.241661349874458"><ele>443.66666666666663</ele><time>2026-04-19T09:52:51.999Z</time></trkpt><trkpt lat="37.62506569415839" lon="-4.241758969745428"><ele>441.8333333333333</ele><time>2026-04-19T09:52:52.999Z</time></trkpt><trkpt lat="37.62503383934171" lon="-4.241873669652696"><ele>440.0</ele><time>2026-04-19T09:52:53.999Z</time></trkpt><trkpt lat="37.624994825401444" lon="-4.241997449852724"><ele>439.99999999999994</ele><time>2026-04-19T09:52:54.999Z</time></trkpt><trkpt lat="37.62496448160643" lon="-4.242111370493473"><ele>440.0</ele><time>2026-04-19T09:52:55.999Z</time></trkpt><trkpt lat="37.62494739259597" lon="-4.242222073889587"><ele>440.0</ele><time>2026-04-19T09:52:56.999Z</time></trkpt><trkpt lat="37.62494242392176" lon="-4.242337548656434"><ele>440.0</ele><time>2026-04-19T09:52:57.999Z</time></trkpt><trkpt lat="37.62494269667312" lon="-4.242439537547873"><ele>439.99999999999994</ele><time>2026-04-19T09:52:58.999Z</time></trkpt><trkpt lat="37.62495044600689" lon="-4.242541983008032"><ele>440.0</ele><time>2026-04-19T09:52:59.998Z</time></trkpt><trkpt lat="37.62496543282614" lon="-4.242644353039077"><ele>438.2</ele><time>2026-04-19T09:53:00.998Z</time></trkpt><trkpt lat="37.62498026193012" lon="-4.2427545199460965"><ele>436.4</ele><time>2026-04-19T09:53:01.998Z</time></trkpt><trkpt lat="37.62499902670181" lon="-4.242862631895281"><ele>434.6</ele><time>2026-04-19T09:53:02.998Z</time></trkpt><trkpt lat="37.62499868515565" lon="-4.24297683117286"><ele>432.8</ele><time>2026-04-19T09:53:03.998Z</time></trkpt><trkpt lat="37.62498879794201" lon="-4.243099136584322"><ele>431.0</ele><time>2026-04-19T09:53:04.998Z</time></trkpt><trkpt lat="37.62496732088927" lon="-4.243212977498498"><ele>429.20000000000005</ele><time>2026-04-19T09:53:05.998Z</time></trkpt><trkpt lat="37.624945487072644" lon="-4.243326217555911"><ele>427.40000000000003</ele><time>2026-04-19T09:53:06.998Z</time></trkpt><trkpt lat="37.624925345285405" lon="-4.243449221409943"><ele>425.6</ele><time>2026-04-19T09:53:07.998Z</time></trkpt><trkpt lat="37.62492666353402" lon="-4.243560335260338"><ele>423.8</ele><time>2026-04-19T09:53:09Z</time></trkpt><trkpt lat="37.6249094858606" lon="-4.2436763686050725"><ele>422.0</ele><time>2026-04-19T09:53:10Z</time></trkpt><trkpt lat="37.62489621822858" lon="-4.243827073566481"><ele>421.99999999999994</ele><time>2026-04-19T09:53:12Z</time></trkpt><trkpt lat="37.62486781387265" lon="-4.243934060421853"><ele>422.0</ele><time>2026-04-19T09:53:14Z</time></trkpt><trkpt lat="37.6248584031393" lon="-4.24401476518639"><ele>422.0</ele><time>2026-04-19T09:53:17Z</time></trkpt><trkpt lat="37.62481623961751" lon="-4.2440773017699"><ele>422.0</ele><time>2026-04-19T09:53:20Z</time></trkpt><trkpt lat="37.624795198689135" lon="-4.2441639468465615"><ele>421.99999999999994</ele><time>2026-04-19T09:53:22Z</time></trkpt><trkpt lat="37.624789867814265" lon="-4.24428020272622"><ele>422.0</ele><time>2026-04-19T09:53:24Z</time></trkpt><trkpt lat="37.62477001739354" lon="-4.244409148929589"><ele>422.3333333333333</ele><time>2026-04-19T09:53:26Z</time></trkpt><trkpt lat="37.62472469162846" lon="-4.24451980567087"><ele>422.66666666666663</ele><time>2026-04-19T09:53:28Z</time></trkpt><trkpt lat="37.62467247496378" lon="-4.244611772633603"><ele>423.0</ele><time>2026-04-19T09:53:30Z</time></trkpt><trkpt lat="37.62462321021756" lon="-4.24469160565138"><ele>423.33333333333337</ele><time>2026-04-19T09:53:32Z</time></trkpt><trkpt lat="37.62458090132346" lon="-4.244776229054574"><ele>423.6666666666667</ele><time>2026-04-19T09:53:34Z</time></trkpt><trkpt lat="37.624536642869664" lon="-4.244857191269776"><ele>424.0</ele><time>2026-04-19T09:53:36Z</time></trkpt><trkpt lat="37.624489490144754" lon="-4.244932748561035"><ele>423.7142857142857</ele><time>2026-04-19T09:53:38Z</time></trkpt><trkpt lat="37.6244454240579" lon="-4.245011022943836"><ele>423.4285714285714</ele><time>2026-04-19T09:53:40Z</time></trkpt><trkpt lat="37.62439924813406" lon="-4.2450953342369795"><ele>423.1428571428571</ele><time>2026-04-19T09:53:42Z</time></trkpt><trkpt lat="37.62435805102556" lon="-4.245170783600475"><ele>422.8571428571429</ele><time>2026-04-19T09:53:44Z</time></trkpt><trkpt lat="37.62431734741104" lon="-4.2452445511834345"><ele>422.57142857142856</ele><time>2026-04-19T09:53:46Z</time></trkpt><trkpt lat="37.6242725982382" lon="-4.245323515514609"><ele>422.2857142857143</ele><time>2026-04-19T09:53:48Z</time></trkpt><trkpt lat="37.62423336066071" lon="-4.245396763660596"><ele>422.0</ele><time>2026-04-19T09:53:50Z</time></trkpt><trkpt lat="37.624183634449025" lon="-4.245474060972449"><ele>421.99999999999994</ele><time>2026-04-19T09:53:52Z</time></trkpt><trkpt lat="37.62413891773915" lon="-4.245545335447427"><ele>422.0</ele><time>2026-04-19T09:53:54Z</time></trkpt><trkpt lat="37.624095943810886" lon="-4.245623368914209"><ele>422.0</ele><time>2026-04-19T09:53:55.999Z</time></trkpt><trkpt lat="37.62404734076235" lon="-4.24569782878614"><ele>422.0</ele><time>2026-04-19T09:53:57.999Z</time></trkpt><trkpt lat="37.623994725257255" lon="-4.245774410383569"><ele>421.99999999999994</ele><time>2026-04-19T09:53:59.999Z</time></trkpt><trkpt lat="37.62394148975658" lon="-4.245854183348886"><ele>422.0</ele><time>2026-04-19T09:54:01.999Z</time></trkpt><trkpt lat="37.6238854148579" lon="-4.245929408604083"><ele>422.99999999999994</ele><time>2026-04-19T09:54:03.999Z</time></trkpt><trkpt lat="37.62382776346696" lon="-4.246003814070917"><ele>424.0</ele><time>2026-04-19T09:54:05.999Z</time></trkpt><trkpt lat="37.623765663298265" lon="-4.24607928437081"><ele>425.0</ele><time>2026-04-19T09:54:07.999Z</time></trkpt><trkpt lat="37.6237036245621" lon="-4.246150019551798"><ele>426.0</ele><time>2026-04-19T09:54:09.999Z</time></trkpt><trkpt lat="37.62364103588062" lon="-4.246221445268384"><ele>426.99999999999994</ele><time>2026-04-19T09:54:11.999Z</time></trkpt><trkpt lat="37.62357482923679" lon="-4.246278717418228"><ele>428.0</ele><time>2026-04-19T09:54:13.999Z</time></trkpt><trkpt lat="37.62350679296434" lon="-4.246336206587964"><ele>428.3333333333333</ele><time>2026-04-19T09:54:15.999Z</time></trkpt><trkpt lat="37.62343254803949" lon="-4.246388942184451"><ele>428.66666666666663</ele><time>2026-04-19T09:54:17.999Z</time></trkpt><trkpt lat="37.62336008740137" lon="-4.246436335566299"><ele>429.0</ele><time>2026-04-19T09:54:19.999Z</time></trkpt><trkpt lat="37.623285117847054" lon="-4.246480120103895"><ele>429.33333333333337</ele><time>2026-04-19T09:54:21.999Z</time></trkpt><trkpt lat="37.62321616470813" lon="-4.246522920584553"><ele>429.6666666666667</ele><time>2026-04-19T09:54:23.999Z</time></trkpt><trkpt lat="37.62315266150091" lon="-4.246573719426504"><ele>430.0</ele><time>2026-04-19T09:54:25.999Z</time></trkpt><trkpt lat="37.62307566142445" lon="-4.246608088284784"><ele>430.1666666666667</ele><time>2026-04-19T09:54:27.999Z</time></trkpt><trkpt lat="37.62300723027124" lon="-4.246655119953606"><ele>430.33333333333337</ele><time>2026-04-19T09:54:29.999Z</time></trkpt><trkpt lat="37.6229362087864" lon="-4.246698417543907"><ele>430.5</ele><time>2026-04-19T09:54:31.999Z</time></trkpt><trkpt lat="37.62286486427784" lon="-4.246738605385445"><ele>430.66666666666663</ele><time>2026-04-19T09:54:33.999Z</time></trkpt><trkpt lat="37.62278813458593" lon="-4.246786343221669"><ele>430.8333333333333</ele><time>2026-04-19T09:54:35.999Z</time></trkpt><trkpt lat="37.62271652440683" lon="-4.246833848325551"><ele>431.0</ele><time>2026-04-19T09:54:37.999Z</time></trkpt><trkpt lat="37.622651141738366" lon="-4.246887366668015"><ele>431.8333333333333</ele><time>2026-04-19T09:54:39.999Z</time></trkpt><trkpt lat="37.62259033518777" lon="-4.2469467579699005"><ele>432.66666666666663</ele><time>2026-04-19T09:54:41.999Z</time></trkpt><trkpt lat="37.62252865556629" lon="-4.247013512314658"><ele>433.5</ele><time>2026-04-19T09:54:43.999Z</time></trkpt><trkpt lat="37.62247989690733" lon="-4.247094459994972"><ele>434.33333333333337</ele><time>2026-04-19T09:54:45.999Z</time></trkpt><trkpt lat="37.62243815224826" lon="-4.247186931809772"><ele>435.1666666666667</ele><time>2026-04-19T09:54:47.999Z</time></trkpt><trkpt lat="37.622399759343075" lon="-4.247288489812348"><ele>436.0</ele><time>2026-04-19T09:54:49.999Z</time></trkpt><trkpt lat="37.622365473388115" lon="-4.247401470178969"><ele>436.0</ele><time>2026-04-19T09:54:51.999Z</time></trkpt><trkpt lat="37.62233383643397" lon="-4.247517768406999"><ele>436.0</ele><time>2026-04-19T09:54:53.999Z</time></trkpt><trkpt lat="37.62229600046284" lon="-4.247631010050756"><ele>436.0</ele><time>2026-04-19T09:54:55.999Z</time></trkpt><trkpt lat="37.622258836372076" lon="-4.247745391661814"><ele>436.0</ele><time>2026-04-19T09:54:57.999Z</time></trkpt><trkpt lat="37.62222777795987" lon="-4.247851761210179"><ele>436.0</ele><time>2026-04-19T09:54:59.999Z</time></trkpt><trkpt lat="37.622188053510136" lon="-4.247963421490675"><ele>436.0</ele><time>2026-04-19T09:55:01.999Z</time></trkpt><trkpt lat="37.62215097668634" lon="-4.2480777480058"><ele>436.0</ele><time>2026-04-19T09:55:03.999Z</time></trkpt><trkpt lat="37.62210663203206" lon="-4.248194482646755"><ele>436.0</ele><time>2026-04-19T09:55:05.999Z</time></trkpt><trkpt lat="37.622063189925164" lon="-4.248311289668365"><ele>436.0</ele><time>2026-04-19T09:55:07.999Z</time></trkpt><trkpt lat="37.62202365635668" lon="-4.248430150496493"><ele>436.0</ele><time>2026-04-19T09:55:09.998Z</time></trkpt><trkpt lat="37.62198861018534" lon="-4.24854685590755"><ele>436.4</ele><time>2026-04-19T09:55:11.998Z</time></trkpt><trkpt lat="37.621956336477304" lon="-4.2486647145521275"><ele>436.8</ele><time>2026-04-19T09:55:14Z</time></trkpt><trkpt lat="37.62192724409605" lon="-4.248780008038642"><ele>437.19999999999993</ele><time>2026-04-19T09:55:16Z</time></trkpt><trkpt lat="37.62189815995447" lon="-4.248884718770822"><ele>437.59999999999997</ele><time>2026-04-19T09:55:18Z</time></trkpt><trkpt lat="37.621867545117176" lon="-4.248991104223166"><ele>438.0</ele><time>2026-04-19T09:55:20Z</time></trkpt><trkpt lat="37.6218369914501" lon="-4.249093516094346"><ele>438.0</ele><time>2026-04-19T09:55:22Z</time></trkpt><trkpt lat="37.621805041948605" lon="-4.2491938235438385"><ele>438.0</ele><time>2026-04-19T09:55:24Z</time></trkpt><trkpt lat="37.621770142490085" lon="-4.249290410810783"><ele>438.0</ele><time>2026-04-19T09:55:26Z</time></trkpt><trkpt lat="37.621730875630945" lon="-4.249386627660925"><ele>438.0</ele><time>2026-04-19T09:55:28Z</time></trkpt><trkpt lat="37.62167183469001" lon="-4.249466370632329"><ele>438.0</ele><time>2026-04-19T09:55:30Z</time></trkpt><trkpt lat="37.621602299302815" lon="-4.249534188413772"><ele>438.0</ele><time>2026-04-19T09:55:32Z</time></trkpt><trkpt lat="37.6215264163729" lon="-4.249598202446578"><ele>438.0</ele><time>2026-04-19T09:55:34Z</time></trkpt><trkpt lat="37.621452936378816" lon="-4.249667553280095"><ele>438.0</ele><time>2026-04-19T09:55:36Z</time></trkpt><trkpt lat="37.62138989267566" lon="-4.249744283808357"><ele>438.0</ele><time>2026-04-19T09:55:38Z</time></trkpt><trkpt lat="37.62133216360413" lon="-4.2498210662836655"><ele>438.0</ele><time>2026-04-19T09:55:40Z</time></trkpt><trkpt lat="37.621285408790214" lon="-4.249903706699057"><ele>438.0</ele><time>2026-04-19T09:55:42Z</time></trkpt><trkpt lat="37.621246581377854" lon="-4.249998035819081"><ele>438.0</ele><time>2026-04-19T09:55:44Z</time></trkpt><trkpt lat="37.621211737280234" lon="-4.250098868147731"><ele>438.3333333333333</ele><time>2026-04-19T09:55:46Z</time></trkpt><trkpt lat="37.62118088066924" lon="-4.250201956813544"><ele>438.66666666666663</ele><time>2026-04-19T09:55:48Z</time></trkpt><trkpt lat="37.62115022006998" lon="-4.250300890125485"><ele>439.0</ele><time>2026-04-19T09:55:50Z</time></trkpt><trkpt lat="37.62112422580285" lon="-4.2503868442201"><ele>439.3333333333333</ele><time>2026-04-19T09:55:52Z</time></trkpt><trkpt lat="37.62110457931638" lon="-4.250463155245955"><ele>439.66666666666663</ele><time>2026-04-19T09:55:54Z</time></trkpt><trkpt lat="37.621044600059285" lon="-4.250520546907991"><ele>440.0</ele><time>2026-04-19T09:55:57Z</time></trkpt><trkpt lat="37.62097968766246" lon="-4.250479682390674"><ele>439.99999999999994</ele><time>2026-04-19T09:55:59Z</time></trkpt><trkpt lat="37.62092201289403" lon="-4.250443932759976"><ele>440.0</ele><time>2026-04-19T09:56:01Z</time></trkpt><trkpt lat="37.62085093572489" lon="-4.250427445005299"><ele>440.0</ele><time>2026-04-19T09:56:03Z</time></trkpt><trkpt lat="37.62078603299787" lon="-4.250412680296815"><ele>440.0</ele><time>2026-04-19T09:56:05Z</time></trkpt><trkpt lat="37.620702232218164" lon="-4.250383427354577"><ele>440.0</ele><time>2026-04-19T09:56:08Z</time></trkpt><trkpt lat="37.620634883320314" lon="-4.250353552261018"><ele>439.99999999999994</ele><time>2026-04-19T09:56:10Z</time></trkpt><trkpt lat="37.62055840975128" lon="-4.250339632491767"><ele>440.0</ele><time>2026-04-19T09:56:13Z</time></trkpt><trkpt lat="37.620480097879565" lon="-4.2503244904806525"><ele>439.99999999999994</ele><time>2026-04-19T09:56:16Z</time></trkpt><trkpt lat="37.62040458514741" lon="-4.250305261895354"><ele>440.0</ele><time>2026-04-19T09:56:19Z</time></trkpt><trkpt lat="37.62032412754217" lon="-4.250289030798694"><ele>440.0</ele><time>2026-04-19T09:56:21.999Z</time></trkpt><trkpt lat="37.62025585464735" lon="-4.250265485863892"><ele>440.0</ele><time>2026-04-19T09:56:24.999Z</time></trkpt><trkpt lat="37.62017981670229" lon="-4.250249661717742"><ele>439.99999999999994</ele><time>2026-04-19T09:56:27.999Z</time></trkpt><trkpt lat="37.62010290022752" lon="-4.250247121468464"><ele>440.0</ele><time>2026-04-19T09:56:30.999Z</time></trkpt><trkpt lat="37.62002691130997" lon="-4.250222583278135"><ele>441.99999999999994</ele><time>2026-04-19T09:56:33.999Z</time></trkpt><trkpt lat="37.61994943279938" lon="-4.250198001382711"><ele>444.0</ele><time>2026-04-19T09:56:36.999Z</time></trkpt><trkpt lat="37.61987036671321" lon="-4.250181544236117"><ele>446.0</ele><time>2026-04-19T09:56:39.999Z</time></trkpt><trkpt lat="37.61979646736458" lon="-4.250171376259347"><ele>448.0</ele><time>2026-04-19T09:56:42.999Z</time></trkpt><trkpt lat="37.619722941113515" lon="-4.250156833120153"><ele>449.99999999999994</ele><time>2026-04-19T09:56:45.999Z</time></trkpt><trkpt lat="37.61965087932014" lon="-4.250143780713677"><ele>452.0</ele><time>2026-04-19T09:56:48.999Z</time></trkpt><trkpt lat="37.619583121363775" lon="-4.250130031951462"><ele>452.0</ele><time>2026-04-19T09:56:51.999Z</time></trkpt><trkpt lat="37.61950430480287" lon="-4.250119983764234"><ele>452.0</ele><time>2026-04-19T09:56:54.999Z</time></trkpt><trkpt lat="37.61943235432595" lon="-4.250108867462439"><ele>452.0</ele><time>2026-04-19T09:56:57.999Z</time></trkpt><trkpt lat="37.61936250847296" lon="-4.250093194149727"><ele>452.0</ele><time>2026-04-19T09:57:00.999Z</time></trkpt><trkpt lat="37.619294664442165" lon="-4.250071387533034"><ele>452.0</ele><time>2026-04-19T09:57:03.999Z</time></trkpt><trkpt lat="37.61922381359738" lon="-4.2500634688812315"><ele>452.0</ele><time>2026-04-19T09:57:06.999Z</time></trkpt><trkpt lat="37.61915395143589" lon="-4.250050225579738"><ele>452.0</ele><time>2026-04-19T09:57:09.999Z</time></trkpt><trkpt lat="37.61908483274341" lon="-4.250036942112702"><ele>454.8571428571429</ele><time>2026-04-19T09:57:12.999Z</time></trkpt><trkpt lat="37.61901587980361" lon="-4.250023435094656"><ele>457.71428571428567</ele><time>2026-04-19T09:57:15.999Z</time></trkpt><trkpt lat="37.618952259677215" lon="-4.250013005177193"><ele>460.57142857142856</ele><time>2026-04-19T09:57:18.999Z</time></trkpt><trkpt lat="37.61887717827537" lon="-4.249998611217178"><ele>463.42857142857144</ele><time>2026-04-19T09:57:22Z</time></trkpt><trkpt lat="37.61881342574327" lon="-4.249978378115404"><ele>466.28571428571433</ele><time>2026-04-19T09:57:25Z</time></trkpt><trkpt lat="37.61874653053101" lon="-4.249953061110031"><ele>469.1428571428571</ele><time>2026-04-19T09:57:28Z</time></trkpt><trkpt lat="37.61867810116962" lon="-4.249940162414242"><ele>472.0</ele><time>2026-04-19T09:57:31Z</time></trkpt><trkpt lat="37.618609212784214" lon="-4.24993054575398"><ele>474.0</ele><time>2026-04-19T09:57:33.999Z</time></trkpt><trkpt lat="37.61854304611596" lon="-4.249917789058933"><ele>476.0</ele><time>2026-04-19T09:57:36.999Z</time></trkpt><trkpt lat="37.61847777329801" lon="-4.24990131647115"><ele>478.0</ele><time>2026-04-19T09:57:39.999Z</time></trkpt><trkpt lat="37.618411083264554" lon="-4.249892636682818"><ele>480.0</ele><time>2026-04-19T09:57:42.999Z</time></trkpt><trkpt lat="37.61832007657556" lon="-4.249873737082862"><ele>482.0</ele><time>2026-04-19T09:57:45.999Z</time></trkpt><trkpt lat="37.61825722915385" lon="-4.2498457508414145"><ele>484.0</ele><time>2026-04-19T09:57:48.999Z</time></trkpt><trkpt lat="37.618179186058775" lon="-4.249825790728313"><ele>486.0</ele><time>2026-04-19T09:57:51.999Z</time></trkpt><trkpt lat="37.61810654151194" lon="-4.249810788168558"><ele>486.0</ele><time>2026-04-19T09:57:54.999Z</time></trkpt><trkpt lat="37.618030484722404" lon="-4.249792799966436"><ele>486.0</ele><time>2026-04-19T09:57:57.999Z</time></trkpt><trkpt lat="37.617957776007536" lon="-4.249774130579236"><ele>486.0</ele><time>2026-04-19T09:58:00.999Z</time></trkpt><trkpt lat="37.61788636144856" lon="-4.24976075108495"><ele>486.0</ele><time>2026-04-19T09:58:03.999Z</time></trkpt><trkpt lat="37.61781177684131" lon="-4.249747864071496"><ele>486.0</ele><time>2026-04-19T09:58:06.999Z</time></trkpt><trkpt lat="37.61773568025033" lon="-4.249734119030886"><ele>486.0</ele><time>2026-04-19T09:58:09.999Z</time></trkpt><trkpt lat="37.61766363683906" lon="-4.249709825494083"><ele>486.6666666666667</ele><time>2026-04-19T09:58:12.999Z</time></trkpt><trkpt lat="37.61758201159391" lon="-4.24969228724382"><ele>487.33333333333337</ele><time>2026-04-19T09:58:15.999Z</time></trkpt><trkpt lat="37.617507597219294" lon="-4.249671741898203"><ele>488.0</ele><time>2026-04-19T09:58:18.999Z</time></trkpt><trkpt lat="37.61743622169782" lon="-4.249624902418894"><ele>488.6666666666667</ele><time>2026-04-19T09:58:21.999Z</time></trkpt><trkpt lat="37.617370033903775" lon="-4.249595374497503"><ele>489.33333333333337</ele><time>2026-04-19T09:58:24.999Z</time></trkpt><trkpt lat="37.61730294681393" lon="-4.24956522877145"><ele>490.0</ele><time>2026-04-19T09:58:27.999Z</time></trkpt><trkpt lat="37.61723681839249" lon="-4.249530697422914"><ele>490.0</ele><time>2026-04-19T09:58:30.999Z</time></trkpt><trkpt lat="37.61717103697897" lon="-4.249504875040269"><ele>490.0</ele><time>2026-04-19T09:58:33.998Z</time></trkpt><trkpt lat="37.617100502803815" lon="-4.24949850787253"><ele>490.0</ele><time>2026-04-19T09:58:36.998Z</time></trkpt><trkpt lat="37.617030087552344" lon="-4.249520527076476"><ele>490.0</ele><time>2026-04-19T09:58:39.998Z</time></trkpt><trkpt lat="37.61696327274688" lon="-4.249535693713449"><ele>490.0</ele><time>2026-04-19T09:58:42.998Z</time></trkpt><trkpt lat="37.616885666885096" lon="-4.24954983849292"><ele>490.0</ele><time>2026-04-19T09:58:45.998Z</time></trkpt><trkpt lat="37.616811237651255" lon="-4.2495763736853895"><ele>490.0</ele><time>2026-04-19T09:58:48.998Z</time></trkpt><trkpt lat="37.61672993004221" lon="-4.249578012301108"><ele>491.8571428571429</ele><time>2026-04-19T09:58:51.998Z</time></trkpt><trkpt lat="37.61667507140196" lon="-4.249523399372698"><ele>493.7142857142857</ele><time>2026-04-19T09:58:53.998Z</time></trkpt><trkpt lat="37.616610779516094" lon="-4.249496239431066"><ele>495.57142857142856</ele><time>2026-04-19T09:58:55.998Z</time></trkpt><trkpt lat="37.616517642290226" lon="-4.249481955543882"><ele>497.42857142857144</ele><time>2026-04-19T09:58:58.998Z</time></trkpt><trkpt lat="37.61645475441632" lon="-4.249474945598432"><ele>499.28571428571433</ele><time>2026-04-19T09:59:00.998Z</time></trkpt><trkpt lat="37.61639082660066" lon="-4.24947196648633"><ele>501.14285714285717</ele><time>2026-04-19T09:59:02.998Z</time></trkpt><trkpt lat="37.61630579667632" lon="-4.249464646645345"><ele>503.0</ele><time>2026-04-19T09:59:05.998Z</time></trkpt><trkpt lat="37.6162127309574" lon="-4.249458178309595"><ele>505.3333333333333</ele><time>2026-04-19T09:59:08.998Z</time></trkpt><trkpt lat="37.61613456736944" lon="-4.24944568569163"><ele>507.66666666666663</ele><time>2026-04-19T09:59:10.998Z</time></trkpt><trkpt lat="37.616044742164064" lon="-4.249436361820066"><ele>510.0</ele><time>2026-04-19T09:59:12.998Z</time></trkpt><trkpt lat="37.61595965427856" lon="-4.249425073350266"><ele>512.3333333333334</ele><time>2026-04-19T09:59:14.998Z</time></trkpt><trkpt lat="37.61588371774741" lon="-4.249419027713409"><ele>514.6666666666667</ele><time>2026-04-19T09:59:16.998Z</time></trkpt><trkpt lat="37.61581105389001" lon="-4.249411028974616"><ele>517.0</ele><time>2026-04-19T09:59:18.998Z</time></trkpt><trkpt lat="37.61574447336909" lon="-4.249403219429174"><ele>517.0</ele><time>2026-04-19T09:59:20.998Z</time></trkpt><trkpt lat="37.615679320147336" lon="-4.2493975154028565"><ele>517.0</ele><time>2026-04-19T09:59:22.998Z</time></trkpt><trkpt lat="37.61561208998567" lon="-4.249382739670454"><ele>517.0</ele><time>2026-04-19T09:59:24.998Z</time></trkpt><trkpt lat="37.61554972605879" lon="-4.249368932215038"><ele>517.0</ele><time>2026-04-19T09:59:26.999Z</time></trkpt><trkpt lat="37.61547770811728" lon="-4.249370070572587"><ele>517.0</ele><time>2026-04-19T09:59:29.999Z</time></trkpt><trkpt lat="37.61541851073802" lon="-4.249398401446402"><ele>517.0</ele><time>2026-04-19T09:59:31.999Z</time></trkpt><trkpt lat="37.61532352869396" lon="-4.249467313089552"><ele>517.0</ele><time>2026-04-19T09:59:33.999Z</time></trkpt><trkpt lat="37.61525188773443" lon="-4.249507485347198"><ele>516.5</ele><time>2026-04-19T09:59:34.999Z</time></trkpt><trkpt lat="37.61518197601475" lon="-4.249522854577992"><ele>516.0</ele><time>2026-04-19T09:59:35.999Z</time></trkpt><trkpt lat="37.615118406405166" lon="-4.249540858158278"><ele>515.5</ele><time>2026-04-19T09:59:36.999Z</time></trkpt><trkpt lat="37.615061037384876" lon="-4.249625659466744"><ele>515.0</ele><time>2026-04-19T09:59:38.999Z</time></trkpt><trkpt lat="37.61501840590511" lon="-4.2497108181254495"><ele>514.5</ele><time>2026-04-19T09:59:40.999Z</time></trkpt><trkpt lat="37.61494208838385" lon="-4.249711886686476"><ele>514.0</ele><time>2026-04-19T09:59:45.999Z</time></trkpt><trkpt lat="37.614848712917684" lon="-4.2497259959267435"><ele>514.0</ele><time>2026-04-19T09:59:49.999Z</time></trkpt><trkpt lat="37.61478343150623" lon="-4.249736483077859"><ele>514.0</ele><time>2026-04-19T09:59:51.999Z</time></trkpt><trkpt lat="37.614695857791574" lon="-4.249701333281126"><ele>514.0</ele><time>2026-04-19T09:59:54.999Z</time></trkpt><trkpt lat="37.614611985083215" lon="-4.249756587181762"><ele>514.0</ele><time>2026-04-19T09:59:57.999Z</time></trkpt><trkpt lat="37.614550972817405" lon="-4.24978888550575"><ele>514.0</ele><time>2026-04-19T09:59:59.999Z</time></trkpt><trkpt lat="37.61448021045496" lon="-4.249777559738752"><ele>514.0</ele><time>2026-04-19T10:00:01.999Z</time></trkpt><trkpt lat="37.614413728472485" lon="-4.249768832427803"><ele>514.6666666666667</ele><time>2026-04-19T10:00:03.999Z</time></trkpt><trkpt lat="37.6143514565484" lon="-4.249750222918614"><ele>515.3333333333334</ele><time>2026-04-19T10:00:05.999Z</time></trkpt><trkpt lat="37.61426162142917" lon="-4.249723397823737"><ele>516.0</ele><time>2026-04-19T10:00:07.999Z</time></trkpt><trkpt lat="37.61421514665474" lon="-4.249802894630979"><ele>516.6666666666666</ele><time>2026-04-19T10:00:09.999Z</time></trkpt><trkpt lat="37.614175219964345" lon="-4.2499019822921165"><ele>517.3333333333333</ele><time>2026-04-19T10:00:12.999Z</time></trkpt><trkpt lat="37.61410633854375" lon="-4.249987034486436"><ele>518.0</ele><time>2026-04-19T10:00:15.999Z</time></trkpt><trkpt lat="37.61402845569642" lon="-4.2499891993320045"><ele>518.7142857142857</ele><time>2026-04-19T10:00:18.999Z</time></trkpt><trkpt lat="37.61397418521693" lon="-4.2499457695627525"><ele>519.4285714285714</ele><time>2026-04-19T10:00:21.999Z</time></trkpt><trkpt lat="37.613911662265735" lon="-4.249955850026193"><ele>520.1428571428571</ele><time>2026-04-19T10:00:24.999Z</time></trkpt><trkpt lat="37.61384713572026" lon="-4.249958796626954"><ele>520.8571428571429</ele><time>2026-04-19T10:00:27.999Z</time></trkpt><trkpt lat="37.613771240083324" lon="-4.2499642924484355"><ele>521.5714285714286</ele><time>2026-04-19T10:00:31.999Z</time></trkpt><trkpt lat="37.61370638080029" lon="-4.2499241249426545"><ele>522.2857142857142</ele><time>2026-04-19T10:00:35.999Z</time></trkpt><trkpt lat="37.61367757707622" lon="-4.249835204231087"><ele>523.0</ele><time>2026-04-19T10:00:39.999Z</time></trkpt><trkpt lat="37.61361464722533" lon="-4.249850591996422"><ele>523.2857142857142</ele><time>2026-04-19T10:00:42.999Z</time></trkpt><trkpt lat="37.6135315727724" lon="-4.249844650544694"><ele>523.5714285714286</ele><time>2026-04-19T10:00:46.999Z</time></trkpt><trkpt lat="37.613474300765915" lon="-4.249800728129617"><ele>523.8571428571429</ele><time>2026-04-19T10:00:49.999Z</time></trkpt><trkpt lat="37.613406861586235" lon="-4.249774855035259"><ele>524.1428571428571</ele><time>2026-04-19T10:00:52.999Z</time></trkpt><trkpt lat="37.61332620001786" lon="-4.249767249862611"><ele>524.4285714285714</ele><time>2026-04-19T10:00:55.999Z</time></trkpt><trkpt lat="37.61325015941728" lon="-4.249751013610268"><ele>524.7142857142857</ele><time>2026-04-19T10:00:58.999Z</time></trkpt><trkpt lat="37.61318157626561" lon="-4.249757989167607"><ele>525.0</ele><time>2026-04-19T10:01:01.999Z</time></trkpt><trkpt lat="37.61312265038468" lon="-4.24972513602133"><ele>525.0</ele><time>2026-04-19T10:01:04.999Z</time></trkpt><trkpt lat="37.613046176253015" lon="-4.249724376089058"><ele>525.0</ele><time>2026-04-19T10:01:08.999Z</time></trkpt><trkpt lat="37.612965395108404" lon="-4.249723297001634"><ele>525.0</ele><time>2026-04-19T10:01:12.998Z</time></trkpt><trkpt lat="37.61290100712437" lon="-4.249707079716877"><ele>525.0</ele><time>2026-04-19T10:01:15.998Z</time></trkpt><trkpt lat="37.612820557877214" lon="-4.249732974663262"><ele>525.0</ele><time>2026-04-19T10:01:19.998Z</time></trkpt><trkpt lat="37.612760775308175" lon="-4.249771124638051"><ele>525.0</ele><time>2026-04-19T10:01:22.998Z</time></trkpt><trkpt lat="37.61271874794679" lon="-4.249845705968086"><ele>525.0</ele><time>2026-04-19T10:01:25.998Z</time></trkpt><trkpt lat="37.612661131623696" lon="-4.249890318559342"><ele>528.1666666666666</ele><time>2026-04-19T10:01:28.998Z</time></trkpt><trkpt lat="37.612589950192735" lon="-4.2499400066169555"><ele>531.3333333333334</ele><time>2026-04-19T10:01:32Z</time></trkpt><trkpt lat="37.61253627933396" lon="-4.250005124378694"><ele>534.5</ele><time>2026-04-19T10:01:35Z</time></trkpt><trkpt lat="37.61249979741" lon="-4.250101793927658"><ele>537.6666666666667</ele><time>2026-04-19T10:01:38Z</time></trkpt><trkpt lat="37.6124913618179" lon="-4.250182049480436"><ele>540.8333333333334</ele><time>2026-04-19T10:01:41Z</time></trkpt><trkpt lat="37.612479463656726" lon="-4.2502713188296894"><ele>544.0</ele><time>2026-04-19T10:01:44Z</time></trkpt><trkpt lat="37.61243915916577" lon="-4.250351832962602"><ele>543.9999999999999</ele><time>2026-04-19T10:01:47Z</time></trkpt><trkpt lat="37.61239358347732" lon="-4.250425990841888"><ele>544.0</ele><time>2026-04-19T10:01:50Z</time></trkpt><trkpt lat="37.61235079087571" lon="-4.250510007572887"><ele>544.0</ele><time>2026-04-19T10:01:54Z</time></trkpt><trkpt lat="37.61234341522036" lon="-4.250601555155942"><ele>544.0</ele><time>2026-04-19T10:01:57Z</time></trkpt><trkpt lat="37.6123226691349" lon="-4.25068037628514"><ele>544.0</ele><time>2026-04-19T10:01:59.999Z</time></trkpt><trkpt lat="37.61232937420873" lon="-4.250772568637318"><ele>543.9999999999999</ele><time>2026-04-19T10:02:02.999Z</time></trkpt><trkpt lat="37.61232464326687" lon="-4.2508629520154955"><ele>544.0</ele><time>2026-04-19T10:02:05.999Z</time></trkpt><trkpt lat="37.61230708117979" lon="-4.250957042117868"><ele>545.5</ele><time>2026-04-19T10:02:08.999Z</time></trkpt><trkpt lat="37.61228888006693" lon="-4.251069276699266"><ele>547.0</ele><time>2026-04-19T10:02:12.999Z</time></trkpt><trkpt lat="37.61225670188239" lon="-4.251162096329352"><ele>548.5</ele><time>2026-04-19T10:02:16.999Z</time></trkpt><trkpt lat="37.612235969670266" lon="-4.251255409392279"><ele>550.0</ele><time>2026-04-19T10:02:20.999Z</time></trkpt><trkpt lat="37.61218338303022" lon="-4.251305021874716"><ele>551.5</ele><time>2026-04-19T10:02:23.999Z</time></trkpt><trkpt lat="37.61212699685194" lon="-4.251347771997679"><ele>553.0</ele><time>2026-04-19T10:02:26.999Z</time></trkpt><trkpt lat="37.612049396001375" lon="-4.251378059329526"><ele>553.4285714285714</ele><time>2026-04-19T10:02:30.999Z</time></trkpt><trkpt lat="37.61198976820574" lon="-4.2514190994258065"><ele>553.8571428571429</ele><time>2026-04-19T10:02:33.999Z</time></trkpt><trkpt lat="37.6119198660101" lon="-4.251402312817999"><ele>554.2857142857142</ele><time>2026-04-19T10:02:36.999Z</time></trkpt><trkpt lat="37.61185588081992" lon="-4.251450131994625"><ele>554.7142857142858</ele><time>2026-04-19T10:02:40.999Z</time></trkpt><trkpt lat="37.6117778767783" lon="-4.251437514515307"><ele>555.1428571428571</ele><time>2026-04-19T10:02:44.999Z</time></trkpt><trkpt lat="37.61171715588542" lon="-4.251402971641231"><ele>555.5714285714286</ele><time>2026-04-19T10:02:48.999Z</time></trkpt><trkpt lat="37.61165203741361" lon="-4.25141044210175"><ele>556.0</ele><time>2026-04-19T10:02:52.999Z</time></trkpt><trkpt lat="37.611575584427115" lon="-4.2514177728905285"><ele>556.0</ele><time>2026-04-19T10:03:40Z</time></trkpt><trkpt lat="37.61148461018655" lon="-4.251430990130065"><ele>556.0</ele><time>2026-04-19T10:03:43Z</time></trkpt><trkpt lat="37.61142123105946" lon="-4.251451203828519"><ele>556.0</ele><time>2026-04-19T10:03:45Z</time></trkpt><trkpt lat="37.61136345425561" lon="-4.251506540528998"><ele>556.0</ele><time>2026-04-19T10:03:47Z</time></trkpt><trkpt lat="37.61131468611636" lon="-4.251568803112466"><ele>556.0</ele><time>2026-04-19T10:03:49Z</time></trkpt><trkpt lat="37.61124231355084" lon="-4.251569012809042"><ele>556.0</ele><time>2026-04-19T10:03:51Z</time></trkpt><trkpt lat="37.61117113502631" lon="-4.251568615399112"><ele>556.0</ele><time>2026-04-19T10:03:53Z</time></trkpt><trkpt lat="37.61108558442761" lon="-4.2515795881703005"><ele>559.0</ele><time>2026-04-19T10:03:56Z</time></trkpt><trkpt lat="37.61100536788848" lon="-4.251591266506295"><ele>562.0</ele><time>2026-04-19T10:03:59Z</time></trkpt><trkpt lat="37.61092613097939" lon="-4.251597818735338"><ele>565.0</ele><time>2026-04-19T10:04:02Z</time></trkpt><trkpt lat="37.610855938241784" lon="-4.251606848357477"><ele>568.0</ele><time>2026-04-19T10:04:05Z</time></trkpt><trkpt lat="37.6107878895524" lon="-4.251609430161491"><ele>571.0</ele><time>2026-04-19T10:04:07.999Z</time></trkpt><trkpt lat="37.61072224003301" lon="-4.251618650153376"><ele>574.0</ele><time>2026-04-19T10:04:10.999Z</time></trkpt><trkpt lat="37.610654514777686" lon="-4.251618974523603"><ele>577.0</ele><time>2026-04-19T10:04:13.999Z</time></trkpt><trkpt lat="37.61058185934758" lon="-4.251618438234864"><ele>577.0</ele><time>2026-04-19T10:04:16.999Z</time></trkpt><trkpt lat="37.61049899411222" lon="-4.251610881462015"><ele>577.0</ele><time>2026-04-19T10:04:19.999Z</time></trkpt><trkpt lat="37.6104352553516" lon="-4.2516009479350245"><ele>577.0</ele><time>2026-04-19T10:04:21.999Z</time></trkpt><trkpt lat="37.61034528644326" lon="-4.251591877331731"><ele>577.0</ele><time>2026-04-19T10:04:24.999Z</time></trkpt><trkpt lat="37.61026400011097" lon="-4.251581486766531"><ele>577.0</ele><time>2026-04-19T10:04:27.999Z</time></trkpt><trkpt lat="37.61020042758586" lon="-4.251569286713371"><ele>577.0</ele><time>2026-04-19T10:04:30.999Z</time></trkpt><trkpt lat="37.610146915376895" lon="-4.25151364555107"><ele>577.3333333333334</ele><time>2026-04-19T10:04:36.999Z</time></trkpt><trkpt lat="37.610091525241955" lon="-4.251553157268312"><ele>577.6666666666667</ele><time>2026-04-19T10:06:07Z</time></trkpt><trkpt lat="37.610155026877635" lon="-4.251550340354593"><ele>578.0</ele><time>2026-04-19T10:10:27.999Z</time></trkpt><trkpt lat="37.61011039855823" lon="-4.251467703162654"><ele>578.3333333333334</ele><time>2026-04-19T10:11:05.999Z</time></trkpt><trkpt lat="37.610070325825575" lon="-4.25137874103899"><ele>578.6666666666666</ele><time>2026-04-19T10:11:07.999Z</time></trkpt><trkpt lat="37.609987185151695" lon="-4.251335192182401"><ele>579.0</ele><time>2026-04-19T10:11:09.999Z</time></trkpt><trkpt lat="37.60989134404241" lon="-4.251342733157055"><ele>578.0</ele><time>2026-04-19T10:11:11.999Z</time></trkpt><trkpt lat="37.60979606541824" lon="-4.251325362961217"><ele>577.0</ele><time>2026-04-19T10:11:13.999Z</time></trkpt><trkpt lat="37.60969243286924" lon="-4.2513041166267005"><ele>576.0</ele><time>2026-04-19T10:11:15.999Z</time></trkpt><trkpt lat="37.60961551926677" lon="-4.251343700824572"><ele>575.0</ele><time>2026-04-19T10:11:17.999Z</time></trkpt><trkpt lat="37.609543306698136" lon="-4.251316005001326"><ele>574.0</ele><time>2026-04-19T10:11:23.999Z</time></trkpt><trkpt lat="37.60948595071824" lon="-4.251349959392806"><ele>573.0</ele><time>2026-04-19T10:11:28.999Z</time></trkpt><trkpt lat="37.60940751374245" lon="-4.251353227330575"><ele>573.0</ele><time>2026-04-19T10:11:32.999Z</time></trkpt><trkpt lat="37.60933521911833" lon="-4.251378203417544"><ele>573.0</ele><time>2026-04-19T10:11:35.999Z</time></trkpt><trkpt lat="37.60925985002879" lon="-4.251426169094876"><ele>573.0</ele><time>2026-04-19T10:11:39.999Z</time></trkpt><trkpt lat="37.60919555871097" lon="-4.251455595354404"><ele>573.0</ele><time>2026-04-19T10:11:42.998Z</time></trkpt><trkpt lat="37.609136115887814" lon="-4.251498361824127"><ele>573.0</ele><time>2026-04-19T10:11:45.998Z</time></trkpt><trkpt lat="37.60907032234994" lon="-4.251509378975216"><ele>573.0</ele><time>2026-04-19T10:11:48.998Z</time></trkpt><trkpt lat="37.608990815941915" lon="-4.2514956685668235"><ele>573.0</ele><time>2026-04-19T10:11:52.998Z</time></trkpt><trkpt lat="37.60895602359673" lon="-4.2515985795317"><ele>574.0</ele><time>2026-04-19T10:11:56.998Z</time></trkpt><trkpt lat="37.6089983733368" lon="-4.251659219765022"><ele>575.0</ele><time>2026-04-19T10:11:58.998Z</time></trkpt><trkpt lat="37.609034998622185" lon="-4.251769950412599"><ele>576.0</ele><time>2026-04-19T10:12:01.998Z</time></trkpt><trkpt lat="37.609062240276096" lon="-4.2518658944998675"><ele>577.0</ele><time>2026-04-19T10:12:04.998Z</time></trkpt><trkpt lat="37.609004461662245" lon="-4.251914540807167"><ele>578.0</ele><time>2026-04-19T10:12:07.998Z</time></trkpt><trkpt lat="37.60894543287791" lon="-4.251997350621207"><ele>579.0</ele><time>2026-04-19T10:12:10.998Z</time></trkpt><trkpt lat="37.60892658320031" lon="-4.252088698126976"><ele>579.0</ele><time>2026-04-19T10:12:12.998Z</time></trkpt><trkpt lat="37.60889124774698" lon="-4.252168783825133"><ele>579.0</ele><time>2026-04-19T10:12:14.998Z</time></trkpt><trkpt lat="37.60883309504614" lon="-4.2522163636762444"><ele>579.0</ele><time>2026-04-19T10:12:16.998Z</time></trkpt><trkpt lat="37.608768959804635" lon="-4.252251656664117"><ele>579.0</ele><time>2026-04-19T10:12:18.998Z</time></trkpt><trkpt lat="37.608701900413145" lon="-4.25229758697895"><ele>579.0</ele><time>2026-04-19T10:12:20.998Z</time></trkpt><trkpt lat="37.60861253556529" lon="-4.252361218901015"><ele>579.0</ele><time>2026-04-19T10:12:22.999Z</time></trkpt><trkpt lat="37.60855053480727" lon="-4.252404833064889"><ele>579.3333333333334</ele><time>2026-04-19T10:12:23.999Z</time></trkpt><trkpt lat="37.608493373712164" lon="-4.2524648502673585"><ele>579.6666666666666</ele><time>2026-04-19T10:12:24.999Z</time></trkpt><trkpt lat="37.60843705802041" lon="-4.252552711635591"><ele>580.0</ele><time>2026-04-19T10:12:25.999Z</time></trkpt><trkpt lat="37.60839851154967" lon="-4.25264150997453"><ele>580.3333333333333</ele><time>2026-04-19T10:12:26.999Z</time></trkpt><trkpt lat="37.608342755219226" lon="-4.25273822287667"><ele>580.6666666666666</ele><time>2026-04-19T10:12:27.999Z</time></trkpt><trkpt lat="37.60827458380387" lon="-4.252820834655034"><ele>581.0</ele><time>2026-04-19T10:12:28.999Z</time></trkpt><trkpt lat="37.6082234697378" lon="-4.252908018931259"><ele>581.0</ele><time>2026-04-19T10:12:29.999Z</time></trkpt><trkpt lat="37.60820546663959" lon="-4.252991110347976"><ele>581.0</ele><time>2026-04-19T10:12:30.999Z</time></trkpt><trkpt lat="37.60814587978646" lon="-4.253076230976632"><ele>581.0</ele><time>2026-04-19T10:12:32.999Z</time></trkpt><trkpt lat="37.60804956868171" lon="-4.253148745560103"><ele>581.0</ele><time>2026-04-19T10:12:34.999Z</time></trkpt><trkpt lat="37.60796851143288" lon="-4.2532476580995064"><ele>581.0</ele><time>2026-04-19T10:12:36.999Z</time></trkpt><trkpt lat="37.60792994641297" lon="-4.253336923984965"><ele>580.8333333333333</ele><time>2026-04-19T10:12:38.999Z</time></trkpt><trkpt lat="37.60790459502359" lon="-4.25342574922816"><ele>580.6666666666666</ele><time>2026-04-19T10:12:40.999Z</time></trkpt><trkpt lat="37.60786668789404" lon="-4.253491546144375"><ele>580.5</ele><time>2026-04-19T10:12:42.999Z</time></trkpt><trkpt lat="37.60784016799487" lon="-4.253600396040017"><ele>580.3333333333334</ele><time>2026-04-19T10:12:45.999Z</time></trkpt><trkpt lat="37.607821124181015" lon="-4.253681598136073"><ele>580.1666666666667</ele><time>2026-04-19T10:12:47.999Z</time></trkpt><trkpt lat="37.60775145285843" lon="-4.253738651995315"><ele>580.0</ele><time>2026-04-19T10:12:49.999Z</time></trkpt><trkpt lat="37.60770199871578" lon="-4.253809987940439"><ele>579.8333333333334</ele><time>2026-04-19T10:12:51.999Z</time></trkpt><trkpt lat="37.60765667460034" lon="-4.253892620160579"><ele>579.6666666666667</ele><time>2026-04-19T10:12:53.999Z</time></trkpt><trkpt lat="37.607610204408374" lon="-4.253970998399752"><ele>579.5</ele><time>2026-04-19T10:12:55.999Z</time></trkpt><trkpt lat="37.607546237123294" lon="-4.2540177872718"><ele>579.3333333333334</ele><time>2026-04-19T10:12:57.999Z</time></trkpt><trkpt lat="37.607466689190794" lon="-4.254078980010432"><ele>579.1666666666666</ele><time>2026-04-19T10:12:59.999Z</time></trkpt><trkpt lat="37.60739496231982" lon="-4.254156664273666"><ele>579.0</ele><time>2026-04-19T10:13:01.999Z</time></trkpt><trkpt lat="37.60734130310495" lon="-4.254199833285924"><ele>579.0</ele><time>2026-04-19T10:13:02.999Z</time></trkpt><trkpt lat="37.60726404003358" lon="-4.254231120139623"><ele>579.0</ele><time>2026-04-19T10:13:03.999Z</time></trkpt><trkpt lat="37.607175984187556" lon="-4.254260465596651"><ele>579.0</ele><time>2026-04-19T10:13:04.999Z</time></trkpt><trkpt lat="37.607081254570595" lon="-4.254317925059807"><ele>579.0</ele><time>2026-04-19T10:13:05.999Z</time></trkpt><trkpt lat="37.60700376790071" lon="-4.254398825401876"><ele>579.0</ele><time>2026-04-19T10:13:06.999Z</time></trkpt><trkpt lat="37.60696067172353" lon="-4.254494566029144"><ele>578.4</ele><time>2026-04-19T10:13:07.999Z</time></trkpt><trkpt lat="37.60695228473122" lon="-4.254607174933446"><ele>577.8</ele><time>2026-04-19T10:13:08.999Z</time></trkpt><trkpt lat="37.606904990114984" lon="-4.254735315488016"><ele>577.2</ele><time>2026-04-19T10:13:10.999Z</time></trkpt><trkpt lat="37.6068397499019" lon="-4.254832000107382"><ele>576.6</ele><time>2026-04-19T10:13:12.999Z</time></trkpt><trkpt lat="37.606763537714734" lon="-4.254925161574233"><ele>576.0</ele><time>2026-04-19T10:13:14.999Z</time></trkpt><trkpt lat="37.60668443975319" lon="-4.255000256587493"><ele>576.0</ele><time>2026-04-19T10:13:16.999Z</time></trkpt><trkpt lat="37.60659085282445" lon="-4.255036727453329"><ele>576.0</ele><time>2026-04-19T10:13:18.999Z</time></trkpt><trkpt lat="37.60650468923945" lon="-4.255080001945949"><ele>576.0</ele><time>2026-04-19T10:13:20.999Z</time></trkpt><trkpt lat="37.60642696451264" lon="-4.25515351686206"><ele>576.0</ele><time>2026-04-19T10:13:22.999Z</time></trkpt><trkpt lat="37.606388668807696" lon="-4.255243447443139"><ele>576.0</ele><time>2026-04-19T10:13:24.999Z</time></trkpt><trkpt lat="37.60636486291721" lon="-4.255317227883696"><ele>576.0</ele><time>2026-04-19T10:13:26.999Z</time></trkpt><trkpt lat="37.606303385848825" lon="-4.255337794488735"><ele>576.0000000000001</ele><time>2026-04-19T10:13:28.999Z</time></trkpt><trkpt lat="37.6062412006203" lon="-4.255387068538573"><ele>576.0</ele><time>2026-04-19T10:13:30.999Z</time></trkpt><trkpt lat="37.6061989337321" lon="-4.255472263899116"><ele>576.0</ele><time>2026-04-19T10:13:34.999Z</time></trkpt><trkpt lat="37.606173802285625" lon="-4.255546664731045"><ele>576.0</ele><time>2026-04-19T10:13:37.999Z</time></trkpt><trkpt lat="37.60614202070896" lon="-4.255617475751275"><ele>576.0</ele><time>2026-04-19T10:13:40.999Z</time></trkpt><trkpt lat="37.60610347727361" lon="-4.2557099512166525"><ele>576.0000000000001</ele><time>2026-04-19T10:13:44.999Z</time></trkpt><trkpt lat="37.60608413507178" lon="-4.255789317579526"><ele>576.0</ele><time>2026-04-19T10:13:47.999Z</time></trkpt><trkpt lat="37.60604611486122" lon="-4.255882240087508"><ele>576.7142857142858</ele><time>2026-04-19T10:13:51.999Z</time></trkpt><trkpt lat="37.60601979025611" lon="-4.2559556008402755"><ele>577.4285714285714</ele><time>2026-04-19T10:13:54.999Z</time></trkpt><trkpt lat="37.60598627046043" lon="-4.256035990326044"><ele>578.1428571428571</ele><time>2026-04-19T10:13:57.999Z</time></trkpt><trkpt lat="37.605957280865425" lon="-4.256132834895346"><ele>578.8571428571429</ele><time>2026-04-19T10:14:00.999Z</time></trkpt><trkpt lat="37.605916189846226" lon="-4.256215229801829"><ele>579.5714285714286</ele><time>2026-04-19T10:14:03.999Z</time></trkpt><trkpt lat="37.60587629265624" lon="-4.256279174484952"><ele>580.2857142857143</ele><time>2026-04-19T10:14:06.999Z</time></trkpt><trkpt lat="37.605873166278975" lon="-4.256368609705679"><ele>581.0</ele><time>2026-04-19T10:14:10.999Z</time></trkpt><trkpt lat="37.60590662860653" lon="-4.256457085072937"><ele>581.6666666666666</ele><time>2026-04-19T10:14:13.999Z</time></trkpt><trkpt lat="37.60590589362975" lon="-4.256548955912693"><ele>582.3333333333333</ele><time>2026-04-19T10:14:17.999Z</time></trkpt><trkpt lat="37.60585760974281" lon="-4.256645449471597"><ele>583.0</ele><time>2026-04-19T10:14:24.999Z</time></trkpt><trkpt lat="37.605786834738446" lon="-4.256707758885037"><ele>583.6666666666666</ele><time>2026-04-19T10:14:26.999Z</time></trkpt><trkpt lat="37.605744206137494" lon="-4.256774778110283"><ele>584.3333333333334</ele><time>2026-04-19T10:14:28.999Z</time></trkpt><trkpt lat="37.60569898646428" lon="-4.2568360277563215"><ele>585.0</ele><time>2026-04-19T10:14:30.999Z</time></trkpt><trkpt lat="37.605659739549495" lon="-4.256910912928728"><ele>585.0</ele><time>2026-04-19T10:14:32.999Z</time></trkpt><trkpt lat="37.60561504634555" lon="-4.256973056784566"><ele>585.0</ele><time>2026-04-19T10:14:34.999Z</time></trkpt><trkpt lat="37.6055679158461" lon="-4.257053913665562"><ele>585.0</ele><time>2026-04-19T10:14:37.999Z</time></trkpt><trkpt lat="37.60552806557397" lon="-4.2571301186409505"><ele>585.0</ele><time>2026-04-19T10:14:40.999Z</time></trkpt><trkpt lat="37.60548504887943" lon="-4.257208534435135"><ele>585.0</ele><time>2026-04-19T10:14:43.999Z</time></trkpt><trkpt lat="37.605446472166484" lon="-4.257290472485253"><ele>585.0</ele><time>2026-04-19T10:14:46.999Z</time></trkpt><trkpt lat="37.605404449029464" lon="-4.257363350611559"><ele>585.0</ele><time>2026-04-19T10:14:49.999Z</time></trkpt><trkpt lat="37.60535601081318" lon="-4.2574336626982525"><ele>585.7142857142858</ele><time>2026-04-19T10:14:52.999Z</time></trkpt><trkpt lat="37.60530972545427" lon="-4.257503153273424"><ele>586.4285714285714</ele><time>2026-04-19T10:14:55.999Z</time></trkpt><trkpt lat="37.605277895933476" lon="-4.257577684064516"><ele>587.1428571428571</ele><time>2026-04-19T10:14:58.999Z</time></trkpt><trkpt lat="37.60522941173528" lon="-4.2576437611821"><ele>587.8571428571429</ele><time>2026-04-19T10:15:01.999Z</time></trkpt><trkpt lat="37.60517828748089" lon="-4.257721713310983"><ele>588.5714285714286</ele><time>2026-04-19T10:15:04.999Z</time></trkpt><trkpt lat="37.60510599877377" lon="-4.257729286554019"><ele>589.2857142857143</ele><time>2026-04-19T10:15:07.999Z</time></trkpt><trkpt lat="37.60506455914627" lon="-4.257816578797372"><ele>590.0</ele><time>2026-04-19T10:15:10.999Z</time></trkpt><trkpt lat="37.605047846303655" lon="-4.25791424751632"><ele>590.0</ele><time>2026-04-19T10:15:35.999Z</time></trkpt><trkpt lat="37.605024208275196" lon="-4.258011468756739"><ele>590.0</ele><time>2026-04-19T10:15:37.999Z</time></trkpt><trkpt lat="37.60500005541896" lon="-4.258117895805842"><ele>590.0</ele><time>2026-04-19T10:15:39.999Z</time></trkpt><trkpt lat="37.60496808580302" lon="-4.258219157581357"><ele>590.0</ele><time>2026-04-19T10:15:41.999Z</time></trkpt><trkpt lat="37.60494252788666" lon="-4.258318788770786"><ele>590.0</ele><time>2026-04-19T10:15:43.999Z</time></trkpt><trkpt lat="37.604925119046115" lon="-4.258408321779157"><ele>590.0</ele><time>2026-04-19T10:15:45.999Z</time></trkpt><trkpt lat="37.604920331765186" lon="-4.258491573811463"><ele>590.4285714285714</ele><time>2026-04-19T10:15:47.999Z</time></trkpt><trkpt lat="37.60490352422948" lon="-4.258599499664746"><ele>590.8571428571429</ele><time>2026-04-19T10:15:50.999Z</time></trkpt><trkpt lat="37.60489236257531" lon="-4.258710355571771"><ele>591.2857142857142</ele><time>2026-04-19T10:15:53.999Z</time></trkpt><trkpt lat="37.60488079690157" lon="-4.25878871809466"><ele>591.7142857142858</ele><time>2026-04-19T10:15:55.999Z</time></trkpt><trkpt lat="37.604871167268065" lon="-4.258869763180789"><ele>592.1428571428571</ele><time>2026-04-19T10:15:57.999Z</time></trkpt><trkpt lat="37.604859053429784" lon="-4.258957580706723"><ele>592.5714285714286</ele><time>2026-04-19T10:15:59.999Z</time></trkpt><trkpt lat="37.6048644610378" lon="-4.25905098536623"><ele>593.0</ele><time>2026-04-19T10:16:01.999Z</time></trkpt><trkpt lat="37.604868814442526" lon="-4.259141137132448"><ele>593.4285714285713</ele><time>2026-04-19T10:16:03.999Z</time></trkpt><trkpt lat="37.604887374398956" lon="-4.25922717592939"><ele>593.8571428571429</ele><time>2026-04-19T10:16:05.999Z</time></trkpt><trkpt lat="37.60492400139473" lon="-4.259317174640618"><ele>594.2857142857142</ele><time>2026-04-19T10:16:07.999Z</time></trkpt><trkpt lat="37.604965200294544" lon="-4.259383946188609"><ele>594.7142857142857</ele><time>2026-04-19T10:16:09.999Z</time></trkpt><trkpt lat="37.60500403974086" lon="-4.259449620744112"><ele>595.1428571428571</ele><time>2026-04-19T10:16:11.999Z</time></trkpt><trkpt lat="37.60502316818715" lon="-4.259549597314438"><ele>595.5714285714286</ele><time>2026-04-19T10:16:15.999Z</time></trkpt><trkpt lat="37.60501462681605" lon="-4.259629256559993"><ele>596.0</ele><time>2026-04-19T10:16:17.999Z</time></trkpt><trkpt lat="37.60500203303313" lon="-4.259729255998431"><ele>596.1666666666666</ele><time>2026-04-19T10:16:19.999Z</time></trkpt><trkpt lat="37.604975780082704" lon="-4.259835346785891"><ele>596.3333333333333</ele><time>2026-04-19T10:16:21.999Z</time></trkpt><trkpt lat="37.604944497230655" lon="-4.259928166246314"><ele>596.5</ele><time>2026-04-19T10:16:24Z</time></trkpt><trkpt lat="37.60491482628623" lon="-4.260016966581437"><ele>596.6666666666666</ele><time>2026-04-19T10:16:26Z</time></trkpt><trkpt lat="37.60489000380346" lon="-4.260108381749849"><ele>596.8333333333334</ele><time>2026-04-19T10:16:27.999Z</time></trkpt><trkpt lat="37.604861021292784" lon="-4.260220098240347"><ele>597.0</ele><time>2026-04-19T10:16:29.998Z</time></trkpt><trkpt lat="37.60481531618712" lon="-4.260334447463581"><ele>597.0</ele><time>2026-04-19T10:16:31.998Z</time></trkpt><trkpt lat="37.60476647089504" lon="-4.260455249204264"><ele>597.0</ele><time>2026-04-19T10:16:33.998Z</time></trkpt><trkpt lat="37.604738088623634" lon="-4.2606077597603065"><ele>597.0</ele><time>2026-04-19T10:16:35.997Z</time></trkpt><trkpt lat="37.60472374164475" lon="-4.260741394197539"><ele>597.0</ele><time>2026-04-19T10:16:37.997Z</time></trkpt><trkpt lat="37.604706178472725" lon="-4.260877465163979"><ele>597.0</ele><time>2026-04-19T10:16:39.997Z</time></trkpt><trkpt lat="37.60465176161148" lon="-4.260989098738378"><ele>596.4</ele><time>2026-04-19T10:16:41.997Z</time></trkpt><trkpt lat="37.60461113416313" lon="-4.261102060714918"><ele>595.8000000000001</ele><time>2026-04-19T10:16:43.996Z</time></trkpt><trkpt lat="37.60458722484113" lon="-4.261233990102193"><ele>595.2</ele><time>2026-04-19T10:16:45.996Z</time></trkpt><trkpt lat="37.604523667966326" lon="-4.26134335833106"><ele>594.6</ele><time>2026-04-19T10:16:47.996Z</time></trkpt><trkpt lat="37.60445425813767" lon="-4.261418109000185"><ele>594.0</ele><time>2026-04-19T10:16:49.996Z</time></trkpt><trkpt lat="37.60437870522326" lon="-4.2614830862319915"><ele>594.0</ele><time>2026-04-19T10:16:51.996Z</time></trkpt><trkpt lat="37.60431038062948" lon="-4.2615462664708135"><ele>594.0</ele><time>2026-04-19T10:16:53.996Z</time></trkpt><trkpt lat="37.60424823452417" lon="-4.261608103312365"><ele>594.0</ele><time>2026-04-19T10:16:55.996Z</time></trkpt><trkpt lat="37.60419220849298" lon="-4.261657712247045"><ele>594.0</ele><time>2026-04-19T10:16:57.995Z</time></trkpt><trkpt lat="37.60414731803468" lon="-4.261739767823987"><ele>594.0</ele><time>2026-04-19T10:16:59.995Z</time></trkpt><trkpt lat="37.604089325983075" lon="-4.261812351927684"><ele>594.0</ele><time>2026-04-19T10:17:01.995Z</time></trkpt><trkpt lat="37.60405842523993" lon="-4.261917273184717"><ele>594.0</ele><time>2026-04-19T10:17:03.995Z</time></trkpt><trkpt lat="37.60403285455562" lon="-4.262025474074291"><ele>594.0</ele><time>2026-04-19T10:17:05.995Z</time></trkpt><trkpt lat="37.60400985003396" lon="-4.2621323586698745"><ele>594.0</ele><time>2026-04-19T10:17:07.995Z</time></trkpt><trkpt lat="37.603991592773525" lon="-4.262234917002744"><ele>594.0</ele><time>2026-04-19T10:17:09.995Z</time></trkpt><trkpt lat="37.60397594330673" lon="-4.262344497808932"><ele>594.0</ele><time>2026-04-19T10:17:11.995Z</time></trkpt><trkpt lat="37.603973019057136" lon="-4.262460140105484"><ele>594.0</ele><time>2026-04-19T10:17:13.995Z</time></trkpt><trkpt lat="37.60398819823945" lon="-4.262589286856126"><ele>594.0</ele><time>2026-04-19T10:17:15.995Z</time></trkpt><trkpt lat="37.604029278125566" lon="-4.262729932335995"><ele>594.0</ele><time>2026-04-19T10:17:17.995Z</time></trkpt><trkpt lat="37.60401395686361" lon="-4.262875746202755"><ele>594.0</ele><time>2026-04-19T10:17:19.995Z</time></trkpt><trkpt lat="37.60401100838116" lon="-4.263019437832623"><ele>594.0</ele><time>2026-04-19T10:17:21.995Z</time></trkpt><trkpt lat="37.604040604152736" lon="-4.263153022986289"><ele>594.2</ele><time>2026-04-19T10:17:23.995Z</time></trkpt><trkpt lat="37.60406200499793" lon="-4.263292564633378"><ele>594.4</ele><time>2026-04-19T10:17:25.995Z</time></trkpt><trkpt lat="37.604086612600064" lon="-4.263430303615646"><ele>594.6</ele><time>2026-04-19T10:17:27.995Z</time></trkpt><trkpt lat="37.60410920174288" lon="-4.263558752003781"><ele>594.8</ele><time>2026-04-19T10:17:29.995Z</time></trkpt><trkpt lat="37.60414938671474" lon="-4.263669843345801"><ele>595.0</ele><time>2026-04-19T10:17:31.995Z</time></trkpt><trkpt lat="37.604204047795974" lon="-4.263767563574999"><ele>595.0</ele><time>2026-04-19T10:17:33.995Z</time></trkpt><trkpt lat="37.604253013548615" lon="-4.263858905072317"><ele>595.0</ele><time>2026-04-19T10:17:35.995Z</time></trkpt><trkpt lat="37.60427777920588" lon="-4.263959322797491"><ele>595.0</ele><time>2026-04-19T10:17:37.995Z</time></trkpt><trkpt lat="37.60427635287456" lon="-4.264053597406372"><ele>595.0</ele><time>2026-04-19T10:17:39.995Z</time></trkpt><trkpt lat="37.60427702146602" lon="-4.264149744003446"><ele>595.0</ele><time>2026-04-19T10:17:41.995Z</time></trkpt><trkpt lat="37.60427297830736" lon="-4.264248818864975"><ele>595.0</ele><time>2026-04-19T10:17:43.995Z</time></trkpt><trkpt lat="37.60427726868109" lon="-4.26434645170843"><ele>595.3333333333334</ele><time>2026-04-19T10:17:45.995Z</time></trkpt><trkpt lat="37.60427674471981" lon="-4.264471052918579"><ele>595.6666666666667</ele><time>2026-04-19T10:17:47.995Z</time></trkpt><trkpt lat="37.6042585477011" lon="-4.264598129923484"><ele>596.0</ele><time>2026-04-19T10:17:49.995Z</time></trkpt><trkpt lat="37.60424206914396" lon="-4.26468185652013"><ele>596.3333333333334</ele><time>2026-04-19T10:17:51.995Z</time></trkpt><trkpt lat="37.60420136877646" lon="-4.264779774570255"><ele>596.6666666666666</ele><time>2026-04-19T10:17:53.995Z</time></trkpt><trkpt lat="37.604161386357305" lon="-4.2648694826015685"><ele>597.0</ele><time>2026-04-19T10:17:55.995Z</time></trkpt><trkpt lat="37.60413486668675" lon="-4.264966589537142"><ele>597.8333333333334</ele><time>2026-04-19T10:17:57.995Z</time></trkpt><trkpt lat="37.60410945805468" lon="-4.265072235914489"><ele>598.6666666666666</ele><time>2026-04-19T10:17:59.995Z</time></trkpt><trkpt lat="37.60407301428002" lon="-4.265178444787203"><ele>599.5</ele><time>2026-04-19T10:18:01.995Z</time></trkpt><trkpt lat="37.60404321153634" lon="-4.265248473965576"><ele>600.3333333333333</ele><time>2026-04-19T10:18:03.995Z</time></trkpt><trkpt lat="37.6039964794594" lon="-4.2653528389741275"><ele>601.1666666666666</ele><time>2026-04-19T10:18:06.995Z</time></trkpt><trkpt lat="37.60395612005283" lon="-4.265435414654126"><ele>602.0</ele><time>2026-04-19T10:18:08.995Z</time></trkpt><trkpt lat="37.60391383125367" lon="-4.265531982656802"><ele>602.8000000000001</ele><time>2026-04-19T10:18:10.995Z</time></trkpt><trkpt lat="37.603864335902244" lon="-4.265636269646324"><ele>603.6</ele><time>2026-04-19T10:18:12.995Z</time></trkpt><trkpt lat="37.60379638971647" lon="-4.265740802737734"><ele>604.4000000000001</ele><time>2026-04-19T10:18:14.995Z</time></trkpt><trkpt lat="37.603701810142596" lon="-4.265813368792846"><ele>605.2</ele><time>2026-04-19T10:18:16.995Z</time></trkpt><trkpt lat="37.60362040254754" lon="-4.2659246981467875"><ele>606.0</ele><time>2026-04-19T10:18:18.995Z</time></trkpt><trkpt lat="37.603537232580614" lon="-4.266034938025992"><ele>605.5</ele><time>2026-04-19T10:18:20.996Z</time></trkpt><trkpt lat="37.603483258998445" lon="-4.266092640721895"><ele>605.0</ele><time>2026-04-19T10:18:21.996Z</time></trkpt><trkpt lat="37.603431958360844" lon="-4.266196420351119"><ele>604.5</ele><time>2026-04-19T10:18:23.996Z</time></trkpt><trkpt lat="37.603392894530856" lon="-4.266288928552011"><ele>604.0</ele><time>2026-04-19T10:18:25.997Z</time></trkpt><trkpt lat="37.60336749752956" lon="-4.26640816933086"><ele>603.5</ele><time>2026-04-19T10:18:27.997Z</time></trkpt><trkpt lat="37.60332953695865" lon="-4.266515420620176"><ele>603.0</ele><time>2026-04-19T10:18:29.998Z</time></trkpt><trkpt lat="37.60329665450672" lon="-4.266598679209651"><ele>603.0</ele><time>2026-04-19T10:18:31.998Z</time></trkpt><trkpt lat="37.60326708997399" lon="-4.2666791691283334"><ele>603.0</ele><time>2026-04-19T10:18:33.998Z</time></trkpt><trkpt lat="37.60317300876964" lon="-4.26673954091313"><ele>603.0</ele><time>2026-04-19T10:18:36.999Z</time></trkpt><trkpt lat="37.60312636614139" lon="-4.266802331051464"><ele>603.0</ele><time>2026-04-19T10:18:38.999Z</time></trkpt><trkpt lat="37.60309491392313" lon="-4.2669116699963325"><ele>603.0</ele><time>2026-04-19T10:18:41.999Z</time></trkpt><trkpt lat="37.60307297926481" lon="-4.267012328473374"><ele>603.0</ele><time>2026-04-19T10:18:44.999Z</time></trkpt><trkpt lat="37.6030434700496" lon="-4.267127240028011"><ele>603.0</ele><time>2026-04-19T10:18:48Z</time></trkpt><trkpt lat="37.60303025317753" lon="-4.26724371793014"><ele>603.0</ele><time>2026-04-19T10:18:51Z</time></trkpt><trkpt lat="37.60301801285004" lon="-4.267350345552546"><ele>603.0</ele><time>2026-04-19T10:18:54Z</time></trkpt><trkpt lat="37.60300992247082" lon="-4.267455478899142"><ele>603.0</ele><time>2026-04-19T10:18:57Z</time></trkpt><trkpt lat="37.60301539905956" lon="-4.267563040868258"><ele>603.0</ele><time>2026-04-19T10:19:00Z</time></trkpt><trkpt lat="37.60301356477247" lon="-4.267664510837459"><ele>603.0</ele><time>2026-04-19T10:19:03Z</time></trkpt><trkpt lat="37.60300013435282" lon="-4.267771057528179"><ele>603.6666666666666</ele><time>2026-04-19T10:19:06Z</time></trkpt><trkpt lat="37.60296582766219" lon="-4.267851734252107"><ele>604.3333333333334</ele><time>2026-04-19T10:19:09Z</time></trkpt><trkpt lat="37.60293377612193" lon="-4.267950416366387"><ele>605.0</ele><time>2026-04-19T10:19:12Z</time></trkpt><trkpt lat="37.602883879477126" lon="-4.2680533997890775"><ele>605.6666666666667</ele><time>2026-04-19T10:19:15Z</time></trkpt><trkpt lat="37.602870543871745" lon="-4.268141256753779"><ele>606.3333333333334</ele><time>2026-04-19T10:19:17Z</time></trkpt><trkpt lat="37.60282944989606" lon="-4.268263038516445"><ele>607.0</ele><time>2026-04-19T10:19:19Z</time></trkpt><trkpt lat="37.60279613907304" lon="-4.268400703081868"><ele>607.5</ele><time>2026-04-19T10:19:21Z</time></trkpt><trkpt lat="37.60273616579821" lon="-4.268524374569836"><ele>608.0</ele><time>2026-04-19T10:19:23Z</time></trkpt><trkpt lat="37.602695132594896" lon="-4.268662851336568"><ele>608.5</ele><time>2026-04-19T10:19:25Z</time></trkpt><trkpt lat="37.60267173029273" lon="-4.268790221619451"><ele>609.0</ele><time>2026-04-19T10:19:27Z</time></trkpt><trkpt lat="37.602697984927865" lon="-4.268935917491103"><ele>607.8333333333334</ele><time>2026-04-19T10:19:29Z</time></trkpt><trkpt lat="37.60273867622693" lon="-4.269092644848242"><ele>606.6666666666666</ele><time>2026-04-19T10:19:31Z</time></trkpt><trkpt lat="37.602762377225396" lon="-4.269176462835082"><ele>605.5</ele><time>2026-04-19T10:19:32Z</time></trkpt><trkpt lat="37.60278191462622" lon="-4.269267927904952"><ele>604.3333333333333</ele><time>2026-04-19T10:19:33.001Z</time></trkpt><trkpt lat="37.60280196908164" lon="-4.269366826518941"><ele>603.1666666666666</ele><time>2026-04-19T10:19:34.001Z</time></trkpt><trkpt lat="37.60282356031049" lon="-4.269471486192452"><ele>602.0</ele><time>2026-04-19T10:19:35.001Z</time></trkpt><trkpt lat="37.60281739838092" lon="-4.269565857448057"><ele>602.0</ele><time>2026-04-19T10:19:36.001Z</time></trkpt><trkpt lat="37.60276243033346" lon="-4.26968445348518"><ele>602.0</ele><time>2026-04-19T10:19:38.001Z</time></trkpt><trkpt lat="37.60266447380854" lon="-4.269751899651625"><ele>602.0</ele><time>2026-04-19T10:19:40.001Z</time></trkpt><trkpt lat="37.60260347549345" lon="-4.269783250074155"><ele>602.0</ele><time>2026-04-19T10:19:41.001Z</time></trkpt><trkpt lat="37.60253731693327" lon="-4.269798598313313"><ele>602.0</ele><time>2026-04-19T10:19:42.001Z</time></trkpt><trkpt lat="37.60246840100867" lon="-4.269814413771686"><ele>602.0</ele><time>2026-04-19T10:19:43.001Z</time></trkpt><trkpt lat="37.60238402022232" lon="-4.269901323951412"><ele>601.0</ele><time>2026-04-19T10:19:45.001Z</time></trkpt><trkpt lat="37.60233712239094" lon="-4.2699774246284194"><ele>600.0</ele><time>2026-04-19T10:19:47.001Z</time></trkpt><trkpt lat="37.602245981460115" lon="-4.270037623233015"><ele>599.0</ele><time>2026-04-19T10:19:49.001Z</time></trkpt><trkpt lat="37.6021469794248" lon="-4.270122513924453"><ele>598.0</ele><time>2026-04-19T10:19:51.001Z</time></trkpt><trkpt lat="37.60203562106254" lon="-4.270204374630418"><ele>597.0</ele><time>2026-04-19T10:19:53.001Z</time></trkpt><trkpt lat="37.601950440221415" lon="-4.270274144358396"><ele>593.6</ele><time>2026-04-19T10:19:55.001Z</time></trkpt><trkpt lat="37.601868862141906" lon="-4.270426826699759"><ele>590.2</ele><time>2026-04-19T10:19:57.001Z</time></trkpt><trkpt lat="37.60182481378475" lon="-4.270506891542908"><ele>586.8</ele><time>2026-04-19T10:19:58.001Z</time></trkpt><trkpt lat="37.60176585811831" lon="-4.2705915675886335"><ele>583.4</ele><time>2026-04-19T10:19:59.001Z</time></trkpt><trkpt lat="37.601710341947694" lon="-4.270669985034783"><ele>580.0</ele><time>2026-04-19T10:20:00.001Z</time></trkpt><trkpt lat="37.6016659762728" lon="-4.270747130894809"><ele>579.2</ele><time>2026-04-19T10:20:01.001Z</time></trkpt><trkpt lat="37.601621983968236" lon="-4.27081636660548"><ele>578.4</ele><time>2026-04-19T10:20:02.001Z</time></trkpt><trkpt lat="37.60154807327501" lon="-4.27094349603027"><ele>577.6</ele><time>2026-04-19T10:20:04.001Z</time></trkpt><trkpt lat="37.601529511506754" lon="-4.271022440297948"><ele>576.8</ele><time>2026-04-19T10:20:05.001Z</time></trkpt><trkpt lat="37.601535795355474" lon="-4.271163136015083"><ele>576.0</ele><time>2026-04-19T10:20:07.001Z</time></trkpt><trkpt lat="37.601470814195565" lon="-4.271292627449103"><ele>576.0</ele><time>2026-04-19T10:20:09.001Z</time></trkpt><trkpt lat="37.60139604531494" lon="-4.2713980241499225"><ele>576.0</ele><time>2026-04-19T10:20:11.001Z</time></trkpt><trkpt lat="37.60132920869907" lon="-4.271436720351633"><ele>576.0</ele><time>2026-04-19T10:20:12.001Z</time></trkpt><trkpt lat="37.60130317927801" lon="-4.271593640376164"><ele>576.0</ele><time>2026-04-19T10:20:14.001Z</time></trkpt><trkpt lat="37.60127358481738" lon="-4.271666032069862"><ele>576.0</ele><time>2026-04-19T10:20:15.001Z</time></trkpt><trkpt lat="37.60121387197081" lon="-4.271735554762224"><ele>573.3333333333334</ele><time>2026-04-19T10:20:16.001Z</time></trkpt><trkpt lat="37.601165105240476" lon="-4.27180036002098"><ele>570.6666666666666</ele><time>2026-04-19T10:20:17.001Z</time></trkpt><trkpt lat="37.6011467614482" lon="-4.271921033001669"><ele>568.0</ele><time>2026-04-19T10:20:19.001Z</time></trkpt><trkpt lat="37.60109093182736" lon="-4.2719624293372425"><ele>565.3333333333333</ele><time>2026-04-19T10:20:20.001Z</time></trkpt><trkpt lat="37.601027073236764" lon="-4.272023821323087"><ele>562.6666666666666</ele><time>2026-04-19T10:20:21.001Z</time></trkpt><trkpt lat="37.60096713308251" lon="-4.2720774361413465"><ele>560.0</ele><time>2026-04-19T10:20:22.001Z</time></trkpt><trkpt lat="37.60090369529921" lon="-4.272141297998203"><ele>560.0</ele><time>2026-04-19T10:20:23.001Z</time></trkpt><trkpt lat="37.600856162425686" lon="-4.272246668526265"><ele>560.0</ele><time>2026-04-19T10:20:24.001Z</time></trkpt><trkpt lat="37.60081225718359" lon="-4.2723552079909215"><ele>560.0</ele><time>2026-04-19T10:20:25.001Z</time></trkpt><trkpt lat="37.60074299027028" lon="-4.27244945979724"><ele>560.0</ele><time>2026-04-19T10:20:26.001Z</time></trkpt><trkpt lat="37.600678000588786" lon="-4.2725443144012365"><ele>560.0</ele><time>2026-04-19T10:20:27.001Z</time></trkpt><trkpt lat="37.60063403581564" lon="-4.272644958692952"><ele>559.0</ele><time>2026-04-19T10:20:28.001Z</time></trkpt><trkpt lat="37.60058983335771" lon="-4.272745455186271"><ele>558.0</ele><time>2026-04-19T10:20:29.001Z</time></trkpt><trkpt lat="37.600525810866756" lon="-4.272845642297029"><ele>557.0</ele><time>2026-04-19T10:20:30.001Z</time></trkpt><trkpt lat="37.600443433389536" lon="-4.272949575805156"><ele>556.0</ele><time>2026-04-19T10:20:31.001Z</time></trkpt><trkpt lat="37.60038363626742" lon="-4.273076770597756"><ele>555.0</ele><time>2026-04-19T10:20:32.001Z</time></trkpt><trkpt lat="37.600324700825276" lon="-4.273201626925427"><ele>552.25</ele><time>2026-04-19T10:20:33.001Z</time></trkpt><trkpt lat="37.600262230386186" lon="-4.273325278741781"><ele>549.5</ele><time>2026-04-19T10:20:34.001Z</time></trkpt><trkpt lat="37.6001862181537" lon="-4.273445809367734"><ele>546.75</ele><time>2026-04-19T10:20:35.001Z</time></trkpt><trkpt lat="37.600106905167365" lon="-4.273563072627192"><ele>544.0</ele><time>2026-04-19T10:20:36.001Z</time></trkpt><trkpt lat="37.600051131313165" lon="-4.273692615759764"><ele>544.0</ele><time>2026-04-19T10:20:37.001Z</time></trkpt><trkpt lat="37.59998297921007" lon="-4.2738148225305"><ele>544.0</ele><time>2026-04-19T10:20:38.001Z</time></trkpt><trkpt lat="37.59992263024802" lon="-4.273935881900924"><ele>544.0</ele><time>2026-04-19T10:20:39.001Z</time></trkpt><trkpt lat="37.59985501384122" lon="-4.274064342905899"><ele>544.0</ele><time>2026-04-19T10:20:40.001Z</time></trkpt><trkpt lat="37.59979430718979" lon="-4.2741949242104385"><ele>543.25</ele><time>2026-04-19T10:20:41.001Z</time></trkpt><trkpt lat="37.59973590020738" lon="-4.274325046157843"><ele>542.5</ele><time>2026-04-19T10:20:42.001Z</time></trkpt><trkpt lat="37.59966808347636" lon="-4.274443483368474"><ele>541.75</ele><time>2026-04-19T10:20:43.001Z</time></trkpt><trkpt lat="37.59960595578183" lon="-4.27456735871823"><ele>541.0</ele><time>2026-04-19T10:20:44.001Z</time></trkpt><trkpt lat="37.59954356961284" lon="-4.274690054155387"><ele>539.0</ele><time>2026-04-19T10:20:45.001Z</time></trkpt><trkpt lat="37.599481469801795" lon="-4.274815763336564"><ele>537.0</ele><time>2026-04-19T10:20:46.001Z</time></trkpt><trkpt lat="37.59941893061623" lon="-4.274943718438121"><ele>535.0</ele><time>2026-04-19T10:20:47.001Z</time></trkpt><trkpt lat="37.59935548593852" lon="-4.275064281907872"><ele>533.0</ele><time>2026-04-19T10:20:48.001Z</time></trkpt><trkpt lat="37.59928771494928" lon="-4.27518520331882"><ele>533.0</ele><time>2026-04-19T10:20:49.001Z</time></trkpt><trkpt lat="37.599218655182646" lon="-4.2752970549253755"><ele>533.0</ele><time>2026-04-19T10:20:50.001Z</time></trkpt><trkpt lat="37.599168510564745" lon="-4.275418902720407"><ele>533.0</ele><time>2026-04-19T10:20:51.001Z</time></trkpt><trkpt lat="37.5991017193387" lon="-4.27552427410123"><ele>533.0</ele><time>2026-04-19T10:20:52.001Z</time></trkpt><trkpt lat="37.599024069207296" lon="-4.275626857913377"><ele>533.0</ele><time>2026-04-19T10:20:53.001Z</time></trkpt><trkpt lat="37.598953334072625" lon="-4.2757219730586655"><ele>532.8333333333333</ele><time>2026-04-19T10:20:54.001Z</time></trkpt><trkpt lat="37.598910767725606" lon="-4.275824473233312"><ele>532.6666666666666</ele><time>2026-04-19T10:20:55.001Z</time></trkpt><trkpt lat="37.59888346772535" lon="-4.275913536602"><ele>532.5</ele><time>2026-04-19T10:20:56.001Z</time></trkpt><trkpt lat="37.598831331054434" lon="-4.276019637710418"><ele>532.3333333333334</ele><time>2026-04-19T10:20:58.001Z</time></trkpt><trkpt lat="37.598763185777045" lon="-4.276061568557554"><ele>532.1666666666667</ele><time>2026-04-19T10:24:10Z</time></trkpt><trkpt lat="37.598745608967555" lon="-4.276145253219769"><ele>532.0</ele><time>2026-04-19T10:24:13Z</time></trkpt><trkpt lat="37.598688140716646" lon="-4.276233797735309"><ele>531.6666666666667</ele><time>2026-04-19T10:24:16Z</time></trkpt><trkpt lat="37.59863735456734" lon="-4.276329153469708"><ele>531.3333333333334</ele><time>2026-04-19T10:24:19Z</time></trkpt><trkpt lat="37.59861354767183" lon="-4.276404731461423"><ele>531.0</ele><time>2026-04-19T10:24:21Z</time></trkpt><trkpt lat="37.59858771931873" lon="-4.27647969165161"><ele>530.6666666666666</ele><time>2026-04-19T10:24:23Z</time></trkpt><trkpt lat="37.59857000799232" lon="-4.276569293316187"><ele>530.3333333333333</ele><time>2026-04-19T10:24:25Z</time></trkpt><trkpt lat="37.598570784324025" lon="-4.276666832521473"><ele>530.0</ele><time>2026-04-19T10:24:27Z</time></trkpt><trkpt lat="37.598559722132464" lon="-4.276766059921306"><ele>529.9999999999999</ele><time>2026-04-19T10:24:29Z</time></trkpt><trkpt lat="37.598540736362715" lon="-4.27685050313745"><ele>530.0</ele><time>2026-04-19T10:24:31Z</time></trkpt><trkpt lat="37.598525649888444" lon="-4.276940356436312"><ele>530.0</ele><time>2026-04-19T10:24:33Z</time></trkpt><trkpt lat="37.59850922490668" lon="-4.277038292327916"><ele>530.0</ele><time>2026-04-19T10:24:35.001Z</time></trkpt><trkpt lat="37.59849036018375" lon="-4.277124884552052"><ele>530.0</ele><time>2026-04-19T10:24:37.001Z</time></trkpt><trkpt lat="37.598462188582005" lon="-4.277206976010591"><ele>529.9999999999999</ele><time>2026-04-19T10:24:39.001Z</time></trkpt><trkpt lat="37.598418088630545" lon="-4.2772670845797185"><ele>530.0</ele><time>2026-04-19T10:24:41.001Z</time></trkpt><trkpt lat="37.59841112095016" lon="-4.277347281779601"><ele>529.8571428571428</ele><time>2026-04-19T10:24:43.001Z</time></trkpt><trkpt lat="37.59840166798841" lon="-4.277454447771516"><ele>529.7142857142857</ele><time>2026-04-19T10:24:46.001Z</time></trkpt><trkpt lat="37.59837966990835" lon="-4.277569361673561"><ele>529.5714285714286</ele><time>2026-04-19T10:24:49.001Z</time></trkpt><trkpt lat="37.59836608767007" lon="-4.2776556743785035"><ele>529.4285714285713</ele><time>2026-04-19T10:24:51.001Z</time></trkpt><trkpt lat="37.598353564440636" lon="-4.277739648699213"><ele>529.2857142857142</ele><time>2026-04-19T10:24:53.001Z</time></trkpt><trkpt lat="37.59835889891139" lon="-4.2778219358630105"><ele>529.1428571428571</ele><time>2026-04-19T10:24:55.001Z</time></trkpt><trkpt lat="37.59833520261024" lon="-4.277900641688"><ele>529.0</ele><time>2026-04-19T10:24:57.001Z</time></trkpt><trkpt lat="37.598312968195" lon="-4.277994146499542"><ele>529.0</ele><time>2026-04-19T10:24:59.001Z</time></trkpt><trkpt lat="37.59827885167232" lon="-4.2780780945575625"><ele>529.0</ele><time>2026-04-19T10:25:01.001Z</time></trkpt><trkpt lat="37.59825361614443" lon="-4.278170400084259"><ele>529.0</ele><time>2026-04-19T10:25:03.001Z</time></trkpt><trkpt lat="37.598231742407016" lon="-4.278267659920951"><ele>529.0</ele><time>2026-04-19T10:25:05.001Z</time></trkpt><trkpt lat="37.5982229589157" lon="-4.2783776346788"><ele>529.0</ele><time>2026-04-19T10:25:07.001Z</time></trkpt><trkpt lat="37.59820431039274" lon="-4.278488951702288"><ele>529.0</ele><time>2026-04-19T10:25:09.001Z</time></trkpt><trkpt lat="37.598174396430345" lon="-4.278607532908414"><ele>528.6666666666667</ele><time>2026-04-19T10:25:11Z</time></trkpt><trkpt lat="37.598148591304955" lon="-4.278724519674203"><ele>528.3333333333334</ele><time>2026-04-19T10:25:13Z</time></trkpt><trkpt lat="37.598116448230506" lon="-4.278822670002626"><ele>528.0</ele><time>2026-04-19T10:25:15Z</time></trkpt><trkpt lat="37.598086169867145" lon="-4.278912645255159"><ele>527.6666666666666</ele><time>2026-04-19T10:25:17Z</time></trkpt><trkpt lat="37.5980646595706" lon="-4.279000602406857"><ele>527.3333333333333</ele><time>2026-04-19T10:25:19Z</time></trkpt><trkpt lat="37.598038700870596" lon="-4.279090474642151"><ele>527.0</ele><time>2026-04-19T10:25:21Z</time></trkpt><trkpt lat="37.59801838806078" lon="-4.279176822754318"><ele>526.4</ele><time>2026-04-19T10:25:23Z</time></trkpt><trkpt lat="37.5979957984433" lon="-4.279272644787272"><ele>525.8000000000001</ele><time>2026-04-19T10:25:25Z</time></trkpt><trkpt lat="37.59799555281475" lon="-4.279395291797421"><ele>525.2</ele><time>2026-04-19T10:25:27Z</time></trkpt><trkpt lat="37.59798936640648" lon="-4.279524160263582"><ele>524.6</ele><time>2026-04-19T10:25:29Z</time></trkpt><trkpt lat="37.59793603639155" lon="-4.279644348026883"><ele>524.0</ele><time>2026-04-19T10:25:31Z</time></trkpt><trkpt lat="37.59788512130107" lon="-4.279785381523136"><ele>523.4285714285714</ele><time>2026-04-19T10:25:33Z</time></trkpt><trkpt lat="37.59785522901492" lon="-4.279861761174986"><ele>522.8571428571429</ele><time>2026-04-19T10:25:34Z</time></trkpt><trkpt lat="37.59782290559695" lon="-4.279945127142723"><ele>522.2857142857143</ele><time>2026-04-19T10:25:35Z</time></trkpt><trkpt lat="37.59779199873041" lon="-4.280021272119925"><ele>521.7142857142858</ele><time>2026-04-19T10:25:36Z</time></trkpt><trkpt lat="37.59775843665175" lon="-4.280102544567842"><ele>521.1428571428571</ele><time>2026-04-19T10:25:37Z</time></trkpt><trkpt lat="37.59772516116911" lon="-4.280183299438181"><ele>520.5714285714287</ele><time>2026-04-19T10:25:38Z</time></trkpt><trkpt lat="37.597689664461996" lon="-4.280263973607566"><ele>520.0</ele><time>2026-04-19T10:25:39Z</time></trkpt><trkpt lat="37.597654834753165" lon="-4.280335796596712"><ele>519.8333333333334</ele><time>2026-04-19T10:25:40Z</time></trkpt><trkpt lat="37.59761739224727" lon="-4.280445643074803"><ele>519.6666666666667</ele><time>2026-04-19T10:25:42Z</time></trkpt><trkpt lat="37.59765055625162" lon="-4.280537268058262"><ele>519.5</ele><time>2026-04-19T10:25:44Z</time></trkpt><trkpt lat="37.59771761734481" lon="-4.280607543414687"><ele>519.3333333333334</ele><time>2026-04-19T10:25:46Z</time></trkpt><trkpt lat="37.597688744065" lon="-4.280714848057617"><ele>519.1666666666666</ele><time>2026-04-19T10:25:48Z</time></trkpt><trkpt lat="37.59761773057138" lon="-4.280792080880871"><ele>519.0</ele><time>2026-04-19T10:25:50Z</time></trkpt><trkpt lat="37.59754320221278" lon="-4.280868910135562"><ele>518.3333333333334</ele><time>2026-04-19T10:25:52Z</time></trkpt><trkpt lat="37.59745483253125" lon="-4.280917967956294"><ele>517.6666666666666</ele><time>2026-04-19T10:25:54Z</time></trkpt><trkpt lat="37.59738928241622" lon="-4.2809957687766005"><ele>517.0</ele><time>2026-04-19T10:25:57Z</time></trkpt><trkpt lat="37.59734938669274" lon="-4.281071270652887"><ele>516.3333333333333</ele><time>2026-04-19T10:25:59Z</time></trkpt><trkpt lat="37.597306391359794" lon="-4.281179556080957"><ele>515.6666666666666</ele><time>2026-04-19T10:26:01Z</time></trkpt><trkpt lat="37.59729339751581" lon="-4.281287374994198"><ele>515.0</ele><time>2026-04-19T10:26:03Z</time></trkpt><trkpt lat="37.597259997550715" lon="-4.2813699338451405"><ele>514.4285714285714</ele><time>2026-04-19T10:26:05Z</time></trkpt><trkpt lat="37.59724363213754" lon="-4.281453464552949"><ele>513.8571428571429</ele><time>2026-04-19T10:26:07Z</time></trkpt><trkpt lat="37.59719456430143" lon="-4.2815061042037765"><ele>513.2857142857142</ele><time>2026-04-19T10:26:15Z</time></trkpt><trkpt lat="37.59711871826859" lon="-4.281566703123813"><ele>512.7142857142858</ele><time>2026-04-19T10:26:18Z</time></trkpt><trkpt lat="37.59705747545495" lon="-4.281608792833279"><ele>512.1428571428571</ele><time>2026-04-19T10:26:20Z</time></trkpt><trkpt lat="37.59698896285668" lon="-4.281630401964284"><ele>511.57142857142856</ele><time>2026-04-19T10:26:22Z</time></trkpt><trkpt lat="37.59693525029355" lon="-4.281715043089226"><ele>511.0</ele><time>2026-04-19T10:26:24Z</time></trkpt><trkpt lat="37.59690376752806" lon="-4.281809113209513"><ele>510.83333333333337</ele><time>2026-04-19T10:26:26Z</time></trkpt><trkpt lat="37.59685584795812" lon="-4.281898127990939"><ele>510.6666666666667</ele><time>2026-04-19T10:26:28Z</time></trkpt><trkpt lat="37.59682912485113" lon="-4.281991307146218"><ele>510.5</ele><time>2026-04-19T10:26:30Z</time></trkpt><trkpt lat="37.59677123777039" lon="-4.282075263969467"><ele>510.33333333333337</ele><time>2026-04-19T10:26:32Z</time></trkpt><trkpt lat="37.59673523129528" lon="-4.2821706107255855"><ele>510.1666666666667</ele><time>2026-04-19T10:26:34Z</time></trkpt><trkpt lat="37.5966923370546" lon="-4.282254234927556"><ele>510.0</ele><time>2026-04-19T10:26:36Z</time></trkpt><trkpt lat="37.596643827889515" lon="-4.2823404277957655"><ele>510.0</ele><time>2026-04-19T10:26:38Z</time></trkpt><trkpt lat="37.59659614770266" lon="-4.282419848235631"><ele>510.00000000000006</ele><time>2026-04-19T10:26:40Z</time></trkpt><trkpt lat="37.59655030496385" lon="-4.282479484737799"><ele>510.0</ele><time>2026-04-19T10:26:42.001Z</time></trkpt><trkpt lat="37.59655080196568" lon="-4.28257366962467"><ele>510.0</ele><time>2026-04-19T10:26:44.001Z</time></trkpt><trkpt lat="37.596549927948466" lon="-4.282653390514774"><ele>510.00000000000006</ele><time>2026-04-19T10:26:46.001Z</time></trkpt><trkpt lat="37.59656438397029" lon="-4.282761733686749"><ele>510.0</ele><time>2026-04-19T10:26:49.001Z</time></trkpt><trkpt lat="37.596557141104576" lon="-4.282859818959534"><ele>510.0</ele><time>2026-04-19T10:26:52Z</time></trkpt><trkpt lat="37.59655806320003" lon="-4.282977212954051"><ele>510.0</ele><time>2026-04-19T10:26:55Z</time></trkpt><trkpt lat="37.59654848340147" lon="-4.2830737632365405"><ele>510.00000000000006</ele><time>2026-04-19T10:26:57Z</time></trkpt><trkpt lat="37.59653974247605" lon="-4.28316084310644"><ele>510.0</ele><time>2026-04-19T10:26:59Z</time></trkpt><trkpt lat="37.5965295913207" lon="-4.283241120980289"><ele>510.0</ele><time>2026-04-19T10:27:01Z</time></trkpt><trkpt lat="37.59658568032715" lon="-4.283314330090625"><ele>510.00000000000006</ele><time>2026-04-19T10:27:04Z</time></trkpt><trkpt lat="37.59665281969454" lon="-4.283322816938315"><ele>510.0</ele><time>2026-04-19T10:27:06Z</time></trkpt><trkpt lat="37.59671911278903" lon="-4.283338727571057"><ele>510.0</ele><time>2026-04-19T10:27:08Z</time></trkpt><trkpt lat="37.59680062610924" lon="-4.283364180615895"><ele>509.6666666666667</ele><time>2026-04-19T10:27:11Z</time></trkpt><trkpt lat="37.59686992001743" lon="-4.283352236540688"><ele>509.33333333333337</ele><time>2026-04-19T10:27:13Z</time></trkpt><trkpt lat="37.5969452009593" lon="-4.283365029775331"><ele>509.0</ele><time>2026-04-19T10:27:15Z</time></trkpt><trkpt lat="37.59702722857447" lon="-4.283410534438053"><ele>508.6666666666667</ele><time>2026-04-19T10:27:17Z</time></trkpt><trkpt lat="37.597106246619305" lon="-4.283443015508268"><ele>508.33333333333337</ele><time>2026-04-19T10:27:19Z</time></trkpt><trkpt lat="37.597170751674135" lon="-4.283472833732914"><ele>508.0</ele><time>2026-04-19T10:27:21Z</time></trkpt><trkpt lat="37.59722909934383" lon="-4.283515997848383"><ele>508.00000000000006</ele><time>2026-04-19T10:27:23Z</time></trkpt><trkpt lat="37.597304051479405" lon="-4.2835558020907705"><ele>508.0</ele><time>2026-04-19T10:27:26Z</time></trkpt><trkpt lat="37.5973755816554" lon="-4.283589680977088"><ele>508.0</ele><time>2026-04-19T10:27:29Z</time></trkpt><trkpt lat="37.597452943155474" lon="-4.28362033856094"><ele>508.0</ele><time>2026-04-19T10:27:32Z</time></trkpt><trkpt lat="37.59751595310678" lon="-4.283637422929566"><ele>508.00000000000006</ele><time>2026-04-19T10:27:34Z</time></trkpt><trkpt lat="37.59758599954635" lon="-4.28365789237683"><ele>508.0</ele><time>2026-04-19T10:27:36Z</time></trkpt><trkpt lat="37.597653818926204" lon="-4.28369934444458"><ele>508.00000000000006</ele><time>2026-04-19T10:27:38Z</time></trkpt><trkpt lat="37.597678320683485" lon="-4.283790652159772"><ele>508.0</ele><time>2026-04-19T10:27:40Z</time></trkpt><trkpt lat="37.59769740553681" lon="-4.28390000539266"><ele>508.0</ele><time>2026-04-19T10:27:42Z</time></trkpt><trkpt lat="37.597751928856496" lon="-4.28397945445423"><ele>508.0</ele><time>2026-04-19T10:27:44Z</time></trkpt><trkpt lat="37.597783377466335" lon="-4.284056660597892"><ele>508.00000000000006</ele><time>2026-04-19T10:27:46Z</time></trkpt><trkpt lat="37.59783366371915" lon="-4.284134443838936"><ele>508.0</ele><time>2026-04-19T10:27:48Z</time></trkpt><trkpt lat="37.59788937985637" lon="-4.284219931534253"><ele>507.0</ele><time>2026-04-19T10:27:50Z</time></trkpt><trkpt lat="37.59793474869149" lon="-4.284300399345499"><ele>506.0</ele><time>2026-04-19T10:27:52Z</time></trkpt><trkpt lat="37.59797735846399" lon="-4.284379396318999"><ele>505.0</ele><time>2026-04-19T10:27:54Z</time></trkpt><trkpt lat="37.59800279173955" lon="-4.284461033862609"><ele>504.0</ele><time>2026-04-19T10:27:56Z</time></trkpt><trkpt lat="37.59804404538274" lon="-4.28453496162524"><ele>503.0</ele><time>2026-04-19T10:27:58Z</time></trkpt><trkpt lat="37.59808455324681" lon="-4.284609829689231"><ele>502.0</ele><time>2026-04-19T10:28:00Z</time></trkpt><trkpt lat="37.59811730819722" lon="-4.284681162416303"><ele>501.0</ele><time>2026-04-19T10:28:02Z</time></trkpt><trkpt lat="37.59815384529186" lon="-4.284746358808102"><ele>502.1666666666667</ele><time>2026-04-19T10:28:04Z</time></trkpt><trkpt lat="37.59820059315152" lon="-4.28483697462683"><ele>503.33333333333337</ele><time>2026-04-19T10:28:07Z</time></trkpt><trkpt lat="37.59818337585532" lon="-4.2849380152359435"><ele>504.5</ele><time>2026-04-19T10:28:10Z</time></trkpt><trkpt lat="37.59817709016821" lon="-4.285017133042196"><ele>505.6666666666667</ele><time>2026-04-19T10:28:12Z</time></trkpt><trkpt lat="37.59815079819453" lon="-4.285106176749967"><ele>506.83333333333337</ele><time>2026-04-19T10:28:15Z</time></trkpt><trkpt lat="37.59815317203767" lon="-4.28521229351444"><ele>508.0</ele><time>2026-04-19T10:28:18Z</time></trkpt><trkpt lat="37.598147590012836" lon="-4.285326032321351"><ele>508.0</ele><time>2026-04-19T10:28:21.999Z</time></trkpt><trkpt lat="37.59817808210364" lon="-4.285413391335559"><ele>508.0</ele><time>2026-04-19T10:28:24.999Z</time></trkpt><trkpt lat="37.598227262009736" lon="-4.2855047459048"><ele>508.0</ele><time>2026-04-19T10:28:28.999Z</time></trkpt><trkpt lat="37.59824342204103" lon="-4.285586046969294"><ele>508.0</ele><time>2026-04-19T10:28:31.999Z</time></trkpt><trkpt lat="37.59826713905066" lon="-4.28566140567116"><ele>508.0</ele><time>2026-04-19T10:28:34.999Z</time></trkpt><trkpt lat="37.5982886896849" lon="-4.285736919842986"><ele>508.0</ele><time>2026-04-19T10:28:37.999Z</time></trkpt><trkpt lat="37.59833202166377" lon="-4.285803803694639"><ele>508.0</ele><time>2026-04-19T10:28:40.999Z</time></trkpt><trkpt lat="37.59839590454905" lon="-4.28584261394055"><ele>509.42857142857144</ele><time>2026-04-19T10:28:43.999Z</time></trkpt><trkpt lat="37.59846162436787" lon="-4.285884248165388"><ele>510.85714285714283</ele><time>2026-04-19T10:28:47Z</time></trkpt><trkpt lat="37.59851970204245" lon="-4.285940235474261"><ele>512.2857142857142</ele><time>2026-04-19T10:28:50Z</time></trkpt><trkpt lat="37.59857411776473" lon="-4.285987413599146"><ele>513.7142857142858</ele><time>2026-04-19T10:28:53Z</time></trkpt><trkpt lat="37.598609302534356" lon="-4.286069542602181"><ele>515.1428571428571</ele><time>2026-04-19T10:28:56Z</time></trkpt><trkpt lat="37.5986401941878" lon="-4.286147590696661"><ele>516.5714285714286</ele><time>2026-04-19T10:28:59Z</time></trkpt><trkpt lat="37.598642272170245" lon="-4.2862272849129575"><ele>518.0</ele><time>2026-04-19T10:29:02Z</time></trkpt><trkpt lat="37.59867946576938" lon="-4.286302941708115"><ele>518.7142857142857</ele><time>2026-04-19T10:29:05Z</time></trkpt><trkpt lat="37.598681993124124" lon="-4.286393347593372"><ele>519.4285714285714</ele><time>2026-04-19T10:29:08Z</time></trkpt><trkpt lat="37.59868070328534" lon="-4.286482983144177"><ele>520.1428571428571</ele><time>2026-04-19T10:29:12Z</time></trkpt><trkpt lat="37.59869164020631" lon="-4.286561461487415"><ele>520.8571428571429</ele><time>2026-04-19T10:29:17Z</time></trkpt><trkpt lat="37.598696354802144" lon="-4.286643662703868"><ele>521.5714285714286</ele><time>2026-04-19T10:29:21Z</time></trkpt><trkpt lat="37.59868393575186" lon="-4.2867359873167326"><ele>522.2857142857142</ele><time>2026-04-19T10:29:26Z</time></trkpt><trkpt lat="37.5986719556403" lon="-4.286822365445187"><ele>523.0</ele><time>2026-04-19T10:29:30Z</time></trkpt><trkpt lat="37.59867527647563" lon="-4.286923152134588"><ele>522.9999999999999</ele><time>2026-04-19T10:29:34Z</time></trkpt><trkpt lat="37.59867517073593" lon="-4.287005229941319"><ele>523.0</ele><time>2026-04-19T10:29:37Z</time></trkpt><trkpt lat="37.598674095061675" lon="-4.287096098821212"><ele>523.0</ele><time>2026-04-19T10:29:40Z</time></trkpt><trkpt lat="37.59867462084895" lon="-4.287210323368323"><ele>523.0</ele><time>2026-04-19T10:29:43Z</time></trkpt><trkpt lat="37.59867680292219" lon="-4.2872912186357786"><ele>523.0</ele><time>2026-04-19T10:29:45Z</time></trkpt><trkpt lat="37.59867330925143" lon="-4.287380946375624"><ele>522.9999999999999</ele><time>2026-04-19T10:29:47Z</time></trkpt><trkpt lat="37.59866376313395" lon="-4.287475128577777"><ele>523.0</ele><time>2026-04-19T10:29:49Z</time></trkpt><trkpt lat="37.59864622021509" lon="-4.28757546968996"><ele>523.0</ele><time>2026-04-19T10:29:51Z</time></trkpt><trkpt lat="37.59864329168017" lon="-4.287710421759509"><ele>523.0</ele><time>2026-04-19T10:29:53Z</time></trkpt><trkpt lat="37.59866275108361" lon="-4.287835262943457"><ele>523.0</ele><time>2026-04-19T10:29:55Z</time></trkpt><trkpt lat="37.59867832965554" lon="-4.287960964733069"><ele>523.0</ele><time>2026-04-19T10:29:57Z</time></trkpt><trkpt lat="37.59868774211459" lon="-4.288084532348383"><ele>523.0</ele><time>2026-04-19T10:29:59Z</time></trkpt><trkpt lat="37.59869913030897" lon="-4.288194523847487"><ele>523.2857142857142</ele><time>2026-04-19T10:30:01Z</time></trkpt><trkpt lat="37.59870644616309" lon="-4.2882839497027385"><ele>523.5714285714286</ele><time>2026-04-19T10:30:03Z</time></trkpt><trkpt lat="37.59871400056947" lon="-4.28837031252641"><ele>523.8571428571429</ele><time>2026-04-19T10:30:04.999Z</time></trkpt><trkpt lat="37.59871202741676" lon="-4.2884666395393305"><ele>524.1428571428571</ele><time>2026-04-19T10:30:06.999Z</time></trkpt><trkpt lat="37.598703466950965" lon="-4.288557293108611"><ele>524.4285714285714</ele><time>2026-04-19T10:30:08.999Z</time></trkpt><trkpt lat="37.59871771091129" lon="-4.2886581905208345"><ele>524.7142857142857</ele><time>2026-04-19T10:30:11.999Z</time></trkpt><trkpt lat="37.59875877755364" lon="-4.288721027436978"><ele>525.0</ele><time>2026-04-19T10:30:13.999Z</time></trkpt><trkpt lat="37.59880054246741" lon="-4.288788738115188"><ele>525.0</ele><time>2026-04-19T10:30:15.999Z</time></trkpt><trkpt lat="37.598838828860735" lon="-4.288857283702138"><ele>525.0</ele><time>2026-04-19T10:30:17.999Z</time></trkpt><trkpt lat="37.5988774424661" lon="-4.288922249219512"><ele>525.0</ele><time>2026-04-19T10:30:19.999Z</time></trkpt><trkpt lat="37.59892598775902" lon="-4.289021505517793"><ele>525.0</ele><time>2026-04-19T10:30:22.999Z</time></trkpt><trkpt lat="37.5989790961937" lon="-4.289115214443285"><ele>525.0</ele><time>2026-04-19T10:30:25.999Z</time></trkpt><trkpt lat="37.59903727654515" lon="-4.289202129590252"><ele>525.0</ele><time>2026-04-19T10:30:28.999Z</time></trkpt><trkpt lat="37.599085724106956" lon="-4.289291006031033"><ele>525.1666666666666</ele><time>2026-04-19T10:30:31.999Z</time></trkpt><trkpt lat="37.59913851889677" lon="-4.289383958209647"><ele>525.3333333333334</ele><time>2026-04-19T10:30:34.999Z</time></trkpt><trkpt lat="37.59919335403788" lon="-4.2894759130254885"><ele>525.5</ele><time>2026-04-19T10:30:37.999Z</time></trkpt><trkpt lat="37.5992313053322" lon="-4.289540949488275"><ele>525.6666666666667</ele><time>2026-04-19T10:30:39.999Z</time></trkpt><trkpt lat="37.599289917133895" lon="-4.289635935645994"><ele>525.8333333333334</ele><time>2026-04-19T10:30:42.999Z</time></trkpt><trkpt lat="37.59933159784229" lon="-4.289706111492633"><ele>526.0</ele><time>2026-04-19T10:30:44.999Z</time></trkpt><trkpt lat="37.599376306541544" lon="-4.289785344893935"><ele>525.6666666666667</ele><time>2026-04-19T10:30:46.999Z</time></trkpt><trkpt lat="37.59942270181129" lon="-4.289855591989518"><ele>525.3333333333334</ele><time>2026-04-19T10:30:48.999Z</time></trkpt><trkpt lat="37.59946142591829" lon="-4.28992687241381"><ele>525.0</ele><time>2026-04-19T10:30:50.999Z</time></trkpt><trkpt lat="37.59950564512296" lon="-4.290005467413282"><ele>524.6666666666666</ele><time>2026-04-19T10:30:53Z</time></trkpt><trkpt lat="37.59954037804093" lon="-4.290099164786891"><ele>524.3333333333333</ele><time>2026-04-19T10:30:55Z</time></trkpt><trkpt lat="37.59956451616214" lon="-4.290219163493826"><ele>524.0</ele><time>2026-04-19T10:30:57Z</time></trkpt><trkpt lat="37.599613032097736" lon="-4.290344790168097"><ele>523.8</ele><time>2026-04-19T10:30:59Z</time></trkpt><trkpt lat="37.5996749325121" lon="-4.290468414469699"><ele>523.5999999999999</ele><time>2026-04-19T10:31:01Z</time></trkpt><trkpt lat="37.59973029115939" lon="-4.290582250758364"><ele>523.4</ele><time>2026-04-19T10:31:03Z</time></trkpt><trkpt lat="37.59978512699105" lon="-4.290708234610713"><ele>523.1999999999999</ele><time>2026-04-19T10:31:05Z</time></trkpt><trkpt lat="37.599827750618715" lon="-4.290834346418511"><ele>523.0</ele><time>2026-04-19T10:31:07Z</time></trkpt><trkpt lat="37.59984932348767" lon="-4.290933259783383"><ele>523.6</ele><time>2026-04-19T10:31:09Z</time></trkpt><trkpt lat="37.59980256693763" lon="-4.291053574650825"><ele>524.1999999999999</ele><time>2026-04-19T10:31:12Z</time></trkpt><trkpt lat="37.599790751449234" lon="-4.291150386771612"><ele>524.8</ele><time>2026-04-19T10:31:14Z</time></trkpt><trkpt lat="37.59976799253023" lon="-4.291252710584459"><ele>525.4</ele><time>2026-04-19T10:31:16Z</time></trkpt><trkpt lat="37.599798483616375" lon="-4.291368454840893"><ele>526.0</ele><time>2026-04-19T10:31:18Z</time></trkpt><trkpt lat="37.599833019471504" lon="-4.2914800584064725"><ele>526.0</ele><time>2026-04-19T10:31:20Z</time></trkpt><trkpt lat="37.59982962054482" lon="-4.291611576769579"><ele>526.0</ele><time>2026-04-19T10:31:22Z</time></trkpt><trkpt lat="37.599856232557464" lon="-4.291748994479168"><ele>526.0</ele><time>2026-04-19T10:31:24Z</time></trkpt><trkpt lat="37.59989139008068" lon="-4.29189344758956"><ele>526.0</ele><time>2026-04-19T10:31:26Z</time></trkpt><trkpt lat="37.59992238710748" lon="-4.292038044394849"><ele>526.0</ele><time>2026-04-19T10:31:28Z</time></trkpt><trkpt lat="37.59994914449779" lon="-4.292184583163667"><ele>526.0</ele><time>2026-04-19T10:31:30Z</time></trkpt><trkpt lat="37.59998500152447" lon="-4.292315222888392"><ele>526.0</ele><time>2026-04-19T10:31:32Z</time></trkpt><trkpt lat="37.60001506241708" lon="-4.2924601265967555"><ele>526.0</ele><time>2026-04-19T10:31:34Z</time></trkpt><trkpt lat="37.60004980879198" lon="-4.2926038660621435"><ele>525.8</ele><time>2026-04-19T10:31:36Z</time></trkpt><trkpt lat="37.60008505793489" lon="-4.292745990887953"><ele>525.6</ele><time>2026-04-19T10:31:38Z</time></trkpt><trkpt lat="37.60011096429256" lon="-4.292882821871081"><ele>525.4</ele><time>2026-04-19T10:31:40Z</time></trkpt><trkpt lat="37.60012995066663" lon="-4.292995245371228"><ele>525.2</ele><time>2026-04-19T10:31:42Z</time></trkpt><trkpt lat="37.60014600416975" lon="-4.29309273872952"><ele>525.0</ele><time>2026-04-19T10:31:44Z</time></trkpt><trkpt lat="37.60016095228447" lon="-4.293198867923933"><ele>524.7142857142857</ele><time>2026-04-19T10:31:46Z</time></trkpt><trkpt lat="37.60016505913506" lon="-4.293288030078539"><ele>524.4285714285714</ele><time>2026-04-19T10:31:48Z</time></trkpt><trkpt lat="37.60016378363641" lon="-4.29338025424613"><ele>524.1428571428571</ele><time>2026-04-19T10:31:50Z</time></trkpt><trkpt lat="37.6001704121432" lon="-4.293469071449083"><ele>523.8571428571429</ele><time>2026-04-19T10:31:52Z</time></trkpt><trkpt lat="37.60018829397629" lon="-4.293558824617251"><ele>523.5714285714286</ele><time>2026-04-19T10:31:54Z</time></trkpt><trkpt lat="37.60023823632255" lon="-4.293617698435907"><ele>523.2857142857142</ele><time>2026-04-19T10:31:56Z</time></trkpt><trkpt lat="37.60029210081183" lon="-4.293659701063838"><ele>523.0</ele><time>2026-04-19T10:31:58Z</time></trkpt><trkpt lat="37.600337747812816" lon="-4.293719792707918"><ele>524.3333333333334</ele><time>2026-04-19T10:31:59.999Z</time></trkpt><trkpt lat="37.60039158014744" lon="-4.2937767459298035"><ele>525.6666666666667</ele><time>2026-04-19T10:32:01.999Z</time></trkpt><trkpt lat="37.60046777885674" lon="-4.293809973103056"><ele>527.0</ele><time>2026-04-19T10:32:04.999Z</time></trkpt><trkpt lat="37.60050424288397" lon="-4.293887532873288"><ele>528.3333333333334</ele><time>2026-04-19T10:32:09.999Z</time></trkpt><trkpt lat="37.60055824332198" lon="-4.2939371821914545"><ele>529.6666666666666</ele><time>2026-04-19T10:33:21Z</time></trkpt><trkpt lat="37.600578445197684" lon="-4.294046185268353"><ele>531.0</ele><time>2026-04-19T10:33:25Z</time></trkpt><trkpt lat="37.6005451982213" lon="-4.29419334652677"><ele>531.0</ele><time>2026-04-19T10:33:27Z</time></trkpt><trkpt lat="37.60052555100034" lon="-4.294344820832087"><ele>531.0</ele><time>2026-04-19T10:33:29Z</time></trkpt><trkpt lat="37.60052938761042" lon="-4.294501104438495"><ele>531.0</ele><time>2026-04-19T10:33:31Z</time></trkpt><trkpt lat="37.60050391282917" lon="-4.294584501471019"><ele>531.0</ele><time>2026-04-19T10:33:32Z</time></trkpt><trkpt lat="37.60048149894517" lon="-4.294684522524729"><ele>531.0</ele><time>2026-04-19T10:33:33Z</time></trkpt><trkpt lat="37.60047422010693" lon="-4.294775278866783"><ele>530.5</ele><time>2026-04-19T10:33:34Z</time></trkpt><trkpt lat="37.60046434564769" lon="-4.294876473070933"><ele>530.0</ele><time>2026-04-19T10:33:35Z</time></trkpt><trkpt lat="37.600458333257464" lon="-4.294970176344167"><ele>529.5</ele><time>2026-04-19T10:33:36Z</time></trkpt><trkpt lat="37.600449902164215" lon="-4.295049336131944"><ele>529.0</ele><time>2026-04-19T10:33:37Z</time></trkpt><trkpt lat="37.60044306552895" lon="-4.295128755357019"><ele>528.5</ele><time>2026-04-19T10:33:38Z</time></trkpt><trkpt lat="37.60041647086907" lon="-4.295269441332398"><ele>528.0</ele><time>2026-04-19T10:33:40Z</time></trkpt><trkpt lat="37.60039381427832" lon="-4.29539872387421"><ele>528.0</ele><time>2026-04-19T10:33:42Z</time></trkpt><trkpt lat="37.60037958233941" lon="-4.295517097289203"><ele>528.0</ele><time>2026-04-19T10:33:44Z</time></trkpt><trkpt lat="37.60036802297102" lon="-4.295617547219236"><ele>528.0</ele><time>2026-04-19T10:33:46Z</time></trkpt><trkpt lat="37.60035645257302" lon="-4.29570407668606"><ele>528.0</ele><time>2026-04-19T10:33:48Z</time></trkpt><trkpt lat="37.60034499101806" lon="-4.295830800046878"><ele>528.0</ele><time>2026-04-19T10:33:51Z</time></trkpt><trkpt lat="37.60033055694951" lon="-4.295929438410106"><ele>528.0</ele><time>2026-04-19T10:33:53Z</time></trkpt><trkpt lat="37.600314957519075" lon="-4.296022566076984"><ele>528.0</ele><time>2026-04-19T10:33:55Z</time></trkpt><trkpt lat="37.60030247214058" lon="-4.296114533529552"><ele>528.0</ele><time>2026-04-19T10:33:57Z</time></trkpt><trkpt lat="37.600256279141" lon="-4.296176165663276"><ele>528.0</ele><time>2026-04-19T10:33:59Z</time></trkpt><trkpt lat="37.60018849575983" lon="-4.296205644110429"><ele>528.0</ele><time>2026-04-19T10:34:01Z</time></trkpt><trkpt lat="37.60011418186328" lon="-4.296193245383747"><ele>528.0</ele><time>2026-04-19T10:34:03Z</time></trkpt><trkpt lat="37.600039444769656" lon="-4.296173184290735"><ele>528.0</ele><time>2026-04-19T10:34:05Z</time></trkpt><trkpt lat="37.59996910634229" lon="-4.296159099594131"><ele>528.0</ele><time>2026-04-19T10:34:07Z</time></trkpt><trkpt lat="37.59988495336237" lon="-4.2961495399653"><ele>528.0</ele><time>2026-04-19T10:34:09Z</time></trkpt><trkpt lat="37.599803681020816" lon="-4.296137152589106"><ele>528.0</ele><time>2026-04-19T10:34:11Z</time></trkpt><trkpt lat="37.59972022774919" lon="-4.296141551335871"><ele>528.0</ele><time>2026-04-19T10:34:14Z</time></trkpt><trkpt lat="37.599626299263385" lon="-4.296149766659103"><ele>528.0</ele><time>2026-04-19T10:34:16.999Z</time></trkpt><trkpt lat="37.599546735246776" lon="-4.296156375949088"><ele>528.0</ele><time>2026-04-19T10:34:19.999Z</time></trkpt><trkpt lat="37.59946535552514" lon="-4.296183158590185"><ele>528.0</ele><time>2026-04-19T10:34:22.999Z</time></trkpt><trkpt lat="37.5993822080901" lon="-4.296223753162662"><ele>527.6666666666666</ele><time>2026-04-19T10:34:25.999Z</time></trkpt><trkpt lat="37.599320642503606" lon="-4.296248372199828"><ele>527.3333333333334</ele><time>2026-04-19T10:34:27.999Z</time></trkpt><trkpt lat="37.599266194190214" lon="-4.296305707990289"><ele>527.0</ele><time>2026-04-19T10:34:29.999Z</time></trkpt><trkpt lat="37.59921520260018" lon="-4.296383131963018"><ele>526.6666666666667</ele><time>2026-04-19T10:34:31.999Z</time></trkpt><trkpt lat="37.59917174332927" lon="-4.296464673975463"><ele>526.3333333333334</ele><time>2026-04-19T10:34:33.999Z</time></trkpt><trkpt lat="37.59910888040958" lon="-4.296539281346446"><ele>526.0</ele><time>2026-04-19T10:34:35.999Z</time></trkpt><trkpt lat="37.599078174838375" lon="-4.296637867166325"><ele>526.8</ele><time>2026-04-19T10:34:37.999Z</time></trkpt><trkpt lat="37.59904995943334" lon="-4.296729531754401"><ele>527.6</ele><time>2026-04-19T10:34:39.999Z</time></trkpt><trkpt lat="37.59899264341592" lon="-4.296824352334656"><ele>528.4</ele><time>2026-04-19T10:34:41.999Z</time></trkpt><trkpt lat="37.59893661755506" lon="-4.29694483036798"><ele>529.2</ele><time>2026-04-19T10:34:43.999Z</time></trkpt><trkpt lat="37.598895754784834" lon="-4.297089704915545"><ele>530.0</ele><time>2026-04-19T10:34:45.999Z</time></trkpt><trkpt lat="37.59882565739152" lon="-4.297230128301501"><ele>529.1666666666666</ele><time>2026-04-19T10:34:47.999Z</time></trkpt><trkpt lat="37.598787498530164" lon="-4.297309286768452"><ele>528.3333333333333</ele><time>2026-04-19T10:34:48.999Z</time></trkpt><trkpt lat="37.59875500991295" lon="-4.29738845205144"><ele>527.5</ele><time>2026-04-19T10:34:49.999Z</time></trkpt><trkpt lat="37.598723017124854" lon="-4.297462693100996"><ele>526.6666666666666</ele><time>2026-04-19T10:34:50.999Z</time></trkpt><trkpt lat="37.598675564622425" lon="-4.2975229006140125"><ele>525.8333333333334</ele><time>2026-04-19T10:34:51.999Z</time></trkpt><trkpt lat="37.598598311228976" lon="-4.297620584493835"><ele>525.0</ele><time>2026-04-19T10:34:53.999Z</time></trkpt><trkpt lat="37.598548538388236" lon="-4.297689095363344"><ele>524.8333333333334</ele><time>2026-04-19T10:34:55.999Z</time></trkpt><trkpt lat="37.598475133351" lon="-4.297740871004979"><ele>524.6666666666666</ele><time>2026-04-19T10:34:57.999Z</time></trkpt><trkpt lat="37.598403542426325" lon="-4.297801225096524"><ele>524.5</ele><time>2026-04-19T10:34:59.999Z</time></trkpt><trkpt lat="37.598367284196826" lon="-4.29788580350632"><ele>524.3333333333333</ele><time>2026-04-19T10:35:01.999Z</time></trkpt><trkpt lat="37.59831858987693" lon="-4.297960574310024"><ele>524.1666666666666</ele><time>2026-04-19T10:35:03.999Z</time></trkpt><trkpt lat="37.59826479933206" lon="-4.298034418382225"><ele>524.0</ele><time>2026-04-19T10:35:06Z</time></trkpt><trkpt lat="37.598206760258144" lon="-4.298125854402066"><ele>524.0</ele><time>2026-04-19T10:35:08Z</time></trkpt><trkpt lat="37.59820851747076" lon="-4.2982205513762795"><ele>524.0</ele><time>2026-04-19T10:35:11Z</time></trkpt><trkpt lat="37.59823613095018" lon="-4.298307368216214"><ele>524.0</ele><time>2026-04-19T10:35:14Z</time></trkpt><trkpt lat="37.59824373573937" lon="-4.298399571410073"><ele>524.0</ele><time>2026-04-19T10:35:17Z</time></trkpt><trkpt lat="37.598241713274525" lon="-4.298494320682595"><ele>524.0</ele><time>2026-04-19T10:35:20Z</time></trkpt><trkpt lat="37.59824381745043" lon="-4.298594224920036"><ele>524.0</ele><time>2026-04-19T10:35:23Z</time></trkpt><trkpt lat="37.5982666833" lon="-4.298713314972619"><ele>524.0</ele><time>2026-04-19T10:35:26Z</time></trkpt><trkpt lat="37.59825245540782" lon="-4.298818108461752"><ele>524.0</ele><time>2026-04-19T10:35:28Z</time></trkpt><trkpt lat="37.59824854376825" lon="-4.298947397375837"><ele>524.0</ele><time>2026-04-19T10:35:30Z</time></trkpt><trkpt lat="37.598194420002976" lon="-4.299066527273911"><ele>524.0</ele><time>2026-04-19T10:35:32Z</time></trkpt><trkpt lat="37.59811163311526" lon="-4.299189444069865"><ele>524.0</ele><time>2026-04-19T10:35:34Z</time></trkpt><trkpt lat="37.598059145610655" lon="-4.2993120524406265"><ele>522.2</ele><time>2026-04-19T10:35:36Z</time></trkpt><trkpt lat="37.59811204292809" lon="-4.299419937381874"><ele>520.4</ele><time>2026-04-19T10:35:38Z</time></trkpt><trkpt lat="37.5981512357243" lon="-4.299563844589202"><ele>518.6</ele><time>2026-04-19T10:35:40Z</time></trkpt><trkpt lat="37.59818734417803" lon="-4.299708362009501"><ele>516.8</ele><time>2026-04-19T10:35:42Z</time></trkpt><trkpt lat="37.59821935574313" lon="-4.299816809286957"><ele>515.0</ele><time>2026-04-19T10:35:44Z</time></trkpt><trkpt lat="37.59827320612874" lon="-4.299907396673397"><ele>513.5</ele><time>2026-04-19T10:35:46Z</time></trkpt><trkpt lat="37.598234151732285" lon="-4.300062680429246"><ele>512.0</ele><time>2026-04-19T10:35:48Z</time></trkpt><trkpt lat="37.59821104798891" lon="-4.300184564440181"><ele>510.5</ele><time>2026-04-19T10:35:50Z</time></trkpt><trkpt lat="37.59824691919965" lon="-4.300251288143557"><ele>509.0</ele><time>2026-04-19T10:35:52Z</time></trkpt><trkpt lat="37.59829570127434" lon="-4.300330617395576"><ele>507.49999999999994</ele><time>2026-04-19T10:35:55Z</time></trkpt><trkpt lat="37.59828417248547" lon="-4.300415035069175"><ele>506.0</ele><time>2026-04-19T10:35:57Z</time></trkpt><trkpt lat="37.598271609675585" lon="-4.300526801445947"><ele>504.57142857142867</ele><time>2026-04-19T10:36:00Z</time></trkpt><trkpt lat="37.598280851777574" lon="-4.300621510674771"><ele>503.14285714285717</ele><time>2026-04-19T10:36:02Z</time></trkpt><trkpt lat="37.59832883189413" lon="-4.300675306907871"><ele>501.7142857142858</ele><time>2026-04-19T10:36:04Z</time></trkpt><trkpt lat="37.59840186979406" lon="-4.300748500118436"><ele>500.28571428571433</ele><time>2026-04-19T10:36:07Z</time></trkpt><trkpt lat="37.5984595624955" lon="-4.3008017722190255"><ele>498.8571428571429</ele><time>2026-04-19T10:36:09Z</time></trkpt><trkpt lat="37.598501389913466" lon="-4.300877735993111"><ele>497.42857142857144</ele><time>2026-04-19T10:36:11Z</time></trkpt><trkpt lat="37.59851631517261" lon="-4.30095647598174"><ele>496.0</ele><time>2026-04-19T10:36:13Z</time></trkpt><trkpt lat="37.59849966721718" lon="-4.301058414471859"><ele>496.00000000000006</ele><time>2026-04-19T10:36:15Z</time></trkpt><trkpt lat="37.59847872233317" lon="-4.301157196360988"><ele>496.0</ele><time>2026-04-19T10:36:17Z</time></trkpt><trkpt lat="37.59845894064446" lon="-4.30126402427431"><ele>496.0</ele><time>2026-04-19T10:36:19Z</time></trkpt><trkpt lat="37.59842772167866" lon="-4.301346250671588"><ele>496.0</ele><time>2026-04-19T10:36:21Z</time></trkpt><trkpt lat="37.598465665844564" lon="-4.301426181264243"><ele>496.00000000000006</ele><time>2026-04-19T10:36:23Z</time></trkpt><trkpt lat="37.59853876193816" lon="-4.301488814621458"><ele>496.0</ele><time>2026-04-19T10:36:25Z</time></trkpt><trkpt lat="37.598610906019054" lon="-4.301556462325366"><ele>493.83333333333337</ele><time>2026-04-19T10:36:27Z</time></trkpt><trkpt lat="37.59857459579439" lon="-4.301660502760033"><ele>491.6666666666667</ele><time>2026-04-19T10:36:28.999Z</time></trkpt><trkpt lat="37.59853439210885" lon="-4.301770316770842"><ele>489.5</ele><time>2026-04-19T10:36:30.999Z</time></trkpt><trkpt lat="37.59850747682241" lon="-4.301863268185824"><ele>487.33333333333337</ele><time>2026-04-19T10:36:32.999Z</time></trkpt><trkpt lat="37.598463238827755" lon="-4.301919882461192"><ele>485.1666666666667</ele><time>2026-04-19T10:36:35.999Z</time></trkpt><trkpt lat="37.59840255777045" lon="-4.301980489548954"><ele>483.0</ele><time>2026-04-19T10:36:38.999Z</time></trkpt><trkpt lat="37.59832208375032" lon="-4.3020551308475685"><ele>483.0</ele><time>2026-04-19T10:36:41.999Z</time></trkpt><trkpt lat="37.59827452579909" lon="-4.302118546414017"><ele>483.0</ele><time>2026-04-19T10:36:45.999Z</time></trkpt><trkpt lat="37.59825681195366" lon="-4.302204935432277"><ele>483.0</ele><time>2026-04-19T10:42:08Z</time></trkpt><trkpt lat="37.59820075961733" lon="-4.302260868399926"><ele>483.0</ele><time>2026-04-19T10:42:12Z</time></trkpt><trkpt lat="37.5981451761049" lon="-4.302319762654821"><ele>483.0</ele><time>2026-04-19T10:42:15Z</time></trkpt><trkpt lat="37.59813634095233" lon="-4.3024049792662495"><ele>483.0</ele><time>2026-04-19T10:42:17Z</time></trkpt><trkpt lat="37.59813585780268" lon="-4.302496063747091"><ele>483.0</ele><time>2026-04-19T10:42:19Z</time></trkpt><trkpt lat="37.59812782107414" lon="-4.302579793444485"><ele>480.5</ele><time>2026-04-19T10:42:21Z</time></trkpt><trkpt lat="37.59812524438935" lon="-4.302675484024037"><ele>478.0</ele><time>2026-04-19T10:42:23Z</time></trkpt><trkpt lat="37.598138323208936" lon="-4.302766679718362"><ele>475.5</ele><time>2026-04-19T10:42:25Z</time></trkpt><trkpt lat="37.598185554991765" lon="-4.30282745767558"><ele>473.0</ele><time>2026-04-19T10:42:27Z</time></trkpt><trkpt lat="37.59822240101783" lon="-4.302906317061827"><ele>470.5</ele><time>2026-04-19T10:42:29Z</time></trkpt><trkpt lat="37.59828605637951" lon="-4.3029873659765405"><ele>468.0</ele><time>2026-04-19T10:42:32Z</time></trkpt><trkpt lat="37.59825121406915" lon="-4.303085029701167"><ele>466.3333333333333</ele><time>2026-04-19T10:42:35Z</time></trkpt><trkpt lat="37.59828622309255" lon="-4.303165697342994"><ele>464.66666666666663</ele><time>2026-04-19T10:42:37Z</time></trkpt><trkpt lat="37.59836150785804" lon="-4.3032427656748515"><ele>463.0</ele><time>2026-04-19T10:42:39Z</time></trkpt><trkpt lat="37.59843265640186" lon="-4.303352118222015"><ele>461.3333333333333</ele><time>2026-04-19T10:42:41Z</time></trkpt><trkpt lat="37.59847863806604" lon="-4.303408448734329"><ele>459.66666666666663</ele><time>2026-04-19T10:42:42Z</time></trkpt><trkpt lat="37.59852889775399" lon="-4.303462925780339"><ele>458.0</ele><time>2026-04-19T10:42:43Z</time></trkpt><trkpt lat="37.59858321144436" lon="-4.303519216332451"><ele>458.0</ele><time>2026-04-19T10:42:44Z</time></trkpt><trkpt lat="37.598640508221244" lon="-4.30357057784771"><ele>458.0</ele><time>2026-04-19T10:42:45Z</time></trkpt><trkpt lat="37.59870572600336" lon="-4.3036107168395"><ele>458.0</ele><time>2026-04-19T10:42:46Z</time></trkpt><trkpt lat="37.59877144734163" lon="-4.30364919476379"><ele>458.0</ele><time>2026-04-19T10:42:47Z</time></trkpt><trkpt lat="37.59884573662887" lon="-4.303679034939211"><ele>458.0</ele><time>2026-04-19T10:42:48Z</time></trkpt><trkpt lat="37.59891867364427" lon="-4.303703450268516"><ele>458.0</ele><time>2026-04-19T10:42:49Z</time></trkpt><trkpt lat="37.598994210157876" lon="-4.303721905725482"><ele>458.0</ele><time>2026-04-19T10:42:50Z</time></trkpt><trkpt lat="37.599068299225564" lon="-4.303733673357508"><ele>457.42857142857144</ele><time>2026-04-19T10:42:51Z</time></trkpt><trkpt lat="37.59914244745153" lon="-4.303743372853561"><ele>456.8571428571429</ele><time>2026-04-19T10:42:52Z</time></trkpt><trkpt lat="37.59921820244409" lon="-4.303754984526581"><ele>456.28571428571433</ele><time>2026-04-19T10:42:53Z</time></trkpt><trkpt lat="37.599290173671925" lon="-4.303764883806767"><ele>455.7142857142857</ele><time>2026-04-19T10:42:54Z</time></trkpt><trkpt lat="37.599359003284505" lon="-4.303770680967619"><ele>455.1428571428572</ele><time>2026-04-19T10:42:55Z</time></trkpt><trkpt lat="37.59942927523123" lon="-4.303778964555315"><ele>454.5714285714286</ele><time>2026-04-19T10:42:56Z</time></trkpt><trkpt lat="37.59950083391224" lon="-4.3037842067769665"><ele>454.0</ele><time>2026-04-19T10:42:56.999Z</time></trkpt><trkpt lat="37.59957054549318" lon="-4.303794713022665"><ele>453.33333333333337</ele><time>2026-04-19T10:42:57.999Z</time></trkpt><trkpt lat="37.59964308896309" lon="-4.303794359730819"><ele>452.6666666666667</ele><time>2026-04-19T10:42:58.999Z</time></trkpt><trkpt lat="37.599722844433856" lon="-4.303782510894102"><ele>452.0</ele><time>2026-04-19T10:42:59.999Z</time></trkpt><trkpt lat="37.599795854755946" lon="-4.303771003557811"><ele>451.33333333333337</ele><time>2026-04-19T10:43:00.999Z</time></trkpt><trkpt lat="37.59987220657793" lon="-4.303765695896145"><ele>450.6666666666667</ele><time>2026-04-19T10:43:01.999Z</time></trkpt><trkpt lat="37.59993934974643" lon="-4.3037498699253325"><ele>450.0</ele><time>2026-04-19T10:43:02.999Z</time></trkpt><trkpt lat="37.60002950913966" lon="-4.303732681940069"><ele>450.0</ele><time>2026-04-19T10:43:03.999Z</time></trkpt><trkpt lat="37.60012030538871" lon="-4.30372031229243"><ele>450.0</ele><time>2026-04-19T10:43:04.999Z</time></trkpt><trkpt lat="37.60021255730664" lon="-4.303716106276061"><ele>450.0</ele><time>2026-04-19T10:43:05.999Z</time></trkpt><trkpt lat="37.6002994567284" lon="-4.303726040359247"><ele>450.0</ele><time>2026-04-19T10:43:06.999Z</time></trkpt><trkpt lat="37.60037342601551" lon="-4.3037408893936675"><ele>450.0</ele><time>2026-04-19T10:43:07.999Z</time></trkpt><trkpt lat="37.60046822488139" lon="-4.303781703630883"><ele>450.0</ele><time>2026-04-19T10:43:09.999Z</time></trkpt><trkpt lat="37.60055186035804" lon="-4.303822304650179"><ele>449.8</ele><time>2026-04-19T10:43:12.999Z</time></trkpt><trkpt lat="37.60060015648696" lon="-4.303894104578153"><ele>449.6</ele><time>2026-04-19T10:43:14.999Z</time></trkpt><trkpt lat="37.60062201705547" lon="-4.303996585829186"><ele>449.4</ele><time>2026-04-19T10:43:16.999Z</time></trkpt><trkpt lat="37.600620673687544" lon="-4.3041138583151435"><ele>449.2</ele><time>2026-04-19T10:43:18.999Z</time></trkpt><trkpt lat="37.6006085494705" lon="-4.304247383886265"><ele>449.0</ele><time>2026-04-19T10:43:20.999Z</time></trkpt><trkpt lat="37.60061834858178" lon="-4.304382430929616"><ele>448.2</ele><time>2026-04-19T10:43:22.999Z</time></trkpt><trkpt lat="37.60066971887813" lon="-4.304496191070819"><ele>447.4</ele><time>2026-04-19T10:43:24.999Z</time></trkpt><trkpt lat="37.600771395052" lon="-4.30455086709133"><ele>446.6</ele><time>2026-04-19T10:43:27.001Z</time></trkpt><trkpt lat="37.60089036709938" lon="-4.3045562754444555"><ele>445.8</ele><time>2026-04-19T10:43:29.001Z</time></trkpt><trkpt lat="37.6009983210684" lon="-4.304556903305093"><ele>445.0</ele><time>2026-04-19T10:43:31.001Z</time></trkpt><trkpt lat="37.601110789742776" lon="-4.304579089623979"><ele>445.0</ele><time>2026-04-19T10:43:33.001Z</time></trkpt><trkpt lat="37.60120433584145" lon="-4.304639631226309"><ele>445.0</ele><time>2026-04-19T10:43:35.001Z</time></trkpt><trkpt lat="37.60126466033386" lon="-4.304736455172411"><ele>445.0</ele><time>2026-04-19T10:43:37.001Z</time></trkpt><trkpt lat="37.60127393418442" lon="-4.304864158740586"><ele>445.0</ele><time>2026-04-19T10:43:39.001Z</time></trkpt><trkpt lat="37.60128276940396" lon="-4.3049946067842395"><ele>445.0</ele><time>2026-04-19T10:43:41.001Z</time></trkpt><trkpt lat="37.601291464432606" lon="-4.305128238764974"><ele>445.0</ele><time>2026-04-19T10:43:43.001Z</time></trkpt><trkpt lat="37.601296581529816" lon="-4.305269198431844"><ele>445.0</ele><time>2026-04-19T10:43:45Z</time></trkpt><trkpt lat="37.60130686283881" lon="-4.3054193639249485"><ele>445.0</ele><time>2026-04-19T10:43:47Z</time></trkpt><trkpt lat="37.60131896392214" lon="-4.305577019433225"><ele>445.0</ele><time>2026-04-19T10:43:49Z</time></trkpt><trkpt lat="37.601328604240116" lon="-4.305657668308194"><ele>445.0</ele><time>2026-04-19T10:43:50Z</time></trkpt><trkpt lat="37.60134568985123" lon="-4.30579857617322"><ele>444.0</ele><time>2026-04-19T10:43:52Z</time></trkpt><trkpt lat="37.6013634141269" lon="-4.305882881703508"><ele>443.0</ele><time>2026-04-19T10:43:54Z</time></trkpt><trkpt lat="37.601304151926044" lon="-4.305959651429609"><ele>442.0</ele><time>2026-04-19T10:43:57Z</time></trkpt><trkpt lat="37.60127576344861" lon="-4.306044511163645"><ele>441.0</ele><time>2026-04-19T10:43:59Z</time></trkpt><trkpt lat="37.60134943869303" lon="-4.306165889865741"><ele>440.0</ele><time>2026-04-19T10:44:01Z</time></trkpt><trkpt lat="37.60141714870506" lon="-4.3062834812133515"><ele>439.99999999999994</ele><time>2026-04-19T10:44:03Z</time></trkpt><trkpt lat="37.60145492941356" lon="-4.3063485844628335"><ele>440.0</ele><time>2026-04-19T10:44:04Z</time></trkpt><trkpt lat="37.60149140171137" lon="-4.306414592755357"><ele>440.0</ele><time>2026-04-19T10:44:05Z</time></trkpt><trkpt lat="37.601557828272945" lon="-4.30654889701749"><ele>440.0</ele><time>2026-04-19T10:44:07Z</time></trkpt><trkpt lat="37.60159035394836" lon="-4.306620407057685"><ele>439.99999999999994</ele><time>2026-04-19T10:44:08Z</time></trkpt><trkpt lat="37.60165048815914" lon="-4.306757286326542"><ele>440.0</ele><time>2026-04-19T10:44:10Z</time></trkpt><trkpt lat="37.60170736834176" lon="-4.3068962892079705"><ele>438.5</ele><time>2026-04-19T10:44:12Z</time></trkpt><trkpt lat="37.6017612360805" lon="-4.30703093601223"><ele>437.0</ele><time>2026-04-19T10:44:14Z</time></trkpt><trkpt lat="37.6018090519613" lon="-4.307164393454854"><ele>435.5</ele><time>2026-04-19T10:44:16Z</time></trkpt><trkpt lat="37.60185311767209" lon="-4.307301671716572"><ele>434.0</ele><time>2026-04-19T10:44:18Z</time></trkpt><trkpt lat="37.6018924091129" lon="-4.3074356304275945"><ele>433.3333333333333</ele><time>2026-04-19T10:44:20Z</time></trkpt><trkpt lat="37.60192051629976" lon="-4.307551480690269"><ele>432.66666666666663</ele><time>2026-04-19T10:44:22Z</time></trkpt><trkpt lat="37.60194428583168" lon="-4.307648518174353"><ele>432.0</ele><time>2026-04-19T10:44:24Z</time></trkpt><trkpt lat="37.60196679136598" lon="-4.307735677510302"><ele>431.33333333333337</ele><time>2026-04-19T10:44:28Z</time></trkpt><trkpt lat="37.601980028324654" lon="-4.307823074941597"><ele>430.6666666666667</ele><time>2026-04-19T10:44:34Z</time></trkpt><trkpt lat="37.601988556442414" lon="-4.307921519553176"><ele>430.0</ele><time>2026-04-19T10:44:52.999Z</time></trkpt><trkpt lat="37.601987553917745" lon="-4.308007534039323"><ele>430.1428571428571</ele><time>2026-04-19T10:44:55.999Z</time></trkpt><trkpt lat="37.60199809416941" lon="-4.308116254398038"><ele>430.28571428571433</ele><time>2026-04-19T10:44:58.999Z</time></trkpt><trkpt lat="37.602002874735106" lon="-4.308202362710747"><ele>430.42857142857144</ele><time>2026-04-19T10:45:00.999Z</time></trkpt><trkpt lat="37.60200964318706" lon="-4.308292598444385"><ele>430.57142857142856</ele><time>2026-04-19T10:45:02.999Z</time></trkpt><trkpt lat="37.60200884981312" lon="-4.3083843422720065"><ele>430.71428571428567</ele><time>2026-04-19T10:45:04.999Z</time></trkpt><trkpt lat="37.60200967724659" lon="-4.308470779699511"><ele>430.8571428571429</ele><time>2026-04-19T10:45:06.999Z</time></trkpt><trkpt lat="37.60200825498812" lon="-4.308557977329363"><ele>431.0</ele><time>2026-04-19T10:45:08.999Z</time></trkpt><trkpt lat="37.60200730880159" lon="-4.3086480154546285"><ele>431.0</ele><time>2026-04-19T10:45:10.999Z</time></trkpt><trkpt lat="37.60199968546919" lon="-4.3087441448097685"><ele>431.0</ele><time>2026-04-19T10:45:12.999Z</time></trkpt><trkpt lat="37.60199313953732" lon="-4.30883990736478"><ele>431.0</ele><time>2026-04-19T10:45:14.999Z</time></trkpt><trkpt lat="37.60198616463307" lon="-4.308940845848681"><ele>431.0</ele><time>2026-04-19T10:45:16.999Z</time></trkpt><trkpt lat="37.601986601882395" lon="-4.309035953146113"><ele>431.0</ele><time>2026-04-19T10:45:18.999Z</time></trkpt><trkpt lat="37.60200079837325" lon="-4.309127029213943"><ele>431.0</ele><time>2026-04-19T10:45:20.999Z</time></trkpt><trkpt lat="37.60202634140547" lon="-4.309204352860995"><ele>431.0</ele><time>2026-04-19T10:45:22.999Z</time></trkpt><trkpt lat="37.60205423905616" lon="-4.309280329815487"><ele>432.8333333333333</ele><time>2026-04-19T10:45:24.999Z</time></trkpt><trkpt lat="37.60205828001485" lon="-4.30936547572118"><ele>434.66666666666663</ele><time>2026-04-19T10:45:26.999Z</time></trkpt><trkpt lat="37.602045543391114" lon="-4.3094548567813575"><ele>436.5</ele><time>2026-04-19T10:45:28.999Z</time></trkpt><trkpt lat="37.602034688143654" lon="-4.309553626184289"><ele>438.33333333333337</ele><time>2026-04-19T10:45:30.999Z</time></trkpt><trkpt lat="37.6020238220701" lon="-4.309651491067315"><ele>440.1666666666667</ele><time>2026-04-19T10:45:33Z</time></trkpt><trkpt lat="37.60202479169598" lon="-4.309754369065573"><ele>442.0</ele><time>2026-04-19T10:45:35Z</time></trkpt><trkpt lat="37.602032831783056" lon="-4.30986302296693"><ele>442.0</ele><time>2026-04-19T10:45:37Z</time></trkpt><trkpt lat="37.6020559364756" lon="-4.309970025865753"><ele>442.00000000000006</ele><time>2026-04-19T10:45:39Z</time></trkpt><trkpt lat="37.602084176423716" lon="-4.310072002191658"><ele>442.00000000000006</ele><time>2026-04-19T10:45:41Z</time></trkpt><trkpt lat="37.60212063010052" lon="-4.310172487244126"><ele>442.0</ele><time>2026-04-19T10:45:43Z</time></trkpt><trkpt lat="37.60215728855455" lon="-4.310281799696838"><ele>442.0</ele><time>2026-04-19T10:45:45Z</time></trkpt><trkpt lat="37.60219243201985" lon="-4.310397010510585"><ele>442.0</ele><time>2026-04-19T10:45:47Z</time></trkpt><trkpt lat="37.602219659837" lon="-4.310516861288373"><ele>442.00000000000006</ele><time>2026-04-19T10:45:49Z</time></trkpt><trkpt lat="37.602240662391694" lon="-4.310644911673715"><ele>442.00000000000006</ele><time>2026-04-19T10:45:51Z</time></trkpt><trkpt lat="37.60225170044136" lon="-4.310779442777651"><ele>442.0</ele><time>2026-04-19T10:45:53Z</time></trkpt><trkpt lat="37.60226413191879" lon="-4.31091689087804"><ele>442.0</ele><time>2026-04-19T10:45:55Z</time></trkpt><trkpt lat="37.60227721925249" lon="-4.311055474981699"><ele>441.6</ele><time>2026-04-19T10:45:57Z</time></trkpt><trkpt lat="37.6022916820624" lon="-4.311183988512944"><ele>441.20000000000005</ele><time>2026-04-19T10:45:59Z</time></trkpt><trkpt lat="37.6023038926168" lon="-4.311318677380725"><ele>440.8</ele><time>2026-04-19T10:46:01Z</time></trkpt><trkpt lat="37.60231542885992" lon="-4.3114547022592795"><ele>440.4</ele><time>2026-04-19T10:46:03Z</time></trkpt><trkpt lat="37.602325682494204" lon="-4.311580706718755"><ele>440.0</ele><time>2026-04-19T10:46:05Z</time></trkpt><trkpt lat="37.60233121340057" lon="-4.311711335245468"><ele>440.0</ele><time>2026-04-19T10:46:07Z</time></trkpt><trkpt lat="37.6023368159474" lon="-4.311844327392428"><ele>440.0</ele><time>2026-04-19T10:46:09Z</time></trkpt><trkpt lat="37.60234587318581" lon="-4.311984030584676"><ele>440.0</ele><time>2026-04-19T10:46:11Z</time></trkpt><trkpt lat="37.60235434231576" lon="-4.312121221761142"><ele>440.0</ele><time>2026-04-19T10:46:13Z</time></trkpt><trkpt lat="37.602362681532924" lon="-4.31225874062314"><ele>440.0</ele><time>2026-04-19T10:46:15Z</time></trkpt><trkpt lat="37.60236843772218" lon="-4.312401703331775"><ele>439.6</ele><time>2026-04-19T10:46:17Z</time></trkpt><trkpt lat="37.60237858229689" lon="-4.312548890266796"><ele>439.2</ele><time>2026-04-19T10:46:19Z</time></trkpt><trkpt lat="37.60238390844996" lon="-4.312687653785728"><ele>438.79999999999995</ele><time>2026-04-19T10:46:21Z</time></trkpt><trkpt lat="37.60238870795149" lon="-4.312813649981541"><ele>438.4</ele><time>2026-04-19T10:46:23Z</time></trkpt><trkpt lat="37.60237734599058" lon="-4.312934589672296"><ele>438.0</ele><time>2026-04-19T10:46:25Z</time></trkpt><trkpt lat="37.60236313704034" lon="-4.313071058528017"><ele>438.0</ele><time>2026-04-19T10:46:27Z</time></trkpt><trkpt lat="37.60235982151037" lon="-4.313206311995004"><ele>437.99999999999994</ele><time>2026-04-19T10:46:29Z</time></trkpt><trkpt lat="37.60237088133178" lon="-4.313347990398839"><ele>437.99999999999994</ele><time>2026-04-19T10:46:31Z</time></trkpt><trkpt lat="37.60239911098427" lon="-4.3134864850962655"><ele>438.0</ele><time>2026-04-19T10:46:33Z</time></trkpt><trkpt lat="37.602429490233234" lon="-4.313613700669461"><ele>438.0</ele><time>2026-04-19T10:46:35Z</time></trkpt><trkpt lat="37.602465243596505" lon="-4.3137288932964255"><ele>438.0</ele><time>2026-04-19T10:46:37Z</time></trkpt><trkpt lat="37.602497363446595" lon="-4.313849949554106"><ele>437.99999999999994</ele><time>2026-04-19T10:46:39Z</time></trkpt><trkpt lat="37.60253970595184" lon="-4.313981164597155"><ele>437.99999999999994</ele><time>2026-04-19T10:46:41Z</time></trkpt><trkpt lat="37.602600039424516" lon="-4.314102123166165"><ele>438.0</ele><time>2026-04-19T10:46:43Z</time></trkpt><trkpt lat="37.60266853215909" lon="-4.31421527376192"><ele>438.0</ele><time>2026-04-19T10:46:45Z</time></trkpt><trkpt lat="37.6027469642006" lon="-4.3143098263796835"><ele>438.5</ele><time>2026-04-19T10:46:47Z</time></trkpt><trkpt lat="37.60285436572494" lon="-4.314381614251499"><ele>439.0</ele><time>2026-04-19T10:46:49Z</time></trkpt><trkpt lat="37.60294811568778" lon="-4.314456953474629"><ele>439.5</ele><time>2026-04-19T10:46:51Z</time></trkpt><trkpt lat="37.603043561582695" lon="-4.314533111374015"><ele>440.0</ele><time>2026-04-19T10:46:52.999Z</time></trkpt><trkpt lat="37.60314348776239" lon="-4.314612166523737"><ele>440.0</ele><time>2026-04-19T10:46:54.999Z</time></trkpt><trkpt lat="37.60324517922026" lon="-4.3146832260756005"><ele>440.0</ele><time>2026-04-19T10:46:56.999Z</time></trkpt><trkpt lat="37.60335019397218" lon="-4.314740949332046"><ele>440.0</ele><time>2026-04-19T10:46:58.999Z</time></trkpt><trkpt lat="37.60345236990805" lon="-4.314824245935466"><ele>440.0</ele><time>2026-04-19T10:47:00.999Z</time></trkpt><trkpt lat="37.603545761022346" lon="-4.314903155995759"><ele>438.6</ele><time>2026-04-19T10:47:02.999Z</time></trkpt><trkpt lat="37.60365606197638" lon="-4.314970858013409"><ele>437.2</ele><time>2026-04-19T10:47:04.999Z</time></trkpt><trkpt lat="37.603714640701945" lon="-4.315006029039967"><ele>435.79999999999995</ele><time>2026-04-19T10:47:05.999Z</time></trkpt><trkpt lat="37.60379012092743" lon="-4.315097458177845"><ele>434.4</ele><time>2026-04-19T10:47:07.999Z</time></trkpt><trkpt lat="37.60377133834198" lon="-4.315218780312887"><ele>433.0</ele><time>2026-04-19T10:47:09.999Z</time></trkpt><trkpt lat="37.60370041094942" lon="-4.3153274321173845"><ele>433.0</ele><time>2026-04-19T10:47:11.999Z</time></trkpt><trkpt lat="37.603682081872726" lon="-4.315451529063419"><ele>432.99999999999994</ele><time>2026-04-19T10:47:13.999Z</time></trkpt><trkpt lat="37.603732028059845" lon="-4.315572945356026"><ele>432.99999999999994</ele><time>2026-04-19T10:47:15.999Z</time></trkpt><trkpt lat="37.60382795921422" lon="-4.3156455841237555"><ele>433.0</ele><time>2026-04-19T10:47:17.999Z</time></trkpt><trkpt lat="37.603892640651445" lon="-4.315690418069063"><ele>433.0</ele><time>2026-04-19T10:47:18.999Z</time></trkpt><trkpt lat="37.603961445804984" lon="-4.315734572439123"><ele>431.1666666666667</ele><time>2026-04-19T10:47:19.999Z</time></trkpt><trkpt lat="37.60403166311141" lon="-4.315762671965059"><ele>429.33333333333337</ele><time>2026-04-19T10:47:20.999Z</time></trkpt><trkpt lat="37.60410852911582" lon="-4.315802261126924"><ele>427.5</ele><time>2026-04-19T10:47:21.999Z</time></trkpt><trkpt lat="37.604189330370886" lon="-4.315828560555103"><ele>425.66666666666663</ele><time>2026-04-19T10:47:22.999Z</time></trkpt><trkpt lat="37.604278204531866" lon="-4.315856201956488"><ele>423.8333333333333</ele><time>2026-04-19T10:47:23.999Z</time></trkpt><trkpt lat="37.60436742909259" lon="-4.315888768905922"><ele>422.0</ele><time>2026-04-19T10:47:24.999Z</time></trkpt><trkpt lat="37.604439558716535" lon="-4.315921323485935"><ele>422.2857142857143</ele><time>2026-04-19T10:47:25.999Z</time></trkpt><trkpt lat="37.60451652344262" lon="-4.315962431514074"><ele>422.57142857142856</ele><time>2026-04-19T10:47:26.999Z</time></trkpt><trkpt lat="37.60458678115575" lon="-4.315985303051271"><ele>422.8571428571429</ele><time>2026-04-19T10:47:27.999Z</time></trkpt><trkpt lat="37.604655751061216" lon="-4.316000069381111"><ele>423.1428571428571</ele><time>2026-04-19T10:47:28.999Z</time></trkpt><trkpt lat="37.6047246691725" lon="-4.316019763576352"><ele>423.4285714285714</ele><time>2026-04-19T10:47:29.999Z</time></trkpt><trkpt lat="37.60478932520293" lon="-4.3160314385160135"><ele>423.7142857142857</ele><time>2026-04-19T10:47:30.999Z</time></trkpt><trkpt lat="37.60485711750532" lon="-4.316029921368686"><ele>424.0</ele><time>2026-04-19T10:47:31.999Z</time></trkpt><trkpt lat="37.60498191399424" lon="-4.315997756601331"><ele>424.0</ele><time>2026-04-19T10:47:33.999Z</time></trkpt><trkpt lat="37.60508269263976" lon="-4.315950554501967"><ele>424.0</ele><time>2026-04-19T10:47:35.999Z</time></trkpt><trkpt lat="37.605174476921725" lon="-4.316024306531448"><ele>424.0</ele><time>2026-04-19T10:47:37.999Z</time></trkpt><trkpt lat="37.60527571471803" lon="-4.316094063673662"><ele>424.0</ele><time>2026-04-19T10:47:40Z</time></trkpt><trkpt lat="37.6053884354284" lon="-4.316163731779138"><ele>424.83333333333337</ele><time>2026-04-19T10:47:42Z</time></trkpt><trkpt lat="37.60550268307345" lon="-4.316236666504448"><ele>425.6666666666667</ele><time>2026-04-19T10:47:44Z</time></trkpt><trkpt lat="37.6055651725064" lon="-4.31627137022976"><ele>426.5</ele><time>2026-04-19T10:47:45Z</time></trkpt><trkpt lat="37.605630750313466" lon="-4.316309946973022"><ele>427.33333333333337</ele><time>2026-04-19T10:47:46Z</time></trkpt><trkpt lat="37.60569539027183" lon="-4.316347880255201"><ele>428.1666666666667</ele><time>2026-04-19T10:47:47Z</time></trkpt><trkpt lat="37.605761224825315" lon="-4.316388772630611"><ele>429.0</ele><time>2026-04-19T10:47:48Z</time></trkpt><trkpt lat="37.60582394865218" lon="-4.316428137819374"><ele>428.4</ele><time>2026-04-19T10:47:49Z</time></trkpt><trkpt lat="37.605891495560236" lon="-4.31646731527898"><ele>427.79999999999995</ele><time>2026-04-19T10:47:50Z</time></trkpt><trkpt lat="37.60594916880671" lon="-4.316509288975041"><ele>427.20000000000005</ele><time>2026-04-19T10:47:51Z</time></trkpt><trkpt lat="37.60605565248001" lon="-4.316582674688173"><ele>426.6</ele><time>2026-04-19T10:47:53Z</time></trkpt><trkpt lat="37.60615318955497" lon="-4.3166472659671165"><ele>426.0</ele><time>2026-04-19T10:47:55Z</time></trkpt><trkpt lat="37.606248786224796" lon="-4.316717374254226"><ele>426.0</ele><time>2026-04-19T10:47:57Z</time></trkpt><trkpt lat="37.606352865107716" lon="-4.316785960217645"><ele>426.0</ele><time>2026-04-19T10:47:59Z</time></trkpt><trkpt lat="37.606456097042575" lon="-4.316856335364943"><ele>426.0</ele><time>2026-04-19T10:48:01Z</time></trkpt><trkpt lat="37.606561727672755" lon="-4.316927277764023"><ele>426.0</ele><time>2026-04-19T10:48:03Z</time></trkpt><trkpt lat="37.606667246174645" lon="-4.317000405645617"><ele>426.0</ele><time>2026-04-19T10:48:05Z</time></trkpt><trkpt lat="37.606759925650564" lon="-4.3170781570506875"><ele>426.0</ele><time>2026-04-19T10:48:07Z</time></trkpt><trkpt lat="37.606842083110486" lon="-4.317174053375536"><ele>426.0</ele><time>2026-04-19T10:48:09Z</time></trkpt><trkpt lat="37.60689972717139" lon="-4.317287889582015"><ele>426.0</ele><time>2026-04-19T10:48:11Z</time></trkpt><trkpt lat="37.606964877515836" lon="-4.317391679600333"><ele>426.0</ele><time>2026-04-19T10:48:13Z</time></trkpt><trkpt lat="37.60705538314452" lon="-4.317470120600262"><ele>425.8</ele><time>2026-04-19T10:48:15Z</time></trkpt><trkpt lat="37.60713985199626" lon="-4.317550442328924"><ele>425.6</ele><time>2026-04-19T10:48:17Z</time></trkpt><trkpt lat="37.60723852555885" lon="-4.317617197955162"><ele>425.4</ele><time>2026-04-19T10:48:19Z</time></trkpt><trkpt lat="37.607330761121254" lon="-4.317681323293703"><ele>425.2</ele><time>2026-04-19T10:48:21Z</time></trkpt><trkpt lat="37.60742167695302" lon="-4.317742270216665"><ele>425.0</ele><time>2026-04-19T10:48:23Z</time></trkpt><trkpt lat="37.60749980000527" lon="-4.317795104872987"><ele>424.99999999999994</ele><time>2026-04-19T10:48:25Z</time></trkpt><trkpt lat="37.6075583847501" lon="-4.317855083845997"><ele>425.0</ele><time>2026-04-19T10:48:27Z</time></trkpt><trkpt lat="37.60760227638115" lon="-4.317925854594348"><ele>425.0</ele><time>2026-04-19T10:48:29Z</time></trkpt><trkpt lat="37.60766331639072" lon="-4.318002549143878"><ele>425.0</ele><time>2026-04-19T10:48:31Z</time></trkpt><trkpt lat="37.607729276962836" lon="-4.3180859280730655"><ele>424.99999999999994</ele><time>2026-04-19T10:48:33Z</time></trkpt><trkpt lat="37.60780016526213" lon="-4.318174432351011"><ele>425.0</ele><time>2026-04-19T10:48:35Z</time></trkpt><trkpt lat="37.60787624668825" lon="-4.318268429408054"><ele>424.6</ele><time>2026-04-19T10:48:37Z</time></trkpt><trkpt lat="37.607959583203936" lon="-4.3183563066662645"><ele>424.2</ele><time>2026-04-19T10:48:39Z</time></trkpt><trkpt lat="37.60804494935645" lon="-4.3184415460718935"><ele>423.79999999999995</ele><time>2026-04-19T10:48:41Z</time></trkpt><trkpt lat="37.60812372692324" lon="-4.318526891358894"><ele>423.4</ele><time>2026-04-19T10:48:43Z</time></trkpt><trkpt lat="37.60820098414339" lon="-4.318581839197187"><ele>423.0</ele><time>2026-04-19T10:48:45Z</time></trkpt><trkpt lat="37.60828662043043" lon="-4.318596786137019"><ele>423.0</ele><time>2026-04-19T10:48:47Z</time></trkpt><trkpt lat="37.60836217194917" lon="-4.318592728826798"><ele>423.0</ele><time>2026-04-19T10:48:49Z</time></trkpt><trkpt lat="37.60843288777694" lon="-4.318614212796224"><ele>423.0</ele><time>2026-04-19T10:48:51Z</time></trkpt><trkpt lat="37.60851103235822" lon="-4.318611246716168"><ele>423.0</ele><time>2026-04-19T10:48:54Z</time></trkpt><trkpt lat="37.60842470255895" lon="-4.318612369326702"><ele>423.0</ele><time>2026-04-19T10:49:18.999Z</time></trkpt><trkpt lat="37.60833657697811" lon="-4.318594786995418"><ele>423.0</ele><time>2026-04-19T10:49:21.999Z</time></trkpt><trkpt lat="37.6082562198404" lon="-4.318592913430842"><ele>423.0</ele><time>2026-04-19T10:49:24.999Z</time></trkpt><trkpt lat="37.60817720993937" lon="-4.318563242359095"><ele>423.0</ele><time>2026-04-19T10:50:42.999Z</time></trkpt><trkpt lat="37.608251247228964" lon="-4.318605047776161"><ele>423.0</ele><time>2026-04-19T10:51:10.999Z</time></trkpt><trkpt lat="37.60833440212228" lon="-4.318605150508467"><ele>423.0</ele><time>2026-04-19T10:51:12.999Z</time></trkpt><trkpt lat="37.60842142612645" lon="-4.318606030492509"><ele>423.0</ele><time>2026-04-19T10:51:14.999Z</time></trkpt><trkpt lat="37.60849819341862" lon="-4.318601786654358"><ele>423.0</ele><time>2026-04-19T10:51:16.998Z</time></trkpt><trkpt lat="37.608577851454314" lon="-4.318597240455094"><ele>423.0</ele><time>2026-04-19T10:51:18.998Z</time></trkpt><trkpt lat="37.608656185302344" lon="-4.318579348823076"><ele>423.0</ele><time>2026-04-19T10:51:20.998Z</time></trkpt><trkpt lat="37.60873345373367" lon="-4.318567712597876"><ele>423.0</ele><time>2026-04-19T10:51:22.998Z</time></trkpt><trkpt lat="37.60881319515821" lon="-4.31854486499053"><ele>423.0</ele><time>2026-04-19T10:51:24.998Z</time></trkpt><trkpt lat="37.60889899687" lon="-4.318517046873462"><ele>423.0</ele><time>2026-04-19T10:51:26.998Z</time></trkpt><trkpt lat="37.60899669610631" lon="-4.318480686297811"><ele>423.0</ele><time>2026-04-19T10:51:28.998Z</time></trkpt><trkpt lat="37.60911452858994" lon="-4.318440215477828"><ele>421.85714285714283</ele><time>2026-04-19T10:51:30.998Z</time></trkpt><trkpt lat="37.60917582438895" lon="-4.3184176915751245"><ele>420.7142857142857</ele><time>2026-04-19T10:51:31.998Z</time></trkpt><trkpt lat="37.60923894334579" lon="-4.318394254458234"><ele>419.57142857142856</ele><time>2026-04-19T10:51:32.998Z</time></trkpt><trkpt lat="37.60930440880751" lon="-4.318366575828357"><ele>418.42857142857144</ele><time>2026-04-19T10:51:33.998Z</time></trkpt><trkpt lat="37.60936895814331" lon="-4.318339517958664"><ele>417.28571428571433</ele><time>2026-04-19T10:51:34.998Z</time></trkpt><trkpt lat="37.60943667597249" lon="-4.318314601775716"><ele>416.14285714285717</ele><time>2026-04-19T10:51:35.998Z</time></trkpt><trkpt lat="37.60949982311104" lon="-4.318292686019101"><ele>415.0</ele><time>2026-04-19T10:51:36.998Z</time></trkpt><trkpt lat="37.60956275377836" lon="-4.3182692397250575"><ele>413.6</ele><time>2026-04-19T10:51:37.998Z</time></trkpt><trkpt lat="37.609674063232326" lon="-4.318222061631672"><ele>412.2</ele><time>2026-04-19T10:51:39.998Z</time></trkpt><trkpt lat="37.60977574859386" lon="-4.318195078004746"><ele>410.79999999999995</ele><time>2026-04-19T10:51:41.998Z</time></trkpt><trkpt lat="37.60987922198912" lon="-4.318208447998078"><ele>409.4</ele><time>2026-04-19T10:51:43.998Z</time></trkpt><trkpt lat="37.60998320408304" lon="-4.318260614856892"><ele>408.0</ele><time>2026-04-19T10:51:45.998Z</time></trkpt><trkpt lat="37.61006133379674" lon="-4.31834025304062"><ele>408.0</ele><time>2026-04-19T10:51:47.998Z</time></trkpt><trkpt lat="37.610129287683726" lon="-4.318445519290134"><ele>408.0</ele><time>2026-04-19T10:51:49.998Z</time></trkpt><trkpt lat="37.610166057805166" lon="-4.318569282742304"><ele>408.0</ele><time>2026-04-19T10:51:52Z</time></trkpt><trkpt lat="37.6101770118969" lon="-4.318708578040801"><ele>408.0</ele><time>2026-04-19T10:51:54Z</time></trkpt><trkpt lat="37.61015597297564" lon="-4.318847693234257"><ele>408.0</ele><time>2026-04-19T10:51:56Z</time></trkpt><trkpt lat="37.610103546920335" lon="-4.318980517601988"><ele>405.75</ele><time>2026-04-19T10:51:58Z</time></trkpt><trkpt lat="37.61002308218315" lon="-4.3190768776147275"><ele>403.5</ele><time>2026-04-19T10:52:00Z</time></trkpt><trkpt lat="37.609924780305576" lon="-4.319140522588043"><ele>401.25</ele><time>2026-04-19T10:52:02Z</time></trkpt><trkpt lat="37.609812370682036" lon="-4.3191783230033325"><ele>399.0</ele><time>2026-04-19T10:52:04Z</time></trkpt><trkpt lat="37.60969850176649" lon="-4.319194899821127"><ele>399.0</ele><time>2026-04-19T10:52:06Z</time></trkpt><trkpt lat="37.609587593181836" lon="-4.3191993083611715"><ele>399.0</ele><time>2026-04-19T10:52:07.999Z</time></trkpt><trkpt lat="37.609486806129254" lon="-4.3192013114068795"><ele>399.0</ele><time>2026-04-19T10:52:09.999Z</time></trkpt><trkpt lat="37.60939325544333" lon="-4.319207136927808"><ele>399.0</ele><time>2026-04-19T10:52:11.999Z</time></trkpt><trkpt lat="37.60930354897973" lon="-4.319214559483042"><ele>399.0</ele><time>2026-04-19T10:52:13.999Z</time></trkpt><trkpt lat="37.60922132621515" lon="-4.319221590883289"><ele>399.2</ele><time>2026-04-19T10:52:15.999Z</time></trkpt><trkpt lat="37.60913402035899" lon="-4.319233588223163"><ele>399.4</ele><time>2026-04-19T10:52:17.999Z</time></trkpt><trkpt lat="37.6090380943417" lon="-4.319250403400085"><ele>399.6</ele><time>2026-04-19T10:52:19.999Z</time></trkpt><trkpt lat="37.60893811476918" lon="-4.319297037447978"><ele>399.8</ele><time>2026-04-19T10:52:21.999Z</time></trkpt><trkpt lat="37.60885229359828" lon="-4.319388738332831"><ele>400.0</ele><time>2026-04-19T10:52:23.999Z</time></trkpt><trkpt lat="37.60878824783481" lon="-4.319521189399277"><ele>400.00000000000006</ele><time>2026-04-19T10:52:25.999Z</time></trkpt><trkpt lat="37.60876854273775" lon="-4.319597852156735"><ele>400.0</ele><time>2026-04-19T10:52:26.999Z</time></trkpt><trkpt lat="37.60876269300186" lon="-4.319756095236179"><ele>400.0</ele><time>2026-04-19T10:52:28.999Z</time></trkpt><trkpt lat="37.60878072041476" lon="-4.319835404912926"><ele>400.0</ele><time>2026-04-19T10:52:29.999Z</time></trkpt><trkpt lat="37.60881186646993" lon="-4.319909963829402"><ele>400.00000000000006</ele><time>2026-04-19T10:52:30.999Z</time></trkpt><trkpt lat="37.60885586557071" lon="-4.319977198189169"><ele>400.0</ele><time>2026-04-19T10:52:31.999Z</time></trkpt><trkpt lat="37.608908665586476" lon="-4.320041491272638"><ele>397.83333333333337</ele><time>2026-04-19T10:52:32.999Z</time></trkpt><trkpt lat="37.60896970956226" lon="-4.3200879007151505"><ele>395.6666666666667</ele><time>2026-04-19T10:52:33.999Z</time></trkpt><trkpt lat="37.60903673713731" lon="-4.3201221464139845"><ele>393.5</ele><time>2026-04-19T10:52:34.999Z</time></trkpt><trkpt lat="37.60910550386558" lon="-4.3201475320559775"><ele>391.33333333333337</ele><time>2026-04-19T10:52:35.999Z</time></trkpt><trkpt lat="37.60918408597535" lon="-4.320165948200284"><ele>389.1666666666667</ele><time>2026-04-19T10:52:36.999Z</time></trkpt><trkpt lat="37.60926594738847" lon="-4.320177195824527"><ele>387.0</ele><time>2026-04-19T10:52:37.999Z</time></trkpt><trkpt lat="37.60934885442153" lon="-4.320188702472502"><ele>387.0</ele><time>2026-04-19T10:52:38.999Z</time></trkpt><trkpt lat="37.609429055722664" lon="-4.3201996228012565"><ele>387.0</ele><time>2026-04-19T10:52:39.999Z</time></trkpt><trkpt lat="37.60951313911662" lon="-4.320214686115274"><ele>387.0</ele><time>2026-04-19T10:52:40.999Z</time></trkpt><trkpt lat="37.609595332930944" lon="-4.3202275959076175"><ele>387.0</ele><time>2026-04-19T10:52:41.999Z</time></trkpt><trkpt lat="37.60967496492067" lon="-4.320241759474226"><ele>387.0</ele><time>2026-04-19T10:52:42.999Z</time></trkpt><trkpt lat="37.60975594812418" lon="-4.3202584734786935"><ele>387.0</ele><time>2026-04-19T10:52:43.999Z</time></trkpt><trkpt lat="37.60983445512402" lon="-4.320278037864929"><ele>386.8333333333333</ele><time>2026-04-19T10:52:44.999Z</time></trkpt><trkpt lat="37.60991570371424" lon="-4.3203054761788415"><ele>386.66666666666663</ele><time>2026-04-19T10:52:45.999Z</time></trkpt><trkpt lat="37.60999531277065" lon="-4.320348495222535"><ele>386.5</ele><time>2026-04-19T10:52:46.999Z</time></trkpt><trkpt lat="37.61006970893367" lon="-4.320389803684408"><ele>386.3333333333333</ele><time>2026-04-19T10:52:47.999Z</time></trkpt><trkpt lat="37.6101424846499" lon="-4.320437575983946"><ele>386.16666666666663</ele><time>2026-04-19T10:52:48.999Z</time></trkpt><trkpt lat="37.61022205366152" lon="-4.320478872926253"><ele>386.0</ele><time>2026-04-19T10:52:49.999Z</time></trkpt><trkpt lat="37.610308381521264" lon="-4.320509472497713"><ele>386.0</ele><time>2026-04-19T10:52:50.999Z</time></trkpt><trkpt lat="37.61039792989387" lon="-4.320535445179472"><ele>386.0</ele><time>2026-04-19T10:52:51.999Z</time></trkpt><trkpt lat="37.61048753081321" lon="-4.32055935860849"><ele>386.0</ele><time>2026-04-19T10:52:52.999Z</time></trkpt><trkpt lat="37.61057557549151" lon="-4.320584099518251"><ele>386.0</ele><time>2026-04-19T10:52:53.999Z</time></trkpt><trkpt lat="37.61066311042" lon="-4.320607581173143"><ele>386.0</ele><time>2026-04-19T10:52:54.999Z</time></trkpt><trkpt lat="37.610751499637345" lon="-4.320629140434829"><ele>384.3333333333333</ele><time>2026-04-19T10:52:55.999Z</time></trkpt><trkpt lat="37.610839951655905" lon="-4.320654244212147"><ele>382.66666666666663</ele><time>2026-04-19T10:52:56.999Z</time></trkpt><trkpt lat="37.61091862594611" lon="-4.320678223715176"><ele>381.0</ele><time>2026-04-19T10:52:57.999Z</time></trkpt><trkpt lat="37.61099711975584" lon="-4.320695156916216"><ele>379.3333333333333</ele><time>2026-04-19T10:52:58.999Z</time></trkpt><trkpt lat="37.61107788003486" lon="-4.320717827797293"><ele>377.66666666666663</ele><time>2026-04-19T10:52:59.999Z</time></trkpt><trkpt lat="37.61115778076938" lon="-4.32073915079414"><ele>376.0</ele><time>2026-04-19T10:53:00.999Z</time></trkpt><trkpt lat="37.61123514588986" lon="-4.320760323956542"><ele>375.8333333333333</ele><time>2026-04-19T10:53:01.999Z</time></trkpt><trkpt lat="37.61131181494137" lon="-4.320780054669421"><ele>375.66666666666663</ele><time>2026-04-19T10:53:02.999Z</time></trkpt><trkpt lat="37.61138879266053" lon="-4.320800169720142"><ele>375.5</ele><time>2026-04-19T10:53:03.999Z</time></trkpt><trkpt lat="37.61146265617953" lon="-4.32081903754458"><ele>375.3333333333333</ele><time>2026-04-19T10:53:04.999Z</time></trkpt><trkpt lat="37.61153170960803" lon="-4.320843470696828"><ele>375.1666666666667</ele><time>2026-04-19T10:53:05.999Z</time></trkpt><trkpt lat="37.61159607601947" lon="-4.320864752094666"><ele>375.0</ele><time>2026-04-19T10:53:06.999Z</time></trkpt><trkpt lat="37.611708431686154" lon="-4.320891538146376"><ele>375.0</ele><time>2026-04-19T10:53:08.999Z</time></trkpt><trkpt lat="37.611798869556075" lon="-4.320917808334641"><ele>375.0</ele><time>2026-04-19T10:53:10.999Z</time></trkpt><trkpt lat="37.61187475559121" lon="-4.320931742689984"><ele>375.0</ele><time>2026-04-19T10:53:12.999Z</time></trkpt><trkpt lat="37.61194682856008" lon="-4.32094878588539"><ele>375.0</ele><time>2026-04-19T10:53:14.999Z</time></trkpt><trkpt lat="37.61201160001872" lon="-4.320958291078626"><ele>375.0</ele><time>2026-04-19T10:53:16.999Z</time></trkpt><trkpt lat="37.6120772724395" lon="-4.32098241533123"><ele>375.0</ele><time>2026-04-19T10:53:18.999Z</time></trkpt><trkpt lat="37.61215364005094" lon="-4.321021387751998"><ele>375.1666666666667</ele><time>2026-04-19T10:53:21.999Z</time></trkpt><trkpt lat="37.61223520008127" lon="-4.321047293159047"><ele>375.3333333333333</ele><time>2026-04-19T10:53:24.998Z</time></trkpt><trkpt lat="37.61229803969472" lon="-4.321088190054552"><ele>375.5</ele><time>2026-04-19T10:53:26.998Z</time></trkpt><trkpt lat="37.61236776673876" lon="-4.321142626774826"><ele>375.66666666666663</ele><time>2026-04-19T10:53:28.998Z</time></trkpt><trkpt lat="37.61245491901277" lon="-4.321156197374331"><ele>375.8333333333333</ele><time>2026-04-19T10:53:30.998Z</time></trkpt><trkpt lat="37.61255055070467" lon="-4.3211883528768"><ele>376.0</ele><time>2026-04-19T10:53:32.998Z</time></trkpt><trkpt lat="37.612638221237745" lon="-4.32120590746258"><ele>376.0</ele><time>2026-04-19T10:53:34.998Z</time></trkpt><trkpt lat="37.61272258278297" lon="-4.321217244843204"><ele>376.0</ele><time>2026-04-19T10:53:36.998Z</time></trkpt><trkpt lat="37.61279414506886" lon="-4.321248192285265"><ele>376.0</ele><time>2026-04-19T10:53:38.998Z</time></trkpt><trkpt lat="37.612863877630716" lon="-4.3212852684302785"><ele>376.0</ele><time>2026-04-19T10:53:40.998Z</time></trkpt><trkpt lat="37.612942252770125" lon="-4.321308671562109"><ele>376.0</ele><time>2026-04-19T10:53:42.998Z</time></trkpt><trkpt lat="37.613020992113945" lon="-4.3213336647875895"><ele>376.0</ele><time>2026-04-19T10:53:44.998Z</time></trkpt><trkpt lat="37.61309889033864" lon="-4.321349153175732"><ele>376.8333333333333</ele><time>2026-04-19T10:53:46.998Z</time></trkpt><trkpt lat="37.61317890958734" lon="-4.321376716089693"><ele>377.66666666666663</ele><time>2026-04-19T10:53:48.998Z</time></trkpt><trkpt lat="37.613263954761834" lon="-4.321398605457254"><ele>378.5</ele><time>2026-04-19T10:53:50.998Z</time></trkpt><trkpt lat="37.61334593616544" lon="-4.321420599560072"><ele>379.3333333333333</ele><time>2026-04-19T10:53:52.998Z</time></trkpt><trkpt lat="37.61343050958131" lon="-4.321442450078403"><ele>380.1666666666667</ele><time>2026-04-19T10:53:54.998Z</time></trkpt><trkpt lat="37.61351405812911" lon="-4.321459313395916"><ele>381.0</ele><time>2026-04-19T10:53:57Z</time></trkpt><trkpt lat="37.61360376901907" lon="-4.321472796297323"><ele>382.5</ele><time>2026-04-19T10:53:58.999Z</time></trkpt><trkpt lat="37.61369059485619" lon="-4.321475926440235"><ele>384.0</ele><time>2026-04-19T10:54:01Z</time></trkpt><trkpt lat="37.61378064515619" lon="-4.321463247427929"><ele>385.5</ele><time>2026-04-19T10:54:03Z</time></trkpt><trkpt lat="37.6138633231771" lon="-4.321434607057579"><ele>387.0</ele><time>2026-04-19T10:54:04.999Z</time></trkpt><trkpt lat="37.613937788638324" lon="-4.321399258505402"><ele>388.5</ele><time>2026-04-19T10:54:07Z</time></trkpt><trkpt lat="37.61401590117969" lon="-4.321345490663565"><ele>390.0</ele><time>2026-04-19T10:54:09Z</time></trkpt><trkpt lat="37.61409386905255" lon="-4.321300323625214"><ele>390.6666666666667</ele><time>2026-04-19T10:54:11Z</time></trkpt><trkpt lat="37.61417363374927" lon="-4.321245112378237"><ele>391.33333333333337</ele><time>2026-04-19T10:54:12.999Z</time></trkpt><trkpt lat="37.61425219679801" lon="-4.321193049595487"><ele>392.0</ele><time>2026-04-19T10:54:14.999Z</time></trkpt><trkpt lat="37.61433399488474" lon="-4.321141962150464"><ele>392.6666666666667</ele><time>2026-04-19T10:54:16.999Z</time></trkpt><trkpt lat="37.61440918418595" lon="-4.321096200422295"><ele>393.33333333333337</ele><time>2026-04-19T10:54:18.999Z</time></trkpt><trkpt lat="37.614487732987136" lon="-4.32105696081812"><ele>394.0</ele><time>2026-04-19T10:54:20.999Z</time></trkpt><trkpt lat="37.61456649648925" lon="-4.321034467311578"><ele>395.00000000000006</ele><time>2026-04-19T10:54:22.999Z</time></trkpt><trkpt lat="37.61465434294671" lon="-4.321028813071808"><ele>396.0</ele><time>2026-04-19T10:54:24.999Z</time></trkpt><trkpt lat="37.61474215213816" lon="-4.3210351238852285"><ele>397.0</ele><time>2026-04-19T10:54:26.999Z</time></trkpt><trkpt lat="37.61482575052883" lon="-4.321049977632117"><ele>398.0</ele><time>2026-04-19T10:54:28.999Z</time></trkpt><trkpt lat="37.6148991088059" lon="-4.321081161709182"><ele>399.00000000000006</ele><time>2026-04-19T10:54:30.999Z</time></trkpt><trkpt lat="37.61496825518222" lon="-4.321127233724253"><ele>400.0</ele><time>2026-04-19T10:54:32.999Z</time></trkpt><trkpt lat="37.61502707742508" lon="-4.321190845160369"><ele>400.00000000000006</ele><time>2026-04-19T10:54:34.999Z</time></trkpt><trkpt lat="37.61507002943631" lon="-4.3212705914694824"><ele>400.0</ele><time>2026-04-19T10:54:36.999Z</time></trkpt><trkpt lat="37.615104518977425" lon="-4.321353642347977"><ele>400.0</ele><time>2026-04-19T10:54:38.999Z</time></trkpt><trkpt lat="37.615137231974686" lon="-4.321448553922929"><ele>400.0</ele><time>2026-04-19T10:54:40.999Z</time></trkpt><trkpt lat="37.61516687651558" lon="-4.3215473267669156"><ele>400.00000000000006</ele><time>2026-04-19T10:54:42.999Z</time></trkpt><trkpt lat="37.615191102713986" lon="-4.32165049515391"><ele>400.0</ele><time>2026-04-19T10:54:44.999Z</time></trkpt><trkpt lat="37.61521512234962" lon="-4.32174710906487"><ele>399.83333333333337</ele><time>2026-04-19T10:54:46.999Z</time></trkpt><trkpt lat="37.61523597171553" lon="-4.321842400095576"><ele>399.6666666666667</ele><time>2026-04-19T10:54:48.999Z</time></trkpt><trkpt lat="37.615254966333595" lon="-4.32193997268047"><ele>399.5</ele><time>2026-04-19T10:54:50.999Z</time></trkpt><trkpt lat="37.6152981952306" lon="-4.322055278123679"><ele>399.33333333333337</ele><time>2026-04-19T10:54:53.999Z</time></trkpt><trkpt lat="37.61531898137849" lon="-4.322162198803159"><ele>399.1666666666667</ele><time>2026-04-19T10:54:55.999Z</time></trkpt><trkpt lat="37.61535665042999" lon="-4.322250345670171"><ele>399.0</ele><time>2026-04-19T10:54:57.999Z</time></trkpt><trkpt lat="37.61540279816284" lon="-4.322332405875159"><ele>400.57142857142856</ele><time>2026-04-19T10:54:59.999Z</time></trkpt><trkpt lat="37.61545659730801" lon="-4.322405090551268"><ele>402.1428571428571</ele><time>2026-04-19T10:55:01.999Z</time></trkpt><trkpt lat="37.6155120914596" lon="-4.322463387064346"><ele>403.7142857142857</ele><time>2026-04-19T10:55:03.999Z</time></trkpt><trkpt lat="37.61556008288963" lon="-4.322525001166829"><ele>405.2857142857143</ele><time>2026-04-19T10:55:05.999Z</time></trkpt><trkpt lat="37.61562814461527" lon="-4.322590270744645"><ele>406.85714285714283</ele><time>2026-04-19T10:55:08.999Z</time></trkpt><trkpt lat="37.61569957645724" lon="-4.322567718890331"><ele>408.42857142857144</ele><time>2026-04-19T10:55:11.999Z</time></trkpt><trkpt lat="37.615715462706625" lon="-4.322484269783112"><ele>410.0</ele><time>2026-04-19T10:55:13.999Z</time></trkpt><trkpt lat="37.61572942697388" lon="-4.322399176321439"><ele>410.0</ele><time>2026-04-19T10:55:15.999Z</time></trkpt><trkpt lat="37.61574989763734" lon="-4.322321045094723"><ele>410.0</ele><time>2026-04-19T10:55:17.999Z</time></trkpt><trkpt lat="37.61577701000379" lon="-4.322238581631442"><ele>410.0</ele><time>2026-04-19T10:55:19.999Z</time></trkpt><trkpt lat="37.61579845837639" lon="-4.3221559785878005"><ele>410.0</ele><time>2026-04-19T10:55:21.999Z</time></trkpt><trkpt lat="37.61582831173585" lon="-4.322047477329036"><ele>410.0</ele><time>2026-04-19T10:55:24.999Z</time></trkpt><trkpt lat="37.61585223189415" lon="-4.321952060211757"><ele>410.0</ele><time>2026-04-19T10:55:27.999Z</time></trkpt><trkpt lat="37.615875568076746" lon="-4.321864607415159"><ele>410.0</ele><time>2026-04-19T10:55:30.999Z</time></trkpt><trkpt lat="37.61591167530605" lon="-4.321777351308569"><ele>410.42857142857144</ele><time>2026-04-19T10:55:34.998Z</time></trkpt><trkpt lat="37.61593142004068" lon="-4.32168620654785"><ele>410.85714285714283</ele><time>2026-04-19T10:55:38.998Z</time></trkpt><trkpt lat="37.61594685930946" lon="-4.321608712004117"><ele>411.2857142857143</ele><time>2026-04-19T10:55:40.998Z</time></trkpt><trkpt lat="37.615974864916765" lon="-4.321509053133177"><ele>411.7142857142857</ele><time>2026-04-19T10:55:43.998Z</time></trkpt><trkpt lat="37.615991426778315" lon="-4.321425252639126"><ele>412.1428571428571</ele><time>2026-04-19T10:55:45.998Z</time></trkpt><trkpt lat="37.616011246766796" lon="-4.321341102459242"><ele>412.57142857142856</ele><time>2026-04-19T10:55:47.998Z</time></trkpt><trkpt lat="37.61604111082828" lon="-4.321261486863687"><ele>413.0</ele><time>2026-04-19T10:55:49.998Z</time></trkpt><trkpt lat="37.61607397815881" lon="-4.321179439104118"><ele>413.16666666666663</ele><time>2026-04-19T10:55:51.998Z</time></trkpt><trkpt lat="37.61610692397485" lon="-4.321096577939067"><ele>413.3333333333333</ele><time>2026-04-19T10:55:53.998Z</time></trkpt><trkpt lat="37.61613973096766" lon="-4.321006374160009"><ele>413.5</ele><time>2026-04-19T10:55:55.998Z</time></trkpt><trkpt lat="37.61618402373084" lon="-4.320916214944018"><ele>413.66666666666663</ele><time>2026-04-19T10:55:57.998Z</time></trkpt><trkpt lat="37.616222878531005" lon="-4.320833352142212"><ele>413.8333333333333</ele><time>2026-04-19T10:55:59.998Z</time></trkpt><trkpt lat="37.61626591415567" lon="-4.320754914436418"><ele>414.0</ele><time>2026-04-19T10:56:01.998Z</time></trkpt><trkpt lat="37.61630637279999" lon="-4.320679535495582"><ele>414.42857142857144</ele><time>2026-04-19T10:56:04Z</time></trkpt><trkpt lat="37.61635288355722" lon="-4.320613282996169"><ele>414.8571428571429</ele><time>2026-04-19T10:56:06Z</time></trkpt><trkpt lat="37.616395720267725" lon="-4.3205458585000045"><ele>415.28571428571433</ele><time>2026-04-19T10:56:08Z</time></trkpt><trkpt lat="37.61643950408274" lon="-4.320471284770849"><ele>415.7142857142857</ele><time>2026-04-19T10:56:10Z</time></trkpt><trkpt lat="37.6164858797961" lon="-4.320395321373464"><ele>416.1428571428571</ele><time>2026-04-19T10:56:12Z</time></trkpt><trkpt lat="37.616532463402415" lon="-4.320319042528004"><ele>416.5714285714286</ele><time>2026-04-19T10:56:14Z</time></trkpt><trkpt lat="37.616585894316216" lon="-4.32024973734838"><ele>417.0</ele><time>2026-04-19T10:56:16Z</time></trkpt><trkpt lat="37.6166294411928" lon="-4.320178015779043"><ele>417.0</ele><time>2026-04-19T10:56:18Z</time></trkpt><trkpt lat="37.61667395097123" lon="-4.32011051489363"><ele>417.0</ele><time>2026-04-19T10:56:20Z</time></trkpt><trkpt lat="37.616727003622344" lon="-4.320023908819925"><ele>417.0</ele><time>2026-04-19T10:56:23Z</time></trkpt><trkpt lat="37.61671496839142" lon="-4.319945429881029"><ele>417.0</ele><time>2026-04-19T10:56:28Z</time></trkpt><trkpt lat="37.61672381138035" lon="-4.320029831065557"><ele>417.0</ele><time>2026-04-19T10:57:13.999Z</time></trkpt><trkpt lat="37.61676990641274" lon="-4.3200864494439015"><ele>417.0</ele><time>2026-04-19T10:57:16.999Z</time></trkpt><trkpt lat="37.61679669154819" lon="-4.320166736339475"><ele>417.0</ele><time>2026-04-19T10:57:19.999Z</time></trkpt><trkpt lat="37.61682987202857" lon="-4.32023866780737"><ele>417.0</ele><time>2026-04-19T10:57:22.999Z</time></trkpt><trkpt lat="37.61687408373936" lon="-4.320323643455157"><ele>417.0</ele><time>2026-04-19T10:57:39.999Z</time></trkpt><trkpt lat="37.616923822258734" lon="-4.32038030161551"><ele>417.0</ele><time>2026-04-19T10:57:43.999Z</time></trkpt><trkpt lat="37.61697319934217" lon="-4.320434532106492"><ele>417.0</ele><time>2026-04-19T10:57:47.999Z</time></trkpt><trkpt lat="37.61699909362006" lon="-4.320512888884031"><ele>417.0</ele><time>2026-04-19T10:57:52.998Z</time></trkpt></trkseg></trk></gpx>